<?xml version='1.0' encoding='UTF-8'?><gpx version="1.1" creator="JPX - https://github.com/jenetics/jpx" xmlns="http://www.topografix.com/GPX/1/1"><trk><trkseg><trkpt lat="-37.539938900916795" lon="144.299979507571"><ele>625.0</ele><time>2026-03-21T22:18:24Z</time></trkpt><trkpt lat="-37.54003672259111" lon="144.30001807110003"><ele>625.0</ele><time>2026-03-21T22:18:26Z</time></trkpt><trkpt lat="-37.54013208140862" lon="144.29999840948182"><ele>625.0</ele><time>2026-03-21T22:18:28Z</time></trkpt><trkpt lat="-37.54021200975377" lon="144.29990244509113"><ele>625.0</ele><time>2026-03-21T22:18:30Z</time></trkpt><trkpt lat="-37.5402055799424" lon="144.2997449595659"><ele>625.0</ele><time>2026-03-21T22:18:32Z</time></trkpt><trkpt lat="-37.54017209245816" lon="144.29962391428248"><ele>625.1666666666667</ele><time>2026-03-21T22:18:34Z</time></trkpt><trkpt lat="-37.54014712337112" lon="144.29953164722582"><ele>625.3333333333334</ele><time>2026-03-21T22:18:36Z</time></trkpt><trkpt lat="-37.54015350355528" lon="144.29942720961435"><ele>625.5</ele><time>2026-03-21T22:18:38Z</time></trkpt><trkpt lat="-37.54018303222124" lon="144.2993307274387"><ele>625.6666666666666</ele><time>2026-03-21T22:18:39Z</time></trkpt><trkpt lat="-37.540214875466866" lon="144.29922395641842"><ele>625.8333333333333</ele><time>2026-03-21T22:18:40Z</time></trkpt><trkpt lat="-37.54025642960315" lon="144.299101591145"><ele>626.0</ele><time>2026-03-21T22:18:41Z</time></trkpt><trkpt lat="-37.540319540142704" lon="144.29894368143223"><ele>625.0</ele><time>2026-03-21T22:18:42Z</time></trkpt><trkpt lat="-37.540375788974636" lon="144.29880324591466"><ele>624.0</ele><time>2026-03-21T22:18:43Z</time></trkpt><trkpt lat="-37.54041834788777" lon="144.29865836307357"><ele>623.0</ele><time>2026-03-21T22:18:44Z</time></trkpt><trkpt lat="-37.54043697389084" lon="144.29853656063446"><ele>622.0</ele><time>2026-03-21T22:18:45Z</time></trkpt><trkpt lat="-37.54046937837845" lon="144.29846802641686"><ele>621.0</ele><time>2026-03-21T22:18:46Z</time></trkpt><trkpt lat="-37.5405311550521" lon="144.29843099513016"><ele>620.3333333333334</ele><time>2026-03-21T22:18:47Z</time></trkpt><trkpt lat="-37.54061283023305" lon="144.29839887152832"><ele>619.6666666666666</ele><time>2026-03-21T22:18:48Z</time></trkpt><trkpt lat="-37.54069077253279" lon="144.29833433347767"><ele>619.0</ele><time>2026-03-21T22:18:49Z</time></trkpt><trkpt lat="-37.54074728103852" lon="144.2982407011934"><ele>618.3333333333333</ele><time>2026-03-21T22:18:50Z</time></trkpt><trkpt lat="-37.540743229966786" lon="144.29815022979864"><ele>617.6666666666666</ele><time>2026-03-21T22:18:53Z</time></trkpt><trkpt lat="-37.5406962632853" lon="144.29807806565066"><ele>617.0</ele><time>2026-03-21T22:18:55Z</time></trkpt><trkpt lat="-37.540647362949585" lon="144.29801038917248"><ele>616.25</ele><time>2026-03-21T22:18:56Z</time></trkpt><trkpt lat="-37.5406064858966" lon="144.29789660903032"><ele>615.5</ele><time>2026-03-21T22:18:57Z</time></trkpt><trkpt lat="-37.540550262541345" lon="144.29774269074366"><ele>614.75</ele><time>2026-03-21T22:18:58Z</time></trkpt><trkpt lat="-37.54047299977743" lon="144.29756571437758"><ele>614.0</ele><time>2026-03-21T22:18:59Z</time></trkpt><trkpt lat="-37.54038557107645" lon="144.29742209676678"><ele>613.75</ele><time>2026-03-21T22:19:00Z</time></trkpt><trkpt lat="-37.54028539874318" lon="144.29726870776332"><ele>613.5</ele><time>2026-03-21T22:19:01Z</time></trkpt><trkpt lat="-37.54019822732805" lon="144.29730073419177"><ele>613.25</ele><time>2026-03-21T22:19:02Z</time></trkpt><trkpt lat="-37.54008801142609" lon="144.2972241926521"><ele>613.0</ele><time>2026-03-21T22:19:03Z</time></trkpt><trkpt lat="-37.53999386211977" lon="144.29712821497802"><ele>611.5</ele><time>2026-03-21T22:19:04Z</time></trkpt><trkpt lat="-37.53989557616107" lon="144.2970253396672"><ele>610.0</ele><time>2026-03-21T22:19:05Z</time></trkpt><trkpt lat="-37.53980827430958" lon="144.29693011820711"><ele>608.5</ele><time>2026-03-21T22:19:06Z</time></trkpt><trkpt lat="-37.53972107585043" lon="144.2968422495447"><ele>607.0</ele><time>2026-03-21T22:19:07Z</time></trkpt><trkpt lat="-37.53963534141508" lon="144.29676392136724"><ele>607.0</ele><time>2026-03-21T22:19:08Z</time></trkpt><trkpt lat="-37.539550652196034" lon="144.29668410153047"><ele>607.0</ele><time>2026-03-21T22:19:09Z</time></trkpt><trkpt lat="-37.53946984311254" lon="144.29661177009785"><ele>607.0</ele><time>2026-03-21T22:19:10Z</time></trkpt><trkpt lat="-37.53937511645213" lon="144.29656892561866"><ele>607.0</ele><time>2026-03-21T22:19:11Z</time></trkpt><trkpt lat="-37.53924566525846" lon="144.29654604364012"><ele>607.0</ele><time>2026-03-21T22:19:12Z</time></trkpt><trkpt lat="-37.5391240508736" lon="144.29651416876072"><ele>606.6</ele><time>2026-03-21T22:19:13Z</time></trkpt><trkpt lat="-37.539023343492616" lon="144.2964791551286"><ele>606.2</ele><time>2026-03-21T22:19:14Z</time></trkpt><trkpt lat="-37.5389409460077" lon="144.2964283725506"><ele>605.8</ele><time>2026-03-21T22:19:15Z</time></trkpt><trkpt lat="-37.538879958643214" lon="144.29635620947425"><ele>605.4</ele><time>2026-03-21T22:19:16Z</time></trkpt><trkpt lat="-37.53883621492255" lon="144.29625946493212"><ele>605.0</ele><time>2026-03-21T22:19:17Z</time></trkpt><trkpt lat="-37.53879053632443" lon="144.29612909434357"><ele>604.0</ele><time>2026-03-21T22:19:18Z</time></trkpt><trkpt lat="-37.5387449771923" lon="144.29600677973704"><ele>603.0</ele><time>2026-03-21T22:19:19Z</time></trkpt><trkpt lat="-37.53870732476799" lon="144.2958952556133"><ele>602.0</ele><time>2026-03-21T22:19:20Z</time></trkpt><trkpt lat="-37.53868189947077" lon="144.29578084403914"><ele>601.0</ele><time>2026-03-21T22:19:21Z</time></trkpt><trkpt lat="-37.538669194676714" lon="144.29564862604042"><ele>600.0</ele><time>2026-03-21T22:19:22Z</time></trkpt><trkpt lat="-37.538648151192746" lon="144.29556029625704"><ele>597.8</ele><time>2026-03-21T22:19:23Z</time></trkpt><trkpt lat="-37.53852022941931" lon="144.2954754658895"><ele>595.6</ele><time>2026-03-21T22:19:25Z</time></trkpt><trkpt lat="-37.538425525193716" lon="144.2954740511245"><ele>593.4</ele><time>2026-03-21T22:19:26Z</time></trkpt><trkpt lat="-37.53835886595966" lon="144.29541790505235"><ele>591.2</ele><time>2026-03-21T22:19:27Z</time></trkpt><trkpt lat="-37.53830549269854" lon="144.29533983137333"><ele>589.0</ele><time>2026-03-21T22:19:28Z</time></trkpt><trkpt lat="-37.53825917636755" lon="144.29522746545913"><ele>589.0</ele><time>2026-03-21T22:19:29Z</time></trkpt><trkpt lat="-37.53822285861658" lon="144.29509289878254"><ele>589.0</ele><time>2026-03-21T22:19:30Z</time></trkpt><trkpt lat="-37.53819499472948" lon="144.29491810471356"><ele>589.0</ele><time>2026-03-21T22:19:31Z</time></trkpt><trkpt lat="-37.53815173668177" lon="144.29471267332136"><ele>589.0</ele><time>2026-03-21T22:19:32Z</time></trkpt><trkpt lat="-37.53811545183692" lon="144.2944851895188"><ele>588.5</ele><time>2026-03-21T22:19:33Z</time></trkpt><trkpt lat="-37.53808773456971" lon="144.29430131023258"><ele>588.0</ele><time>2026-03-21T22:19:34Z</time></trkpt><trkpt lat="-37.53806989621507" lon="144.29414620262656"><ele>587.5</ele><time>2026-03-21T22:19:35Z</time></trkpt><trkpt lat="-37.53803990424317" lon="144.29399589203433"><ele>587.0</ele><time>2026-03-21T22:19:36Z</time></trkpt><trkpt lat="-37.53802424081468" lon="144.2938702624635"><ele>585.8000000000001</ele><time>2026-03-21T22:19:37Z</time></trkpt><trkpt lat="-37.538013064408084" lon="144.29373975813343"><ele>584.6</ele><time>2026-03-21T22:19:38Z</time></trkpt><trkpt lat="-37.53798513263725" lon="144.29363502144972"><ele>583.4000000000001</ele><time>2026-03-21T22:19:39Z</time></trkpt><trkpt lat="-37.5378845164244" lon="144.29355982280734"><ele>582.2</ele><time>2026-03-21T22:19:41Z</time></trkpt><trkpt lat="-37.53780571651216" lon="144.29355900325208"><ele>581.0</ele><time>2026-03-21T22:19:42Z</time></trkpt><trkpt lat="-37.537729740454" lon="144.29355020169154"><ele>581.0</ele><time>2026-03-21T22:19:43Z</time></trkpt><trkpt lat="-37.537651096558086" lon="144.2933874945867"><ele>581.0</ele><time>2026-03-21T22:19:45Z</time></trkpt><trkpt lat="-37.53760820426337" lon="144.29322766059218"><ele>581.0</ele><time>2026-03-21T22:19:46Z</time></trkpt><trkpt lat="-37.537571968259236" lon="144.2930788005686"><ele>581.0</ele><time>2026-03-21T22:19:47Z</time></trkpt><trkpt lat="-37.53754620013248" lon="144.2929105525322"><ele>580.5</ele><time>2026-03-21T22:19:48Z</time></trkpt><trkpt lat="-37.53752797946787" lon="144.29271793582203"><ele>580.0</ele><time>2026-03-21T22:19:49Z</time></trkpt><trkpt lat="-37.53749290077347" lon="144.29255018947276"><ele>579.5</ele><time>2026-03-21T22:19:50Z</time></trkpt><trkpt lat="-37.53746850542541" lon="144.2924445514763"><ele>579.0</ele><time>2026-03-21T22:19:51Z</time></trkpt><trkpt lat="-37.53742844981258" lon="144.29235056109755"><ele>578.25</ele><time>2026-03-21T22:19:52Z</time></trkpt><trkpt lat="-37.53737752663507" lon="144.29224156133867"><ele>577.5</ele><time>2026-03-21T22:19:53Z</time></trkpt><trkpt lat="-37.53726187502375" lon="144.29211625068262"><ele>576.75</ele><time>2026-03-21T22:19:54Z</time></trkpt><trkpt lat="-37.537183552243526" lon="144.2919802311495"><ele>576.0</ele><time>2026-03-21T22:19:55Z</time></trkpt><trkpt lat="-37.53709500724214" lon="144.2918311878484"><ele>575.75</ele><time>2026-03-21T22:19:56Z</time></trkpt><trkpt lat="-37.53699540138486" lon="144.29171909853264"><ele>575.5</ele><time>2026-03-21T22:19:57Z</time></trkpt><trkpt lat="-37.53688020520451" lon="144.291568679364"><ele>575.25</ele><time>2026-03-21T22:19:58Z</time></trkpt><trkpt lat="-37.53678193482216" lon="144.29143225290167"><ele>575.0</ele><time>2026-03-21T22:19:59Z</time></trkpt><trkpt lat="-37.53668345745472" lon="144.29130287768118"><ele>575.8</ele><time>2026-03-21T22:20:00Z</time></trkpt><trkpt lat="-37.53658442785931" lon="144.2911800127603"><ele>576.6</ele><time>2026-03-21T22:20:01Z</time></trkpt><trkpt lat="-37.536497108944246" lon="144.2910785457272"><ele>577.4</ele><time>2026-03-21T22:20:02Z</time></trkpt><trkpt lat="-37.536433034912484" lon="144.29100314294288"><ele>578.2</ele><time>2026-03-21T22:20:03Z</time></trkpt><trkpt lat="-37.53640369555163" lon="144.29093259028653"><ele>579.0</ele><time>2026-03-21T22:20:04Z</time></trkpt><trkpt lat="-37.536400220943555" lon="144.2908008939185"><ele>579.0</ele><time>2026-03-21T22:20:06Z</time></trkpt><trkpt lat="-37.53643028171269" lon="144.2906808478813"><ele>579.0</ele><time>2026-03-21T22:20:07Z</time></trkpt><trkpt lat="-37.53646753395309" lon="144.2905311163203"><ele>579.0</ele><time>2026-03-21T22:20:08Z</time></trkpt><trkpt lat="-37.53649084218474" lon="144.29039502448256"><ele>579.0</ele><time>2026-03-21T22:20:09Z</time></trkpt><trkpt lat="-37.53647724377751" lon="144.2903084328278"><ele>579.0</ele><time>2026-03-21T22:20:10Z</time></trkpt><trkpt lat="-37.536466772488254" lon="144.2901939272512"><ele>579.3333333333334</ele><time>2026-03-21T22:20:11Z</time></trkpt><trkpt lat="-37.53645876273965" lon="144.29007952681434"><ele>579.6666666666666</ele><time>2026-03-21T22:20:12Z</time></trkpt><trkpt lat="-37.536476190459446" lon="144.28995027496842"><ele>580.0</ele><time>2026-03-21T22:20:13Z</time></trkpt><trkpt lat="-37.53646899712706" lon="144.28981834212883"><ele>580.3333333333333</ele><time>2026-03-21T22:20:14Z</time></trkpt><trkpt lat="-37.53645201522719" lon="144.28973091797826"><ele>580.6666666666666</ele><time>2026-03-21T22:20:15Z</time></trkpt><trkpt lat="-37.53642029416202" lon="144.2896410610303"><ele>581.0</ele><time>2026-03-21T22:20:16Z</time></trkpt><trkpt lat="-37.536411758671285" lon="144.2895351686538"><ele>579.4</ele><time>2026-03-21T22:20:17Z</time></trkpt><trkpt lat="-37.536415317611805" lon="144.28940631293472"><ele>577.8</ele><time>2026-03-21T22:20:18Z</time></trkpt><trkpt lat="-37.536419980339474" lon="144.28931466179898"><ele>576.1999999999999</ele><time>2026-03-21T22:20:19Z</time></trkpt><trkpt lat="-37.53643517607095" lon="144.2891725803921"><ele>574.6</ele><time>2026-03-21T22:20:21Z</time></trkpt><trkpt lat="-37.53646557148831" lon="144.28905819803813"><ele>573.0</ele><time>2026-03-21T22:20:22Z</time></trkpt><trkpt lat="-37.536489553977255" lon="144.28896270035037"><ele>570.1999999999999</ele><time>2026-03-21T22:20:23Z</time></trkpt><trkpt lat="-37.53650261849072" lon="144.28879516707198"><ele>567.4</ele><time>2026-03-21T22:20:25Z</time></trkpt><trkpt lat="-37.536529567200276" lon="144.28867744278145"><ele>564.5999999999999</ele><time>2026-03-21T22:20:27Z</time></trkpt><trkpt lat="-37.53658535173581" lon="144.28856254456852"><ele>561.8</ele><time>2026-03-21T22:20:29Z</time></trkpt><trkpt lat="-37.53654517547675" lon="144.28847071090595"><ele>559.0</ele><time>2026-03-21T22:20:31Z</time></trkpt><trkpt lat="-37.53655988771238" lon="144.28832858913674"><ele>559.0</ele><time>2026-03-21T22:20:32Z</time></trkpt><trkpt lat="-37.536570860674466" lon="144.28818406304745"><ele>559.0</ele><time>2026-03-21T22:20:34Z</time></trkpt><trkpt lat="-37.536585941224516" lon="144.28805590796176"><ele>559.0</ele><time>2026-03-21T22:20:36Z</time></trkpt><trkpt lat="-37.53661658823585" lon="144.28798598291468"><ele>559.0</ele><time>2026-03-21T22:20:37Z</time></trkpt><trkpt lat="-37.53670337349567" lon="144.28788888875363"><ele>559.0</ele><time>2026-03-21T22:20:39Z</time></trkpt><trkpt lat="-37.536771022790504" lon="144.28778982769663"><ele>555.6</ele><time>2026-03-21T22:20:41Z</time></trkpt><trkpt lat="-37.53684713010358" lon="144.28770255024727"><ele>552.2</ele><time>2026-03-21T22:20:43Z</time></trkpt><trkpt lat="-37.536901403697804" lon="144.28763371865045"><ele>548.8000000000001</ele><time>2026-03-21T22:20:45Z</time></trkpt><trkpt lat="-37.536871616006195" lon="144.2875233860718"><ele>545.4</ele><time>2026-03-21T22:20:47Z</time></trkpt><trkpt lat="-37.53689323665516" lon="144.28740278704436"><ele>542.0</ele><time>2026-03-21T22:20:49Z</time></trkpt><trkpt lat="-37.53692817257213" lon="144.28728480303357"><ele>539.0</ele><time>2026-03-21T22:20:51Z</time></trkpt><trkpt lat="-37.53692271651393" lon="144.28718117371545"><ele>536.0</ele><time>2026-03-21T22:20:53Z</time></trkpt><trkpt lat="-37.5368657845005" lon="144.28714353780273"><ele>533.0</ele><time>2026-03-21T22:20:55Z</time></trkpt><trkpt lat="-37.53678137627804" lon="144.28708242342555"><ele>530.0</ele><time>2026-03-21T22:20:59Z</time></trkpt><trkpt lat="-37.53671663360256" lon="144.28706881334395"><ele>527.0</ele><time>2026-03-21T22:21:00Z</time></trkpt><trkpt lat="-37.53661698122175" lon="144.28707631121978"><ele>524.0</ele><time>2026-03-21T22:21:02Z</time></trkpt><trkpt lat="-37.53656502128477" lon="144.28713069277273"><ele>524.0</ele><time>2026-03-21T22:21:04Z</time></trkpt><trkpt lat="-37.53652708410201" lon="144.28719942442697"><ele>524.0</ele><time>2026-03-21T22:21:05Z</time></trkpt><trkpt lat="-37.53644083384268" lon="144.2872028628165"><ele>524.0</ele><time>2026-03-21T22:21:08Z</time></trkpt><trkpt lat="-37.53632491837297" lon="144.28719914836634"><ele>524.0</ele><time>2026-03-21T22:21:11Z</time></trkpt><trkpt lat="-37.53624706284432" lon="144.2871680298625"><ele>524.0</ele><time>2026-03-21T22:21:12Z</time></trkpt><trkpt lat="-37.536173380061825" lon="144.28713671263415"><ele>524.0</ele><time>2026-03-21T22:21:13Z</time></trkpt><trkpt lat="-37.536114454409365" lon="144.28709817435168"><ele>523.2</ele><time>2026-03-21T22:21:14Z</time></trkpt><trkpt lat="-37.536038008358375" lon="144.28703719190338"><ele>522.4</ele><time>2026-03-21T22:21:16Z</time></trkpt><trkpt lat="-37.53591151365437" lon="144.28706987451358"><ele>521.6</ele><time>2026-03-21T22:21:18Z</time></trkpt><trkpt lat="-37.53584595312613" lon="144.28709559078914"><ele>520.8</ele><time>2026-03-21T22:21:19Z</time></trkpt><trkpt lat="-37.53574939213002" lon="144.28711015097383"><ele>520.0</ele><time>2026-03-21T22:21:21Z</time></trkpt><trkpt lat="-37.53570092446007" lon="144.28717071379705"><ele>522.6666666666667</ele><time>2026-03-21T22:21:23Z</time></trkpt><trkpt lat="-37.535724847762445" lon="144.2872635924304"><ele>525.3333333333334</ele><time>2026-03-21T22:21:25Z</time></trkpt><trkpt lat="-37.535762533386006" lon="144.28742394979596"><ele>528.0</ele><time>2026-03-21T22:21:27Z</time></trkpt><trkpt lat="-37.53576223280567" lon="144.28751858933393"><ele>530.6666666666666</ele><time>2026-03-21T22:21:28Z</time></trkpt><trkpt lat="-37.53576304277341" lon="144.28761338406846"><ele>533.3333333333333</ele><time>2026-03-21T22:21:29Z</time></trkpt><trkpt lat="-37.535727765908895" lon="144.28769220397422"><ele>536.0</ele><time>2026-03-21T22:21:32Z</time></trkpt><trkpt lat="-37.535718145316146" lon="144.28778042654693"><ele>536.0</ele><time>2026-03-21T22:21:34Z</time></trkpt><trkpt lat="-37.53571777590512" lon="144.28786705423047"><ele>536.0</ele><time>2026-03-21T22:21:35Z</time></trkpt><trkpt lat="-37.53569387137278" lon="144.28794876901594"><ele>536.0</ele><time>2026-03-21T22:21:36Z</time></trkpt><trkpt lat="-37.53569042927814" lon="144.28808740162685"><ele>536.0</ele><time>2026-03-21T22:21:38Z</time></trkpt><trkpt lat="-37.53559214725222" lon="144.28811828213645"><ele>536.0</ele><time>2026-03-21T22:21:40Z</time></trkpt><trkpt lat="-37.53552981803243" lon="144.28810340168135"><ele>536.0</ele><time>2026-03-21T22:21:41Z</time></trkpt><trkpt lat="-37.53545375151584" lon="144.28811447675423"><ele>536.0</ele><time>2026-03-21T22:21:42Z</time></trkpt><trkpt lat="-37.535382115466106" lon="144.28813008704847"><ele>536.0</ele><time>2026-03-21T22:21:43Z</time></trkpt><trkpt lat="-37.53542548972481" lon="144.28801460048086"><ele>536.0</ele><time>2026-03-21T22:21:44Z</time></trkpt><trkpt lat="-37.53533941774655" lon="144.28797272788515"><ele>536.0</ele><time>2026-03-21T22:21:46Z</time></trkpt><trkpt lat="-37.53527112817895" lon="144.28792003363"><ele>536.0</ele><time>2026-03-21T22:21:48Z</time></trkpt><trkpt lat="-37.535236481241576" lon="144.28781071797144"><ele>536.0</ele><time>2026-03-21T22:21:50Z</time></trkpt><trkpt lat="-37.53519942169453" lon="144.28770793236674"><ele>534.3333333333333</ele><time>2026-03-21T22:21:52Z</time></trkpt><trkpt lat="-37.53516265328336" lon="144.2876099474527"><ele>532.6666666666666</ele><time>2026-03-21T22:21:54Z</time></trkpt><trkpt lat="-37.53511511758825" lon="144.28753793238255"><ele>531.0</ele><time>2026-03-21T22:21:57Z</time></trkpt><trkpt lat="-37.53510513510192" lon="144.28745655607017"><ele>529.3333333333334</ele><time>2026-03-21T22:21:59Z</time></trkpt><trkpt lat="-37.535076673494366" lon="144.28733734339232"><ele>527.6666666666667</ele><time>2026-03-21T22:22:03Z</time></trkpt><trkpt lat="-37.53511259918543" lon="144.28721702649912"><ele>526.0</ele><time>2026-03-21T22:22:06Z</time></trkpt><trkpt lat="-37.535117119804326" lon="144.2871176603911"><ele>523.6666666666667</ele><time>2026-03-21T22:22:09Z</time></trkpt><trkpt lat="-37.535115419145626" lon="144.2870271484122"><ele>521.3333333333334</ele><time>2026-03-21T22:22:12Z</time></trkpt><trkpt lat="-37.53512006584454" lon="144.28691983637532"><ele>519.0</ele><time>2026-03-21T22:22:15Z</time></trkpt><trkpt lat="-37.53512113716919" lon="144.2868222720705"><ele>516.6666666666666</ele><time>2026-03-21T22:22:17Z</time></trkpt><trkpt lat="-37.53512103931022" lon="144.2867088740944"><ele>514.3333333333333</ele><time>2026-03-21T22:22:19Z</time></trkpt><trkpt lat="-37.53513903738671" lon="144.28662950641692"><ele>512.0</ele><time>2026-03-21T22:22:20Z</time></trkpt><trkpt lat="-37.535147990601914" lon="144.28653443073168"><ele>511.99999999999994</ele><time>2026-03-21T22:22:22Z</time></trkpt><trkpt lat="-37.535084736555056" lon="144.28652296716388"><ele>512.0</ele><time>2026-03-21T22:22:27Z</time></trkpt><trkpt lat="-37.53500658314222" lon="144.28647163797615"><ele>512.0</ele><time>2026-03-21T22:22:29Z</time></trkpt><trkpt lat="-37.53491259945999" lon="144.28645312377455"><ele>512.0</ele><time>2026-03-21T22:22:32Z</time></trkpt><trkpt lat="-37.53483719755558" lon="144.2864986913928"><ele>511.99999999999994</ele><time>2026-03-21T22:22:35Z</time></trkpt><trkpt lat="-37.534750756794324" lon="144.28653539692843"><ele>512.0</ele><time>2026-03-21T22:22:37Z</time></trkpt><trkpt lat="-37.53470745330414" lon="144.28663201379527"><ele>511.99999999999994</ele><time>2026-03-21T22:22:40Z</time></trkpt><trkpt lat="-37.53462709121791" lon="144.28670543667795"><ele>512.0</ele><time>2026-03-21T22:22:42Z</time></trkpt><trkpt lat="-37.53456286353588" lon="144.2867451170309"><ele>512.0</ele><time>2026-03-21T22:25:03Z</time></trkpt><trkpt lat="-37.534485185687934" lon="144.2867208869611"><ele>512.0</ele><time>2026-03-21T22:25:05Z</time></trkpt><trkpt lat="-37.53439729363961" lon="144.28673462217293"><ele>511.99999999999994</ele><time>2026-03-21T22:25:08Z</time></trkpt><trkpt lat="-37.53433331985789" lon="144.28672606354323"><ele>512.0</ele><time>2026-03-21T22:25:12Z</time></trkpt><trkpt lat="-37.53429129182274" lon="144.28666558427784"><ele>512.7142857142857</ele><time>2026-03-21T22:25:13Z</time></trkpt><trkpt lat="-37.53427163299571" lon="144.2865769820526"><ele>513.4285714285713</ele><time>2026-03-21T22:25:17Z</time></trkpt><trkpt lat="-37.534267598584776" lon="144.2864772275636"><ele>514.1428571428571</ele><time>2026-03-21T22:25:19Z</time></trkpt><trkpt lat="-37.534249852161864" lon="144.28640038894287"><ele>514.8571428571429</ele><time>2026-03-21T22:25:21Z</time></trkpt><trkpt lat="-37.53423293809416" lon="144.28631797547766"><ele>515.5714285714287</ele><time>2026-03-21T22:25:23Z</time></trkpt><trkpt lat="-37.534223971343614" lon="144.28619949647418"><ele>516.2857142857143</ele><time>2026-03-21T22:25:25Z</time></trkpt><trkpt lat="-37.534235290378255" lon="144.28611873367467"><ele>517.0</ele><time>2026-03-21T22:25:27Z</time></trkpt><trkpt lat="-37.534219747390345" lon="144.28600391891462"><ele>519.8333333333334</ele><time>2026-03-21T22:25:29Z</time></trkpt><trkpt lat="-37.53415334295522" lon="144.28595267612437"><ele>522.6666666666667</ele><time>2026-03-21T22:25:31Z</time></trkpt><trkpt lat="-37.53405214180775" lon="144.28587031678774"><ele>525.5</ele><time>2026-03-21T22:25:33Z</time></trkpt><trkpt lat="-37.533990135376285" lon="144.28581949984095"><ele>528.3333333333334</ele><time>2026-03-21T22:25:34Z</time></trkpt><trkpt lat="-37.53390365080904" lon="144.28577484475872"><ele>531.1666666666666</ele><time>2026-03-21T22:25:36Z</time></trkpt><trkpt lat="-37.53384600672559" lon="144.28574166997365"><ele>534.0</ele><time>2026-03-21T22:25:37Z</time></trkpt><trkpt lat="-37.533770788348725" lon="144.28572586035725"><ele>535.0</ele><time>2026-03-21T22:25:39Z</time></trkpt><trkpt lat="-37.53369653474905" lon="144.28573054808405"><ele>536.0</ele><time>2026-03-21T22:26:03Z</time></trkpt><trkpt lat="-37.53362555581326" lon="144.28578525974706"><ele>537.0</ele><time>2026-03-21T22:26:06Z</time></trkpt><trkpt lat="-37.533570639791215" lon="144.28583148276377"><ele>538.0</ele><time>2026-03-21T22:26:09Z</time></trkpt><trkpt lat="-37.53350330186041" lon="144.2858677976671"><ele>539.0</ele><time>2026-03-21T22:30:03Z</time></trkpt><trkpt lat="-37.533442010586725" lon="144.2858205539225"><ele>540.0</ele><time>2026-03-21T22:30:06Z</time></trkpt><trkpt lat="-37.53342500052681" lon="144.28568919378938"><ele>543.6</ele><time>2026-03-21T22:30:09Z</time></trkpt><trkpt lat="-37.53336435674079" lon="144.2855679224262"><ele>547.2</ele><time>2026-03-21T22:30:11Z</time></trkpt><trkpt lat="-37.53334650086268" lon="144.2854686762239"><ele>550.8</ele><time>2026-03-21T22:30:13Z</time></trkpt><trkpt lat="-37.533339872725975" lon="144.285349032879"><ele>554.4</ele><time>2026-03-21T22:30:15Z</time></trkpt><trkpt lat="-37.53330705897943" lon="144.2852556836088"><ele>558.0</ele><time>2026-03-21T22:30:17Z</time></trkpt><trkpt lat="-37.53326247931661" lon="144.28514528025622"><ele>558.0</ele><time>2026-03-21T22:30:19Z</time></trkpt><trkpt lat="-37.533234740532336" lon="144.28506783970315"><ele>558.0</ele><time>2026-03-21T22:30:21Z</time></trkpt><trkpt lat="-37.533246366070465" lon="144.28497740382727"><ele>558.0</ele><time>2026-03-21T22:30:23Z</time></trkpt><trkpt lat="-37.53328759318757" lon="144.28504384862183"><ele>558.0</ele><time>2026-03-21T22:30:34Z</time></trkpt><trkpt lat="-37.533228971874" lon="144.28507702772907"><ele>558.0</ele><time>2026-03-21T22:30:36Z</time></trkpt><trkpt lat="-37.53315481701884" lon="144.28502471876575"><ele>558.0</ele><time>2026-03-21T22:30:40Z</time></trkpt><trkpt lat="-37.53314742608" lon="144.28489558502875"><ele>558.0</ele><time>2026-03-21T22:30:42Z</time></trkpt><trkpt lat="-37.53312755317885" lon="144.28481785930558"><ele>558.0</ele><time>2026-03-21T22:30:44Z</time></trkpt><trkpt lat="-37.53316928216207" lon="144.28475495970864"><ele>558.0</ele><time>2026-03-21T22:30:48Z</time></trkpt><trkpt lat="-37.53314785126872" lon="144.2846457942104"><ele>558.0</ele><time>2026-03-21T22:30:50Z</time></trkpt><trkpt lat="-37.53312131293284" lon="144.28456259921376"><ele>558.0</ele><time>2026-03-21T22:30:51Z</time></trkpt><trkpt lat="-37.533063276493834" lon="144.28444494972211"><ele>558.0</ele><time>2026-03-21T22:30:53Z</time></trkpt><trkpt lat="-37.53303250815672" lon="144.28435782393697"><ele>561.4</ele><time>2026-03-21T22:30:55Z</time></trkpt><trkpt lat="-37.53302939232884" lon="144.28426554135643"><ele>564.8</ele><time>2026-03-21T22:30:57Z</time></trkpt><trkpt lat="-37.53297375213746" lon="144.28419411298415"><ele>568.2</ele><time>2026-03-21T22:30:59Z</time></trkpt><trkpt lat="-37.53293648073449" lon="144.28408609980193"><ele>571.6</ele><time>2026-03-21T22:31:01Z</time></trkpt><trkpt lat="-37.532901718454085" lon="144.28391746388775"><ele>575.0</ele><time>2026-03-21T22:31:04Z</time></trkpt><trkpt lat="-37.53282419771327" lon="144.28384223734983"><ele>578.1666666666666</ele><time>2026-03-21T22:31:06Z</time></trkpt><trkpt lat="-37.532787979946875" lon="144.28376907457135"><ele>581.3333333333333</ele><time>2026-03-21T22:31:08Z</time></trkpt><trkpt lat="-37.532780542440996" lon="144.28363615513572"><ele>584.5</ele><time>2026-03-21T22:31:10Z</time></trkpt><trkpt lat="-37.532762791643364" lon="144.28353057998126"><ele>587.6666666666666</ele><time>2026-03-21T22:31:12Z</time></trkpt><trkpt lat="-37.53272130562772" lon="144.283459511398"><ele>590.8333333333334</ele><time>2026-03-21T22:31:15Z</time></trkpt><trkpt lat="-37.532659041478844" lon="144.28339967399899"><ele>594.0</ele><time>2026-03-21T22:31:20Z</time></trkpt><trkpt lat="-37.532662954428545" lon="144.2832760901534"><ele>594.0</ele><time>2026-03-21T22:31:23Z</time></trkpt><trkpt lat="-37.532688254621846" lon="144.2831338916795"><ele>594.0</ele><time>2026-03-21T22:31:25Z</time></trkpt><trkpt lat="-37.53271241658942" lon="144.28305376248298"><ele>594.0</ele><time>2026-03-21T22:31:26Z</time></trkpt><trkpt lat="-37.53275003881019" lon="144.2829711133316"><ele>594.0</ele><time>2026-03-21T22:31:27Z</time></trkpt><trkpt lat="-37.53275733841543" lon="144.28287788544043"><ele>594.0</ele><time>2026-03-21T22:31:28Z</time></trkpt><trkpt lat="-37.5327385059304" lon="144.28278910759252"><ele>594.0</ele><time>2026-03-21T22:31:29Z</time></trkpt><trkpt lat="-37.53270685337324" lon="144.2827135714458"><ele>595.8333333333334</ele><time>2026-03-21T22:31:30Z</time></trkpt><trkpt lat="-37.53270792260684" lon="144.28258701105267"><ele>597.6666666666666</ele><time>2026-03-21T22:31:32Z</time></trkpt><trkpt lat="-37.53275382602774" lon="144.28251235353986"><ele>599.5</ele><time>2026-03-21T22:31:33Z</time></trkpt><trkpt lat="-37.53269945038675" lon="144.28242783473598"><ele>601.3333333333333</ele><time>2026-03-21T22:31:36Z</time></trkpt><trkpt lat="-37.532655057145675" lon="144.28235726123674"><ele>603.1666666666666</ele><time>2026-03-21T22:31:38Z</time></trkpt><trkpt lat="-37.53269415062644" lon="144.28223654345098"><ele>605.0</ele><time>2026-03-21T22:31:40Z</time></trkpt><trkpt lat="-37.532735656883595" lon="144.2821549808625"><ele>606.6666666666666</ele><time>2026-03-21T22:31:41Z</time></trkpt><trkpt lat="-37.53276366620922" lon="144.2820831706843"><ele>608.3333333333333</ele><time>2026-03-21T22:31:42Z</time></trkpt><trkpt lat="-37.5327587993554" lon="144.28197102130324"><ele>610.0</ele><time>2026-03-21T22:31:44Z</time></trkpt><trkpt lat="-37.53280590903773" lon="144.28189575532727"><ele>611.6666666666666</ele><time>2026-03-21T22:31:46Z</time></trkpt><trkpt lat="-37.53283870782966" lon="144.28177460499552"><ele>613.3333333333334</ele><time>2026-03-21T22:31:48Z</time></trkpt><trkpt lat="-37.532828617113225" lon="144.28168894968496"><ele>615.0</ele><time>2026-03-21T22:31:55Z</time></trkpt><trkpt lat="-37.53284049843759" lon="144.2815171962932"><ele>616.0</ele><time>2026-03-21T22:31:57Z</time></trkpt><trkpt lat="-37.53285564914665" lon="144.28138645935312"><ele>617.0</ele><time>2026-03-21T22:31:58Z</time></trkpt><trkpt lat="-37.532875590423345" lon="144.28123799248635"><ele>618.0</ele><time>2026-03-21T22:31:59Z</time></trkpt><trkpt lat="-37.532899876474545" lon="144.2810881646414"><ele>619.0</ele><time>2026-03-21T22:32:00Z</time></trkpt><trkpt lat="-37.53291711903215" lon="144.28099026944034"><ele>620.0</ele><time>2026-03-21T22:32:01Z</time></trkpt><trkpt lat="-37.53292414044603" lon="144.28090106948093"><ele>621.5</ele><time>2026-03-21T22:32:02Z</time></trkpt><trkpt lat="-37.53292551174582" lon="144.28081564104463"><ele>623.0</ele><time>2026-03-21T22:32:03Z</time></trkpt><trkpt lat="-37.5330546803086" lon="144.28066133913936"><ele>624.5</ele><time>2026-03-21T22:32:04Z</time></trkpt><trkpt lat="-37.5331007053821" lon="144.280542559336"><ele>626.0</ele><time>2026-03-21T22:32:05Z</time></trkpt><trkpt lat="-37.533141933094115" lon="144.28042284322223"><ele>628.4</ele><time>2026-03-21T22:32:06Z</time></trkpt><trkpt lat="-37.53318970721196" lon="144.28030284446857"><ele>630.8</ele><time>2026-03-21T22:32:07Z</time></trkpt><trkpt lat="-37.533237440647135" lon="144.28017902285455"><ele>633.1999999999999</ele><time>2026-03-21T22:32:08Z</time></trkpt><trkpt lat="-37.53326952261614" lon="144.28007037397066"><ele>635.6</ele><time>2026-03-21T22:32:09Z</time></trkpt><trkpt lat="-37.53329082751184" lon="144.2799791610034"><ele>638.0</ele><time>2026-03-21T22:32:10Z</time></trkpt><trkpt lat="-37.53337666206561" lon="144.27985985226513"><ele>638.0</ele><time>2026-03-21T22:32:12Z</time></trkpt><trkpt lat="-37.533438071294285" lon="144.2797873430443"><ele>638.0</ele><time>2026-03-21T22:32:13Z</time></trkpt><trkpt lat="-37.5335035608286" lon="144.27969813701955"><ele>638.0</ele><time>2026-03-21T22:32:14Z</time></trkpt><trkpt lat="-37.533532029238614" lon="144.27960303082142"><ele>638.0</ele><time>2026-03-21T22:32:16Z</time></trkpt><trkpt lat="-37.533410890926376" lon="144.27955628565297"><ele>638.0</ele><time>2026-03-21T22:32:18Z</time></trkpt><trkpt lat="-37.53333815711651" lon="144.27950530853047"><ele>638.8</ele><time>2026-03-21T22:32:19Z</time></trkpt><trkpt lat="-37.53329965368757" lon="144.27941469185265"><ele>639.5999999999999</ele><time>2026-03-21T22:32:29Z</time></trkpt><trkpt lat="-37.53329631889171" lon="144.27932400335717"><ele>640.4000000000001</ele><time>2026-03-21T22:32:30Z</time></trkpt><trkpt lat="-37.53327406334951" lon="144.27920485702313"><ele>641.2</ele><time>2026-03-21T22:32:31Z</time></trkpt><trkpt lat="-37.533260126455914" lon="144.27907075846153"><ele>642.0</ele><time>2026-03-21T22:32:32Z</time></trkpt><trkpt lat="-37.5332515599807" lon="144.27894412236137"><ele>641.3333333333334</ele><time>2026-03-21T22:32:33Z</time></trkpt><trkpt lat="-37.53323828658301" lon="144.27886072745068"><ele>640.6666666666666</ele><time>2026-03-21T22:32:34Z</time></trkpt><trkpt lat="-37.53322485969735" lon="144.27873303580458"><ele>640.0</ele><time>2026-03-21T22:32:36Z</time></trkpt><trkpt lat="-37.53323638854921" lon="144.27864816700114"><ele>639.3333333333333</ele><time>2026-03-21T22:32:38Z</time></trkpt><trkpt lat="-37.533261337010025" lon="144.27855260732724"><ele>638.6666666666666</ele><time>2026-03-21T22:32:41Z</time></trkpt><trkpt lat="-37.53317699911085" lon="144.27847712392793"><ele>638.0</ele><time>2026-03-21T22:32:44Z</time></trkpt><trkpt lat="-37.533119978638986" lon="144.27840635438343"><ele>638.0</ele><time>2026-03-21T22:33:25.001Z</time></trkpt><trkpt lat="-37.53310053852172" lon="144.2783280738443"><ele>638.0</ele><time>2026-03-21T22:33:27.001Z</time></trkpt><trkpt lat="-37.53310390837363" lon="144.27822475754988"><ele>638.0</ele><time>2026-03-21T22:33:30.001Z</time></trkpt><trkpt lat="-37.53304728796435" lon="144.2781798091561"><ele>638.0</ele><time>2026-03-21T22:33:32.001Z</time></trkpt><trkpt lat="-37.53301579589965" lon="144.27805250144078"><ele>638.0</ele><time>2026-03-21T22:33:34.001Z</time></trkpt><trkpt lat="-37.533005195374244" lon="144.277974151611"><ele>638.0</ele><time>2026-03-21T22:33:35.001Z</time></trkpt><trkpt lat="-37.53299576145483" lon="144.27786486467977"><ele>637.0</ele><time>2026-03-21T22:33:36.001Z</time></trkpt><trkpt lat="-37.53297135346959" lon="144.27774206520377"><ele>636.0</ele><time>2026-03-21T22:33:37.001Z</time></trkpt><trkpt lat="-37.53297474597695" lon="144.27765683007254"><ele>635.0</ele><time>2026-03-21T22:33:38.001Z</time></trkpt><trkpt lat="-37.53298153475784" lon="144.27757394294105"><ele>634.0</ele><time>2026-03-21T22:33:39.001Z</time></trkpt><trkpt lat="-37.53298562675978" lon="144.27748337330826"><ele>633.0</ele><time>2026-03-21T22:33:40.001Z</time></trkpt><trkpt lat="-37.53295845679729" lon="144.27739565969762"><ele>632.0</ele><time>2026-03-21T22:33:41.001Z</time></trkpt><trkpt lat="-37.532906642003304" lon="144.27731278964862"><ele>632.1666666666666</ele><time>2026-03-21T22:33:42.001Z</time></trkpt><trkpt lat="-37.53287196474896" lon="144.2772169896531"><ele>632.3333333333333</ele><time>2026-03-21T22:33:43.001Z</time></trkpt><trkpt lat="-37.532836770739664" lon="144.27712639558206"><ele>632.5</ele><time>2026-03-21T22:33:44.001Z</time></trkpt><trkpt lat="-37.532760298531315" lon="144.27701647540675"><ele>632.6666666666666</ele><time>2026-03-21T22:33:47.001Z</time></trkpt><trkpt lat="-37.53269713036684" lon="144.2769920537378"><ele>632.8333333333334</ele><time>2026-03-21T22:33:48.001Z</time></trkpt><trkpt lat="-37.53259551014396" lon="144.27697536311453"><ele>633.0</ele><time>2026-03-21T22:33:49.001Z</time></trkpt><trkpt lat="-37.53250634692365" lon="144.2769348743503"><ele>633.0</ele><time>2026-03-21T22:33:50.001Z</time></trkpt><trkpt lat="-37.53241180836262" lon="144.27684906328867"><ele>633.0</ele><time>2026-03-21T22:33:51.001Z</time></trkpt><trkpt lat="-37.53229110886243" lon="144.27679984346545"><ele>633.0</ele><time>2026-03-21T22:33:52.001Z</time></trkpt><trkpt lat="-37.53220998192862" lon="144.27677421819882"><ele>633.0</ele><time>2026-03-21T22:33:53.001Z</time></trkpt><trkpt lat="-37.53208777674035" lon="144.27667469506585"><ele>632.4</ele><time>2026-03-21T22:33:56.001Z</time></trkpt><trkpt lat="-37.532022757126235" lon="144.2766685048298"><ele>631.8</ele><time>2026-03-21T22:33:58.001Z</time></trkpt><trkpt lat="-37.53199411732094" lon="144.27658784951845"><ele>631.2</ele><time>2026-03-21T22:34:05Z</time></trkpt><trkpt lat="-37.531874041904544" lon="144.2765176558581"><ele>630.6</ele><time>2026-03-21T22:34:07Z</time></trkpt><trkpt lat="-37.531775175455195" lon="144.2764682105141"><ele>630.0</ele><time>2026-03-21T22:34:08Z</time></trkpt><trkpt lat="-37.53166035661969" lon="144.2763822671632"><ele>631.6666666666666</ele><time>2026-03-21T22:34:09Z</time></trkpt><trkpt lat="-37.53159683322589" lon="144.27632021119916"><ele>633.3333333333334</ele><time>2026-03-21T22:34:10Z</time></trkpt><trkpt lat="-37.531478622330084" lon="144.2763762630735"><ele>635.0</ele><time>2026-03-21T22:34:12Z</time></trkpt><trkpt lat="-37.53140324245642" lon="144.2763547675105"><ele>636.6666666666667</ele><time>2026-03-21T22:34:13Z</time></trkpt><trkpt lat="-37.53135323988934" lon="144.2762847267016"><ele>638.3333333333334</ele><time>2026-03-21T22:34:14Z</time></trkpt><trkpt lat="-37.531295016911514" lon="144.27621747949422"><ele>640.0</ele><time>2026-03-21T22:34:15Z</time></trkpt><trkpt lat="-37.53118415521025" lon="144.27626297382335"><ele>640.0</ele><time>2026-03-21T22:34:17Z</time></trkpt><trkpt lat="-37.531134843221665" lon="144.27633081799365"><ele>640.0</ele><time>2026-03-21T22:34:18Z</time></trkpt><trkpt lat="-37.53103323810525" lon="144.27638522839186"><ele>640.0</ele><time>2026-03-21T22:34:20Z</time></trkpt><trkpt lat="-37.53091363950773" lon="144.27640509869008"><ele>640.0</ele><time>2026-03-21T22:34:22Z</time></trkpt><trkpt lat="-37.53081713852179" lon="144.2763974382664"><ele>640.0</ele><time>2026-03-21T22:34:24Z</time></trkpt><trkpt lat="-37.53076138870631" lon="144.2764712144962"><ele>637.3333333333334</ele><time>2026-03-21T22:34:27Z</time></trkpt><trkpt lat="-37.530710544473976" lon="144.27654344407293"><ele>634.6666666666667</ele><time>2026-03-21T22:34:30Z</time></trkpt><trkpt lat="-37.53065128588418" lon="144.27657741735047"><ele>632.0</ele><time>2026-03-21T22:34:33Z</time></trkpt><trkpt lat="-37.53056368770085" lon="144.2765417063784"><ele>629.3333333333334</ele><time>2026-03-21T22:34:36Z</time></trkpt><trkpt lat="-37.530478051131176" lon="144.27650171930435"><ele>626.6666666666666</ele><time>2026-03-21T22:34:38Z</time></trkpt><trkpt lat="-37.5303775791483" lon="144.27648818535786"><ele>624.0</ele><time>2026-03-21T22:34:40Z</time></trkpt><trkpt lat="-37.53028518676503" lon="144.2764448005772"><ele>623.8333333333334</ele><time>2026-03-21T22:34:42Z</time></trkpt><trkpt lat="-37.53021477172165" lon="144.2764346062923"><ele>623.6666666666666</ele><time>2026-03-21T22:34:51Z</time></trkpt><trkpt lat="-37.53016958313181" lon="144.2763749104272"><ele>623.5</ele><time>2026-03-21T22:34:53Z</time></trkpt><trkpt lat="-37.530097634422695" lon="144.2763635371147"><ele>623.3333333333333</ele><time>2026-03-21T22:34:57Z</time></trkpt><trkpt lat="-37.5299781152328" lon="144.27637952068565"><ele>623.1666666666666</ele><time>2026-03-21T22:35:00Z</time></trkpt><trkpt lat="-37.529883531820836" lon="144.2764265647565"><ele>623.0</ele><time>2026-03-21T22:35:02Z</time></trkpt><trkpt lat="-37.52983197537106" lon="144.2764915128632"><ele>623.0</ele><time>2026-03-21T22:35:05Z</time></trkpt><trkpt lat="-37.529748885188745" lon="144.27645026782972"><ele>623.0</ele><time>2026-03-21T22:35:07Z</time></trkpt><trkpt lat="-37.52965937574445" lon="144.27640785516348"><ele>623.0</ele><time>2026-03-21T22:35:10Z</time></trkpt><trkpt lat="-37.52959535535796" lon="144.2763942130232"><ele>623.0</ele><time>2026-03-21T22:35:12Z</time></trkpt><trkpt lat="-37.52955681666738" lon="144.27647396670156"><ele>623.0</ele><time>2026-03-21T22:35:24Z</time></trkpt><trkpt lat="-37.529486612873924" lon="144.27647048630064"><ele>623.0</ele><time>2026-03-21T22:35:27Z</time></trkpt><trkpt lat="-37.5294014083164" lon="144.27645364631414"><ele>624.5</ele><time>2026-03-21T22:35:29Z</time></trkpt><trkpt lat="-37.52934505773042" lon="144.2765344068589"><ele>626.0</ele><time>2026-03-21T22:35:31Z</time></trkpt><trkpt lat="-37.52926823169653" lon="144.27661059145578"><ele>627.5</ele><time>2026-03-21T22:36:59Z</time></trkpt><trkpt lat="-37.52921135325948" lon="144.27665044009055"><ele>629.0</ele><time>2026-03-21T22:37:02Z</time></trkpt><trkpt lat="-37.52913292914145" lon="144.27663970694869"><ele>630.5</ele><time>2026-03-21T22:37:09Z</time></trkpt><trkpt lat="-37.529069605777934" lon="144.27658393393006"><ele>632.0</ele><time>2026-03-21T22:37:11Z</time></trkpt><trkpt lat="-37.52895956127042" lon="144.27653447238586"><ele>633.0</ele><time>2026-03-21T22:37:13Z</time></trkpt><trkpt lat="-37.52886580096849" lon="144.27642193170146"><ele>634.0</ele><time>2026-03-21T22:37:14Z</time></trkpt><trkpt lat="-37.52878931877548" lon="144.2763316362603"><ele>635.0</ele><time>2026-03-21T22:37:15Z</time></trkpt><trkpt lat="-37.52871644855597" lon="144.27627289478343"><ele>636.0</ele><time>2026-03-21T22:37:16Z</time></trkpt><trkpt lat="-37.528642564828345" lon="144.27623019640322"><ele>637.0</ele><time>2026-03-21T22:37:17Z</time></trkpt><trkpt lat="-37.52856330267448" lon="144.27619382762688"><ele>638.2</ele><time>2026-03-21T22:37:18Z</time></trkpt><trkpt lat="-37.52846743833054" lon="144.27618065116405"><ele>639.4000000000001</ele><time>2026-03-21T22:37:19Z</time></trkpt><trkpt lat="-37.52838020255882" lon="144.27614933121953"><ele>640.5999999999999</ele><time>2026-03-21T22:37:20Z</time></trkpt><trkpt lat="-37.528309799960276" lon="144.27608922191496"><ele>641.8</ele><time>2026-03-21T22:37:21Z</time></trkpt><trkpt lat="-37.52824242760346" lon="144.27598797567816"><ele>643.0</ele><time>2026-03-21T22:37:22Z</time></trkpt><trkpt lat="-37.528188975798514" lon="144.27592537272488"><ele>643.0</ele><time>2026-03-21T22:37:23Z</time></trkpt><trkpt lat="-37.52806497593975" lon="144.27589714009366"><ele>643.0</ele><time>2026-03-21T22:37:25Z</time></trkpt><trkpt lat="-37.52798025034923" lon="144.27587343163225"><ele>643.0</ele><time>2026-03-21T22:37:26Z</time></trkpt><trkpt lat="-37.527906567429" lon="144.27582337276675"><ele>643.0</ele><time>2026-03-21T22:37:27Z</time></trkpt><trkpt lat="-37.527830082493644" lon="144.27577779935993"><ele>643.0</ele><time>2026-03-21T22:37:28Z</time></trkpt><trkpt lat="-37.527785551976265" lon="144.27571498952514"><ele>643.0</ele><time>2026-03-21T22:37:29Z</time></trkpt><trkpt lat="-37.52773529706861" lon="144.27560715321957"><ele>645.4</ele><time>2026-03-21T22:37:30Z</time></trkpt><trkpt lat="-37.52766816396962" lon="144.275502856653"><ele>647.8</ele><time>2026-03-21T22:37:31Z</time></trkpt><trkpt lat="-37.52759699867695" lon="144.2754153549558"><ele>650.2</ele><time>2026-03-21T22:37:32Z</time></trkpt><trkpt lat="-37.52748772183376" lon="144.2753607989762"><ele>652.6</ele><time>2026-03-21T22:37:33Z</time></trkpt><trkpt lat="-37.5274059859203" lon="144.27535227358504"><ele>655.0</ele><time>2026-03-21T22:37:34Z</time></trkpt><trkpt lat="-37.52734210867731" lon="144.27539050810245"><ele>655.0</ele><time>2026-03-21T22:37:36Z</time></trkpt><trkpt lat="-37.52730339149078" lon="144.2754840662515"><ele>655.0</ele><time>2026-03-21T22:37:37Z</time></trkpt><trkpt lat="-37.52725667612635" lon="144.27555118665666"><ele>655.0</ele><time>2026-03-21T22:37:38Z</time></trkpt><trkpt lat="-37.527201451222695" lon="144.27559805953436"><ele>655.0</ele><time>2026-03-21T22:37:39Z</time></trkpt><trkpt lat="-37.527122375412475" lon="144.27567125440333"><ele>655.0</ele><time>2026-03-21T22:37:40Z</time></trkpt><trkpt lat="-37.52705025944752" lon="144.2757994201711"><ele>655.0</ele><time>2026-03-21T22:37:42Z</time></trkpt><trkpt lat="-37.52703213414413" lon="144.27588090487916"><ele>653.4</ele><time>2026-03-21T22:37:43Z</time></trkpt><trkpt lat="-37.52696584034799" lon="144.2758650906738"><ele>651.8</ele><time>2026-03-21T22:37:45Z</time></trkpt><trkpt lat="-37.526875403585855" lon="144.27581768772825"><ele>650.2</ele><time>2026-03-21T22:37:47Z</time></trkpt><trkpt lat="-37.52681111919956" lon="144.2759455875677"><ele>648.6</ele><time>2026-03-21T22:37:49Z</time></trkpt><trkpt lat="-37.52672926137513" lon="144.2760126269063"><ele>647.0</ele><time>2026-03-21T22:37:51Z</time></trkpt><trkpt lat="-37.52665567914249" lon="144.27602722353055"><ele>647.0</ele><time>2026-03-21T22:37:52Z</time></trkpt><trkpt lat="-37.526585308812386" lon="144.2760351524457"><ele>647.0</ele><time>2026-03-21T22:37:53Z</time></trkpt><trkpt lat="-37.52648500038483" lon="144.27606297892962"><ele>647.0</ele><time>2026-03-21T22:37:55Z</time></trkpt><trkpt lat="-37.52641607352287" lon="144.2760536660771"><ele>647.0</ele><time>2026-03-21T22:37:56Z</time></trkpt><trkpt lat="-37.52630598406259" lon="144.27605647691027"><ele>647.0</ele><time>2026-03-21T22:37:58Z</time></trkpt><trkpt lat="-37.52621429260789" lon="144.27610962569716"><ele>647.5</ele><time>2026-03-21T22:38:00Z</time></trkpt><trkpt lat="-37.526122403349625" lon="144.27605618900364"><ele>648.0</ele><time>2026-03-21T22:38:02Z</time></trkpt><trkpt lat="-37.52601252978779" lon="144.27607697419438"><ele>648.5</ele><time>2026-03-21T22:38:04Z</time></trkpt><trkpt lat="-37.525945710609726" lon="144.276049533841"><ele>649.0</ele><time>2026-03-21T22:38:06Z</time></trkpt><trkpt lat="-37.52579181395406" lon="144.2759540999258"><ele>649.0</ele><time>2026-03-21T22:38:08Z</time></trkpt><trkpt lat="-37.52568998448955" lon="144.27587211343356"><ele>649.0</ele><time>2026-03-21T22:38:10Z</time></trkpt><trkpt lat="-37.52561798349057" lon="144.2759278287526"><ele>649.0</ele><time>2026-03-21T22:38:12Z</time></trkpt><trkpt lat="-37.52560512523947" lon="144.27601386284167"><ele>649.0</ele><time>2026-03-21T22:38:13Z</time></trkpt><trkpt lat="-37.52557416616291" lon="144.27609355699474"><ele>649.0</ele><time>2026-03-21T22:38:14Z</time></trkpt><trkpt lat="-37.525487016744684" lon="144.2761803297739"><ele>648.8000000000001</ele><time>2026-03-21T22:38:16Z</time></trkpt><trkpt lat="-37.52538657697545" lon="144.27625714919785"><ele>648.6</ele><time>2026-03-21T22:38:17Z</time></trkpt><trkpt lat="-37.52530484672774" lon="144.27632069113736"><ele>648.4</ele><time>2026-03-21T22:38:19Z</time></trkpt><trkpt lat="-37.52522014294259" lon="144.27632510600304"><ele>648.2</ele><time>2026-03-21T22:38:21Z</time></trkpt><trkpt lat="-37.525100300113785" lon="144.27635371634923"><ele>648.0</ele><time>2026-03-21T22:38:23Z</time></trkpt><trkpt lat="-37.52506252279353" lon="144.276285890126"><ele>648.0</ele><time>2026-03-21T22:38:47Z</time></trkpt><trkpt lat="-37.52497808715587" lon="144.27622805313194"><ele>648.0</ele><time>2026-03-21T22:38:49Z</time></trkpt><trkpt lat="-37.524891937411795" lon="144.27619975375544"><ele>648.0</ele><time>2026-03-21T22:38:52Z</time></trkpt><trkpt lat="-37.52481000801207" lon="144.27625885960063"><ele>648.0</ele><time>2026-03-21T22:38:54Z</time></trkpt><trkpt lat="-37.524716149270965" lon="144.27632109513766"><ele>648.0</ele><time>2026-03-21T22:38:56Z</time></trkpt><trkpt lat="-37.52463883115106" lon="144.27635021128452"><ele>648.0</ele><time>2026-03-21T22:38:58Z</time></trkpt><trkpt lat="-37.52457336057474" lon="144.27638600471334"><ele>648.0</ele><time>2026-03-21T22:39:00Z</time></trkpt><trkpt lat="-37.524704054035546" lon="144.27633628807732"><ele>648.0</ele><time>2026-03-21T22:39:06Z</time></trkpt><trkpt lat="-37.52480708881171" lon="144.27626397477164"><ele>648.0</ele><time>2026-03-21T22:39:07Z</time></trkpt><trkpt lat="-37.52492884675408" lon="144.27617194948232"><ele>648.0</ele><time>2026-03-21T22:39:08Z</time></trkpt><trkpt lat="-37.52504363739132" lon="144.27609120507742"><ele>648.0</ele><time>2026-03-21T22:39:09Z</time></trkpt><trkpt lat="-37.525168610812024" lon="144.2760030722047"><ele>648.0</ele><time>2026-03-21T22:39:10Z</time></trkpt><trkpt lat="-37.52530200014703" lon="144.27590173624898"><ele>648.0</ele><time>2026-03-21T22:39:11Z</time></trkpt><trkpt lat="-37.52542854637713" lon="144.27580142990863"><ele>648.25</ele><time>2026-03-21T22:39:12Z</time></trkpt><trkpt lat="-37.525546948486394" lon="144.27570343280192"><ele>648.5</ele><time>2026-03-21T22:39:13Z</time></trkpt><trkpt lat="-37.525663340664735" lon="144.2756018405487"><ele>648.75</ele><time>2026-03-21T22:39:14Z</time></trkpt><trkpt lat="-37.52577536359985" lon="144.27550542121367"><ele>649.0</ele><time>2026-03-21T22:39:15Z</time></trkpt><trkpt lat="-37.52587678652746" lon="144.27541585456294"><ele>650.75</ele><time>2026-03-21T22:39:16Z</time></trkpt><trkpt lat="-37.52598209866774" lon="144.27532860155512"><ele>652.5</ele><time>2026-03-21T22:39:17Z</time></trkpt><trkpt lat="-37.52607808904149" lon="144.2752441655415"><ele>654.25</ele><time>2026-03-21T22:39:18Z</time></trkpt><trkpt lat="-37.526176190239795" lon="144.2751708151729"><ele>656.0</ele><time>2026-03-21T22:39:19Z</time></trkpt><trkpt lat="-37.52627071487677" lon="144.27510272039626"><ele>656.0</ele><time>2026-03-21T22:39:20Z</time></trkpt><trkpt lat="-37.526374351150075" lon="144.27503692696888"><ele>656.0</ele><time>2026-03-21T22:39:21Z</time></trkpt><trkpt lat="-37.52647357349833" lon="144.27497230717114"><ele>656.0</ele><time>2026-03-21T22:39:22Z</time></trkpt><trkpt lat="-37.52657294950815" lon="144.2749248610241"><ele>656.0</ele><time>2026-03-21T22:39:23Z</time></trkpt><trkpt lat="-37.52669690758404" lon="144.27488868002365"><ele>656.0</ele><time>2026-03-21T22:39:24Z</time></trkpt><trkpt lat="-37.52683796082698" lon="144.27485273683266"><ele>656.0</ele><time>2026-03-21T22:39:25Z</time></trkpt><trkpt lat="-37.526976014339894" lon="144.27483613142957"><ele>656.0</ele><time>2026-03-21T22:39:26Z</time></trkpt><trkpt lat="-37.52710389439582" lon="144.274835780293"><ele>656.0</ele><time>2026-03-21T22:39:27Z</time></trkpt><trkpt lat="-37.52722109898738" lon="144.27485142503298"><ele>655.75</ele><time>2026-03-21T22:39:28Z</time></trkpt><trkpt lat="-37.527330881408744" lon="144.27488271043438"><ele>655.5</ele><time>2026-03-21T22:39:29Z</time></trkpt><trkpt lat="-37.52746159743179" lon="144.27491694810618"><ele>655.25</ele><time>2026-03-21T22:39:30Z</time></trkpt><trkpt lat="-37.527613812262715" lon="144.27493976150546"><ele>655.0</ele><time>2026-03-21T22:39:31Z</time></trkpt><trkpt lat="-37.52775677638285" lon="144.27495033060407"><ele>655.0</ele><time>2026-03-21T22:39:32Z</time></trkpt><trkpt lat="-37.52789348695065" lon="144.27493281804635"><ele>655.0</ele><time>2026-03-21T22:39:33Z</time></trkpt><trkpt lat="-37.528033079724366" lon="144.2749216181292"><ele>655.0</ele><time>2026-03-21T22:39:34Z</time></trkpt><trkpt lat="-37.528183808418845" lon="144.2748942629383"><ele>655.0</ele><time>2026-03-21T22:39:35Z</time></trkpt><trkpt lat="-37.52832334967888" lon="144.27484878887643"><ele>654.75</ele><time>2026-03-21T22:39:36Z</time></trkpt><trkpt lat="-37.528442800369675" lon="144.27478510381061"><ele>654.5</ele><time>2026-03-21T22:39:37Z</time></trkpt><trkpt lat="-37.528551997773086" lon="144.27472070414544"><ele>654.25</ele><time>2026-03-21T22:39:38Z</time></trkpt><trkpt lat="-37.52864351079876" lon="144.27465929346"><ele>654.0</ele><time>2026-03-21T22:39:39Z</time></trkpt><trkpt lat="-37.52871953382665" lon="144.2745795390003"><ele>654.8000000000001</ele><time>2026-03-21T22:39:40Z</time></trkpt><trkpt lat="-37.5287802934507" lon="144.2744822425886"><ele>655.6</ele><time>2026-03-21T22:39:41Z</time></trkpt><trkpt lat="-37.528842148858494" lon="144.27437452825413"><ele>656.4</ele><time>2026-03-21T22:39:42Z</time></trkpt><trkpt lat="-37.528915641005035" lon="144.27427435696154"><ele>657.2</ele><time>2026-03-21T22:39:43Z</time></trkpt><trkpt lat="-37.52900625779323" lon="144.274178216723"><ele>658.0</ele><time>2026-03-21T22:39:44Z</time></trkpt><trkpt lat="-37.529092097559854" lon="144.27410245204152"><ele>658.0</ele><time>2026-03-21T22:39:45Z</time></trkpt><trkpt lat="-37.529164557115884" lon="144.27403838962658"><ele>658.0</ele><time>2026-03-21T22:39:46Z</time></trkpt><trkpt lat="-37.52922203071296" lon="144.2739850168806"><ele>658.0</ele><time>2026-03-21T22:39:47Z</time></trkpt><trkpt lat="-37.5292806515152" lon="144.27393007448347"><ele>658.0</ele><time>2026-03-21T22:39:49Z</time></trkpt><trkpt lat="-37.52929860868896" lon="144.2738518222893"><ele>658.0</ele><time>2026-03-21T22:39:51Z</time></trkpt><trkpt lat="-37.52939409021988" lon="144.2738255613596"><ele>658.0</ele><time>2026-03-21T22:39:53Z</time></trkpt><trkpt lat="-37.52950856519524" lon="144.27392827804306"><ele>658.5999999999999</ele><time>2026-03-21T22:39:55Z</time></trkpt><trkpt lat="-37.5296038295685" lon="144.27399532082674"><ele>659.1999999999999</ele><time>2026-03-21T22:39:56Z</time></trkpt><trkpt lat="-37.52969970740768" lon="144.27407341834217"><ele>659.8</ele><time>2026-03-21T22:39:57Z</time></trkpt><trkpt lat="-37.52977660808211" lon="144.27411541728537"><ele>660.4</ele><time>2026-03-21T22:39:58Z</time></trkpt><trkpt lat="-37.52986811146003" lon="144.2741523751214"><ele>661.0</ele><time>2026-03-21T22:39:59Z</time></trkpt><trkpt lat="-37.529949614272496" lon="144.2742061504875"><ele>661.0</ele><time>2026-03-21T22:40:00Z</time></trkpt><trkpt lat="-37.53002366420983" lon="144.27425261146"><ele>661.0</ele><time>2026-03-21T22:40:01Z</time></trkpt><trkpt lat="-37.5300914323113" lon="144.27429801849533"><ele>661.0</ele><time>2026-03-21T22:40:02Z</time></trkpt><trkpt lat="-37.53016151425922" lon="144.27433883874346"><ele>661.0</ele><time>2026-03-21T22:40:03Z</time></trkpt><trkpt lat="-37.530241094206545" lon="144.27436993738343"><ele>661.0</ele><time>2026-03-21T22:40:04Z</time></trkpt><trkpt lat="-37.53031751956909" lon="144.2743995492693"><ele>661.0</ele><time>2026-03-21T22:40:05Z</time></trkpt><trkpt lat="-37.53038065946168" lon="144.27443277385245"><ele>661.3333333333334</ele><time>2026-03-21T22:40:06Z</time></trkpt><trkpt lat="-37.530447606556265" lon="144.27447199414163"><ele>661.6666666666667</ele><time>2026-03-21T22:40:07Z</time></trkpt><trkpt lat="-37.53053413371782" lon="144.27455862866475"><ele>662.0</ele><time>2026-03-21T22:40:09Z</time></trkpt><trkpt lat="-37.530619351586836" lon="144.27463921996687"><ele>662.3333333333334</ele><time>2026-03-21T22:40:11Z</time></trkpt><trkpt lat="-37.530666390299075" lon="144.27471447035452"><ele>662.6666666666666</ele><time>2026-03-21T22:40:12Z</time></trkpt><trkpt lat="-37.53070520287349" lon="144.27478479241344"><ele>663.0</ele><time>2026-03-21T22:40:13Z</time></trkpt><trkpt lat="-37.530747250517834" lon="144.2748576448909"><ele>661.2</ele><time>2026-03-21T22:40:14Z</time></trkpt><trkpt lat="-37.5308645992816" lon="144.2750490603769"><ele>659.4</ele><time>2026-03-21T22:40:16Z</time></trkpt><trkpt lat="-37.53091086032759" lon="144.2751083707838"><ele>657.6</ele><time>2026-03-21T22:40:17Z</time></trkpt><trkpt lat="-37.53098030182021" lon="144.2751826695926"><ele>655.8000000000001</ele><time>2026-03-21T22:40:18Z</time></trkpt><trkpt lat="-37.53105204665587" lon="144.27527094098463"><ele>654.0</ele><time>2026-03-21T22:40:19Z</time></trkpt><trkpt lat="-37.53112483268161" lon="144.2753597341807"><ele>654.0</ele><time>2026-03-21T22:40:20Z</time></trkpt><trkpt lat="-37.53119502223435" lon="144.27543591991738"><ele>654.0</ele><time>2026-03-21T22:40:21Z</time></trkpt><trkpt lat="-37.531257850645154" lon="144.27550836651255"><ele>654.0</ele><time>2026-03-21T22:40:22Z</time></trkpt><trkpt lat="-37.531324670821334" lon="144.27558148653674"><ele>654.0</ele><time>2026-03-21T22:40:23Z</time></trkpt><trkpt lat="-37.53143578513529" lon="144.27565011429192"><ele>654.0</ele><time>2026-03-21T22:40:25Z</time></trkpt><trkpt lat="-37.53151439224904" lon="144.27570739433637"><ele>652.5</ele><time>2026-03-21T22:40:26Z</time></trkpt><trkpt lat="-37.531593183255055" lon="144.2757715171237"><ele>651.0</ele><time>2026-03-21T22:40:27Z</time></trkpt><trkpt lat="-37.53166782242544" lon="144.27582737098624"><ele>649.5</ele><time>2026-03-21T22:40:28Z</time></trkpt><trkpt lat="-37.53174447134268" lon="144.27587287634188"><ele>648.0</ele><time>2026-03-21T22:40:29Z</time></trkpt><trkpt lat="-37.53181161338432" lon="144.2759113959502"><ele>646.5</ele><time>2026-03-21T22:40:30Z</time></trkpt><trkpt lat="-37.531888507575374" lon="144.27595315101036"><ele>645.0</ele><time>2026-03-21T22:40:31Z</time></trkpt><trkpt lat="-37.53197699257044" lon="144.27601874890516"><ele>645.0</ele><time>2026-03-21T22:40:32Z</time></trkpt><trkpt lat="-37.532052822669506" lon="144.2760815140698"><ele>645.0</ele><time>2026-03-21T22:40:33Z</time></trkpt><trkpt lat="-37.53214054025708" lon="144.27613431866493"><ele>645.0</ele><time>2026-03-21T22:40:34Z</time></trkpt><trkpt lat="-37.53219863454492" lon="144.27618494145602"><ele>645.0</ele><time>2026-03-21T22:40:35Z</time></trkpt><trkpt lat="-37.532253090500255" lon="144.27623470777738"><ele>645.0</ele><time>2026-03-21T22:40:36Z</time></trkpt><trkpt lat="-37.532348818842735" lon="144.27634968006544"><ele>644.2857142857143</ele><time>2026-03-21T22:40:38Z</time></trkpt><trkpt lat="-37.53241119864104" lon="144.27641410300296"><ele>643.5714285714286</ele><time>2026-03-21T22:40:39Z</time></trkpt><trkpt lat="-37.53246889392062" lon="144.27646884106102"><ele>642.8571428571429</ele><time>2026-03-21T22:40:40Z</time></trkpt><trkpt lat="-37.532516237760525" lon="144.27652855864065"><ele>642.1428571428571</ele><time>2026-03-21T22:40:41Z</time></trkpt><trkpt lat="-37.532587535352604" lon="144.27657494134507"><ele>641.4285714285714</ele><time>2026-03-21T22:40:42Z</time></trkpt><trkpt lat="-37.5326447243507" lon="144.27662017324366"><ele>640.7142857142857</ele><time>2026-03-21T22:40:43Z</time></trkpt><trkpt lat="-37.53269007491813" lon="144.2766804139132"><ele>640.0</ele><time>2026-03-21T22:40:44Z</time></trkpt><trkpt lat="-37.53272156800007" lon="144.2768051332998"><ele>638.8333333333334</ele><time>2026-03-21T22:40:46Z</time></trkpt><trkpt lat="-37.53277572999185" lon="144.27689339210198"><ele>637.6666666666667</ele><time>2026-03-21T22:40:48Z</time></trkpt><trkpt lat="-37.53282467442837" lon="144.27696211235252"><ele>636.5</ele><time>2026-03-21T22:40:49Z</time></trkpt><trkpt lat="-37.53289261489655" lon="144.27702276117648"><ele>635.3333333333334</ele><time>2026-03-21T22:40:50Z</time></trkpt><trkpt lat="-37.53297391845029" lon="144.27707990010015"><ele>634.1666666666666</ele><time>2026-03-21T22:40:51Z</time></trkpt><trkpt lat="-37.5330496368749" lon="144.27714495917704"><ele>633.0</ele><time>2026-03-21T22:40:52Z</time></trkpt><trkpt lat="-37.533118450542794" lon="144.277179653663"><ele>632.8333333333334</ele><time>2026-03-21T22:40:53Z</time></trkpt><trkpt lat="-37.53319250365809" lon="144.2771292653177"><ele>632.6666666666666</ele><time>2026-03-21T22:40:55Z</time></trkpt><trkpt lat="-37.53325050615519" lon="144.27700418326586"><ele>632.5</ele><time>2026-03-21T22:40:57Z</time></trkpt><trkpt lat="-37.533304611847235" lon="144.27694698915394"><ele>632.3333333333333</ele><time>2026-03-21T22:40:58Z</time></trkpt><trkpt lat="-37.53336613990886" lon="144.27688783789642"><ele>632.1666666666666</ele><time>2026-03-21T22:40:59Z</time></trkpt><trkpt lat="-37.533435708251126" lon="144.27681944058037"><ele>632.0</ele><time>2026-03-21T22:41:00Z</time></trkpt><trkpt lat="-37.53349580927305" lon="144.276772644813"><ele>632.0</ele><time>2026-03-21T22:41:01Z</time></trkpt><trkpt lat="-37.53357445138204" lon="144.27670990447598"><ele>632.0</ele><time>2026-03-21T22:41:02Z</time></trkpt><trkpt lat="-37.53363064856179" lon="144.2766498476548"><ele>632.0</ele><time>2026-03-21T22:41:03Z</time></trkpt><trkpt lat="-37.5336828120453" lon="144.27659538548392"><ele>632.0</ele><time>2026-03-21T22:41:04Z</time></trkpt><trkpt lat="-37.53374298017571" lon="144.27656664080624"><ele>632.0</ele><time>2026-03-21T22:41:06Z</time></trkpt><trkpt lat="-37.53383605579346" lon="144.27649300026582"><ele>632.0</ele><time>2026-03-21T22:41:22Z</time></trkpt><trkpt lat="-37.5338591396079" lon="144.27640047487114"><ele>632.0</ele><time>2026-03-21T22:41:25Z</time></trkpt><trkpt lat="-37.53379492381844" lon="144.27640589806396"><ele>632.0</ele><time>2026-03-21T22:41:28Z</time></trkpt><trkpt lat="-37.53373280669794" lon="144.27642164791544"><ele>632.0</ele><time>2026-03-21T22:41:30Z</time></trkpt><trkpt lat="-37.53360100499718" lon="144.27645531037416"><ele>632.0</ele><time>2026-03-21T22:41:32Z</time></trkpt><trkpt lat="-37.53354616678006" lon="144.2763723044346"><ele>632.0</ele><time>2026-03-21T22:41:34Z</time></trkpt><trkpt lat="-37.53344348784471" lon="144.27631333061052"><ele>631.4</ele><time>2026-03-21T22:41:36Z</time></trkpt><trkpt lat="-37.53335192737255" lon="144.2762243014196"><ele>630.8000000000001</ele><time>2026-03-21T22:41:38Z</time></trkpt><trkpt lat="-37.53330062363698" lon="144.27613096761027"><ele>630.2</ele><time>2026-03-21T22:41:40Z</time></trkpt><trkpt lat="-37.53324915184165" lon="144.27600632184772"><ele>629.6</ele><time>2026-03-21T22:41:42Z</time></trkpt><trkpt lat="-37.53319193143019" lon="144.2759420289726"><ele>629.0</ele><time>2026-03-21T22:41:44Z</time></trkpt><trkpt lat="-37.53309615985259" lon="144.2759179810561"><ele>629.0</ele><time>2026-03-21T22:41:46Z</time></trkpt><trkpt lat="-37.5330243848206" lon="144.27590819493267"><ele>629.0</ele><time>2026-03-21T22:41:47Z</time></trkpt><trkpt lat="-37.53292361410158" lon="144.27584694987905"><ele>629.0</ele><time>2026-03-21T22:41:49Z</time></trkpt><trkpt lat="-37.53282805347122" lon="144.27576372486757"><ele>629.0</ele><time>2026-03-21T22:41:51.001Z</time></trkpt><trkpt lat="-37.53277571593928" lon="144.2756590377909"><ele>629.0</ele><time>2026-03-21T22:41:53.001Z</time></trkpt><trkpt lat="-37.53275329441263" lon="144.27553441569285"><ele>632.0</ele><time>2026-03-21T22:41:55.001Z</time></trkpt><trkpt lat="-37.53269802891468" lon="144.27540932187532"><ele>635.0</ele><time>2026-03-21T22:41:57.001Z</time></trkpt><trkpt lat="-37.532664664366244" lon="144.2753294883696"><ele>638.0</ele><time>2026-03-21T22:41:58.001Z</time></trkpt><trkpt lat="-37.53261761543867" lon="144.27524912460353"><ele>641.0</ele><time>2026-03-21T22:42:00.001Z</time></trkpt><trkpt lat="-37.53256332050005" lon="144.27514269691352"><ele>644.0</ele><time>2026-03-21T22:42:02.001Z</time></trkpt><trkpt lat="-37.53245314209097" lon="144.275086677454"><ele>644.0</ele><time>2026-03-21T22:42:04.001Z</time></trkpt><trkpt lat="-37.53239911485488" lon="144.2749920160963"><ele>644.0</ele><time>2026-03-21T22:42:06.001Z</time></trkpt><trkpt lat="-37.53234025379608" lon="144.27489438452852"><ele>644.0</ele><time>2026-03-21T22:42:08.001Z</time></trkpt><trkpt lat="-37.532256351094716" lon="144.2748669592715"><ele>644.0</ele><time>2026-03-21T22:42:10.001Z</time></trkpt><trkpt lat="-37.53219341789038" lon="144.27484905742764"><ele>644.0</ele><time>2026-03-21T22:42:13.001Z</time></trkpt><trkpt lat="-37.53215522613894" lon="144.27473996468922"><ele>644.0</ele><time>2026-03-21T22:42:15.001Z</time></trkpt><trkpt lat="-37.532095163888265" lon="144.2746678651602"><ele>647.0</ele><time>2026-03-21T22:42:17.001Z</time></trkpt><trkpt lat="-37.53199563720388" lon="144.27461769420552"><ele>650.0</ele><time>2026-03-21T22:42:19.001Z</time></trkpt><trkpt lat="-37.531928837158446" lon="144.27462522455392"><ele>653.0</ele><time>2026-03-21T22:42:21.001Z</time></trkpt><trkpt lat="-37.53186159962709" lon="144.27471747637657"><ele>656.0</ele><time>2026-03-21T22:42:23.001Z</time></trkpt><trkpt lat="-37.5317959173321" lon="144.27470108129555"><ele>659.0</ele><time>2026-03-21T22:42:25.001Z</time></trkpt><trkpt lat="-37.53171881953028" lon="144.27473270239483"><ele>662.0</ele><time>2026-03-21T22:42:27.001Z</time></trkpt><trkpt lat="-37.531661038695106" lon="144.274683477055"><ele>662.0</ele><time>2026-03-21T22:42:29.001Z</time></trkpt><trkpt lat="-37.5315706300692" lon="144.27458943468758"><ele>662.0</ele><time>2026-03-21T22:42:31.001Z</time></trkpt><trkpt lat="-37.531523609429186" lon="144.2745198808156"><ele>662.0</ele><time>2026-03-21T22:42:32.001Z</time></trkpt><trkpt lat="-37.531478776020236" lon="144.2744371729051"><ele>662.0</ele><time>2026-03-21T22:42:33.001Z</time></trkpt><trkpt lat="-37.531388542585276" lon="144.27432115448153"><ele>662.0</ele><time>2026-03-21T22:42:35.001Z</time></trkpt><trkpt lat="-37.53133048515109" lon="144.27420517720148"><ele>662.0</ele><time>2026-03-21T22:42:37.001Z</time></trkpt><trkpt lat="-37.53125614677011" lon="144.2741524989108"><ele>662.0</ele><time>2026-03-21T22:42:39.001Z</time></trkpt><trkpt lat="-37.53120179467899" lon="144.27410282826685"><ele>662.0</ele><time>2026-03-21T22:42:42.001Z</time></trkpt><trkpt lat="-37.531077195680155" lon="144.2741083520972"><ele>662.0</ele><time>2026-03-21T22:43:27Z</time></trkpt><trkpt lat="-37.5310003169344" lon="144.27410329948384"><ele>662.0</ele><time>2026-03-21T22:43:28Z</time></trkpt><trkpt lat="-37.53090537936573" lon="144.2740620498969"><ele>662.1666666666666</ele><time>2026-03-21T22:43:29Z</time></trkpt><trkpt lat="-37.53079339421955" lon="144.27399622292904"><ele>662.3333333333333</ele><time>2026-03-21T22:43:30Z</time></trkpt><trkpt lat="-37.53070359224362" lon="144.27399331323952"><ele>662.5</ele><time>2026-03-21T22:43:31Z</time></trkpt><trkpt lat="-37.53063274164821" lon="144.27399735859206"><ele>662.6666666666666</ele><time>2026-03-21T22:43:32Z</time></trkpt><trkpt lat="-37.53055070952685" lon="144.27398033070205"><ele>662.8333333333334</ele><time>2026-03-21T22:43:33Z</time></trkpt><trkpt lat="-37.530470056472154" lon="144.27397144578666"><ele>663.0</ele><time>2026-03-21T22:43:34Z</time></trkpt><trkpt lat="-37.530328062849186" lon="144.27400492975082"><ele>662.6666666666666</ele><time>2026-03-21T22:43:36Z</time></trkpt><trkpt lat="-37.53025149391423" lon="144.27400964518"><ele>662.3333333333334</ele><time>2026-03-21T22:43:37Z</time></trkpt><trkpt lat="-37.530172709893016" lon="144.27403850526414"><ele>662.0</ele><time>2026-03-21T22:43:38Z</time></trkpt><trkpt lat="-37.53010760580795" lon="144.27404352433078"><ele>661.6666666666667</ele><time>2026-03-21T22:43:39Z</time></trkpt><trkpt lat="-37.53000508920869" lon="144.2739433437126"><ele>661.3333333333334</ele><time>2026-03-21T22:43:41Z</time></trkpt><trkpt lat="-37.5299365241206" lon="144.27389843685947"><ele>661.0</ele><time>2026-03-21T22:43:42Z</time></trkpt><trkpt lat="-37.529822539723625" lon="144.2739206491615"><ele>660.0</ele><time>2026-03-21T22:43:43Z</time></trkpt><trkpt lat="-37.52974006916426" lon="144.27389959459583"><ele>659.0</ele><time>2026-03-21T22:43:44Z</time></trkpt><trkpt lat="-37.52969234999192" lon="144.27382494212844"><ele>658.0</ele><time>2026-03-21T22:43:45Z</time></trkpt><trkpt lat="-37.52963548372447" lon="144.27375121636547"><ele>657.0</ele><time>2026-03-21T22:43:46Z</time></trkpt><trkpt lat="-37.52952840885293" lon="144.27373069702617"><ele>656.0</ele><time>2026-03-21T22:43:48Z</time></trkpt><trkpt lat="-37.52944850176072" lon="144.27371763955253"><ele>655.0</ele><time>2026-03-21T22:43:49Z</time></trkpt><trkpt lat="-37.52936018944351" lon="144.27374407779402"><ele>655.0</ele><time>2026-03-21T22:43:51Z</time></trkpt><trkpt lat="-37.52929082399823" lon="144.27369161922493"><ele>655.0</ele><time>2026-03-21T22:44:29Z</time></trkpt><trkpt lat="-37.52936643870099" lon="144.27355236437492"><ele>655.0</ele><time>2026-03-21T22:44:31Z</time></trkpt><trkpt lat="-37.5294590893327" lon="144.27348909322177"><ele>655.0</ele><time>2026-03-21T22:44:32Z</time></trkpt><trkpt lat="-37.52958014618376" lon="144.27343159634904"><ele>655.0</ele><time>2026-03-21T22:44:33Z</time></trkpt><trkpt lat="-37.52970785984491" lon="144.27337910950948"><ele>655.0</ele><time>2026-03-21T22:44:34Z</time></trkpt><trkpt lat="-37.529838459208236" lon="144.27333841114103"><ele>655.0</ele><time>2026-03-21T22:44:35Z</time></trkpt><trkpt lat="-37.52995595209774" lon="144.27330404299076"><ele>655.0</ele><time>2026-03-21T22:44:36Z</time></trkpt><trkpt lat="-37.53005352698527" lon="144.27328002866548"><ele>655.0</ele><time>2026-03-21T22:44:37Z</time></trkpt><trkpt lat="-37.530160773742914" lon="144.27325854418024"><ele>655.0</ele><time>2026-03-21T22:44:38Z</time></trkpt><trkpt lat="-37.530275457276446" lon="144.27324467114227"><ele>655.0</ele><time>2026-03-21T22:44:39Z</time></trkpt><trkpt lat="-37.53039483232951" lon="144.2732366870142"><ele>655.0</ele><time>2026-03-21T22:44:40Z</time></trkpt><trkpt lat="-37.53050510088261" lon="144.27323131759698"><ele>655.0</ele><time>2026-03-21T22:44:41Z</time></trkpt><trkpt lat="-37.5306170023603" lon="144.2732288888178"><ele>655.75</ele><time>2026-03-21T22:44:42Z</time></trkpt><trkpt lat="-37.53073631410294" lon="144.27322328463987"><ele>656.5</ele><time>2026-03-21T22:44:43Z</time></trkpt><trkpt lat="-37.53086717412629" lon="144.27321144634604"><ele>657.25</ele><time>2026-03-21T22:44:44Z</time></trkpt><trkpt lat="-37.53099590934792" lon="144.273184531395"><ele>658.0</ele><time>2026-03-21T22:44:45Z</time></trkpt><trkpt lat="-37.53111577133671" lon="144.27315552505542"><ele>658.2</ele><time>2026-03-21T22:44:46Z</time></trkpt><trkpt lat="-37.531225855749675" lon="144.27313072866107"><ele>658.4</ele><time>2026-03-21T22:44:47Z</time></trkpt><trkpt lat="-37.53132685324425" lon="144.27310533180903"><ele>658.6</ele><time>2026-03-21T22:44:48Z</time></trkpt><trkpt lat="-37.531425666318825" lon="144.27309129427775"><ele>658.8000000000001</ele><time>2026-03-21T22:44:49Z</time></trkpt><trkpt lat="-37.53151990003042" lon="144.27308617107337"><ele>659.0</ele><time>2026-03-21T22:44:50Z</time></trkpt><trkpt lat="-37.53161752871475" lon="144.2730822613413"><ele>657.2</ele><time>2026-03-21T22:44:51Z</time></trkpt><trkpt lat="-37.53171051041793" lon="144.27307150726713"><ele>655.4000000000001</ele><time>2026-03-21T22:44:52Z</time></trkpt><trkpt lat="-37.53180715295281" lon="144.27306235176636"><ele>653.6</ele><time>2026-03-21T22:44:53Z</time></trkpt><trkpt lat="-37.53189939475329" lon="144.27304603025598"><ele>651.8</ele><time>2026-03-21T22:44:54Z</time></trkpt><trkpt lat="-37.531967597868096" lon="144.27295918124014"><ele>650.0</ele><time>2026-03-21T22:44:56Z</time></trkpt><trkpt lat="-37.531961652638074" lon="144.2728710388899"><ele>650.0</ele><time>2026-03-21T22:44:57Z</time></trkpt><trkpt lat="-37.53193511495065" lon="144.27273713310194"><ele>650.0</ele><time>2026-03-21T22:44:59Z</time></trkpt><trkpt lat="-37.531896304745985" lon="144.27266883920362"><ele>650.0</ele><time>2026-03-21T22:45:00Z</time></trkpt><trkpt lat="-37.531853659960554" lon="144.27260061634237"><ele>650.0</ele><time>2026-03-21T22:45:01Z</time></trkpt><trkpt lat="-37.5318054921729" lon="144.2724801896849"><ele>650.0</ele><time>2026-03-21T22:45:03Z</time></trkpt><trkpt lat="-37.531764207272985" lon="144.27241064421736"><ele>650.0</ele><time>2026-03-21T22:45:04Z</time></trkpt><trkpt lat="-37.531714010370955" lon="144.2723521010421"><ele>650.0</ele><time>2026-03-21T22:45:05Z</time></trkpt><trkpt lat="-37.53165275205029" lon="144.27231106669004"><ele>650.0</ele><time>2026-03-21T22:45:06Z</time></trkpt><trkpt lat="-37.53159268532755" lon="144.27228513643357"><ele>650.0</ele><time>2026-03-21T22:45:07Z</time></trkpt><trkpt lat="-37.531529042133165" lon="144.27227224927768"><ele>650.0</ele><time>2026-03-21T22:45:08Z</time></trkpt><trkpt lat="-37.531423547510414" lon="144.27213913315805"><ele>650.0</ele><time>2026-03-21T22:45:10Z</time></trkpt><trkpt lat="-37.531372664078454" lon="144.2720857971322"><ele>650.0</ele><time>2026-03-21T22:45:11Z</time></trkpt><trkpt lat="-37.531236240158144" lon="144.27204406782067"><ele>645.0</ele><time>2026-03-21T22:45:13Z</time></trkpt><trkpt lat="-37.53111730952944" lon="144.27201736103436"><ele>640.0</ele><time>2026-03-21T22:45:14Z</time></trkpt><trkpt lat="-37.53098286245886" lon="144.27201347577903"><ele>635.0</ele><time>2026-03-21T22:45:15Z</time></trkpt><trkpt lat="-37.530837634051416" lon="144.27201475942235"><ele>630.0</ele><time>2026-03-21T22:45:16Z</time></trkpt><trkpt lat="-37.530683170806796" lon="144.27201648426268"><ele>630.0</ele><time>2026-03-21T22:45:17Z</time></trkpt><trkpt lat="-37.53053701279206" lon="144.2720129940768"><ele>630.0</ele><time>2026-03-21T22:45:18Z</time></trkpt><trkpt lat="-37.530413029719945" lon="144.27198994858608"><ele>630.0</ele><time>2026-03-21T22:45:19Z</time></trkpt><trkpt lat="-37.5303126905934" lon="144.2719339794544"><ele>630.0</ele><time>2026-03-21T22:45:20Z</time></trkpt><trkpt lat="-37.53020172824636" lon="144.27182803476552"><ele>629.25</ele><time>2026-03-21T22:45:21Z</time></trkpt><trkpt lat="-37.53008193101411" lon="144.27169188928696"><ele>628.5</ele><time>2026-03-21T22:45:22Z</time></trkpt><trkpt lat="-37.529985658331015" lon="144.27157927028247"><ele>627.75</ele><time>2026-03-21T22:45:23Z</time></trkpt><trkpt lat="-37.52990822317798" lon="144.27147281822056"><ele>627.0</ele><time>2026-03-21T22:45:24Z</time></trkpt><trkpt lat="-37.52987035736895" lon="144.2713531993193"><ele>624.0</ele><time>2026-03-21T22:45:25Z</time></trkpt><trkpt lat="-37.52986784966074" lon="144.27122133655416"><ele>621.0</ele><time>2026-03-21T22:45:26Z</time></trkpt><trkpt lat="-37.52986907241083" lon="144.27104570549744"><ele>618.0</ele><time>2026-03-21T22:45:27Z</time></trkpt><trkpt lat="-37.52985995389437" lon="144.2708705910742"><ele>615.0</ele><time>2026-03-21T22:45:28Z</time></trkpt><trkpt lat="-37.52982770841565" lon="144.27073282196122"><ele>615.0</ele><time>2026-03-21T22:45:29Z</time></trkpt><trkpt lat="-37.529776592236594" lon="144.27062728154758"><ele>615.0</ele><time>2026-03-21T22:45:30Z</time></trkpt><trkpt lat="-37.52970806821334" lon="144.27055067194004"><ele>615.0</ele><time>2026-03-21T22:45:31Z</time></trkpt><trkpt lat="-37.52963107902031" lon="144.27047516530467"><ele>615.0</ele><time>2026-03-21T22:45:32Z</time></trkpt><trkpt lat="-37.529548886615665" lon="144.27039508363592"><ele>615.0</ele><time>2026-03-21T22:45:33Z</time></trkpt><trkpt lat="-37.529463527933466" lon="144.2703065062054"><ele>614.2</ele><time>2026-03-21T22:45:34Z</time></trkpt><trkpt lat="-37.52936962473213" lon="144.27021119356118"><ele>613.4</ele><time>2026-03-21T22:45:35Z</time></trkpt><trkpt lat="-37.529290540915525" lon="144.2701295243864"><ele>612.6</ele><time>2026-03-21T22:45:36Z</time></trkpt><trkpt lat="-37.529234062808" lon="144.27004380183823"><ele>611.8</ele><time>2026-03-21T22:45:37Z</time></trkpt><trkpt lat="-37.529182586775356" lon="144.2699193435743"><ele>611.0</ele><time>2026-03-21T22:45:39Z</time></trkpt><trkpt lat="-37.52923373116413" lon="144.26982080093813"><ele>609.3333333333333</ele><time>2026-03-21T22:45:41Z</time></trkpt><trkpt lat="-37.529289889501996" lon="144.26971879119992"><ele>607.6666666666666</ele><time>2026-03-21T22:45:42Z</time></trkpt><trkpt lat="-37.52931214765905" lon="144.2696144986744"><ele>606.0</ele><time>2026-03-21T22:45:43Z</time></trkpt><trkpt lat="-37.52932859737058" lon="144.26953568482438"><ele>604.3333333333334</ele><time>2026-03-21T22:45:44Z</time></trkpt><trkpt lat="-37.52935425719152" lon="144.26942037925562"><ele>602.6666666666667</ele><time>2026-03-21T22:45:45Z</time></trkpt><trkpt lat="-37.52936548291158" lon="144.2693281542534"><ele>601.0</ele><time>2026-03-21T22:45:46Z</time></trkpt><trkpt lat="-37.52934647063207" lon="144.26921984487225"><ele>601.0</ele><time>2026-03-21T22:45:47Z</time></trkpt><trkpt lat="-37.52935500388698" lon="144.269102708281"><ele>601.0</ele><time>2026-03-21T22:45:48Z</time></trkpt><trkpt lat="-37.52935793797486" lon="144.26901326397453"><ele>601.0</ele><time>2026-03-21T22:45:49Z</time></trkpt><trkpt lat="-37.52938107774022" lon="144.2689344991515"><ele>601.0</ele><time>2026-03-21T22:45:50Z</time></trkpt><trkpt lat="-37.5293827658635" lon="144.26877903601437"><ele>601.0</ele><time>2026-03-21T22:45:52Z</time></trkpt><trkpt lat="-37.52938471080252" lon="144.26869886287747"><ele>601.0</ele><time>2026-03-21T22:45:53Z</time></trkpt><trkpt lat="-37.5294019836223" lon="144.268621233295"><ele>599.8333333333334</ele><time>2026-03-21T22:45:54Z</time></trkpt><trkpt lat="-37.529437514048624" lon="144.26854918063822"><ele>598.6666666666667</ele><time>2026-03-21T22:45:55Z</time></trkpt><trkpt lat="-37.529464656285676" lon="144.26844131579077"><ele>597.5</ele><time>2026-03-21T22:45:56Z</time></trkpt><trkpt lat="-37.52949529297139" lon="144.26831418983986"><ele>596.3333333333334</ele><time>2026-03-21T22:45:57Z</time></trkpt><trkpt lat="-37.52951715720071" lon="144.26820492519133"><ele>595.1666666666666</ele><time>2026-03-21T22:45:58Z</time></trkpt><trkpt lat="-37.529542754823524" lon="144.26810211130444"><ele>594.0</ele><time>2026-03-21T22:45:59Z</time></trkpt><trkpt lat="-37.52959492924969" lon="144.26799609802748"><ele>593.0</ele><time>2026-03-21T22:46:00Z</time></trkpt><trkpt lat="-37.529607290352544" lon="144.2678702241482"><ele>592.0</ele><time>2026-03-21T22:46:02Z</time></trkpt><trkpt lat="-37.52959424782905" lon="144.26778502994256"><ele>591.0</ele><time>2026-03-21T22:46:03Z</time></trkpt><trkpt lat="-37.529571551623775" lon="144.2676709112804"><ele>590.0</ele><time>2026-03-21T22:46:04Z</time></trkpt><trkpt lat="-37.52952986545204" lon="144.26755880008156"><ele>589.0</ele><time>2026-03-21T22:46:05Z</time></trkpt><trkpt lat="-37.529527679907055" lon="144.26746543076777"><ele>588.0</ele><time>2026-03-21T22:46:06Z</time></trkpt><trkpt lat="-37.529558976253554" lon="144.2673462716847"><ele>586.8</ele><time>2026-03-21T22:46:07Z</time></trkpt><trkpt lat="-37.52958493889704" lon="144.26721175758848"><ele>585.5999999999999</ele><time>2026-03-21T22:46:08Z</time></trkpt><trkpt lat="-37.529585988435066" lon="144.26708004161273"><ele>584.4000000000001</ele><time>2026-03-21T22:46:09Z</time></trkpt><trkpt lat="-37.52958233494667" lon="144.26696170752217"><ele>583.2</ele><time>2026-03-21T22:46:10Z</time></trkpt><trkpt lat="-37.52958994770548" lon="144.26679462057976"><ele>582.0</ele><time>2026-03-21T22:46:12Z</time></trkpt><trkpt lat="-37.529551761713996" lon="144.26670818565745"><ele>582.0</ele><time>2026-03-21T22:46:13Z</time></trkpt><trkpt lat="-37.5295170377172" lon="144.2665685724733"><ele>582.0</ele><time>2026-03-21T22:46:14Z</time></trkpt><trkpt lat="-37.52948988800178" lon="144.26642273805788"><ele>582.0</ele><time>2026-03-21T22:46:15Z</time></trkpt><trkpt lat="-37.52946356760548" lon="144.26628900273823"><ele>582.0</ele><time>2026-03-21T22:46:16Z</time></trkpt><trkpt lat="-37.52944332918051" lon="144.26617823599153"><ele>582.0</ele><time>2026-03-21T22:46:17Z</time></trkpt><trkpt lat="-37.52943541758862" lon="144.2660765876282"><ele>581.1666666666666</ele><time>2026-03-21T22:46:18Z</time></trkpt><trkpt lat="-37.52940265197486" lon="144.2659715940005"><ele>580.3333333333334</ele><time>2026-03-21T22:46:19Z</time></trkpt><trkpt lat="-37.529363537992985" lon="144.26587032673513"><ele>579.5</ele><time>2026-03-21T22:46:20Z</time></trkpt><trkpt lat="-37.52935215197478" lon="144.26578009745916"><ele>578.6666666666667</ele><time>2026-03-21T22:46:21Z</time></trkpt><trkpt lat="-37.52935954501823" lon="144.265691147749"><ele>577.8333333333334</ele><time>2026-03-21T22:46:22Z</time></trkpt><trkpt lat="-37.52940173624867" lon="144.26558705515436"><ele>577.0</ele><time>2026-03-21T22:46:23Z</time></trkpt><trkpt lat="-37.52946115413117" lon="144.26546541039812"><ele>575.8333333333334</ele><time>2026-03-21T22:46:24Z</time></trkpt><trkpt lat="-37.5294982722741" lon="144.2653555446292"><ele>574.6666666666667</ele><time>2026-03-21T22:46:25Z</time></trkpt><trkpt lat="-37.52952961180267" lon="144.26524743192104"><ele>573.5</ele><time>2026-03-21T22:46:26Z</time></trkpt><trkpt lat="-37.52955051227449" lon="144.26513741283463"><ele>572.3333333333334</ele><time>2026-03-21T22:46:27Z</time></trkpt><trkpt lat="-37.52956028979129" lon="144.26503686567906"><ele>571.1666666666666</ele><time>2026-03-21T22:46:28Z</time></trkpt><trkpt lat="-37.52957193401213" lon="144.26493590979402"><ele>570.0</ele><time>2026-03-21T22:46:29Z</time></trkpt><trkpt lat="-37.529574485854326" lon="144.2648262366663"><ele>569.0</ele><time>2026-03-21T22:46:30Z</time></trkpt><trkpt lat="-37.529579570189675" lon="144.2647355517159"><ele>568.0</ele><time>2026-03-21T22:46:31Z</time></trkpt><trkpt lat="-37.529595807475346" lon="144.26464471737737"><ele>567.0</ele><time>2026-03-21T22:46:32Z</time></trkpt><trkpt lat="-37.529597062674206" lon="144.26455247138597"><ele>566.0</ele><time>2026-03-21T22:46:33Z</time></trkpt><trkpt lat="-37.529585654474815" lon="144.26446794490315"><ele>565.0</ele><time>2026-03-21T22:46:34Z</time></trkpt><trkpt lat="-37.529591222257544" lon="144.2643871233913"><ele>564.0</ele><time>2026-03-21T22:46:35Z</time></trkpt><trkpt lat="-37.529594376348676" lon="144.2642988081203"><ele>563.0</ele><time>2026-03-21T22:46:36Z</time></trkpt><trkpt lat="-37.5296013070502" lon="144.26421039567222"><ele>563.0</ele><time>2026-03-21T22:46:37Z</time></trkpt><trkpt lat="-37.52958863603111" lon="144.2641181205273"><ele>563.0</ele><time>2026-03-21T22:46:38Z</time></trkpt><trkpt lat="-37.52958924514835" lon="144.2640342822439"><ele>563.0</ele><time>2026-03-21T22:46:39Z</time></trkpt><trkpt lat="-37.529606564754516" lon="144.26392134136415"><ele>563.0</ele><time>2026-03-21T22:46:40Z</time></trkpt><trkpt lat="-37.52961353720556" lon="144.26383784967857"><ele>563.0</ele><time>2026-03-21T22:46:41Z</time></trkpt><trkpt lat="-37.52955554712314" lon="144.2637201459569"><ele>563.0</ele><time>2026-03-21T22:46:43Z</time></trkpt><trkpt lat="-37.52950800721851" lon="144.26365473407972"><ele>562.6</ele><time>2026-03-21T22:46:44Z</time></trkpt><trkpt lat="-37.52949051842597" lon="144.26349487372585"><ele>562.1999999999999</ele><time>2026-03-21T22:46:46Z</time></trkpt><trkpt lat="-37.52955593436961" lon="144.2633423175491"><ele>561.8</ele><time>2026-03-21T22:46:48Z</time></trkpt><trkpt lat="-37.529574177051686" lon="144.26325118265157"><ele>561.4</ele><time>2026-03-21T22:46:49Z</time></trkpt><trkpt lat="-37.529565169263606" lon="144.26317174468758"><ele>561.0</ele><time>2026-03-21T22:46:50Z</time></trkpt><trkpt lat="-37.52954988340092" lon="144.26308701745205"><ele>559.6666666666666</ele><time>2026-03-21T22:46:51Z</time></trkpt><trkpt lat="-37.52953350107107" lon="144.2629955080269"><ele>558.3333333333334</ele><time>2026-03-21T22:46:52Z</time></trkpt><trkpt lat="-37.52952975807266" lon="144.2628908226783"><ele>557.0</ele><time>2026-03-21T22:46:53Z</time></trkpt><trkpt lat="-37.52950159571859" lon="144.26278949328702"><ele>555.6666666666667</ele><time>2026-03-21T22:46:54Z</time></trkpt><trkpt lat="-37.52945380181898" lon="144.2627077965775"><ele>554.3333333333334</ele><time>2026-03-21T22:46:55Z</time></trkpt><trkpt lat="-37.52940644659967" lon="144.26264539254151"><ele>553.0</ele><time>2026-03-21T22:46:56Z</time></trkpt><trkpt lat="-37.529376825082025" lon="144.26250221333896"><ele>553.0</ele><time>2026-03-21T22:46:58Z</time></trkpt><trkpt lat="-37.52937789407316" lon="144.26240431118387"><ele>553.0</ele><time>2026-03-21T22:46:59Z</time></trkpt><trkpt lat="-37.52936547096572" lon="144.26231447664773"><ele>553.0</ele><time>2026-03-21T22:47:00Z</time></trkpt><trkpt lat="-37.52934929312081" lon="144.2622304575398"><ele>553.0</ele><time>2026-03-21T22:47:01Z</time></trkpt><trkpt lat="-37.52927668154941" lon="144.26207620122148"><ele>553.0</ele><time>2026-03-21T22:47:03Z</time></trkpt><trkpt lat="-37.529230744317886" lon="144.26196464625914"><ele>552.8333333333334</ele><time>2026-03-21T22:47:04Z</time></trkpt><trkpt lat="-37.52920509085137" lon="144.26183778571874"><ele>552.6666666666667</ele><time>2026-03-21T22:47:05Z</time></trkpt><trkpt lat="-37.52918886509792" lon="144.26174110252188"><ele>552.5</ele><time>2026-03-21T22:47:06Z</time></trkpt><trkpt lat="-37.529177859301825" lon="144.26166235128917"><ele>552.3333333333334</ele><time>2026-03-21T22:47:07Z</time></trkpt><trkpt lat="-37.52915019120292" lon="144.26155690626902"><ele>552.1666666666666</ele><time>2026-03-21T22:47:09Z</time></trkpt><trkpt lat="-37.52918016578274" lon="144.26147412178742"><ele>552.0</ele><time>2026-03-21T22:47:11Z</time></trkpt><trkpt lat="-37.52923033650616" lon="144.26134873162266"><ele>552.0</ele><time>2026-03-21T22:47:13Z</time></trkpt><trkpt lat="-37.529252488183246" lon="144.2612461745596"><ele>552.0</ele><time>2026-03-21T22:47:14Z</time></trkpt><trkpt lat="-37.529289918555904" lon="144.26111442920984"><ele>552.0</ele><time>2026-03-21T22:47:15Z</time></trkpt><trkpt lat="-37.52933666688403" lon="144.26102119335053"><ele>552.0</ele><time>2026-03-21T22:47:16Z</time></trkpt><trkpt lat="-37.52937147460437" lon="144.26094829316315"><ele>552.0</ele><time>2026-03-21T22:47:17Z</time></trkpt><trkpt lat="-37.52943843764149" lon="144.26081948164492"><ele>552.0</ele><time>2026-03-21T22:47:19Z</time></trkpt><trkpt lat="-37.52948105486362" lon="144.26068370026994"><ele>552.0</ele><time>2026-03-21T22:47:21Z</time></trkpt><trkpt lat="-37.52951400719465" lon="144.2605692168242"><ele>552.0</ele><time>2026-03-21T22:47:23Z</time></trkpt><trkpt lat="-37.529542860534995" lon="144.26046218546495"><ele>552.0</ele><time>2026-03-21T22:47:25Z</time></trkpt><trkpt lat="-37.52957238569573" lon="144.26035923154828"><ele>552.0</ele><time>2026-03-21T22:47:27Z</time></trkpt><trkpt lat="-37.529634142423376" lon="144.26029554020883"><ele>552.0</ele><time>2026-03-21T22:47:29Z</time></trkpt><trkpt lat="-37.529727150103575" lon="144.2602210114969"><ele>552.0</ele><time>2026-03-21T22:47:32Z</time></trkpt><trkpt lat="-37.52980378813344" lon="144.26019888923184"><ele>552.0</ele><time>2026-03-21T22:47:34Z</time></trkpt><trkpt lat="-37.5298363825429" lon="144.26029244365483"><ele>552.0</ele><time>2026-03-21T22:47:37Z</time></trkpt><trkpt lat="-37.529804442051585" lon="144.2604110303074"><ele>552.0</ele><time>2026-03-21T22:47:39Z</time></trkpt><trkpt lat="-37.52980783143886" lon="144.26049331870098"><ele>552.0</ele><time>2026-03-21T22:47:40Z</time></trkpt><trkpt lat="-37.52987141957663" lon="144.26056977351615"><ele>552.8000000000001</ele><time>2026-03-21T22:47:42Z</time></trkpt><trkpt lat="-37.52994190559274" lon="144.26066483672727"><ele>553.6</ele><time>2026-03-21T22:47:44Z</time></trkpt><trkpt lat="-37.5300158528726" lon="144.2606990923087"><ele>554.4000000000001</ele><time>2026-03-21T22:47:46Z</time></trkpt><trkpt lat="-37.53010683425059" lon="144.26069306693532"><ele>555.2</ele><time>2026-03-21T22:47:48Z</time></trkpt><trkpt lat="-37.530202787077776" lon="144.26074309129325"><ele>556.0</ele><time>2026-03-21T22:47:50Z</time></trkpt><trkpt lat="-37.53026743347338" lon="144.2606996127579"><ele>555.2</ele><time>2026-03-21T22:47:51Z</time></trkpt><trkpt lat="-37.53031793638515" lon="144.2605923939501"><ele>554.4000000000001</ele><time>2026-03-21T22:47:52Z</time></trkpt><trkpt lat="-37.53039245068526" lon="144.2606116782419"><ele>553.6</ele><time>2026-03-21T22:47:55Z</time></trkpt><trkpt lat="-37.53045745551011" lon="144.26071681153718"><ele>552.8000000000001</ele><time>2026-03-21T22:47:57Z</time></trkpt><trkpt lat="-37.53052796045953" lon="144.26080095566812"><ele>552.0</ele><time>2026-03-21T22:47:59Z</time></trkpt><trkpt lat="-37.53048227911055" lon="144.26091474494342"><ele>552.8000000000001</ele><time>2026-03-21T22:48:01Z</time></trkpt><trkpt lat="-37.53043158845404" lon="144.26108617569608"><ele>553.6</ele><time>2026-03-21T22:48:03Z</time></trkpt><trkpt lat="-37.53038096409237" lon="144.26120192396576"><ele>554.4000000000001</ele><time>2026-03-21T22:48:05Z</time></trkpt><trkpt lat="-37.530344537496816" lon="144.2612917882125"><ele>555.2</ele><time>2026-03-21T22:48:06Z</time></trkpt><trkpt lat="-37.53029720375052" lon="144.2613915558793"><ele>556.0</ele><time>2026-03-21T22:48:08Z</time></trkpt><trkpt lat="-37.530369112222274" lon="144.26147286141253"><ele>558.0</ele><time>2026-03-21T22:48:11Z</time></trkpt><trkpt lat="-37.53045312797723" lon="144.26149391874085"><ele>560.0</ele><time>2026-03-21T22:48:12Z</time></trkpt><trkpt lat="-37.530546626923744" lon="144.26150123086578"><ele>562.0</ele><time>2026-03-21T22:48:13Z</time></trkpt><trkpt lat="-37.53061106633864" lon="144.26154233514063"><ele>564.0</ele><time>2026-03-21T22:48:14Z</time></trkpt><trkpt lat="-37.53069412013709" lon="144.2616044189235"><ele>566.0</ele><time>2026-03-21T22:48:15Z</time></trkpt><trkpt lat="-37.530768199818986" lon="144.26159288747039"><ele>568.0</ele><time>2026-03-21T22:48:17Z</time></trkpt><trkpt lat="-37.53083266781464" lon="144.26155304193873"><ele>568.0</ele><time>2026-03-21T22:48:18Z</time></trkpt><trkpt lat="-37.53089994667259" lon="144.2616417698581"><ele>568.0</ele><time>2026-03-21T22:48:20Z</time></trkpt><trkpt lat="-37.53100235533918" lon="144.26176195100078"><ele>568.0</ele><time>2026-03-21T22:48:22Z</time></trkpt><trkpt lat="-37.53111711370556" lon="144.26182816740433"><ele>568.0</ele><time>2026-03-21T22:48:23Z</time></trkpt><trkpt lat="-37.531221362758544" lon="144.26191226972472"><ele>570.0</ele><time>2026-03-21T22:48:24Z</time></trkpt><trkpt lat="-37.531284188906675" lon="144.2619939576642"><ele>572.0</ele><time>2026-03-21T22:48:26Z</time></trkpt><trkpt lat="-37.53132670586118" lon="144.26210740353423"><ele>574.0</ele><time>2026-03-21T22:48:28Z</time></trkpt><trkpt lat="-37.53134449533485" lon="144.26221625419444"><ele>576.0</ele><time>2026-03-21T22:48:30Z</time></trkpt><trkpt lat="-37.5313817081969" lon="144.2623183539825"><ele>578.0</ele><time>2026-03-21T22:48:31Z</time></trkpt><trkpt lat="-37.53141093651931" lon="144.26246634154657"><ele>578.0</ele><time>2026-03-21T22:48:33Z</time></trkpt><trkpt lat="-37.53154918172191" lon="144.2623922581028"><ele>578.0</ele><time>2026-03-21T22:48:34Z</time></trkpt><trkpt lat="-37.53160299341589" lon="144.26233564233408"><ele>578.0</ele><time>2026-03-21T22:48:35Z</time></trkpt><trkpt lat="-37.53170304451231" lon="144.26226100288358"><ele>578.0</ele><time>2026-03-21T22:48:37Z</time></trkpt><trkpt lat="-37.531779380354656" lon="144.2624217401106"><ele>579.5</ele><time>2026-03-21T22:48:39Z</time></trkpt><trkpt lat="-37.53181362311147" lon="144.26249033632953"><ele>581.0</ele><time>2026-03-21T22:48:40Z</time></trkpt><trkpt lat="-37.531873067951665" lon="144.2625462618204"><ele>582.5</ele><time>2026-03-21T22:48:41Z</time></trkpt><trkpt lat="-37.53190645041552" lon="144.26269373530187"><ele>584.0</ele><time>2026-03-21T22:48:43Z</time></trkpt><trkpt lat="-37.53192002154867" lon="144.26280288386252"><ele>585.5</ele><time>2026-03-21T22:48:44Z</time></trkpt><trkpt lat="-37.53192718373843" lon="144.26288571214747"><ele>587.0</ele><time>2026-03-21T22:48:45Z</time></trkpt><trkpt lat="-37.531895549729256" lon="144.26304752986817"><ele>587.5</ele><time>2026-03-21T22:48:47Z</time></trkpt><trkpt lat="-37.531913465098505" lon="144.26314661045762"><ele>588.0</ele><time>2026-03-21T22:48:48Z</time></trkpt><trkpt lat="-37.5319707275455" lon="144.26323398131032"><ele>588.5</ele><time>2026-03-21T22:48:49Z</time></trkpt><trkpt lat="-37.53204596651569" lon="144.26333553158386"><ele>589.0</ele><time>2026-03-21T22:48:50Z</time></trkpt><trkpt lat="-37.53211238219521" lon="144.26338267945573"><ele>589.5</ele><time>2026-03-21T22:48:51Z</time></trkpt><trkpt lat="-37.532197718778775" lon="144.26342277641027"><ele>590.0</ele><time>2026-03-21T22:48:52Z</time></trkpt><trkpt lat="-37.532281420009156" lon="144.26344731203"><ele>592.0</ele><time>2026-03-21T22:48:53Z</time></trkpt><trkpt lat="-37.532368364901" lon="144.26347685720643"><ele>594.0</ele><time>2026-03-21T22:48:54Z</time></trkpt><trkpt lat="-37.53244545828322" lon="144.26349824510027"><ele>596.0</ele><time>2026-03-21T22:48:55Z</time></trkpt><trkpt lat="-37.53251546553711" lon="144.26353365852358"><ele>598.0</ele><time>2026-03-21T22:48:56Z</time></trkpt><trkpt lat="-37.5325708908185" lon="144.2635738600866"><ele>600.0</ele><time>2026-03-21T22:48:57Z</time></trkpt><trkpt lat="-37.53264457212927" lon="144.26360376077147"><ele>602.0</ele><time>2026-03-21T22:48:59Z</time></trkpt><trkpt lat="-37.532726584084116" lon="144.26354514555305"><ele>602.0</ele><time>2026-03-21T22:50:28Z</time></trkpt><trkpt lat="-37.53278966602318" lon="144.26348142536858"><ele>602.0</ele><time>2026-03-21T22:50:30Z</time></trkpt><trkpt lat="-37.532896345146646" lon="144.26340442373777"><ele>602.0</ele><time>2026-03-21T22:50:32Z</time></trkpt><trkpt lat="-37.53297055194215" lon="144.26338899340323"><ele>602.0</ele><time>2026-03-21T22:50:33Z</time></trkpt><trkpt lat="-37.53305795746891" lon="144.26334452612898"><ele>602.0</ele><time>2026-03-21T22:50:34Z</time></trkpt><trkpt lat="-37.53315647773072" lon="144.26327124085276"><ele>602.4</ele><time>2026-03-21T22:50:36Z</time></trkpt><trkpt lat="-37.53322492600597" lon="144.26325347077744"><ele>602.8000000000001</ele><time>2026-03-21T22:50:37Z</time></trkpt><trkpt lat="-37.53331178972625" lon="144.2632470530112"><ele>603.2</ele><time>2026-03-21T22:50:39Z</time></trkpt><trkpt lat="-37.5333786766228" lon="144.2630809551788"><ele>603.6</ele><time>2026-03-21T22:50:41Z</time></trkpt><trkpt lat="-37.533378384354336" lon="144.26298771404512"><ele>604.0</ele><time>2026-03-21T22:50:42Z</time></trkpt><trkpt lat="-37.53341531715176" lon="144.2629079694049"><ele>604.0</ele><time>2026-03-21T22:50:44Z</time></trkpt><trkpt lat="-37.53350313057226" lon="144.26293295975006"><ele>604.0</ele><time>2026-03-21T22:50:49Z</time></trkpt><trkpt lat="-37.533570689247156" lon="144.26299685774012"><ele>604.0</ele><time>2026-03-21T22:50:51Z</time></trkpt><trkpt lat="-37.53365580817288" lon="144.26305841687963"><ele>604.0</ele><time>2026-03-21T22:50:53Z</time></trkpt><trkpt lat="-37.53372417644984" lon="144.26312426878644"><ele>604.0</ele><time>2026-03-21T22:50:54Z</time></trkpt><trkpt lat="-37.53374323242254" lon="144.26322175122814"><ele>604.0</ele><time>2026-03-21T22:50:56Z</time></trkpt><trkpt lat="-37.53376597705422" lon="144.26334470062807"><ele>604.0</ele><time>2026-03-21T22:50:58Z</time></trkpt><trkpt lat="-37.53379446921692" lon="144.26343451003598"><ele>604.0</ele><time>2026-03-21T22:50:59Z</time></trkpt><trkpt lat="-37.53382289502567" lon="144.2635279732605"><ele>604.0</ele><time>2026-03-21T22:51:00Z</time></trkpt><trkpt lat="-37.533888848560466" lon="144.2636272668749"><ele>604.0</ele><time>2026-03-21T22:51:01Z</time></trkpt><trkpt lat="-37.53394158466774" lon="144.2637083076419"><ele>604.0</ele><time>2026-03-21T22:51:02Z</time></trkpt><trkpt lat="-37.534060745488404" lon="144.26373993414143"><ele>604.0</ele><time>2026-03-21T22:51:04Z</time></trkpt><trkpt lat="-37.534147259878466" lon="144.26377051482217"><ele>604.0</ele><time>2026-03-21T22:51:06Z</time></trkpt><trkpt lat="-37.53421873183056" lon="144.26374250063165"><ele>604.0</ele><time>2026-03-21T22:51:07Z</time></trkpt><trkpt lat="-37.53432855047561" lon="144.26376215423633"><ele>604.0</ele><time>2026-03-21T22:51:09Z</time></trkpt><trkpt lat="-37.53439561241797" lon="144.2637565465821"><ele>604.0</ele><time>2026-03-21T22:51:10Z</time></trkpt><trkpt lat="-37.534493851646964" lon="144.2637583310607"><ele>604.0</ele><time>2026-03-21T22:51:12Z</time></trkpt><trkpt lat="-37.534606009571945" lon="144.26362936736342"><ele>604.8</ele><time>2026-03-21T22:51:14Z</time></trkpt><trkpt lat="-37.534634012778234" lon="144.26349347548629"><ele>605.5999999999999</ele><time>2026-03-21T22:51:16Z</time></trkpt><trkpt lat="-37.5346188754696" lon="144.2633817427793"><ele>606.4</ele><time>2026-03-21T22:51:17Z</time></trkpt><trkpt lat="-37.53458422689113" lon="144.2632908243309"><ele>607.1999999999999</ele><time>2026-03-21T22:51:18Z</time></trkpt><trkpt lat="-37.534614472047046" lon="144.26317030394335"><ele>608.0</ele><time>2026-03-21T22:51:20Z</time></trkpt><trkpt lat="-37.534645804818076" lon="144.26305469841222"><ele>608.0</ele><time>2026-03-21T22:51:21Z</time></trkpt><trkpt lat="-37.5346873920578" lon="144.26293258251997"><ele>608.0</ele><time>2026-03-21T22:51:22Z</time></trkpt><trkpt lat="-37.53473095599005" lon="144.26282406839172"><ele>608.0</ele><time>2026-03-21T22:51:23Z</time></trkpt><trkpt lat="-37.53474697072044" lon="144.26268748876663"><ele>608.0</ele><time>2026-03-21T22:51:24Z</time></trkpt><trkpt lat="-37.534762297143494" lon="144.26257643852972"><ele>608.0</ele><time>2026-03-21T22:51:26Z</time></trkpt><trkpt lat="-37.53469531256825" lon="144.26255105656855"><ele>608.0</ele><time>2026-03-21T22:51:28Z</time></trkpt><trkpt lat="-37.53461417833103" lon="144.26253124802523"><ele>608.0</ele><time>2026-03-21T22:51:29Z</time></trkpt><trkpt lat="-37.53456379585567" lon="144.26241669983565"><ele>608.0</ele><time>2026-03-21T22:51:31Z</time></trkpt><trkpt lat="-37.53456797188144" lon="144.2623348308737"><ele>608.0</ele><time>2026-03-21T22:51:32Z</time></trkpt><trkpt lat="-37.534585252630514" lon="144.2622149343447"><ele>608.0</ele><time>2026-03-21T22:51:33Z</time></trkpt><trkpt lat="-37.53460787909171" lon="144.26212353069488"><ele>608.0</ele><time>2026-03-21T22:51:34Z</time></trkpt><trkpt lat="-37.53448906897876" lon="144.26207227000214"><ele>606.5</ele><time>2026-03-21T22:51:36Z</time></trkpt><trkpt lat="-37.53445391495504" lon="144.26198852934155"><ele>605.0</ele><time>2026-03-21T22:51:37Z</time></trkpt><trkpt lat="-37.5344310189972" lon="144.26190991169724"><ele>603.5</ele><time>2026-03-21T22:51:38.001Z</time></trkpt><trkpt lat="-37.534386823270715" lon="144.26183170392156"><ele>602.0</ele><time>2026-03-21T22:51:39.001Z</time></trkpt><trkpt lat="-37.534319576128865" lon="144.26180919942738"><ele>600.5</ele><time>2026-03-21T22:51:40.001Z</time></trkpt><trkpt lat="-37.53424714712014" lon="144.26179654480427"><ele>599.0</ele><time>2026-03-21T22:51:41.001Z</time></trkpt><trkpt lat="-37.53415953805039" lon="144.26172797577846"><ele>599.0</ele><time>2026-03-21T22:51:43.001Z</time></trkpt><trkpt lat="-37.534102049482094" lon="144.2616917909789"><ele>599.0</ele><time>2026-03-21T22:51:44.001Z</time></trkpt><trkpt lat="-37.534038584916715" lon="144.26168110240292"><ele>599.0</ele><time>2026-03-21T22:51:45.001Z</time></trkpt><trkpt lat="-37.5339400468714" lon="144.26160826094517"><ele>599.0</ele><time>2026-03-21T22:51:47.001Z</time></trkpt><trkpt lat="-37.5338985975947" lon="144.2614121348936"><ele>599.0</ele><time>2026-03-21T22:51:49.001Z</time></trkpt><trkpt lat="-37.533872224770214" lon="144.26130532670922"><ele>598.8</ele><time>2026-03-21T22:51:50.001Z</time></trkpt><trkpt lat="-37.53386221747071" lon="144.261176612831"><ele>598.5999999999999</ele><time>2026-03-21T22:51:51.001Z</time></trkpt><trkpt lat="-37.53381938336981" lon="144.26106425913403"><ele>598.4</ele><time>2026-03-21T22:51:52.001Z</time></trkpt><trkpt lat="-37.53377580406981" lon="144.26098070321342"><ele>598.1999999999999</ele><time>2026-03-21T22:51:53.001Z</time></trkpt><trkpt lat="-37.53372714464282" lon="144.2608765401831"><ele>598.0</ele><time>2026-03-21T22:51:54.001Z</time></trkpt><trkpt lat="-37.53366954585047" lon="144.2607816018928"><ele>595.8</ele><time>2026-03-21T22:51:55.001Z</time></trkpt><trkpt lat="-37.53359414766689" lon="144.26071916487874"><ele>593.5999999999999</ele><time>2026-03-21T22:51:56.001Z</time></trkpt><trkpt lat="-37.53344138527714" lon="144.26068691782044"><ele>591.4000000000001</ele><time>2026-03-21T22:51:58.001Z</time></trkpt><trkpt lat="-37.533359501356514" lon="144.26063636824324"><ele>589.2</ele><time>2026-03-21T22:51:59.001Z</time></trkpt><trkpt lat="-37.53327614258559" lon="144.26062406320594"><ele>587.0</ele><time>2026-03-21T22:52:00.001Z</time></trkpt><trkpt lat="-37.53317942167253" lon="144.2606429627281"><ele>587.0</ele><time>2026-03-21T22:52:01.001Z</time></trkpt><trkpt lat="-37.53310974507505" lon="144.26064237536605"><ele>587.0</ele><time>2026-03-21T22:52:02.001Z</time></trkpt><trkpt lat="-37.53304473293551" lon="144.2606173901058"><ele>587.0</ele><time>2026-03-21T22:52:03.001Z</time></trkpt><trkpt lat="-37.532981454164485" lon="144.2605553753067"><ele>587.0</ele><time>2026-03-21T22:52:05.001Z</time></trkpt><trkpt lat="-37.53301837070197" lon="144.2604516008535"><ele>587.0</ele><time>2026-03-21T22:52:08.001Z</time></trkpt><trkpt lat="-37.533053453357425" lon="144.26038473884245"><ele>587.0</ele><time>2026-03-21T22:52:09.001Z</time></trkpt><trkpt lat="-37.53307712848849" lon="144.2602346120586"><ele>586.4</ele><time>2026-03-21T22:52:11.001Z</time></trkpt><trkpt lat="-37.532983709651035" lon="144.2601204264107"><ele>585.8000000000001</ele><time>2026-03-21T22:52:13.001Z</time></trkpt><trkpt lat="-37.53297480510882" lon="144.2600110950472"><ele>585.2</ele><time>2026-03-21T22:52:15.001Z</time></trkpt><trkpt lat="-37.5329001197852" lon="144.25995553817216"><ele>584.6</ele><time>2026-03-21T22:52:17.001Z</time></trkpt><trkpt lat="-37.53284041035227" lon="144.2599067593054"><ele>584.0</ele><time>2026-03-21T22:52:19.001Z</time></trkpt><trkpt lat="-37.53286869898205" lon="144.25980857054643"><ele>584.0</ele><time>2026-03-21T22:52:22.001Z</time></trkpt><trkpt lat="-37.53298400046034" lon="144.25980774174985"><ele>584.0</ele><time>2026-03-21T22:52:25Z</time></trkpt><trkpt lat="-37.53307689948017" lon="144.25983484403562"><ele>584.0</ele><time>2026-03-21T22:52:26Z</time></trkpt><trkpt lat="-37.533157710828874" lon="144.2598497650372"><ele>584.0</ele><time>2026-03-21T22:52:27Z</time></trkpt><trkpt lat="-37.53322908012104" lon="144.25990607926983"><ele>584.0</ele><time>2026-03-21T22:52:29Z</time></trkpt><trkpt lat="-37.533340359313996" lon="144.25989895751255"><ele>584.0</ele><time>2026-03-21T22:52:31Z</time></trkpt><trkpt lat="-37.53336342248335" lon="144.25982144820543"><ele>584.0</ele><time>2026-03-21T22:52:32Z</time></trkpt><trkpt lat="-37.53342395336298" lon="144.25971847977195"><ele>584.0</ele><time>2026-03-21T22:52:34Z</time></trkpt><trkpt lat="-37.53353896722474" lon="144.2597598098678"><ele>584.0</ele><time>2026-03-21T22:52:36Z</time></trkpt><trkpt lat="-37.53359459757672" lon="144.2598033508946"><ele>584.0</ele><time>2026-03-21T22:52:37Z</time></trkpt><trkpt lat="-37.533670182938835" lon="144.25983911947228"><ele>584.0</ele><time>2026-03-21T22:52:38Z</time></trkpt><trkpt lat="-37.53375972561689" lon="144.2598407600856"><ele>584.3333333333333</ele><time>2026-03-21T22:52:39Z</time></trkpt><trkpt lat="-37.53384565248898" lon="144.25980539505696"><ele>584.6666666666666</ele><time>2026-03-21T22:52:40Z</time></trkpt><trkpt lat="-37.533913637042986" lon="144.2597145319594"><ele>585.0</ele><time>2026-03-21T22:52:41Z</time></trkpt><trkpt lat="-37.5339584775058" lon="144.2596301515056"><ele>585.3333333333334</ele><time>2026-03-21T22:52:42Z</time></trkpt><trkpt lat="-37.534006711722235" lon="144.2595735493907"><ele>585.6666666666667</ele><time>2026-03-21T22:52:43Z</time></trkpt><trkpt lat="-37.53408738037411" lon="144.25958290762574"><ele>586.0</ele><time>2026-03-21T22:52:45Z</time></trkpt><trkpt lat="-37.5341937555451" lon="144.2595995622917"><ele>586.0</ele><time>2026-03-21T22:52:47Z</time></trkpt><trkpt lat="-37.53430007933206" lon="144.2596648018375"><ele>586.0</ele><time>2026-03-21T22:52:49Z</time></trkpt><trkpt lat="-37.53443996121031" lon="144.25964732771195"><ele>586.0</ele><time>2026-03-21T22:52:51Z</time></trkpt><trkpt lat="-37.5345391964989" lon="144.25963143802443"><ele>586.0</ele><time>2026-03-21T22:52:52Z</time></trkpt><trkpt lat="-37.53460348246099" lon="144.25961145613527"><ele>586.0</ele><time>2026-03-21T22:52:53Z</time></trkpt><trkpt lat="-37.534661653685674" lon="144.2595487517025"><ele>586.7142857142857</ele><time>2026-03-21T22:52:54Z</time></trkpt><trkpt lat="-37.53468632700365" lon="144.259468715934"><ele>587.4285714285714</ele><time>2026-03-21T22:52:55Z</time></trkpt><trkpt lat="-37.53467386136324" lon="144.2593789373135"><ele>588.1428571428571</ele><time>2026-03-21T22:52:56Z</time></trkpt><trkpt lat="-37.534691005114546" lon="144.25930154515638"><ele>588.8571428571429</ele><time>2026-03-21T22:52:57Z</time></trkpt><trkpt lat="-37.534702369308256" lon="144.25918419329878"><ele>589.5714285714286</ele><time>2026-03-21T22:52:59Z</time></trkpt><trkpt lat="-37.534672015432314" lon="144.25908891269944"><ele>590.2857142857142</ele><time>2026-03-21T22:53:00Z</time></trkpt><trkpt lat="-37.53466122328229" lon="144.2590047747699"><ele>591.0</ele><time>2026-03-21T22:53:01Z</time></trkpt><trkpt lat="-37.534675511256914" lon="144.25892145132374"><ele>589.3333333333334</ele><time>2026-03-21T22:53:02Z</time></trkpt><trkpt lat="-37.53468855743091" lon="144.25882789030078"><ele>587.6666666666666</ele><time>2026-03-21T22:53:03Z</time></trkpt><trkpt lat="-37.53469739689834" lon="144.2587379867392"><ele>586.0</ele><time>2026-03-21T22:53:04Z</time></trkpt><trkpt lat="-37.53470043374596" lon="144.25864596921156"><ele>584.3333333333333</ele><time>2026-03-21T22:53:05Z</time></trkpt><trkpt lat="-37.53469651812986" lon="144.25856287792732"><ele>582.6666666666666</ele><time>2026-03-21T22:53:06Z</time></trkpt><trkpt lat="-37.534673716349545" lon="144.25848563863315"><ele>581.0</ele><time>2026-03-21T22:53:07Z</time></trkpt><trkpt lat="-37.53470968240124" lon="144.2583468380588"><ele>581.0</ele><time>2026-03-21T22:53:09Z</time></trkpt><trkpt lat="-37.534771827542905" lon="144.25828164509775"><ele>581.0</ele><time>2026-03-21T22:53:11Z</time></trkpt><trkpt lat="-37.53489663998964" lon="144.25831538017877"><ele>581.0</ele><time>2026-03-21T22:53:13Z</time></trkpt><trkpt lat="-37.534969459878425" lon="144.25829684572076"><ele>581.0</ele><time>2026-03-21T22:53:14Z</time></trkpt><trkpt lat="-37.53507705858009" lon="144.25820054562323"><ele>581.0</ele><time>2026-03-21T22:53:16Z</time></trkpt><trkpt lat="-37.53519300240217" lon="144.25822335928484"><ele>581.0</ele><time>2026-03-21T22:53:18Z</time></trkpt><trkpt lat="-37.53528347147856" lon="144.25831029553183"><ele>581.0</ele><time>2026-03-21T22:53:20Z</time></trkpt><trkpt lat="-37.53535253881613" lon="144.25840629811543"><ele>581.0</ele><time>2026-03-21T22:53:22Z</time></trkpt><trkpt lat="-37.53545110507411" lon="144.258356210772"><ele>581.0</ele><time>2026-03-21T22:53:24Z</time></trkpt><trkpt lat="-37.535575635624255" lon="144.2583508376289"><ele>581.0</ele><time>2026-03-21T22:53:26Z</time></trkpt><trkpt lat="-37.535668579206416" lon="144.258358284468"><ele>580.5</ele><time>2026-03-21T22:53:28Z</time></trkpt><trkpt lat="-37.53573750410282" lon="144.25837211795488"><ele>580.0</ele><time>2026-03-21T22:54:23Z</time></trkpt><trkpt lat="-37.53581156159238" lon="144.2583614963633"><ele>579.5</ele><time>2026-03-21T22:54:25Z</time></trkpt><trkpt lat="-37.53589656638197" lon="144.2583509381551"><ele>579.0</ele><time>2026-03-21T22:54:27Z</time></trkpt><trkpt lat="-37.53593596242112" lon="144.25825811393415"><ele>578.5</ele><time>2026-03-21T22:54:29Z</time></trkpt><trkpt lat="-37.535968686708785" lon="144.25818628172667"><ele>578.0</ele><time>2026-03-21T22:54:32Z</time></trkpt><trkpt lat="-37.5359787893652" lon="144.2580918755629"><ele>576.5</ele><time>2026-03-21T22:54:42Z</time></trkpt><trkpt lat="-37.5359788081827" lon="144.2579897447478"><ele>575.0</ele><time>2026-03-21T22:54:48Z</time></trkpt><trkpt lat="-37.53602788816242" lon="144.25792994158476"><ele>573.5</ele><time>2026-03-21T22:54:51Z</time></trkpt><trkpt lat="-37.53609738935086" lon="144.2579574684853"><ele>572.0</ele><time>2026-03-21T22:54:53Z</time></trkpt><trkpt lat="-37.53617453434513" lon="144.2579000053689"><ele>570.5</ele><time>2026-03-21T22:54:55Z</time></trkpt><trkpt lat="-37.53614681799356" lon="144.25774518393203"><ele>569.0</ele><time>2026-03-21T22:54:57Z</time></trkpt><trkpt lat="-37.53610349901489" lon="144.2576213778025"><ele>569.0</ele><time>2026-03-21T22:54:59Z</time></trkpt><trkpt lat="-37.53609323706482" lon="144.2575191825043"><ele>569.0</ele><time>2026-03-21T22:55:01Z</time></trkpt><trkpt lat="-37.53599369989444" lon="144.2575207412755"><ele>569.0</ele><time>2026-03-21T22:55:03Z</time></trkpt><trkpt lat="-37.535894790529106" lon="144.25747898061238"><ele>569.0</ele><time>2026-03-21T22:55:05Z</time></trkpt><trkpt lat="-37.53583287216423" lon="144.25738317783004"><ele>569.0</ele><time>2026-03-21T22:55:08Z</time></trkpt><trkpt lat="-37.535821949636684" lon="144.25730145512273"><ele>569.0</ele><time>2026-03-21T22:55:09Z</time></trkpt><trkpt lat="-37.53581777767057" lon="144.25721151968708"><ele>567.6</ele><time>2026-03-21T22:55:10Z</time></trkpt><trkpt lat="-37.53578058257691" lon="144.25709148865934"><ele>566.2</ele><time>2026-03-21T22:55:12Z</time></trkpt><trkpt lat="-37.53574930810639" lon="144.25700945285627"><ele>564.8000000000001</ele><time>2026-03-21T22:55:25Z</time></trkpt><trkpt lat="-37.53581175232971" lon="144.2569636201516"><ele>563.4</ele><time>2026-03-21T22:55:35Z</time></trkpt><trkpt lat="-37.53589557821469" lon="144.2569537281767"><ele>562.0</ele><time>2026-03-21T22:55:38Z</time></trkpt><trkpt lat="-37.535952707315204" lon="144.25681322408866"><ele>562.0</ele><time>2026-03-21T22:55:40Z</time></trkpt><trkpt lat="-37.53593135001586" lon="144.2567280745353"><ele>562.0</ele><time>2026-03-21T22:55:41Z</time></trkpt><trkpt lat="-37.535897148489454" lon="144.25662516962706"><ele>562.0</ele><time>2026-03-21T22:55:42Z</time></trkpt><trkpt lat="-37.53592182254128" lon="144.2565329719418"><ele>562.0</ele><time>2026-03-21T22:55:45Z</time></trkpt><trkpt lat="-37.535972711281026" lon="144.25646190448418"><ele>562.0</ele><time>2026-03-21T22:55:47Z</time></trkpt><trkpt lat="-37.536019396790856" lon="144.25637186846868"><ele>562.0</ele><time>2026-03-21T22:55:49Z</time></trkpt><trkpt lat="-37.53609031936533" lon="144.25635916980153"><ele>561.5714285714287</ele><time>2026-03-21T22:55:51Z</time></trkpt><trkpt lat="-37.536121373559205" lon="144.25627835167708"><ele>561.1428571428571</ele><time>2026-03-21T22:55:54Z</time></trkpt><trkpt lat="-37.53618822792824" lon="144.25621182559732"><ele>560.7142857142858</ele><time>2026-03-21T22:56:07Z</time></trkpt><trkpt lat="-37.536226661007134" lon="144.25612765790552"><ele>560.2857142857143</ele><time>2026-03-21T22:56:09Z</time></trkpt><trkpt lat="-37.536293951180376" lon="144.25609358660208"><ele>559.8571428571429</ele><time>2026-03-21T22:56:10Z</time></trkpt><trkpt lat="-37.53635525887121" lon="144.25606434401655"><ele>559.4285714285714</ele><time>2026-03-21T22:56:12Z</time></trkpt><trkpt lat="-37.53643015365015" lon="144.2560477001235"><ele>559.0</ele><time>2026-03-21T22:56:17Z</time></trkpt><trkpt lat="-37.536513627560346" lon="144.25603975383657"><ele>558.6666666666667</ele><time>2026-03-21T22:56:22Z</time></trkpt><trkpt lat="-37.53656545846474" lon="144.2559930592835"><ele>558.3333333333334</ele><time>2026-03-21T22:56:23Z</time></trkpt><trkpt lat="-37.53662542928158" lon="144.2559365021829"><ele>558.0</ele><time>2026-03-21T22:56:24Z</time></trkpt><trkpt lat="-37.536686496633926" lon="144.2558519930135"><ele>557.6666666666666</ele><time>2026-03-21T22:56:25Z</time></trkpt><trkpt lat="-37.53672437674905" lon="144.25574457314838"><ele>557.3333333333333</ele><time>2026-03-21T22:56:26Z</time></trkpt><trkpt lat="-37.53674850312494" lon="144.25561112572015"><ele>557.0</ele><time>2026-03-21T22:56:27Z</time></trkpt><trkpt lat="-37.536760725584806" lon="144.25550528557673"><ele>554.6666666666666</ele><time>2026-03-21T22:56:28Z</time></trkpt><trkpt lat="-37.53676950477085" lon="144.25540135581645"><ele>552.3333333333333</ele><time>2026-03-21T22:56:29Z</time></trkpt><trkpt lat="-37.53679098828257" lon="144.25531501827743"><ele>550.0</ele><time>2026-03-21T22:56:30Z</time></trkpt><trkpt lat="-37.53682786104486" lon="144.25523405006754"><ele>547.6666666666666</ele><time>2026-03-21T22:56:31Z</time></trkpt><trkpt lat="-37.53688895900402" lon="144.25514805723583"><ele>545.3333333333334</ele><time>2026-03-21T22:56:33Z</time></trkpt><trkpt lat="-37.536940152505586" lon="144.25504055886466"><ele>543.0</ele><time>2026-03-21T22:56:35Z</time></trkpt><trkpt lat="-37.53701663533382" lon="144.2549217214686"><ele>541.1428571428571</ele><time>2026-03-21T22:56:37Z</time></trkpt><trkpt lat="-37.53708193937099" lon="144.2549203312876"><ele>539.2857142857142</ele><time>2026-03-21T22:56:40Z</time></trkpt><trkpt lat="-37.53715817931865" lon="144.2549515629735"><ele>537.4285714285713</ele><time>2026-03-21T22:56:43Z</time></trkpt><trkpt lat="-37.53723884048698" lon="144.25495231843405"><ele>535.5714285714286</ele><time>2026-03-21T22:56:46Z</time></trkpt><trkpt lat="-37.537311953398465" lon="144.25494846279824"><ele>533.7142857142857</ele><time>2026-03-21T22:56:49Z</time></trkpt><trkpt lat="-37.537389181091804" lon="144.2549352942358"><ele>531.8571428571428</ele><time>2026-03-21T22:56:52Z</time></trkpt><trkpt lat="-37.53745553897643" lon="144.25491365591"><ele>530.0</ele><time>2026-03-21T22:56:55Z</time></trkpt><trkpt lat="-37.537524380781946" lon="144.25492334828158"><ele>530.0</ele><time>2026-03-21T22:57:00Z</time></trkpt><trkpt lat="-37.5376066841107" lon="144.25491625440333"><ele>530.0</ele><time>2026-03-21T22:57:04Z</time></trkpt><trkpt lat="-37.53768353832521" lon="144.25489433213994"><ele>530.0</ele><time>2026-03-21T22:57:07Z</time></trkpt><trkpt lat="-37.53768519186424" lon="144.25479386264263"><ele>530.0</ele><time>2026-03-21T22:57:10Z</time></trkpt><trkpt lat="-37.53770618594802" lon="144.25470679218128"><ele>530.0</ele><time>2026-03-21T22:57:13Z</time></trkpt><trkpt lat="-37.5377468090218" lon="144.25462539898658"><ele>530.0</ele><time>2026-03-21T22:57:16Z</time></trkpt><trkpt lat="-37.53776011003473" lon="144.2545354390012"><ele>529.1666666666666</ele><time>2026-03-21T22:57:19Z</time></trkpt><trkpt lat="-37.53778027684229" lon="144.2544503772802"><ele>528.3333333333333</ele><time>2026-03-21T22:57:22Z</time></trkpt><trkpt lat="-37.537830619272476" lon="144.25436407059937"><ele>527.5</ele><time>2026-03-21T22:57:29Z</time></trkpt><trkpt lat="-37.53786861003317" lon="144.2542841922939"><ele>526.6666666666666</ele><time>2026-03-21T22:57:30Z</time></trkpt><trkpt lat="-37.53793774777616" lon="144.25425782141403"><ele>525.8333333333334</ele><time>2026-03-21T22:57:32Z</time></trkpt><trkpt lat="-37.53801973422517" lon="144.25421896111092"><ele>525.0</ele><time>2026-03-21T22:57:36Z</time></trkpt><trkpt lat="-37.53809296922016" lon="144.2541683259589"><ele>525.0</ele><time>2026-03-21T22:57:39Z</time></trkpt><trkpt lat="-37.538143621722234" lon="144.25411152931983"><ele>525.0</ele><time>2026-03-21T22:58:47Z</time></trkpt><trkpt lat="-37.53821893194475" lon="144.25407147175866"><ele>525.0</ele><time>2026-03-21T22:58:49Z</time></trkpt><trkpt lat="-37.53827219984079" lon="144.25402648148577"><ele>525.0</ele><time>2026-03-21T22:58:51Z</time></trkpt><trkpt lat="-37.53831418342606" lon="144.25396476352208"><ele>525.0</ele><time>2026-03-21T22:58:52Z</time></trkpt><trkpt lat="-37.53837093845149" lon="144.2538952197053"><ele>525.0</ele><time>2026-03-21T22:58:54Z</time></trkpt><trkpt lat="-37.538425969150616" lon="144.2539550666701"><ele>525.0</ele><time>2026-03-21T22:58:56Z</time></trkpt><trkpt lat="-37.53846173551536" lon="144.25386570490596"><ele>526.2857142857143</ele><time>2026-03-21T22:58:58Z</time></trkpt><trkpt lat="-37.53848711118987" lon="144.25379189841183"><ele>527.5714285714286</ele><time>2026-03-21T22:58:59Z</time></trkpt><trkpt lat="-37.53851145147342" lon="144.2537012690187"><ele>528.8571428571429</ele><time>2026-03-21T22:59:00Z</time></trkpt><trkpt lat="-37.538530208066476" lon="144.2536215803178"><ele>530.1428571428571</ele><time>2026-03-21T22:59:02Z</time></trkpt><trkpt lat="-37.538593797016304" lon="144.25365052109723"><ele>531.4285714285714</ele><time>2026-03-21T22:59:13Z</time></trkpt><trkpt lat="-37.53864977793609" lon="144.25361086203415"><ele>532.7142857142858</ele><time>2026-03-21T22:59:33Z</time></trkpt><trkpt lat="-37.53862087175021" lon="144.25352745101023"><ele>534.0</ele><time>2026-03-21T22:59:38Z</time></trkpt><trkpt lat="-37.53865041483372" lon="144.25341654806587"><ele>534.0</ele><time>2026-03-21T22:59:42Z</time></trkpt><trkpt lat="-37.538711413697435" lon="144.25335203322157"><ele>534.0</ele><time>2026-03-21T22:59:44Z</time></trkpt><trkpt lat="-37.53877046571529" lon="144.253233405088"><ele>534.0</ele><time>2026-03-21T22:59:46Z</time></trkpt><trkpt lat="-37.53883563113631" lon="144.25320026392953"><ele>534.0</ele><time>2026-03-21T22:59:48Z</time></trkpt><trkpt lat="-37.538882571269575" lon="144.25311043430864"><ele>534.0</ele><time>2026-03-21T22:59:51Z</time></trkpt><trkpt lat="-37.53883052437285" lon="144.25299006248727"><ele>537.4285714285714</ele><time>2026-03-21T22:59:53Z</time></trkpt><trkpt lat="-37.5388493241095" lon="144.25291015625137"><ele>540.8571428571429</ele><time>2026-03-21T22:59:55Z</time></trkpt><trkpt lat="-37.538884483779476" lon="144.25281335666568"><ele>544.2857142857142</ele><time>2026-03-21T22:59:58Z</time></trkpt><trkpt lat="-37.53889009518665" lon="144.25273341020696"><ele>547.7142857142858</ele><time>2026-03-21T22:59:59Z</time></trkpt><trkpt lat="-37.538878425582766" lon="144.25264537556149"><ele>551.1428571428571</ele><time>2026-03-21T23:00:00Z</time></trkpt><trkpt lat="-37.53879446527142" lon="144.2525973372616"><ele>554.5714285714286</ele><time>2026-03-21T23:00:02Z</time></trkpt><trkpt lat="-37.538771543221905" lon="144.25251299073935"><ele>558.0</ele><time>2026-03-21T23:00:04Z</time></trkpt><trkpt lat="-37.53875291514447" lon="144.25237753019815"><ele>560.1666666666666</ele><time>2026-03-21T23:00:06Z</time></trkpt><trkpt lat="-37.53876024213606" lon="144.2522770553836"><ele>562.3333333333334</ele><time>2026-03-21T23:00:08Z</time></trkpt><trkpt lat="-37.53879529880333" lon="144.2522021892425"><ele>564.5</ele><time>2026-03-21T23:00:09Z</time></trkpt><trkpt lat="-37.53883387371257" lon="144.25212148238757"><ele>566.6666666666667</ele><time>2026-03-21T23:00:10Z</time></trkpt><trkpt lat="-37.538893454674295" lon="144.25206316806918"><ele>568.8333333333334</ele><time>2026-03-21T23:00:11.001Z</time></trkpt><trkpt lat="-37.5389646605527" lon="144.25198377924"><ele>571.0</ele><time>2026-03-21T23:00:12.001Z</time></trkpt><trkpt lat="-37.538996071418275" lon="144.2519046563815"><ele>571.0</ele><time>2026-03-21T23:00:13.001Z</time></trkpt><trkpt lat="-37.53902202298421" lon="144.25180618577807"><ele>571.0</ele><time>2026-03-21T23:00:14.001Z</time></trkpt><trkpt lat="-37.53903950945824" lon="144.25170192645064"><ele>571.0</ele><time>2026-03-21T23:00:15.001Z</time></trkpt><trkpt lat="-37.5391051789452" lon="144.25160361202498"><ele>571.0</ele><time>2026-03-21T23:00:17.001Z</time></trkpt><trkpt lat="-37.53920788961836" lon="144.2514914268861"><ele>571.0</ele><time>2026-03-21T23:00:19.001Z</time></trkpt><trkpt lat="-37.53928736208461" lon="144.2514682087602"><ele>571.0</ele><time>2026-03-21T23:00:21.001Z</time></trkpt><trkpt lat="-37.53935857399767" lon="144.25151455248346"><ele>571.0</ele><time>2026-03-21T23:00:23.001Z</time></trkpt><trkpt lat="-37.539421129715755" lon="144.25142538880513"><ele>571.0</ele><time>2026-03-21T23:00:34.001Z</time></trkpt><trkpt lat="-37.53940299654002" lon="144.25124221516256"><ele>571.0</ele><time>2026-03-21T23:00:36.001Z</time></trkpt><trkpt lat="-37.53938360503473" lon="144.25115681389545"><ele>571.0</ele><time>2026-03-21T23:00:37.001Z</time></trkpt><trkpt lat="-37.53938435383577" lon="144.25107511932572"><ele>571.8</ele><time>2026-03-21T23:00:38.001Z</time></trkpt><trkpt lat="-37.53942052678224" lon="144.25092691070753"><ele>572.6</ele><time>2026-03-21T23:00:40.001Z</time></trkpt><trkpt lat="-37.53941468010976" lon="144.25084693378795"><ele>573.4</ele><time>2026-03-21T23:00:41.001Z</time></trkpt><trkpt lat="-37.53940462526655" lon="144.2507341200068"><ele>574.2</ele><time>2026-03-21T23:00:43.001Z</time></trkpt><trkpt lat="-37.53928720661708" lon="144.25058025363037"><ele>575.0</ele><time>2026-03-21T23:00:45.001Z</time></trkpt><trkpt lat="-37.53918041766607" lon="144.25043674311019"><ele>575.0</ele><time>2026-03-21T23:00:46.001Z</time></trkpt><trkpt lat="-37.53908756158024" lon="144.25032386299742"><ele>575.0</ele><time>2026-03-21T23:00:47.001Z</time></trkpt><trkpt lat="-37.53900246353444" lon="144.25024562290307"><ele>575.0</ele><time>2026-03-21T23:00:48.001Z</time></trkpt><trkpt lat="-37.53891944824449" lon="144.25014512179808"><ele>575.0</ele><time>2026-03-21T23:00:49.001Z</time></trkpt><trkpt lat="-37.53881910541541" lon="144.2500269867362"><ele>575.0</ele><time>2026-03-21T23:00:50.001Z</time></trkpt><trkpt lat="-37.53871841795997" lon="144.24992295036918"><ele>575.0</ele><time>2026-03-21T23:00:51.001Z</time></trkpt><trkpt lat="-37.53864224347351" lon="144.2498523329589"><ele>575.0</ele><time>2026-03-21T23:00:52.001Z</time></trkpt><trkpt lat="-37.53856328031136" lon="144.24975442218977"><ele>575.0</ele><time>2026-03-21T23:00:53.001Z</time></trkpt><trkpt lat="-37.53846596813711" lon="144.24962873126057"><ele>576.0</ele><time>2026-03-21T23:00:54.001Z</time></trkpt><trkpt lat="-37.53838637060667" lon="144.24952464189758"><ele>577.0</ele><time>2026-03-21T23:00:55.001Z</time></trkpt><trkpt lat="-37.53835367835273" lon="144.24945669270687"><ele>578.0</ele><time>2026-03-21T23:00:56.001Z</time></trkpt><trkpt lat="-37.53834202755211" lon="144.24934080619195"><ele>579.0</ele><time>2026-03-21T23:01:00.001Z</time></trkpt><trkpt lat="-37.53830845208108" lon="144.24925728796555"><ele>580.0</ele><time>2026-03-21T23:01:01.001Z</time></trkpt><trkpt lat="-37.538237787601595" lon="144.2491613920214"><ele>581.0</ele><time>2026-03-21T23:01:02.001Z</time></trkpt><trkpt lat="-37.53813036685754" lon="144.24907889258125"><ele>581.0</ele><time>2026-03-21T23:01:03.001Z</time></trkpt><trkpt lat="-37.53801765868886" lon="144.24900997811082"><ele>581.0</ele><time>2026-03-21T23:01:04.001Z</time></trkpt><trkpt lat="-37.537913836549805" lon="144.2489526052801"><ele>581.0</ele><time>2026-03-21T23:01:05.001Z</time></trkpt><trkpt lat="-37.53779988259629" lon="144.24891209650258"><ele>581.0</ele><time>2026-03-21T23:01:06.001Z</time></trkpt><trkpt lat="-37.53768256424525" lon="144.24886691875315"><ele>582.2</ele><time>2026-03-21T23:01:07.001Z</time></trkpt><trkpt lat="-37.53758822934972" lon="144.24884955075274"><ele>583.4000000000001</ele><time>2026-03-21T23:01:08.001Z</time></trkpt><trkpt lat="-37.53748790220522" lon="144.2488745011517"><ele>584.6</ele><time>2026-03-21T23:01:09.001Z</time></trkpt><trkpt lat="-37.53737942582276" lon="144.24890414761097"><ele>585.8000000000001</ele><time>2026-03-21T23:01:10.001Z</time></trkpt><trkpt lat="-37.537283225897696" lon="144.2489457990973"><ele>587.0</ele><time>2026-03-21T23:01:11.001Z</time></trkpt><trkpt lat="-37.53720665283144" lon="144.2489679832306"><ele>587.0</ele><time>2026-03-21T23:01:12.001Z</time></trkpt><trkpt lat="-37.53714257323694" lon="144.24897874292026"><ele>587.0</ele><time>2026-03-21T23:01:13.001Z</time></trkpt><trkpt lat="-37.53706505470047" lon="144.2490067558313"><ele>587.0</ele><time>2026-03-21T23:01:15.001Z</time></trkpt><trkpt lat="-37.537058506564584" lon="144.2491344063277"><ele>587.0</ele><time>2026-03-21T23:01:28Z</time></trkpt><trkpt lat="-37.537004716733776" lon="144.24926984150395"><ele>587.0</ele><time>2026-03-21T23:01:30Z</time></trkpt><trkpt lat="-37.536951802967984" lon="144.24931843837447"><ele>587.0</ele><time>2026-03-21T23:01:31Z</time></trkpt><trkpt lat="-37.53689715197015" lon="144.24938033481195"><ele>587.0</ele><time>2026-03-21T23:01:32Z</time></trkpt><trkpt lat="-37.53684982903518" lon="144.2493159428165"><ele>587.0</ele><time>2026-03-21T23:01:42Z</time></trkpt><trkpt lat="-37.53692109196007" lon="144.24923285647665"><ele>587.0</ele><time>2026-03-21T23:01:44Z</time></trkpt><trkpt lat="-37.53697931930683" lon="144.24920236900164"><ele>587.0</ele><time>2026-03-21T23:01:45Z</time></trkpt><trkpt lat="-37.53704055678521" lon="144.24916123474716"><ele>587.0</ele><time>2026-03-21T23:01:46Z</time></trkpt><trkpt lat="-37.53709133068355" lon="144.24908593876276"><ele>587.0</ele><time>2026-03-21T23:01:47Z</time></trkpt><trkpt lat="-37.53707196008732" lon="144.24895381403405"><ele>588.6</ele><time>2026-03-21T23:01:49Z</time></trkpt><trkpt lat="-37.537012194149" lon="144.24891182250792"><ele>590.2</ele><time>2026-03-21T23:01:50Z</time></trkpt><trkpt lat="-37.536914843393106" lon="144.24890188861562"><ele>591.8</ele><time>2026-03-21T23:01:51Z</time></trkpt><trkpt lat="-37.536812697951454" lon="144.24885671908962"><ele>593.4</ele><time>2026-03-21T23:01:52Z</time></trkpt><trkpt lat="-37.5367044023035" lon="144.248764501777"><ele>595.0</ele><time>2026-03-21T23:01:53Z</time></trkpt><trkpt lat="-37.53659977992929" lon="144.24870372559263"><ele>595.0</ele><time>2026-03-21T23:01:54Z</time></trkpt><trkpt lat="-37.53652086786704" lon="144.24867385250397"><ele>595.0</ele><time>2026-03-21T23:01:55Z</time></trkpt><trkpt lat="-37.53644459547244" lon="144.24865377772318"><ele>595.0</ele><time>2026-03-21T23:01:56Z</time></trkpt><trkpt lat="-37.536368394470685" lon="144.24862598334488"><ele>595.0</ele><time>2026-03-21T23:01:57Z</time></trkpt><trkpt lat="-37.536256082321884" lon="144.24861141883684"><ele>595.0</ele><time>2026-03-21T23:01:58Z</time></trkpt><trkpt lat="-37.53614970221877" lon="144.24861894008134"><ele>594.1666666666667</ele><time>2026-03-21T23:01:59Z</time></trkpt><trkpt lat="-37.53605173235835" lon="144.24862389749833"><ele>593.3333333333334</ele><time>2026-03-21T23:02:00Z</time></trkpt><trkpt lat="-37.535963417845004" lon="144.24862493774398"><ele>592.5</ele><time>2026-03-21T23:02:01Z</time></trkpt><trkpt lat="-37.53589563166731" lon="144.24861995409"><ele>591.6666666666666</ele><time>2026-03-21T23:02:02Z</time></trkpt><trkpt lat="-37.53583088045979" lon="144.24859751492278"><ele>590.8333333333333</ele><time>2026-03-21T23:02:03Z</time></trkpt><trkpt lat="-37.53573252605226" lon="144.248572918276"><ele>590.0</ele><time>2026-03-21T23:02:05Z</time></trkpt><trkpt lat="-37.53567130159916" lon="144.24865280074974"><ele>590.0</ele><time>2026-03-21T23:02:06Z</time></trkpt><trkpt lat="-37.53563349418344" lon="144.24872544013118"><ele>590.0</ele><time>2026-03-21T23:02:07Z</time></trkpt><trkpt lat="-37.53557194443462" lon="144.2488424168009"><ele>590.0</ele><time>2026-03-21T23:02:08Z</time></trkpt><trkpt lat="-37.535499720529586" lon="144.24896814403064"><ele>590.0</ele><time>2026-03-21T23:02:09Z</time></trkpt><trkpt lat="-37.53543728102744" lon="144.2490861525073"><ele>590.0</ele><time>2026-03-21T23:02:10Z</time></trkpt><trkpt lat="-37.53538456132083" lon="144.2492139722379"><ele>590.6</ele><time>2026-03-21T23:02:11Z</time></trkpt><trkpt lat="-37.53535037827361" lon="144.249348627378"><ele>591.2</ele><time>2026-03-21T23:02:12Z</time></trkpt><trkpt lat="-37.53534590871029" lon="144.24943566941954"><ele>591.8</ele><time>2026-03-21T23:02:13Z</time></trkpt><trkpt lat="-37.53531173539165" lon="144.24951698108632"><ele>592.4</ele><time>2026-03-21T23:02:15Z</time></trkpt><trkpt lat="-37.535259411231436" lon="144.2494482088939"><ele>593.0</ele><time>2026-03-21T23:02:18Z</time></trkpt><trkpt lat="-37.53513315548023" lon="144.24940783741607"><ele>593.0</ele><time>2026-03-21T23:02:21Z</time></trkpt><trkpt lat="-37.53505386801229" lon="144.24940064514433"><ele>593.0</ele><time>2026-03-21T23:02:22Z</time></trkpt><trkpt lat="-37.53497769705391" lon="144.24940714930753"><ele>593.0</ele><time>2026-03-21T23:02:23Z</time></trkpt><trkpt lat="-37.534894238656165" lon="144.2493809058072"><ele>593.0</ele><time>2026-03-21T23:02:25Z</time></trkpt><trkpt lat="-37.534840058228944" lon="144.24943625127932"><ele>593.0</ele><time>2026-03-21T23:02:26Z</time></trkpt><trkpt lat="-37.534785531880935" lon="144.2494862402968"><ele>593.0</ele><time>2026-03-21T23:02:27Z</time></trkpt><trkpt lat="-37.534694655939425" lon="144.24954305259922"><ele>593.0</ele><time>2026-03-21T23:02:29Z</time></trkpt><trkpt lat="-37.5345731205456" lon="144.2495817894963"><ele>593.0</ele><time>2026-03-21T23:02:31Z</time></trkpt><trkpt lat="-37.53451311392973" lon="144.2496276984694"><ele>593.0</ele><time>2026-03-21T23:02:32Z</time></trkpt><trkpt lat="-37.534430270982014" lon="144.24962794546363"><ele>593.0</ele><time>2026-03-21T23:02:34Z</time></trkpt><trkpt lat="-37.534362881214314" lon="144.2495662775935"><ele>593.0</ele><time>2026-03-21T23:02:36Z</time></trkpt><trkpt lat="-37.5344010843853" lon="144.2494375609418"><ele>596.6</ele><time>2026-03-21T23:02:38Z</time></trkpt><trkpt lat="-37.53443181862035" lon="144.24934623656833"><ele>600.1999999999999</ele><time>2026-03-21T23:02:39Z</time></trkpt><trkpt lat="-37.53445723991504" lon="144.2492601341654"><ele>603.8</ele><time>2026-03-21T23:02:40Z</time></trkpt><trkpt lat="-37.534497893445426" lon="144.24915322109044"><ele>607.4</ele><time>2026-03-21T23:02:42Z</time></trkpt><trkpt lat="-37.534500234995875" lon="144.24898084247292"><ele>611.0</ele><time>2026-03-21T23:02:44Z</time></trkpt><trkpt lat="-37.53448159791818" lon="144.24888610483927"><ele>612.5</ele><time>2026-03-21T23:02:47Z</time></trkpt><trkpt lat="-37.5344805688729" lon="144.2487878556615"><ele>614.0</ele><time>2026-03-21T23:02:49Z</time></trkpt><trkpt lat="-37.53439627406527" lon="144.2487885238475"><ele>615.5</ele><time>2026-03-21T23:02:51Z</time></trkpt><trkpt lat="-37.534312074868545" lon="144.248815427867"><ele>617.0</ele><time>2026-03-21T23:02:53Z</time></trkpt><trkpt lat="-37.53427464135638" lon="144.24872999475912"><ele>618.5</ele><time>2026-03-21T23:02:55Z</time></trkpt><trkpt lat="-37.53422518658429" lon="144.24867273216063"><ele>620.0</ele><time>2026-03-21T23:02:56Z</time></trkpt><trkpt lat="-37.53410385298437" lon="144.24864881741564"><ele>620.0</ele><time>2026-03-21T23:02:58Z</time></trkpt><trkpt lat="-37.534005719022375" lon="144.24867018143223"><ele>620.0</ele><time>2026-03-21T23:03:00Z</time></trkpt><trkpt lat="-37.53395064225126" lon="144.2487244122011"><ele>620.0</ele><time>2026-03-21T23:03:01Z</time></trkpt><trkpt lat="-37.5338666873639" lon="144.24878767483608"><ele>620.0</ele><time>2026-03-21T23:03:03Z</time></trkpt><trkpt lat="-37.533798642595116" lon="144.24881064545056"><ele>620.0</ele><time>2026-03-21T23:03:04Z</time></trkpt><trkpt lat="-37.533734674163064" lon="144.24879930981456"><ele>620.0</ele><time>2026-03-21T23:03:05Z</time></trkpt><trkpt lat="-37.533671581300226" lon="144.24867250035442"><ele>620.8333333333333</ele><time>2026-03-21T23:03:07Z</time></trkpt><trkpt lat="-37.53366535373726" lon="144.24856000506577"><ele>621.6666666666666</ele><time>2026-03-21T23:03:08Z</time></trkpt><trkpt lat="-37.533635563974556" lon="144.2484765380087"><ele>622.5</ele><time>2026-03-21T23:03:09Z</time></trkpt><trkpt lat="-37.53356522867215" lon="144.24845852867736"><ele>623.3333333333334</ele><time>2026-03-21T23:03:10Z</time></trkpt><trkpt lat="-37.53349222622709" lon="144.2484188740792"><ele>624.1666666666667</ele><time>2026-03-21T23:03:11Z</time></trkpt><trkpt lat="-37.533412258755014" lon="144.24829012948436"><ele>625.0</ele><time>2026-03-21T23:03:13Z</time></trkpt><trkpt lat="-37.533347228481325" lon="144.24824572891197"><ele>625.0</ele><time>2026-03-21T23:03:14Z</time></trkpt><trkpt lat="-37.53326435847948" lon="144.24816747895093"><ele>625.0</ele><time>2026-03-21T23:03:15Z</time></trkpt><trkpt lat="-37.53321283311492" lon="144.2481017261701"><ele>625.0</ele><time>2026-03-21T23:03:16Z</time></trkpt><trkpt lat="-37.53310172187113" lon="144.24806636926462"><ele>625.0</ele><time>2026-03-21T23:03:18Z</time></trkpt><trkpt lat="-37.533025724152225" lon="144.2480548104136"><ele>625.0</ele><time>2026-03-21T23:03:19Z</time></trkpt><trkpt lat="-37.53294262025709" lon="144.2479940093947"><ele>624.6</ele><time>2026-03-21T23:03:20Z</time></trkpt><trkpt lat="-37.5328559370644" lon="144.24793787446086"><ele>624.2</ele><time>2026-03-21T23:03:21Z</time></trkpt><trkpt lat="-37.53278011194178" lon="144.24791164782764"><ele>623.8</ele><time>2026-03-21T23:03:22Z</time></trkpt><trkpt lat="-37.53274720033848" lon="144.2477477913385"><ele>623.4</ele><time>2026-03-21T23:03:26Z</time></trkpt><trkpt lat="-37.53272561016391" lon="144.24766325096428"><ele>623.0</ele><time>2026-03-21T23:03:27Z</time></trkpt><trkpt lat="-37.532689866091914" lon="144.24758069579292"><ele>623.0</ele><time>2026-03-21T23:03:28Z</time></trkpt><trkpt lat="-37.532620014789366" lon="144.24756029460423"><ele>623.0</ele><time>2026-03-21T23:03:29Z</time></trkpt><trkpt lat="-37.53254713065157" lon="144.2475336689027"><ele>623.0</ele><time>2026-03-21T23:03:30Z</time></trkpt><trkpt lat="-37.53252746459892" lon="144.24739850612534"><ele>623.0</ele><time>2026-03-21T23:03:34Z</time></trkpt><trkpt lat="-37.5325297395116" lon="144.24730462754678"><ele>623.0</ele><time>2026-03-21T23:03:35Z</time></trkpt><trkpt lat="-37.532461727692194" lon="144.24725103413226"><ele>623.0</ele><time>2026-03-21T23:03:37Z</time></trkpt><trkpt lat="-37.53236973843257" lon="144.2472212450012"><ele>623.5</ele><time>2026-03-21T23:03:39Z</time></trkpt><trkpt lat="-37.53229398881879" lon="144.2472516158135"><ele>624.0</ele><time>2026-03-21T23:03:41Z</time></trkpt><trkpt lat="-37.532224646352226" lon="144.2472688122781"><ele>624.5</ele><time>2026-03-21T23:03:44Z</time></trkpt><trkpt lat="-37.5321426117463" lon="144.24728358419216"><ele>625.0</ele><time>2026-03-21T23:03:46Z</time></trkpt><trkpt lat="-37.532058115289516" lon="144.2472778222934"><ele>625.5</ele><time>2026-03-21T23:03:48Z</time></trkpt><trkpt lat="-37.531969801930785" lon="144.24734402989495"><ele>626.0</ele><time>2026-03-21T23:03:50Z</time></trkpt><trkpt lat="-37.53188533698802" lon="144.24737406015595"><ele>622.8</ele><time>2026-03-21T23:03:52Z</time></trkpt><trkpt lat="-37.53180403302462" lon="144.24733727017602"><ele>619.6</ele><time>2026-03-21T23:03:54Z</time></trkpt><trkpt lat="-37.531733046410515" lon="144.247284579451"><ele>616.4</ele><time>2026-03-21T23:03:56Z</time></trkpt><trkpt lat="-37.531637638914496" lon="144.2471684270073"><ele>613.2</ele><time>2026-03-21T23:03:58Z</time></trkpt><trkpt lat="-37.5315757852343" lon="144.2470891586762"><ele>610.0</ele><time>2026-03-21T23:04:00Z</time></trkpt><trkpt lat="-37.53150922710855" lon="144.24700072183654"><ele>610.0</ele><time>2026-03-21T23:04:01Z</time></trkpt><trkpt lat="-37.53145731454035" lon="144.24691032653172"><ele>610.0</ele><time>2026-03-21T23:04:03Z</time></trkpt><trkpt lat="-37.531437686956664" lon="144.24681248720162"><ele>610.0</ele><time>2026-03-21T23:04:05Z</time></trkpt><trkpt lat="-37.53144781774418" lon="144.24669312890813"><ele>610.0</ele><time>2026-03-21T23:04:07Z</time></trkpt><trkpt lat="-37.53146215993365" lon="144.24655039113426"><ele>610.0</ele><time>2026-03-21T23:04:09Z</time></trkpt><trkpt lat="-37.531442946093584" lon="144.24645141082246"><ele>609.3333333333334</ele><time>2026-03-21T23:04:12Z</time></trkpt><trkpt lat="-37.531492577093964" lon="144.24638264815624"><ele>608.6666666666667</ele><time>2026-03-21T23:04:20Z</time></trkpt><trkpt lat="-37.53157722263783" lon="144.24633439748433"><ele>608.0</ele><time>2026-03-21T23:04:22Z</time></trkpt><trkpt lat="-37.531693080551484" lon="144.2462980260241"><ele>607.3333333333334</ele><time>2026-03-21T23:04:24Z</time></trkpt><trkpt lat="-37.53175240413363" lon="144.2462353350465"><ele>606.6666666666666</ele><time>2026-03-21T23:04:25Z</time></trkpt><trkpt lat="-37.531806466474585" lon="144.24619007827775"><ele>606.0</ele><time>2026-03-21T23:04:26Z</time></trkpt><trkpt lat="-37.53185391960467" lon="144.24613551570178"><ele>606.0</ele><time>2026-03-21T23:04:27Z</time></trkpt><trkpt lat="-37.531919662927486" lon="144.2461155591141"><ele>606.0</ele><time>2026-03-21T23:04:29Z</time></trkpt><trkpt lat="-37.53199787009982" lon="144.2461728741493"><ele>606.0</ele><time>2026-03-21T23:04:31Z</time></trkpt><trkpt lat="-37.53206460575953" lon="144.24619199451132"><ele>606.0</ele><time>2026-03-21T23:04:33Z</time></trkpt><trkpt lat="-37.53216408196233" lon="144.24621973243583"><ele>606.0</ele><time>2026-03-21T23:04:35Z</time></trkpt><trkpt lat="-37.532236650130926" lon="144.24625881798974"><ele>606.0</ele><time>2026-03-21T23:04:37Z</time></trkpt><trkpt lat="-37.53238509721739" lon="144.24626398689122"><ele>609.0</ele><time>2026-03-21T23:04:39Z</time></trkpt><trkpt lat="-37.5325108545114" lon="144.24622802705272"><ele>612.0</ele><time>2026-03-21T23:04:41Z</time></trkpt><trkpt lat="-37.53258124467756" lon="144.24620035394508"><ele>615.0</ele><time>2026-03-21T23:04:43Z</time></trkpt><trkpt lat="-37.53265014488517" lon="144.24617980280414"><ele>618.0</ele><time>2026-03-21T23:04:45Z</time></trkpt><trkpt lat="-37.53275094175157" lon="144.24617076836284"><ele>621.0</ele><time>2026-03-21T23:04:47Z</time></trkpt><trkpt lat="-37.532815712109205" lon="144.2462012571039"><ele>624.0</ele><time>2026-03-21T23:04:48Z</time></trkpt><trkpt lat="-37.53289140468003" lon="144.2462082698577"><ele>626.8</ele><time>2026-03-21T23:04:49Z</time></trkpt><trkpt lat="-37.53301700607655" lon="144.24622526608715"><ele>629.5999999999999</ele><time>2026-03-21T23:04:51Z</time></trkpt><trkpt lat="-37.5330838095348" lon="144.24620593700323"><ele>632.4</ele><time>2026-03-21T23:04:52Z</time></trkpt><trkpt lat="-37.53318789264098" lon="144.24616839221468"><ele>635.1999999999999</ele><time>2026-03-21T23:04:54Z</time></trkpt><trkpt lat="-37.53326299348133" lon="144.24620305497"><ele>638.0</ele><time>2026-03-21T23:04:55Z</time></trkpt><trkpt lat="-37.53333254493084" lon="144.24622831265523"><ele>638.0</ele><time>2026-03-21T23:04:56Z</time></trkpt><trkpt lat="-37.53341506772525" lon="144.24619286912866"><ele>638.0</ele><time>2026-03-21T23:04:58Z</time></trkpt><trkpt lat="-37.533502280668884" lon="144.24615018481666"><ele>638.0</ele><time>2026-03-21T23:05:00Z</time></trkpt><trkpt lat="-37.53357164453705" lon="144.24605792847552"><ele>638.0</ele><time>2026-03-21T23:05:01Z</time></trkpt><trkpt lat="-37.53363554543068" lon="144.24604644745202"><ele>638.0</ele><time>2026-03-21T23:05:04Z</time></trkpt><trkpt lat="-37.53373508458655" lon="144.24601342537056"><ele>638.0</ele><time>2026-03-21T23:05:06Z</time></trkpt><trkpt lat="-37.53383404038975" lon="144.24601460800443"><ele>636.6666666666666</ele><time>2026-03-21T23:05:08Z</time></trkpt><trkpt lat="-37.53390572793752" lon="144.24608646061068"><ele>635.3333333333333</ele><time>2026-03-21T23:05:10Z</time></trkpt><trkpt lat="-37.53395818898354" lon="144.24614495143257"><ele>634.0</ele><time>2026-03-21T23:05:11Z</time></trkpt><trkpt lat="-37.53402456749883" lon="144.24618663675201"><ele>632.6666666666666</ele><time>2026-03-21T23:05:12Z</time></trkpt><trkpt lat="-37.534082617973034" lon="144.24609927682081"><ele>631.3333333333334</ele><time>2026-03-21T23:05:14Z</time></trkpt><trkpt lat="-37.53411134040315" lon="144.24598091073145"><ele>630.0</ele><time>2026-03-21T23:05:16Z</time></trkpt><trkpt lat="-37.534097317664724" lon="144.24586991618006"><ele>630.0</ele><time>2026-03-21T23:05:18Z</time></trkpt><trkpt lat="-37.53416875384033" lon="144.24576462568302"><ele>630.0</ele><time>2026-03-21T23:05:20Z</time></trkpt><trkpt lat="-37.534224285453405" lon="144.2457226192357"><ele>630.0</ele><time>2026-03-21T23:05:21Z</time></trkpt><trkpt lat="-37.53433390211967" lon="144.24569390186795"><ele>630.0</ele><time>2026-03-21T23:05:23Z</time></trkpt><trkpt lat="-37.534413778813224" lon="144.24574391715333"><ele>630.0</ele><time>2026-03-21T23:05:25Z</time></trkpt><trkpt lat="-37.53450646862669" lon="144.2456977621071"><ele>625.4</ele><time>2026-03-21T23:05:27Z</time></trkpt><trkpt lat="-37.53460305427503" lon="144.24561628553562"><ele>620.8</ele><time>2026-03-21T23:05:29Z</time></trkpt><trkpt lat="-37.534704446424435" lon="144.24554180923715"><ele>616.2</ele><time>2026-03-21T23:05:31Z</time></trkpt><trkpt lat="-37.534783689080854" lon="144.24553148378575"><ele>611.6</ele><time>2026-03-21T23:05:33Z</time></trkpt><trkpt lat="-37.53487568859735" lon="144.24547829859645"><ele>607.0</ele><time>2026-03-21T23:05:35Z</time></trkpt><trkpt lat="-37.53491940267622" lon="144.24538773477065"><ele>607.0</ele><time>2026-03-21T23:05:37Z</time></trkpt><trkpt lat="-37.53499188144596" lon="144.2454011582528"><ele>607.0</ele><time>2026-03-21T23:05:39Z</time></trkpt><trkpt lat="-37.53506000114412" lon="144.24544253135375"><ele>607.0</ele><time>2026-03-21T23:05:41Z</time></trkpt><trkpt lat="-37.53514368203336" lon="144.24543403367863"><ele>607.0</ele><time>2026-03-21T23:05:43Z</time></trkpt><trkpt lat="-37.53513348098965" lon="144.24532580782093"><ele>607.0</ele><time>2026-03-21T23:05:46Z</time></trkpt><trkpt lat="-37.53507362548332" lon="144.24516600180056"><ele>607.0</ele><time>2026-03-21T23:05:48Z</time></trkpt><trkpt lat="-37.53501417095076" lon="144.24507452220325"><ele>607.0</ele><time>2026-03-21T23:05:50Z</time></trkpt><trkpt lat="-37.535029750802536" lon="144.24498273424436"><ele>607.0</ele><time>2026-03-21T23:05:52Z</time></trkpt><trkpt lat="-37.535027201105805" lon="144.2448871011377"><ele>607.0</ele><time>2026-03-21T23:05:54Z</time></trkpt><trkpt lat="-37.53495084025523" lon="144.24480619394885"><ele>607.0</ele><time>2026-03-21T23:05:56Z</time></trkpt><trkpt lat="-37.5348258698427" lon="144.2448143491027"><ele>606.6</ele><time>2026-03-21T23:05:58Z</time></trkpt><trkpt lat="-37.53474918058573" lon="144.24473911427256"><ele>606.2</ele><time>2026-03-21T23:06:00Z</time></trkpt><trkpt lat="-37.53468065728088" lon="144.2446090135319"><ele>605.8</ele><time>2026-03-21T23:06:02Z</time></trkpt><trkpt lat="-37.534584756004065" lon="144.24458811817203"><ele>605.4</ele><time>2026-03-21T23:06:05Z</time></trkpt><trkpt lat="-37.53451473992967" lon="144.24457732212687"><ele>605.0</ele><time>2026-03-21T23:06:06Z</time></trkpt><trkpt lat="-37.534437910217974" lon="144.24458174041615"><ele>605.0</ele><time>2026-03-21T23:06:07Z</time></trkpt><trkpt lat="-37.53434946086165" lon="144.2445744282305"><ele>605.0</ele><time>2026-03-21T23:06:08Z</time></trkpt><trkpt lat="-37.53427552645903" lon="144.24455296176654"><ele>605.0</ele><time>2026-03-21T23:06:09Z</time></trkpt><trkpt lat="-37.534206055032094" lon="144.24450472810497"><ele>605.0</ele><time>2026-03-21T23:06:10Z</time></trkpt><trkpt lat="-37.534136373739024" lon="144.24446291211999"><ele>605.0</ele><time>2026-03-21T23:06:11Z</time></trkpt><trkpt lat="-37.53405700149236" lon="144.24443160798418"><ele>605.0</ele><time>2026-03-21T23:06:12Z</time></trkpt><trkpt lat="-37.533924189865274" lon="144.2443617831842"><ele>605.0</ele><time>2026-03-21T23:06:14Z</time></trkpt><trkpt lat="-37.53383551076094" lon="144.2443736270273"><ele>605.0</ele><time>2026-03-21T23:06:16Z</time></trkpt><trkpt lat="-37.53376013608094" lon="144.2444764533214"><ele>605.0</ele><time>2026-03-21T23:06:18Z</time></trkpt><trkpt lat="-37.53363603483084" lon="144.24443349312887"><ele>605.0</ele><time>2026-03-21T23:06:20Z</time></trkpt><trkpt lat="-37.53355825052827" lon="144.244364748163"><ele>605.0</ele><time>2026-03-21T23:06:21Z</time></trkpt><trkpt lat="-37.53350033817715" lon="144.24428395310534"><ele>606.2</ele><time>2026-03-21T23:06:22Z</time></trkpt><trkpt lat="-37.53341684471071" lon="144.2442954939324"><ele>607.4</ele><time>2026-03-21T23:06:23Z</time></trkpt><trkpt lat="-37.533356962395644" lon="144.24416316967654"><ele>608.6</ele><time>2026-03-21T23:06:25Z</time></trkpt><trkpt lat="-37.533307022548094" lon="144.24402901101237"><ele>609.8</ele><time>2026-03-21T23:06:27Z</time></trkpt><trkpt lat="-37.53324761982265" lon="144.24393941097358"><ele>611.0</ele><time>2026-03-21T23:06:28Z</time></trkpt><trkpt lat="-37.53320743078614" lon="144.2438424814864"><ele>611.0</ele><time>2026-03-21T23:06:29Z</time></trkpt><trkpt lat="-37.53321965322715" lon="144.24370392337698"><ele>611.0</ele><time>2026-03-21T23:06:30Z</time></trkpt><trkpt lat="-37.5332338467055" lon="144.2435936715788"><ele>611.0</ele><time>2026-03-21T23:06:31Z</time></trkpt><trkpt lat="-37.533216276714306" lon="144.24350156304118"><ele>611.0</ele><time>2026-03-21T23:06:32Z</time></trkpt><trkpt lat="-37.53317727678919" lon="144.24341912781026"><ele>611.0</ele><time>2026-03-21T23:06:33Z</time></trkpt><trkpt lat="-37.533129988679256" lon="144.24335257065786"><ele>611.0</ele><time>2026-03-21T23:06:34Z</time></trkpt><trkpt lat="-37.533064102156175" lon="144.24331399287007"><ele>611.0000000000001</ele><time>2026-03-21T23:06:35Z</time></trkpt><trkpt lat="-37.53297910556416" lon="144.24327333572126"><ele>611.0</ele><time>2026-03-21T23:06:36Z</time></trkpt><trkpt lat="-37.532918284676924" lon="144.24322463750633"><ele>611.0</ele><time>2026-03-21T23:06:37Z</time></trkpt><trkpt lat="-37.532847062712925" lon="144.24318889479352"><ele>611.0</ele><time>2026-03-21T23:06:38Z</time></trkpt><trkpt lat="-37.532777556573194" lon="144.24314733563938"><ele>611.0</ele><time>2026-03-21T23:06:39Z</time></trkpt><trkpt lat="-37.53273141405854" lon="144.243087270022"><ele>611.0000000000001</ele><time>2026-03-21T23:06:40Z</time></trkpt><trkpt lat="-37.53269888129723" lon="144.24301546414023"><ele>611.0</ele><time>2026-03-21T23:06:41Z</time></trkpt><trkpt lat="-37.53262244615082" lon="144.24295300428153"><ele>609.1666666666666</ele><time>2026-03-21T23:06:43Z</time></trkpt><trkpt lat="-37.53259015768834" lon="144.24284372572524"><ele>607.3333333333333</ele><time>2026-03-21T23:06:45Z</time></trkpt><trkpt lat="-37.53251851822454" lon="144.24278612181263"><ele>605.5</ele><time>2026-03-21T23:06:46Z</time></trkpt><trkpt lat="-37.53245204809736" lon="144.24273246462582"><ele>603.6666666666666</ele><time>2026-03-21T23:06:47Z</time></trkpt><trkpt lat="-37.53239450531629" lon="144.24267643582718"><ele>601.8333333333334</ele><time>2026-03-21T23:06:48Z</time></trkpt><trkpt lat="-37.53236979566145" lon="144.24259143572252"><ele>600.0</ele><time>2026-03-21T23:06:49Z</time></trkpt><trkpt lat="-37.53234324511935" lon="144.24250865537658"><ele>600.0</ele><time>2026-03-21T23:06:50Z</time></trkpt><trkpt lat="-37.532294184540355" lon="144.24245400298642"><ele>600.0</ele><time>2026-03-21T23:06:51Z</time></trkpt><trkpt lat="-37.532192930245316" lon="144.2423764923808"><ele>600.0</ele><time>2026-03-21T23:06:53Z</time></trkpt><trkpt lat="-37.53211221888369" lon="144.24227610890992"><ele>600.0</ele><time>2026-03-21T23:06:55Z</time></trkpt><trkpt lat="-37.532077654789916" lon="144.24220065915455"><ele>600.0</ele><time>2026-03-21T23:06:56Z</time></trkpt><trkpt lat="-37.532027698784795" lon="144.24212529921797"><ele>600.0</ele><time>2026-03-21T23:06:57Z</time></trkpt><trkpt lat="-37.531967166158246" lon="144.24207476330903"><ele>597.6666666666666</ele><time>2026-03-21T23:06:58Z</time></trkpt><trkpt lat="-37.531868982700395" lon="144.2419901137996"><ele>595.3333333333334</ele><time>2026-03-21T23:07:00Z</time></trkpt><trkpt lat="-37.531801185643744" lon="144.2419663952129"><ele>593.0</ele><time>2026-03-21T23:07:01Z</time></trkpt><trkpt lat="-37.531696291688995" lon="144.24193003069618"><ele>590.6666666666667</ele><time>2026-03-21T23:07:03Z</time></trkpt><trkpt lat="-37.53163261726279" lon="144.2419202441142"><ele>588.3333333333334</ele><time>2026-03-21T23:07:04Z</time></trkpt><trkpt lat="-37.531565454534075" lon="144.24191424254647"><ele>586.0</ele><time>2026-03-21T23:07:05Z</time></trkpt><trkpt lat="-37.53149521953416" lon="144.24179183628584"><ele>586.0</ele><time>2026-03-21T23:07:07Z</time></trkpt><trkpt lat="-37.5313831752215" lon="144.2417235504481"><ele>586.0</ele><time>2026-03-21T23:07:09Z</time></trkpt><trkpt lat="-37.53132436550107" lon="144.24168391236805"><ele>586.0</ele><time>2026-03-21T23:07:10Z</time></trkpt><trkpt lat="-37.53123899227029" lon="144.24160592406258"><ele>586.0</ele><time>2026-03-21T23:07:12Z</time></trkpt><trkpt lat="-37.531200695713785" lon="144.2415354574886"><ele>586.0</ele><time>2026-03-21T23:07:15Z</time></trkpt><trkpt lat="-37.53111289896533" lon="144.24148246001386"><ele>582.8</ele><time>2026-03-21T23:07:19Z</time></trkpt><trkpt lat="-37.53105611896899" lon="144.24136573043305"><ele>579.6</ele><time>2026-03-21T23:07:21Z</time></trkpt><trkpt lat="-37.53112240532582" lon="144.24122884095127"><ele>576.4</ele><time>2026-03-21T23:07:23Z</time></trkpt><trkpt lat="-37.53118420567163" lon="144.24116017987296"><ele>573.2</ele><time>2026-03-21T23:07:24Z</time></trkpt><trkpt lat="-37.53120784769774" lon="144.2410183724367"><ele>570.0</ele><time>2026-03-21T23:07:26Z</time></trkpt><trkpt lat="-37.531187860039815" lon="144.24092739426698"><ele>570.0</ele><time>2026-03-21T23:07:30Z</time></trkpt><trkpt lat="-37.53111812824786" lon="144.24085130053263"><ele>570.0</ele><time>2026-03-21T23:07:33Z</time></trkpt><trkpt lat="-37.53106091102568" lon="144.24080224500267"><ele>570.0</ele><time>2026-03-21T23:07:35Z</time></trkpt><trkpt lat="-37.53113351180005" lon="144.24082344464355"><ele>570.0</ele><time>2026-03-21T23:07:50Z</time></trkpt><trkpt lat="-37.53105277865009" lon="144.24086181451494"><ele>570.0</ele><time>2026-03-21T23:07:53Z</time></trkpt><trkpt lat="-37.531003539857544" lon="144.24080922602883"><ele>570.0</ele><time>2026-03-21T23:08:11Z</time></trkpt><trkpt lat="-37.5310067073534" lon="144.24072301636355"><ele>570.8333333333334</ele><time>2026-03-21T23:08:13Z</time></trkpt><trkpt lat="-37.530982760046015" lon="144.24062211518395"><ele>571.6666666666666</ele><time>2026-03-21T23:08:19Z</time></trkpt><trkpt lat="-37.53097008802684" lon="144.24052944866222"><ele>572.5</ele><time>2026-03-21T23:08:22Z</time></trkpt><trkpt lat="-37.53100404768188" lon="144.24045892329917"><ele>573.3333333333333</ele><time>2026-03-21T23:08:24Z</time></trkpt><trkpt lat="-37.531019244846924" lon="144.2403531549889"><ele>574.1666666666666</ele><time>2026-03-21T23:08:26Z</time></trkpt><trkpt lat="-37.53105902360128" lon="144.2402775204379"><ele>575.0</ele><time>2026-03-21T23:08:28Z</time></trkpt><trkpt lat="-37.53109707005087" lon="144.2401928540618"><ele>575.0</ele><time>2026-03-21T23:08:30Z</time></trkpt><trkpt lat="-37.531098068273565" lon="144.24010633904666"><ele>575.0</ele><time>2026-03-21T23:08:32Z</time></trkpt><trkpt lat="-37.53114943317304" lon="144.24004760585188"><ele>575.0</ele><time>2026-03-21T23:08:35Z</time></trkpt><trkpt lat="-37.53121357420175" lon="144.23999595563137"><ele>575.0</ele><time>2026-03-21T23:12:09Z</time></trkpt><trkpt lat="-37.53127640397225" lon="144.23997976290988"><ele>575.0</ele><time>2026-03-21T23:12:10Z</time></trkpt><trkpt lat="-37.531355743450284" lon="144.23999721332567"><ele>575.0</ele><time>2026-03-21T23:12:12Z</time></trkpt><trkpt lat="-37.53141788998642" lon="144.23993906729723"><ele>575.0</ele><time>2026-03-21T23:12:13Z</time></trkpt><trkpt lat="-37.531478583755" lon="144.23987974422838"><ele>574.1666666666666</ele><time>2026-03-21T23:12:17Z</time></trkpt><trkpt lat="-37.531537921823926" lon="144.23980103928176"><ele>573.3333333333333</ele><time>2026-03-21T23:12:19Z</time></trkpt><trkpt lat="-37.5315782046137" lon="144.23971255173387"><ele>572.5</ele><time>2026-03-21T23:12:21Z</time></trkpt><trkpt lat="-37.53159085549457" lon="144.23959471458767"><ele>571.6666666666666</ele><time>2026-03-21T23:12:23Z</time></trkpt><trkpt lat="-37.53155714018844" lon="144.23951498565543"><ele>570.8333333333334</ele><time>2026-03-21T23:12:25Z</time></trkpt><trkpt lat="-37.53153378717276" lon="144.23942267630758"><ele>570.0</ele><time>2026-03-21T23:12:27Z</time></trkpt><trkpt lat="-37.5314603134052" lon="144.23944668300828"><ele>570.0</ele><time>2026-03-21T23:12:29Z</time></trkpt><trkpt lat="-37.53138434613719" lon="144.2394637003664"><ele>570.0</ele><time>2026-03-21T23:12:31Z</time></trkpt><trkpt lat="-37.53133585532963" lon="144.2394011865681"><ele>570.0</ele><time>2026-03-21T23:12:34Z</time></trkpt><trkpt lat="-37.5312857571312" lon="144.23931471756964"><ele>570.0</ele><time>2026-03-21T23:12:38Z</time></trkpt><trkpt lat="-37.53120975289491" lon="144.23919186775316"><ele>570.0</ele><time>2026-03-21T23:12:40Z</time></trkpt><trkpt lat="-37.53118273316151" lon="144.23911603978473"><ele>570.0</ele><time>2026-03-21T23:12:50Z</time></trkpt><trkpt lat="-37.53116819127205" lon="144.23903832259242"><ele>573.1428571428571</ele><time>2026-03-21T23:13:08Z</time></trkpt><trkpt lat="-37.53109469344294" lon="144.2390036331861"><ele>576.2857142857143</ele><time>2026-03-21T23:13:11Z</time></trkpt><trkpt lat="-37.53103839292943" lon="144.23904262312655"><ele>579.4285714285714</ele><time>2026-03-21T23:13:21Z</time></trkpt><trkpt lat="-37.53096529126979" lon="144.23901245514924"><ele>582.5714285714286</ele><time>2026-03-21T23:13:24Z</time></trkpt><trkpt lat="-37.53088605097914" lon="144.23901493842317"><ele>585.7142857142857</ele><time>2026-03-21T23:13:26Z</time></trkpt><trkpt lat="-37.53081234870759" lon="144.23902643696042"><ele>588.8571428571429</ele><time>2026-03-21T23:13:29Z</time></trkpt><trkpt lat="-37.53074624793366" lon="144.23901069332692"><ele>592.0</ele><time>2026-03-21T23:13:32Z</time></trkpt><trkpt lat="-37.53068668718498" lon="144.23896153116857"><ele>592.4285714285714</ele><time>2026-03-21T23:13:35Z</time></trkpt><trkpt lat="-37.530611842832165" lon="144.23893602638483"><ele>592.8571428571429</ele><time>2026-03-21T23:13:37Z</time></trkpt><trkpt lat="-37.53055749120216" lon="144.2388879033079"><ele>593.2857142857142</ele><time>2026-03-21T23:13:39Z</time></trkpt><trkpt lat="-37.53049096610774" lon="144.23883532251048"><ele>593.7142857142858</ele><time>2026-03-21T23:13:42Z</time></trkpt><trkpt lat="-37.53042613370251" lon="144.23877730763522"><ele>594.1428571428571</ele><time>2026-03-21T23:13:45Z</time></trkpt><trkpt lat="-37.53039449151056" lon="144.23870632984347"><ele>594.5714285714286</ele><time>2026-03-21T23:13:47Z</time></trkpt><trkpt lat="-37.53032999359527" lon="144.2386624994953"><ele>595.0</ele><time>2026-03-21T23:13:49Z</time></trkpt><trkpt lat="-37.53024965941522" lon="144.23863416336602"><ele>596.4285714285714</ele><time>2026-03-21T23:13:51Z</time></trkpt><trkpt lat="-37.5301913187748" lon="144.23859133773954"><ele>597.8571428571429</ele><time>2026-03-21T23:14:13Z</time></trkpt><trkpt lat="-37.530137544016135" lon="144.23851756606683"><ele>599.2857142857142</ele><time>2026-03-21T23:14:16Z</time></trkpt><trkpt lat="-37.53006501396719" lon="144.23851246557595"><ele>600.7142857142858</ele><time>2026-03-21T23:14:18Z</time></trkpt><trkpt lat="-37.5299882075629" lon="144.2385308450833"><ele>602.1428571428571</ele><time>2026-03-21T23:14:20Z</time></trkpt><trkpt lat="-37.529921606891506" lon="144.23853645233305"><ele>603.5714285714286</ele><time>2026-03-21T23:14:22Z</time></trkpt><trkpt lat="-37.52985095227048" lon="144.23852999798393"><ele>605.0</ele><time>2026-03-21T23:14:23Z</time></trkpt><trkpt lat="-37.52975258436144" lon="144.2385256062074"><ele>605.0</ele><time>2026-03-21T23:14:25Z</time></trkpt><trkpt lat="-37.52967242799741" lon="144.23855568696638"><ele>605.0</ele><time>2026-03-21T23:14:27Z</time></trkpt><trkpt lat="-37.52959542261067" lon="144.23853326003766"><ele>605.0</ele><time>2026-03-21T23:14:29Z</time></trkpt><trkpt lat="-37.529547592610655" lon="144.23845161218532"><ele>605.0</ele><time>2026-03-21T23:14:32Z</time></trkpt><trkpt lat="-37.529469877072245" lon="144.23839339738"><ele>605.0</ele><time>2026-03-21T23:14:35Z</time></trkpt><trkpt lat="-37.52937754825593" lon="144.23839804735766"><ele>605.0</ele><time>2026-03-21T23:14:37Z</time></trkpt><trkpt lat="-37.52930818349776" lon="144.23837587254647"><ele>609.0</ele><time>2026-03-21T23:14:38Z</time></trkpt><trkpt lat="-37.5292439737114" lon="144.2383401239949"><ele>613.0</ele><time>2026-03-21T23:14:39Z</time></trkpt><trkpt lat="-37.5291497725018" lon="144.23831465634922"><ele>617.0</ele><time>2026-03-21T23:14:40Z</time></trkpt><trkpt lat="-37.52903093198215" lon="144.23832145609163"><ele>621.0</ele><time>2026-03-21T23:14:41Z</time></trkpt><trkpt lat="-37.52891922962171" lon="144.23835084031188"><ele>625.0</ele><time>2026-03-21T23:14:42Z</time></trkpt><trkpt lat="-37.528846064499234" lon="144.23838287514872"><ele>625.0</ele><time>2026-03-21T23:14:43Z</time></trkpt><trkpt lat="-37.52878240874993" lon="144.23842281435273"><ele>625.0</ele><time>2026-03-21T23:14:44Z</time></trkpt><trkpt lat="-37.52871406720245" lon="144.23845248121094"><ele>625.0</ele><time>2026-03-21T23:14:45Z</time></trkpt><trkpt lat="-37.52861991159601" lon="144.23841835722845"><ele>625.0</ele><time>2026-03-21T23:14:46Z</time></trkpt><trkpt lat="-37.52851281952883" lon="144.23836221749494"><ele>625.0</ele><time>2026-03-21T23:14:47Z</time></trkpt><trkpt lat="-37.52840565781668" lon="144.2383155148021"><ele>628.2</ele><time>2026-03-21T23:14:48Z</time></trkpt><trkpt lat="-37.52830055638623" lon="144.23828023268246"><ele>631.4</ele><time>2026-03-21T23:14:49Z</time></trkpt><trkpt lat="-37.52819897491041" lon="144.23824469714998"><ele>634.5999999999999</ele><time>2026-03-21T23:14:50Z</time></trkpt><trkpt lat="-37.528093702652356" lon="144.2382048344651"><ele>637.8</ele><time>2026-03-21T23:14:51Z</time></trkpt><trkpt lat="-37.527989128058216" lon="144.2381720188012"><ele>641.0</ele><time>2026-03-21T23:14:52Z</time></trkpt><trkpt lat="-37.527894547587984" lon="144.23815591386003"><ele>641.5999999999999</ele><time>2026-03-21T23:14:53Z</time></trkpt><trkpt lat="-37.52780683893154" lon="144.2381231075112"><ele>642.2</ele><time>2026-03-21T23:14:54Z</time></trkpt><trkpt lat="-37.5277344857002" lon="144.23804099613577"><ele>642.8</ele><time>2026-03-21T23:14:55Z</time></trkpt><trkpt lat="-37.52764310603293" lon="144.23795640076256"><ele>643.4000000000001</ele><time>2026-03-21T23:14:56Z</time></trkpt><trkpt lat="-37.52755615786811" lon="144.23792390981603"><ele>644.0</ele><time>2026-03-21T23:14:57Z</time></trkpt><trkpt lat="-37.52748934928389" lon="144.2379100563758"><ele>644.0</ele><time>2026-03-21T23:14:58Z</time></trkpt><trkpt lat="-37.52736929801118" lon="144.23793663366473"><ele>644.0</ele><time>2026-03-21T23:15:00Z</time></trkpt><trkpt lat="-37.5272584153047" lon="144.23796567588855"><ele>644.0</ele><time>2026-03-21T23:15:01Z</time></trkpt><trkpt lat="-37.52713744389188" lon="144.23799469254612"><ele>644.0</ele><time>2026-03-21T23:15:02Z</time></trkpt><trkpt lat="-37.527023713569235" lon="144.23800183648657"><ele>644.25</ele><time>2026-03-21T23:15:03Z</time></trkpt><trkpt lat="-37.52690258189421" lon="144.23799608649773"><ele>644.5</ele><time>2026-03-21T23:15:04Z</time></trkpt><trkpt lat="-37.52677821109843" lon="144.23799190478482"><ele>644.75</ele><time>2026-03-21T23:15:05Z</time></trkpt><trkpt lat="-37.526664622810884" lon="144.23799690526857"><ele>645.0</ele><time>2026-03-21T23:15:06Z</time></trkpt><trkpt lat="-37.526547103061745" lon="144.23801550805078"><ele>645.0</ele><time>2026-03-21T23:15:07Z</time></trkpt><trkpt lat="-37.52641419200513" lon="144.23802561477453"><ele>645.0</ele><time>2026-03-21T23:15:08Z</time></trkpt><trkpt lat="-37.526303789484494" lon="144.2380390348203"><ele>645.0</ele><time>2026-03-21T23:15:09Z</time></trkpt><trkpt lat="-37.52620379771235" lon="144.2380632716677"><ele>645.0</ele><time>2026-03-21T23:15:10Z</time></trkpt><trkpt lat="-37.526103709843554" lon="144.23805826659162"><ele>645.0</ele><time>2026-03-21T23:15:11Z</time></trkpt><trkpt lat="-37.526002969935675" lon="144.2380267837175"><ele>645.8</ele><time>2026-03-21T23:15:12Z</time></trkpt><trkpt lat="-37.5259125623708" lon="144.23796338373154"><ele>646.6</ele><time>2026-03-21T23:15:13Z</time></trkpt><trkpt lat="-37.52582529308937" lon="144.23786598663625"><ele>647.4000000000001</ele><time>2026-03-21T23:15:14Z</time></trkpt><trkpt lat="-37.52575522172279" lon="144.23776027052472"><ele>648.2</ele><time>2026-03-21T23:15:15Z</time></trkpt><trkpt lat="-37.52568414411861" lon="144.237696915685"><ele>649.0</ele><time>2026-03-21T23:15:16Z</time></trkpt><trkpt lat="-37.52559347143318" lon="144.2376385342535"><ele>649.0</ele><time>2026-03-21T23:15:17Z</time></trkpt><trkpt lat="-37.525510508737206" lon="144.23756165980697"><ele>649.0</ele><time>2026-03-21T23:15:18Z</time></trkpt><trkpt lat="-37.525439357119566" lon="144.23747847144995"><ele>649.0</ele><time>2026-03-21T23:15:19Z</time></trkpt><trkpt lat="-37.52537787526379" lon="144.23741390686888"><ele>649.0</ele><time>2026-03-21T23:15:20Z</time></trkpt><trkpt lat="-37.525306427073275" lon="144.23735006029327"><ele>649.0</ele><time>2026-03-21T23:15:21Z</time></trkpt><trkpt lat="-37.525216176326445" lon="144.23728753595483"><ele>649.0</ele><time>2026-03-21T23:15:22Z</time></trkpt><trkpt lat="-37.5251366463062" lon="144.23726788305078"><ele>649.0</ele><time>2026-03-21T23:15:23Z</time></trkpt><trkpt lat="-37.5248772653669" lon="144.23727516090338"><ele>649.0</ele><time>2026-03-21T23:15:26Z</time></trkpt><trkpt lat="-37.52478652493389" lon="144.23725667926422"><ele>649.0</ele><time>2026-03-21T23:15:27Z</time></trkpt><trkpt lat="-37.52470132322197" lon="144.237225762439"><ele>649.0</ele><time>2026-03-21T23:15:28Z</time></trkpt><trkpt lat="-37.52459057769964" lon="144.237205864418"><ele>649.0</ele><time>2026-03-21T23:15:29Z</time></trkpt><trkpt lat="-37.52450836586596" lon="144.2371651482205"><ele>649.0</ele><time>2026-03-21T23:15:30Z</time></trkpt><trkpt lat="-37.52445937473263" lon="144.23711512073217"><ele>649.0</ele><time>2026-03-21T23:15:31Z</time></trkpt><trkpt lat="-37.52440033029567" lon="144.2370276426213"><ele>649.0</ele><time>2026-03-21T23:15:32Z</time></trkpt><trkpt lat="-37.52433147227442" lon="144.236946845291"><ele>649.0</ele><time>2026-03-21T23:15:33Z</time></trkpt><trkpt lat="-37.5242559244284" lon="144.2369159016865"><ele>647.5</ele><time>2026-03-21T23:15:34Z</time></trkpt><trkpt lat="-37.52418791767617" lon="144.23689750511485"><ele>646.0</ele><time>2026-03-21T23:15:45Z</time></trkpt><trkpt lat="-37.524111644991166" lon="144.23688059884876"><ele>644.5</ele><time>2026-03-21T23:15:48Z</time></trkpt><trkpt lat="-37.52404775414276" lon="144.23682999634363"><ele>643.0</ele><time>2026-03-21T23:15:51Z</time></trkpt><trkpt lat="-37.52395864983653" lon="144.2368489591547"><ele>641.5</ele><time>2026-03-21T23:15:53Z</time></trkpt><trkpt lat="-37.523889059125146" lon="144.23681333421285"><ele>640.0</ele><time>2026-03-21T23:15:54Z</time></trkpt><trkpt lat="-37.52379372524616" lon="144.23670280954806"><ele>639.5</ele><time>2026-03-21T23:15:55Z</time></trkpt><trkpt lat="-37.52369900689674" lon="144.23657911819316"><ele>639.0</ele><time>2026-03-21T23:15:56Z</time></trkpt><trkpt lat="-37.52365182146947" lon="144.23651726577927"><ele>638.5</ele><time>2026-03-21T23:15:57Z</time></trkpt><trkpt lat="-37.523659369231765" lon="144.23643562629456"><ele>638.0</ele><time>2026-03-21T23:15:59Z</time></trkpt><trkpt lat="-37.52371395718108" lon="144.23635697091999"><ele>637.5</ele><time>2026-03-21T23:16:01Z</time></trkpt><trkpt lat="-37.52370470734805" lon="144.23626713989185"><ele>637.0</ele><time>2026-03-21T23:16:03Z</time></trkpt><trkpt lat="-37.52372889900195" lon="144.2361057121051"><ele>636.3333333333334</ele><time>2026-03-21T23:16:05Z</time></trkpt><trkpt lat="-37.52374986192585" lon="144.2360238512708"><ele>635.6666666666667</ele><time>2026-03-21T23:16:06Z</time></trkpt><trkpt lat="-37.52378737805239" lon="144.23594773572333"><ele>635.0</ele><time>2026-03-21T23:16:09Z</time></trkpt><trkpt lat="-37.52388536855075" lon="144.23595285370507"><ele>634.3333333333334</ele><time>2026-03-21T23:16:12Z</time></trkpt><trkpt lat="-37.52386885448502" lon="144.23582674370925"><ele>633.6666666666666</ele><time>2026-03-21T23:16:17Z</time></trkpt><trkpt lat="-37.52388601128606" lon="144.2357169911142"><ele>633.0</ele><time>2026-03-21T23:16:19Z</time></trkpt><trkpt lat="-37.523927929867924" lon="144.23560890227932"><ele>632.0</ele><time>2026-03-21T23:16:21Z</time></trkpt><trkpt lat="-37.52397274234935" lon="144.23549948772876"><ele>631.0</ele><time>2026-03-21T23:16:25Z</time></trkpt><trkpt lat="-37.52401356178999" lon="144.23542813659503"><ele>630.0</ele><time>2026-03-21T23:16:27Z</time></trkpt><trkpt lat="-37.52408259403654" lon="144.23538545093092"><ele>629.0</ele><time>2026-03-21T23:16:30Z</time></trkpt><trkpt lat="-37.524163391140135" lon="144.23537490051075"><ele>628.0</ele><time>2026-03-21T23:16:32Z</time></trkpt><trkpt lat="-37.524232272827945" lon="144.23537532793927"><ele>627.0</ele><time>2026-03-21T23:16:34Z</time></trkpt><trkpt lat="-37.5243303296883" lon="144.23534987910145"><ele>627.0</ele><time>2026-03-21T23:16:37Z</time></trkpt><trkpt lat="-37.52439835719108" lon="144.23523211836365"><ele>627.0</ele><time>2026-03-21T23:16:40Z</time></trkpt><trkpt lat="-37.52447406441896" lon="144.23524604708555"><ele>627.0</ele><time>2026-03-21T23:16:42Z</time></trkpt><trkpt lat="-37.52459878391739" lon="144.23525061566343"><ele>627.0</ele><time>2026-03-21T23:16:44Z</time></trkpt><trkpt lat="-37.52470273614607" lon="144.23520586484645"><ele>627.0</ele><time>2026-03-21T23:16:46Z</time></trkpt><trkpt lat="-37.5247992446628" lon="144.2351339648985"><ele>626.5</ele><time>2026-03-21T23:16:48Z</time></trkpt><trkpt lat="-37.52484876185377" lon="144.23508054769263"><ele>626.0</ele><time>2026-03-21T23:16:50Z</time></trkpt><trkpt lat="-37.524878224108036" lon="144.23500920363296"><ele>625.5</ele><time>2026-03-21T23:16:52Z</time></trkpt><trkpt lat="-37.52492622331698" lon="144.23493873303107"><ele>625.0</ele><time>2026-03-21T23:16:54Z</time></trkpt><trkpt lat="-37.524962160843195" lon="144.23484022715618"><ele>624.5</ele><time>2026-03-21T23:16:56Z</time></trkpt><trkpt lat="-37.52497491143592" lon="144.23471566722114"><ele>624.0</ele><time>2026-03-21T23:16:58Z</time></trkpt><trkpt lat="-37.524932151782366" lon="144.23462787612297"><ele>624.0</ele><time>2026-03-21T23:16:59Z</time></trkpt><trkpt lat="-37.52487897035284" lon="144.2345502801605"><ele>624.0</ele><time>2026-03-21T23:17:00Z</time></trkpt><trkpt lat="-37.52493633433157" lon="144.23445665761184"><ele>624.0</ele><time>2026-03-21T23:17:02Z</time></trkpt><trkpt lat="-37.5249923137516" lon="144.23440091280438"><ele>624.0</ele><time>2026-03-21T23:17:03Z</time></trkpt><trkpt lat="-37.5250042041956" lon="144.23430446158355"><ele>624.0</ele><time>2026-03-21T23:17:27Z</time></trkpt><trkpt lat="-37.5250239317539" lon="144.23420966276348"><ele>624.0</ele><time>2026-03-21T23:17:30Z</time></trkpt><trkpt lat="-37.52497869594486" lon="144.23411561613025"><ele>624.0</ele><time>2026-03-21T23:17:34Z</time></trkpt><trkpt lat="-37.52502158465967" lon="144.23399570566448"><ele>624.0</ele><time>2026-03-21T23:17:36Z</time></trkpt><trkpt lat="-37.52515283060718" lon="144.23393826433292"><ele>624.0</ele><time>2026-03-21T23:17:40Z</time></trkpt><trkpt lat="-37.52523997518686" lon="144.233904379242"><ele>624.0</ele><time>2026-03-21T23:17:42Z</time></trkpt><trkpt lat="-37.52525230640549" lon="144.23378013223092"><ele>624.0</ele><time>2026-03-21T23:17:45Z</time></trkpt><trkpt lat="-37.52520738847405" lon="144.2336689970333"><ele>624.5</ele><time>2026-03-21T23:17:46Z</time></trkpt><trkpt lat="-37.525195552582005" lon="144.2335410999876"><ele>625.0</ele><time>2026-03-21T23:17:47Z</time></trkpt><trkpt lat="-37.52525705417682" lon="144.23350690777926"><ele>625.5</ele><time>2026-03-21T23:17:49Z</time></trkpt><trkpt lat="-37.5253076626881" lon="144.23343318694043"><ele>626.0</ele><time>2026-03-21T23:17:53Z</time></trkpt><trkpt lat="-37.52533740548297" lon="144.23332056417158"><ele>626.5</ele><time>2026-03-21T23:17:56Z</time></trkpt><trkpt lat="-37.52538069323386" lon="144.23321616236495"><ele>627.0</ele><time>2026-03-21T23:17:58Z</time></trkpt><trkpt lat="-37.525458294271935" lon="144.23315821552862"><ele>627.0</ele><time>2026-03-21T23:18:00Z</time></trkpt><trkpt lat="-37.52555782367421" lon="144.23318471156614"><ele>627.0</ele><time>2026-03-21T23:18:02Z</time></trkpt><trkpt lat="-37.52565877380717" lon="144.2332341577178"><ele>627.0</ele><time>2026-03-21T23:18:04Z</time></trkpt><trkpt lat="-37.525772597235814" lon="144.23324169572257"><ele>627.0</ele><time>2026-03-21T23:18:06Z</time></trkpt><trkpt lat="-37.52584853763718" lon="144.23322359274536"><ele>627.0</ele><time>2026-03-21T23:18:08Z</time></trkpt><trkpt lat="-37.525916093663824" lon="144.23321541206735"><ele>627.0</ele><time>2026-03-21T23:18:10Z</time></trkpt><trkpt lat="-37.52599349606712" lon="144.2331966840286"><ele>627.0</ele><time>2026-03-21T23:18:12Z</time></trkpt><trkpt lat="-37.52595700330099" lon="144.23327615050454"><ele>627.0</ele><time>2026-03-21T23:18:15Z</time></trkpt><trkpt lat="-37.525926886837226" lon="144.23336023239472"><ele>627.0</ele><time>2026-03-21T23:18:18Z</time></trkpt><trkpt lat="-37.525976103522915" lon="144.23343038352965"><ele>627.0</ele><time>2026-03-21T23:18:21Z</time></trkpt><trkpt lat="-37.52603881969795" lon="144.23348343101745"><ele>627.0</ele><time>2026-03-21T23:18:24Z</time></trkpt><trkpt lat="-37.52610494597044" lon="144.23346497458598"><ele>627.0</ele><time>2026-03-21T23:18:27Z</time></trkpt><trkpt lat="-37.526172948199225" lon="144.2334153342945"><ele>626.3333333333334</ele><time>2026-03-21T23:18:29Z</time></trkpt><trkpt lat="-37.52623267928595" lon="144.23338805812466"><ele>625.6666666666666</ele><time>2026-03-21T23:18:30Z</time></trkpt><trkpt lat="-37.526334011697855" lon="144.23337775491757"><ele>625.0</ele><time>2026-03-21T23:18:32Z</time></trkpt><trkpt lat="-37.52627849964794" lon="144.2334268156255"><ele>624.3333333333333</ele><time>2026-03-21T23:18:41Z</time></trkpt><trkpt lat="-37.526341902753" lon="144.23347669292488"><ele>623.6666666666666</ele><time>2026-03-21T23:18:44Z</time></trkpt><trkpt lat="-37.52639316989954" lon="144.23353387742708"><ele>623.0</ele><time>2026-03-21T23:18:47Z</time></trkpt><trkpt lat="-37.52648462342681" lon="144.23355326022417"><ele>623.0</ele><time>2026-03-21T23:18:49Z</time></trkpt><trkpt lat="-37.526570359538624" lon="144.23356665166153"><ele>623.0</ele><time>2026-03-21T23:18:51Z</time></trkpt><trkpt lat="-37.526635756267794" lon="144.23352673858173"><ele>623.0</ele><time>2026-03-21T23:18:53Z</time></trkpt><trkpt lat="-37.52672207461613" lon="144.23354005975372"><ele>623.0</ele><time>2026-03-21T23:18:55Z</time></trkpt><trkpt lat="-37.526791122583354" lon="144.2336307995375"><ele>623.0</ele><time>2026-03-21T23:18:57Z</time></trkpt><trkpt lat="-37.52686907837801" lon="144.23363519045975"><ele>623.0</ele><time>2026-03-21T23:19:01Z</time></trkpt><trkpt lat="-37.52692914462092" lon="144.23355912726467"><ele>623.0</ele><time>2026-03-21T23:19:04Z</time></trkpt><trkpt lat="-37.52699140557106" lon="144.23358627043447"><ele>623.0</ele><time>2026-03-21T23:19:07Z</time></trkpt><trkpt lat="-37.52705999023972" lon="144.23354549222685"><ele>623.0</ele><time>2026-03-21T23:19:11Z</time></trkpt><trkpt lat="-37.52710988750085" lon="144.2334958393119"><ele>623.0</ele><time>2026-03-21T23:19:25.001Z</time></trkpt><trkpt lat="-37.5271720639113" lon="144.23348162232205"><ele>623.0</ele><time>2026-03-21T23:19:32.001Z</time></trkpt><trkpt lat="-37.52723309257555" lon="144.233515408315"><ele>623.0</ele><time>2026-03-21T23:19:37Z</time></trkpt><trkpt lat="-37.527317598825135" lon="144.2335032436967"><ele>623.0</ele><time>2026-03-21T23:19:40Z</time></trkpt><trkpt lat="-37.52740021347199" lon="144.2335283467467"><ele>622.1666666666666</ele><time>2026-03-21T23:19:43Z</time></trkpt><trkpt lat="-37.5274961680499" lon="144.23352058540777"><ele>621.3333333333333</ele><time>2026-03-21T23:19:45Z</time></trkpt><trkpt lat="-37.52754586365219" lon="144.2336110169337"><ele>620.5</ele><time>2026-03-21T23:19:49Z</time></trkpt><trkpt lat="-37.52758071829536" lon="144.23368691023518"><ele>619.6666666666666</ele><time>2026-03-21T23:19:51Z</time></trkpt><trkpt lat="-37.52761020424115" lon="144.23377970413065"><ele>618.8333333333334</ele><time>2026-03-21T23:19:54Z</time></trkpt><trkpt lat="-37.5276987663691" lon="144.23382833613607"><ele>618.0</ele><time>2026-03-21T23:19:56Z</time></trkpt><trkpt lat="-37.5277779623308" lon="144.23386820384647"><ele>618.0</ele><time>2026-03-21T23:19:59Z</time></trkpt><trkpt lat="-37.527768914788226" lon="144.233966265785"><ele>618.0</ele><time>2026-03-21T23:20:01Z</time></trkpt><trkpt lat="-37.527753640665814" lon="144.23407608487844"><ele>618.0</ele><time>2026-03-21T23:20:04Z</time></trkpt><trkpt lat="-37.52780698241458" lon="144.23416916809305"><ele>618.0</ele><time>2026-03-21T23:20:06Z</time></trkpt><trkpt lat="-37.527792885363546" lon="144.23427486585987"><ele>618.0</ele><time>2026-03-21T23:20:09Z</time></trkpt><trkpt lat="-37.52774253046005" lon="144.23438008130591"><ele>618.0</ele><time>2026-03-21T23:20:11Z</time></trkpt><trkpt lat="-37.52778092261955" lon="144.23447923397683"><ele>616.4285714285714</ele><time>2026-03-21T23:20:13Z</time></trkpt><trkpt lat="-37.52783706252204" lon="144.2345229943491"><ele>614.8571428571429</ele><time>2026-03-21T23:20:15Z</time></trkpt><trkpt lat="-37.5278988282484" lon="144.23454848138206"><ele>613.2857142857142</ele><time>2026-03-21T23:20:20Z</time></trkpt><trkpt lat="-37.52798424379591" lon="144.23452480878555"><ele>611.7142857142858</ele><time>2026-03-21T23:29:04.999Z</time></trkpt><trkpt lat="-37.52804421370031" lon="144.2344946086517"><ele>610.1428571428571</ele><time>2026-03-21T23:29:06.999Z</time></trkpt><trkpt lat="-37.52812628150973" lon="144.23450864306076"><ele>608.5714285714286</ele><time>2026-03-21T23:29:08.999Z</time></trkpt><trkpt lat="-37.52819473896474" lon="144.23452755097665"><ele>607.0</ele><time>2026-03-21T23:29:10.999Z</time></trkpt><trkpt lat="-37.5281995007152" lon="144.23462030583738"><ele>605.8333333333334</ele><time>2026-03-21T23:29:13.999Z</time></trkpt><trkpt lat="-37.52823693312875" lon="144.23468907455157"><ele>604.6666666666667</ele><time>2026-03-21T23:29:16.999Z</time></trkpt><trkpt lat="-37.528213622156755" lon="144.2346101963932"><ele>603.5</ele><time>2026-03-21T23:29:26Z</time></trkpt><trkpt lat="-37.52820963318068" lon="144.2345098458972"><ele>602.3333333333334</ele><time>2026-03-21T23:29:30Z</time></trkpt><trkpt lat="-37.52830038925615" lon="144.2344124460544"><ele>601.1666666666666</ele><time>2026-03-21T23:29:32Z</time></trkpt><trkpt lat="-37.52836200499675" lon="144.23438382805904"><ele>600.0</ele><time>2026-03-21T23:29:33Z</time></trkpt><trkpt lat="-37.52842361000956" lon="144.23435424294777"><ele>600.0</ele><time>2026-03-21T23:29:34Z</time></trkpt><trkpt lat="-37.52852282630619" lon="144.23432842622674"><ele>600.0</ele><time>2026-03-21T23:29:36Z</time></trkpt><trkpt lat="-37.528643218616374" lon="144.23432817281727"><ele>600.0</ele><time>2026-03-21T23:29:38Z</time></trkpt><trkpt lat="-37.52875085510027" lon="144.2343006937467"><ele>600.0</ele><time>2026-03-21T23:29:39Z</time></trkpt><trkpt lat="-37.5288617115068" lon="144.23429971527236"><ele>600.0</ele><time>2026-03-21T23:29:40Z</time></trkpt><trkpt lat="-37.52893043370693" lon="144.23428964699335"><ele>600.5</ele><time>2026-03-21T23:29:41Z</time></trkpt><trkpt lat="-37.52899814527007" lon="144.23427902863463"><ele>601.0</ele><time>2026-03-21T23:29:42Z</time></trkpt><trkpt lat="-37.52912270104292" lon="144.23426877153855"><ele>601.5</ele><time>2026-03-21T23:29:44Z</time></trkpt><trkpt lat="-37.52918363582176" lon="144.23424249604088"><ele>602.0</ele><time>2026-03-21T23:29:45Z</time></trkpt><trkpt lat="-37.529244891601294" lon="144.23420640882628"><ele>602.5</ele><time>2026-03-21T23:29:46Z</time></trkpt><trkpt lat="-37.52936567594281" lon="144.2341945113843"><ele>603.0</ele><time>2026-03-21T23:29:48Z</time></trkpt><trkpt lat="-37.52945636161309" lon="144.23421122864548"><ele>603.0</ele><time>2026-03-21T23:29:50Z</time></trkpt><trkpt lat="-37.52952107830332" lon="144.234196823071"><ele>603.0</ele><time>2026-03-21T23:29:52Z</time></trkpt><trkpt lat="-37.5295138973097" lon="144.23411535217005"><ele>603.0</ele><time>2026-03-21T23:30:11Z</time></trkpt><trkpt lat="-37.529403538010634" lon="144.23420090315457"><ele>603.0</ele><time>2026-03-21T23:30:15Z</time></trkpt><trkpt lat="-37.529271417297934" lon="144.23419880517383"><ele>603.0</ele><time>2026-03-21T23:30:17Z</time></trkpt><trkpt lat="-37.52916571834703" lon="144.23422132429394"><ele>603.0</ele><time>2026-03-21T23:30:18Z</time></trkpt><trkpt lat="-37.52906714000278" lon="144.23426977019673"><ele>603.0</ele><time>2026-03-21T23:30:19Z</time></trkpt><trkpt lat="-37.52896780987997" lon="144.2342840958074"><ele>603.0</ele><time>2026-03-21T23:30:20Z</time></trkpt><trkpt lat="-37.528880559056105" lon="144.23428406006062"><ele>603.0</ele><time>2026-03-21T23:30:21Z</time></trkpt><trkpt lat="-37.52879011197937" lon="144.23427502566537"><ele>603.0</ele><time>2026-03-21T23:30:22Z</time></trkpt><trkpt lat="-37.5287109890629" lon="144.2342832847174"><ele>602.5</ele><time>2026-03-21T23:30:23Z</time></trkpt><trkpt lat="-37.52862727707789" lon="144.23429910661255"><ele>602.0</ele><time>2026-03-21T23:30:24Z</time></trkpt><trkpt lat="-37.52855825046602" lon="144.23431592331585"><ele>601.5</ele><time>2026-03-21T23:30:25Z</time></trkpt><trkpt lat="-37.52845861651203" lon="144.23427206205582"><ele>601.0</ele><time>2026-03-21T23:30:27Z</time></trkpt><trkpt lat="-37.528409221715876" lon="144.23421527818667"><ele>600.5</ele><time>2026-03-21T23:30:30Z</time></trkpt><trkpt lat="-37.52837787036906" lon="144.23411617007875"><ele>600.0</ele><time>2026-03-21T23:30:32Z</time></trkpt><trkpt lat="-37.52836096580025" lon="144.23400977107906"><ele>601.0</ele><time>2026-03-21T23:30:33Z</time></trkpt><trkpt lat="-37.52833658791399" lon="144.23389668645845"><ele>602.0</ele><time>2026-03-21T23:30:34Z</time></trkpt><trkpt lat="-37.52828440857019" lon="144.2337843937441"><ele>603.0</ele><time>2026-03-21T23:30:36Z</time></trkpt><trkpt lat="-37.52824242021649" lon="144.23371245801795"><ele>604.0</ele><time>2026-03-21T23:30:37Z</time></trkpt><trkpt lat="-37.528236851802326" lon="144.23360878735457"><ele>605.0</ele><time>2026-03-21T23:30:39Z</time></trkpt><trkpt lat="-37.528273051308496" lon="144.23353785963474"><ele>606.0</ele><time>2026-03-21T23:30:40Z</time></trkpt><trkpt lat="-37.52830739422544" lon="144.23345549147032"><ele>606.0</ele><time>2026-03-21T23:30:41Z</time></trkpt><trkpt lat="-37.52831324205276" lon="144.23333496487012"><ele>606.0</ele><time>2026-03-21T23:30:43Z</time></trkpt><trkpt lat="-37.52829646341556" lon="144.23325556593312"><ele>606.0</ele><time>2026-03-21T23:30:44Z</time></trkpt><trkpt lat="-37.5282755663249" lon="144.23314391773"><ele>606.0</ele><time>2026-03-21T23:30:45Z</time></trkpt><trkpt lat="-37.528256882524865" lon="144.23305149030716"><ele>606.0</ele><time>2026-03-21T23:30:46Z</time></trkpt><trkpt lat="-37.52823905218509" lon="144.23296581220984"><ele>606.0</ele><time>2026-03-21T23:30:47Z</time></trkpt><trkpt lat="-37.52824942953752" lon="144.23287591096658"><ele>605.5</ele><time>2026-03-21T23:30:48Z</time></trkpt><trkpt lat="-37.52826975264113" lon="144.2327941123025"><ele>605.0</ele><time>2026-03-21T23:30:49Z</time></trkpt><trkpt lat="-37.52827999216159" lon="144.2326965265301"><ele>604.5</ele><time>2026-03-21T23:30:50Z</time></trkpt><trkpt lat="-37.52825680335621" lon="144.2326008665482"><ele>604.0</ele><time>2026-03-21T23:30:50.999Z</time></trkpt><trkpt lat="-37.52824897432705" lon="144.23249247673382"><ele>603.5</ele><time>2026-03-21T23:30:51.999Z</time></trkpt><trkpt lat="-37.528245636530144" lon="144.2323768460629"><ele>603.0</ele><time>2026-03-21T23:30:52.999Z</time></trkpt><trkpt lat="-37.528159187428756" lon="144.23223637602212"><ele>601.5</ele><time>2026-03-21T23:30:54.999Z</time></trkpt><trkpt lat="-37.52814098202462" lon="144.23213267537162"><ele>600.0</ele><time>2026-03-21T23:30:55.999Z</time></trkpt><trkpt lat="-37.52814074604655" lon="144.23203509322957"><ele>598.5</ele><time>2026-03-21T23:30:56.999Z</time></trkpt><trkpt lat="-37.52815325890225" lon="144.23194446690826"><ele>597.0</ele><time>2026-03-21T23:30:57.999Z</time></trkpt><trkpt lat="-37.528154251896055" lon="144.23185673362093"><ele>595.5</ele><time>2026-03-21T23:30:58.999Z</time></trkpt><trkpt lat="-37.528133755260725" lon="144.23177529008518"><ele>594.0</ele><time>2026-03-21T23:30:59.999Z</time></trkpt><trkpt lat="-37.52810084948808" lon="144.2316803036685"><ele>594.0</ele><time>2026-03-21T23:31:00.999Z</time></trkpt><trkpt lat="-37.52807769752563" lon="144.23158995611075"><ele>594.0</ele><time>2026-03-21T23:31:01.999Z</time></trkpt><trkpt lat="-37.52807872578796" lon="144.23150076781866"><ele>594.0</ele><time>2026-03-21T23:31:02.999Z</time></trkpt><trkpt lat="-37.528097535001095" lon="144.2314015933028"><ele>594.0</ele><time>2026-03-21T23:31:03.999Z</time></trkpt><trkpt lat="-37.52811871143847" lon="144.23130929266898"><ele>594.0</ele><time>2026-03-21T23:31:04.999Z</time></trkpt><trkpt lat="-37.528148318965314" lon="144.23122365599076"><ele>594.0</ele><time>2026-03-21T23:31:05.999Z</time></trkpt><trkpt lat="-37.52819187034573" lon="144.23114237059605"><ele>592.6666666666666</ele><time>2026-03-21T23:31:07Z</time></trkpt><trkpt lat="-37.52821882147223" lon="144.23106293974828"><ele>591.3333333333334</ele><time>2026-03-21T23:31:08Z</time></trkpt><trkpt lat="-37.52824774925398" lon="144.23095984317337"><ele>590.0</ele><time>2026-03-21T23:31:10Z</time></trkpt><trkpt lat="-37.52818546344477" lon="144.2309349383387"><ele>588.6666666666667</ele><time>2026-03-21T23:31:15Z</time></trkpt><trkpt lat="-37.52811618991952" lon="144.23094719946732"><ele>587.3333333333334</ele><time>2026-03-21T23:31:16Z</time></trkpt><trkpt lat="-37.52804381930145" lon="144.2309322857344"><ele>586.0</ele><time>2026-03-21T23:31:17Z</time></trkpt><trkpt lat="-37.52796233535378" lon="144.23085600475142"><ele>586.0</ele><time>2026-03-21T23:31:18Z</time></trkpt><trkpt lat="-37.527896712312234" lon="144.23079184223278"><ele>586.0</ele><time>2026-03-21T23:31:19Z</time></trkpt><trkpt lat="-37.5278240134965" lon="144.23074625302658"><ele>586.0</ele><time>2026-03-21T23:31:20Z</time></trkpt><trkpt lat="-37.5277503454157" lon="144.230720189428"><ele>586.0</ele><time>2026-03-21T23:31:21Z</time></trkpt><trkpt lat="-37.527681917569474" lon="144.23072173061763"><ele>586.0</ele><time>2026-03-21T23:31:22Z</time></trkpt><trkpt lat="-37.52756941207429" lon="144.23070710159917"><ele>586.0</ele><time>2026-03-21T23:31:24Z</time></trkpt><trkpt lat="-37.52746467686334" lon="144.2307024507666"><ele>586.4</ele><time>2026-03-21T23:31:26Z</time></trkpt><trkpt lat="-37.52736692944304" lon="144.23074524492165"><ele>586.8</ele><time>2026-03-21T23:31:28Z</time></trkpt><trkpt lat="-37.52727517882935" lon="144.2307862783027"><ele>587.1999999999999</ele><time>2026-03-21T23:31:30Z</time></trkpt><trkpt lat="-37.52717468359704" lon="144.230782975581"><ele>587.6</ele><time>2026-03-21T23:31:32Z</time></trkpt><trkpt lat="-37.527135810643614" lon="144.23071039013405"><ele>588.0</ele><time>2026-03-21T23:31:35Z</time></trkpt><trkpt lat="-37.52705363955932" lon="144.2306677917228"><ele>586.8333333333334</ele><time>2026-03-21T23:31:39Z</time></trkpt><trkpt lat="-37.52698988626009" lon="144.23063067983128"><ele>585.6666666666666</ele><time>2026-03-21T23:31:41Z</time></trkpt><trkpt lat="-37.52692207529807" lon="144.2305939537502"><ele>584.5</ele><time>2026-03-21T23:31:45Z</time></trkpt><trkpt lat="-37.52687486093852" lon="144.23050816564586"><ele>583.3333333333333</ele><time>2026-03-21T23:31:47Z</time></trkpt><trkpt lat="-37.52680916799367" lon="144.23044393976258"><ele>582.1666666666666</ele><time>2026-03-21T23:31:49Z</time></trkpt><trkpt lat="-37.52677184921128" lon="144.23052641908433"><ele>581.0</ele><time>2026-03-21T23:31:57Z</time></trkpt><trkpt lat="-37.52670297696349" lon="144.23052219737778"><ele>581.0</ele><time>2026-03-21T23:32:00Z</time></trkpt><trkpt lat="-37.52665689471063" lon="144.2305903233896"><ele>581.0</ele><time>2026-03-21T23:32:04Z</time></trkpt><trkpt lat="-37.52660093788171" lon="144.23063317155098"><ele>581.0</ele><time>2026-03-21T23:33:09Z</time></trkpt><trkpt lat="-37.52653757515021" lon="144.23062296117956"><ele>581.0</ele><time>2026-03-21T23:33:12Z</time></trkpt><trkpt lat="-37.526477169986975" lon="144.2306711675344"><ele>581.0</ele><time>2026-03-21T23:33:15Z</time></trkpt><trkpt lat="-37.52641287077556" lon="144.2306371318847"><ele>581.0</ele><time>2026-03-21T23:33:19Z</time></trkpt><trkpt lat="-37.526407683180736" lon="144.23053448673363"><ele>581.0</ele><time>2026-03-21T23:33:28Z</time></trkpt><trkpt lat="-37.52635364009295" lon="144.23042426556654"><ele>581.0</ele><time>2026-03-21T23:33:31Z</time></trkpt><trkpt lat="-37.5263543467091" lon="144.23032288689973"><ele>581.0</ele><time>2026-03-21T23:33:34Z</time></trkpt><trkpt lat="-37.52630968830906" lon="144.23026255040864"><ele>581.0</ele><time>2026-03-21T23:33:38Z</time></trkpt><trkpt lat="-37.52637149770246" lon="144.23028329719222"><ele>581.0</ele><time>2026-03-21T23:35:34Z</time></trkpt><trkpt lat="-37.5264762010833" lon="144.230265426393"><ele>581.0</ele><time>2026-03-21T23:35:37Z</time></trkpt><trkpt lat="-37.52654367403645" lon="144.23029188963258"><ele>581.0</ele><time>2026-03-21T23:35:39Z</time></trkpt><trkpt lat="-37.52660429150465" lon="144.23033365753014"><ele>581.0</ele><time>2026-03-21T23:35:41Z</time></trkpt><trkpt lat="-37.526692982707694" lon="144.23031044187158"><ele>581.0</ele><time>2026-03-21T23:35:53.001Z</time></trkpt><trkpt lat="-37.52676712925025" lon="144.23034858886032"><ele>581.0</ele><time>2026-03-21T23:36:05.001Z</time></trkpt><trkpt lat="-37.52678404621512" lon="144.23043585680534"><ele>581.0</ele><time>2026-03-21T23:36:07.001Z</time></trkpt><trkpt lat="-37.52683718164625" lon="144.23048864442524"><ele>581.0</ele><time>2026-03-21T23:36:09.001Z</time></trkpt><trkpt lat="-37.52689356202403" lon="144.23055091526206"><ele>581.0</ele><time>2026-03-21T23:36:11.001Z</time></trkpt><trkpt lat="-37.526944914048094" lon="144.23059876748766"><ele>581.0</ele><time>2026-03-21T23:36:13.001Z</time></trkpt><trkpt lat="-37.527014044334" lon="144.23062946377635"><ele>582.1666666666666</ele><time>2026-03-21T23:36:24.001Z</time></trkpt><trkpt lat="-37.52709710881986" lon="144.23066155825526"><ele>583.3333333333333</ele><time>2026-03-21T23:36:29.001Z</time></trkpt><trkpt lat="-37.52717535776025" lon="144.2307169728723"><ele>584.5</ele><time>2026-03-21T23:36:32.001Z</time></trkpt><trkpt lat="-37.52723910046045" lon="144.23073550614563"><ele>585.6666666666666</ele><time>2026-03-21T23:36:34.001Z</time></trkpt><trkpt lat="-37.5273353409827" lon="144.23073320796337"><ele>586.8333333333334</ele><time>2026-03-21T23:36:37.001Z</time></trkpt><trkpt lat="-37.52742862049388" lon="144.23068641375372"><ele>588.0</ele><time>2026-03-21T23:36:39.001Z</time></trkpt><trkpt lat="-37.52751831401102" lon="144.23068183731925"><ele>588.0</ele><time>2026-03-21T23:36:41.001Z</time></trkpt><trkpt lat="-37.52760332556172" lon="144.23068206897568"><ele>588.0</ele><time>2026-03-21T23:36:43.001Z</time></trkpt><trkpt lat="-37.52768547935953" lon="144.23071589274298"><ele>588.0</ele><time>2026-03-21T23:36:45.001Z</time></trkpt><trkpt lat="-37.52775295615335" lon="144.23072934810713"><ele>588.0</ele><time>2026-03-21T23:36:47.001Z</time></trkpt><trkpt lat="-37.527840398200496" lon="144.23075289806786"><ele>588.0</ele><time>2026-03-21T23:36:49.001Z</time></trkpt><trkpt lat="-37.527914469718" lon="144.2307941542249"><ele>588.0</ele><time>2026-03-21T23:36:51.001Z</time></trkpt><trkpt lat="-37.527983976137286" lon="144.23085020722993"><ele>587.6666666666666</ele><time>2026-03-21T23:36:53.001Z</time></trkpt><trkpt lat="-37.528055137398766" lon="144.23090719797284"><ele>587.3333333333334</ele><time>2026-03-21T23:36:55.001Z</time></trkpt><trkpt lat="-37.52812085608661" lon="144.2309692338246"><ele>587.0</ele><time>2026-03-21T23:36:57.001Z</time></trkpt><trkpt lat="-37.528172997532" lon="144.23106166769364"><ele>586.6666666666667</ele><time>2026-03-21T23:37:00.001Z</time></trkpt><trkpt lat="-37.52816202926731" lon="144.23115545084906"><ele>586.3333333333334</ele><time>2026-03-21T23:37:02.001Z</time></trkpt><trkpt lat="-37.52812345615948" lon="144.23123471570872"><ele>586.0</ele><time>2026-03-21T23:37:04.001Z</time></trkpt><trkpt lat="-37.528082770386526" lon="144.231381086591"><ele>587.6</ele><time>2026-03-21T23:37:06.001Z</time></trkpt><trkpt lat="-37.528068555587346" lon="144.23153140785269"><ele>589.2</ele><time>2026-03-21T23:37:08.001Z</time></trkpt><trkpt lat="-37.52802637391647" lon="144.23164356030654"><ele>590.8</ele><time>2026-03-21T23:37:10Z</time></trkpt><trkpt lat="-37.52800196732172" lon="144.23172135480715"><ele>592.4</ele><time>2026-03-21T23:37:12Z</time></trkpt><trkpt lat="-37.52797880080188" lon="144.23186716459423"><ele>594.0</ele><time>2026-03-21T23:37:15Z</time></trkpt><trkpt lat="-37.52795738399269" lon="144.2319488273554"><ele>594.0</ele><time>2026-03-21T23:37:16Z</time></trkpt><trkpt lat="-37.527911442449756" lon="144.23209986637033"><ele>594.0</ele><time>2026-03-21T23:37:18Z</time></trkpt><trkpt lat="-37.52786674313207" lon="144.23219195509532"><ele>594.0</ele><time>2026-03-21T23:37:19Z</time></trkpt><trkpt lat="-37.527824627571206" lon="144.23227656224267"><ele>594.0</ele><time>2026-03-21T23:37:20Z</time></trkpt><trkpt lat="-37.52778197225607" lon="144.23235870397872"><ele>594.0</ele><time>2026-03-21T23:37:21Z</time></trkpt><trkpt lat="-37.527742863762924" lon="144.23244177291446"><ele>594.0</ele><time>2026-03-21T23:37:22Z</time></trkpt><trkpt lat="-37.52770237921399" lon="144.23251716048046"><ele>598.1666666666666</ele><time>2026-03-21T23:37:23Z</time></trkpt><trkpt lat="-37.527662227049554" lon="144.23257925868896"><ele>602.3333333333334</ele><time>2026-03-21T23:37:24Z</time></trkpt><trkpt lat="-37.52762564409502" lon="144.2326516034237"><ele>606.5</ele><time>2026-03-21T23:37:25Z</time></trkpt><trkpt lat="-37.527598934986" lon="144.23272561072"><ele>610.6666666666667</ele><time>2026-03-21T23:37:26Z</time></trkpt><trkpt lat="-37.52751238221101" lon="144.23282275099686"><ele>614.8333333333334</ele><time>2026-03-21T23:37:28Z</time></trkpt><trkpt lat="-37.527449911985116" lon="144.2328390752294"><ele>619.0</ele><time>2026-03-21T23:37:29Z</time></trkpt><trkpt lat="-37.52733860975073" lon="144.23284594499577"><ele>619.0</ele><time>2026-03-21T23:37:31Z</time></trkpt><trkpt lat="-37.527294890181075" lon="144.2327885440683"><ele>619.0</ele><time>2026-03-21T23:37:32Z</time></trkpt><trkpt lat="-37.52723140382639" lon="144.23268205134133"><ele>619.0</ele><time>2026-03-21T23:37:34Z</time></trkpt><trkpt lat="-37.52713383657739" lon="144.232660670223"><ele>619.0</ele><time>2026-03-21T23:37:36Z</time></trkpt><trkpt lat="-37.52708047323653" lon="144.2327290408901"><ele>619.0</ele><time>2026-03-21T23:37:38Z</time></trkpt><trkpt lat="-37.52699967103433" lon="144.2327254239649"><ele>619.0</ele><time>2026-03-21T23:37:42Z</time></trkpt><trkpt lat="-37.52692532714017" lon="144.23272547122085"><ele>620.4</ele><time>2026-03-21T23:37:44Z</time></trkpt><trkpt lat="-37.52683405156726" lon="144.23274166031104"><ele>621.8</ele><time>2026-03-21T23:37:46Z</time></trkpt><trkpt lat="-37.52675014846926" lon="144.2327801805513"><ele>623.2</ele><time>2026-03-21T23:37:48Z</time></trkpt><trkpt lat="-37.52663885269607" lon="144.2328133965861"><ele>624.6</ele><time>2026-03-21T23:37:50Z</time></trkpt><trkpt lat="-37.526516594357794" lon="144.23282304974725"><ele>626.0</ele><time>2026-03-21T23:37:52Z</time></trkpt><trkpt lat="-37.52643781376171" lon="144.23279735947355"><ele>626.0</ele><time>2026-03-21T23:37:53Z</time></trkpt><trkpt lat="-37.52636558856033" lon="144.23277448005493"><ele>626.0</ele><time>2026-03-21T23:37:54Z</time></trkpt><trkpt lat="-37.52628576549282" lon="144.23277583325316"><ele>626.0</ele><time>2026-03-21T23:37:55Z</time></trkpt><trkpt lat="-37.52617988647245" lon="144.23276298714518"><ele>626.0</ele><time>2026-03-21T23:37:56Z</time></trkpt><trkpt lat="-37.526096217191345" lon="144.23274250540126"><ele>626.0</ele><time>2026-03-21T23:37:57Z</time></trkpt><trkpt lat="-37.5260135937629" lon="144.23274312844094"><ele>626.0</ele><time>2026-03-21T23:37:58Z</time></trkpt><trkpt lat="-37.525929706391736" lon="144.23277577490762"><ele>627.5</ele><time>2026-03-21T23:37:59Z</time></trkpt><trkpt lat="-37.525822261793124" lon="144.23278970018347"><ele>629.0</ele><time>2026-03-21T23:38:00Z</time></trkpt><trkpt lat="-37.52568726698102" lon="144.23281346083505"><ele>630.5</ele><time>2026-03-21T23:38:01Z</time></trkpt><trkpt lat="-37.52554483946472" lon="144.23284414205082"><ele>632.0</ele><time>2026-03-21T23:38:02Z</time></trkpt><trkpt lat="-37.525469381334105" lon="144.2328355894201"><ele>633.75</ele><time>2026-03-21T23:38:04Z</time></trkpt><trkpt lat="-37.525364450617225" lon="144.23288219807154"><ele>635.5</ele><time>2026-03-21T23:38:05Z</time></trkpt><trkpt lat="-37.52524294194282" lon="144.23292789322068"><ele>637.25</ele><time>2026-03-21T23:38:06Z</time></trkpt><trkpt lat="-37.52510437523367" lon="144.23297601926788"><ele>639.0</ele><time>2026-03-21T23:38:07Z</time></trkpt><trkpt lat="-37.52498545947689" lon="144.23299992892115"><ele>639.0</ele><time>2026-03-21T23:38:08Z</time></trkpt><trkpt lat="-37.524888979178286" lon="144.23301458137806"><ele>639.0</ele><time>2026-03-21T23:38:09Z</time></trkpt><trkpt lat="-37.52479313890679" lon="144.2330126090335"><ele>639.0</ele><time>2026-03-21T23:38:10Z</time></trkpt><trkpt lat="-37.52468381074231" lon="144.2329935414887"><ele>639.0</ele><time>2026-03-21T23:38:11Z</time></trkpt><trkpt lat="-37.52455391533524" lon="144.23296546241374"><ele>639.0</ele><time>2026-03-21T23:38:12Z</time></trkpt><trkpt lat="-37.52442274089515" lon="144.23293959464937"><ele>640.3333333333334</ele><time>2026-03-21T23:38:13Z</time></trkpt><trkpt lat="-37.524346015782456" lon="144.23295487677677"><ele>641.6666666666666</ele><time>2026-03-21T23:38:14Z</time></trkpt><trkpt lat="-37.52427952448608" lon="144.23302435648932"><ele>643.0</ele><time>2026-03-21T23:38:15Z</time></trkpt><trkpt lat="-37.52422414184114" lon="144.23306357859482"><ele>644.3333333333333</ele><time>2026-03-21T23:38:16Z</time></trkpt><trkpt lat="-37.524125195173724" lon="144.23316133464533"><ele>645.6666666666666</ele><time>2026-03-21T23:38:18Z</time></trkpt><trkpt lat="-37.524078836141435" lon="144.2332291987778"><ele>647.0</ele><time>2026-03-21T23:38:19Z</time></trkpt><trkpt lat="-37.524032723777175" lon="144.23330408923573"><ele>647.0</ele><time>2026-03-21T23:38:20Z</time></trkpt><trkpt lat="-37.523992477233186" lon="144.23339239539752"><ele>647.0</ele><time>2026-03-21T23:38:21Z</time></trkpt><trkpt lat="-37.523937485326286" lon="144.23346655179054"><ele>647.0</ele><time>2026-03-21T23:38:22Z</time></trkpt><trkpt lat="-37.52386305346808" lon="144.2335089392677"><ele>647.0</ele><time>2026-03-21T23:38:23Z</time></trkpt><trkpt lat="-37.52376752139405" lon="144.2335426655327"><ele>647.0</ele><time>2026-03-21T23:38:24Z</time></trkpt><trkpt lat="-37.52368885930708" lon="144.23356801868098"><ele>647.0</ele><time>2026-03-21T23:38:25Z</time></trkpt><trkpt lat="-37.52360862129586" lon="144.233629510367"><ele>646.6666666666666</ele><time>2026-03-21T23:38:26Z</time></trkpt><trkpt lat="-37.523547970703014" lon="144.2336730468892"><ele>646.3333333333333</ele><time>2026-03-21T23:38:27Z</time></trkpt><trkpt lat="-37.523472695005296" lon="144.23372675695944"><ele>646.0</ele><time>2026-03-21T23:38:28Z</time></trkpt><trkpt lat="-37.523354229692636" lon="144.23382524403067"><ele>645.6666666666666</ele><time>2026-03-21T23:38:30Z</time></trkpt><trkpt lat="-37.52330017918599" lon="144.2338713525365"><ele>645.3333333333334</ele><time>2026-03-21T23:38:31Z</time></trkpt><trkpt lat="-37.52325251596641" lon="144.23393481166994"><ele>645.0</ele><time>2026-03-21T23:38:32Z</time></trkpt><trkpt lat="-37.523194966981734" lon="144.23401572094633"><ele>644.6666666666666</ele><time>2026-03-21T23:38:33Z</time></trkpt><trkpt lat="-37.52315369290008" lon="144.23409177101212"><ele>644.3333333333334</ele><time>2026-03-21T23:38:34Z</time></trkpt><trkpt lat="-37.5231197419829" lon="144.2341735281552"><ele>644.0</ele><time>2026-03-21T23:38:35Z</time></trkpt><trkpt lat="-37.52312411189018" lon="144.23430801022633"><ele>643.6666666666667</ele><time>2026-03-21T23:38:37Z</time></trkpt><trkpt lat="-37.52315021316655" lon="144.23440747638966"><ele>643.3333333333334</ele><time>2026-03-21T23:38:39Z</time></trkpt><trkpt lat="-37.52311755755543" lon="144.23448433693017"><ele>643.0</ele><time>2026-03-21T23:38:41Z</time></trkpt><trkpt lat="-37.52314387951237" lon="144.23458993004843"><ele>643.0</ele><time>2026-03-21T23:38:43Z</time></trkpt><trkpt lat="-37.52321025748352" lon="144.2346810093891"><ele>643.0</ele><time>2026-03-21T23:38:45Z</time></trkpt><trkpt lat="-37.52325813055336" lon="144.23476006474584"><ele>643.0</ele><time>2026-03-21T23:38:46Z</time></trkpt><trkpt lat="-37.52329800237686" lon="144.23486209542676"><ele>643.0</ele><time>2026-03-21T23:38:47Z</time></trkpt><trkpt lat="-37.52333826388343" lon="144.23495419206066"><ele>643.0</ele><time>2026-03-21T23:38:48Z</time></trkpt><trkpt lat="-37.52337412838182" lon="144.2350361074825"><ele>643.0</ele><time>2026-03-21T23:38:49Z</time></trkpt><trkpt lat="-37.52339622021976" lon="144.23512677484985"><ele>642.8</ele><time>2026-03-21T23:38:50Z</time></trkpt><trkpt lat="-37.52349493978596" lon="144.23518822971758"><ele>642.5999999999999</ele><time>2026-03-21T23:38:54Z</time></trkpt><trkpt lat="-37.523544313901795" lon="144.23530623354694"><ele>642.4000000000001</ele><time>2026-03-21T23:38:56Z</time></trkpt><trkpt lat="-37.523556495934926" lon="144.2354088513013"><ele>642.2</ele><time>2026-03-21T23:38:57Z</time></trkpt><trkpt lat="-37.523562316910606" lon="144.23553333495713"><ele>642.0</ele><time>2026-03-21T23:38:58Z</time></trkpt><trkpt lat="-37.52356194154485" lon="144.23562442108351"><ele>642.6</ele><time>2026-03-21T23:38:59Z</time></trkpt><trkpt lat="-37.52348352831061" lon="144.2357520764038"><ele>643.2</ele><time>2026-03-21T23:39:01Z</time></trkpt><trkpt lat="-37.52341825847678" lon="144.23579055386796"><ele>643.8</ele><time>2026-03-21T23:39:02Z</time></trkpt><trkpt lat="-37.52333452778677" lon="144.23581536017778"><ele>644.4</ele><time>2026-03-21T23:39:03Z</time></trkpt><trkpt lat="-37.52324249949118" lon="144.23583719715134"><ele>645.0</ele><time>2026-03-21T23:39:04Z</time></trkpt><trkpt lat="-37.52312214238361" lon="144.23582898183113"><ele>645.0</ele><time>2026-03-21T23:39:05Z</time></trkpt><trkpt lat="-37.52299184150387" lon="144.23582497551274"><ele>645.0</ele><time>2026-03-21T23:39:06Z</time></trkpt><trkpt lat="-37.522838240201274" lon="144.23584176199512"><ele>645.0</ele><time>2026-03-21T23:39:07Z</time></trkpt><trkpt lat="-37.52268574658729" lon="144.23585772652768"><ele>645.0</ele><time>2026-03-21T23:39:08Z</time></trkpt><trkpt lat="-37.52260582785696" lon="144.23588847473738"><ele>647.4</ele><time>2026-03-21T23:39:09Z</time></trkpt><trkpt lat="-37.52250519615623" lon="144.2359297783741"><ele>649.8</ele><time>2026-03-21T23:39:10Z</time></trkpt><trkpt lat="-37.522445198321655" lon="144.2359960581927"><ele>652.2</ele><time>2026-03-21T23:39:11Z</time></trkpt><trkpt lat="-37.52238368594818" lon="144.2360550333956"><ele>654.6</ele><time>2026-03-21T23:39:12Z</time></trkpt><trkpt lat="-37.522295544612724" lon="144.23609582393502"><ele>657.0</ele><time>2026-03-21T23:39:13Z</time></trkpt><trkpt lat="-37.52220697502894" lon="144.23616517425086"><ele>657.0</ele><time>2026-03-21T23:39:14Z</time></trkpt><trkpt lat="-37.52214546869934" lon="144.23619006277204"><ele>657.0</ele><time>2026-03-21T23:39:15Z</time></trkpt><trkpt lat="-37.52206690021502" lon="144.236187894766"><ele>657.0</ele><time>2026-03-21T23:39:16Z</time></trkpt><trkpt lat="-37.52195771906337" lon="144.23618371062642"><ele>657.0</ele><time>2026-03-21T23:39:17Z</time></trkpt><trkpt lat="-37.5218246032191" lon="144.23619568350279"><ele>657.0</ele><time>2026-03-21T23:39:18Z</time></trkpt><trkpt lat="-37.52174030847224" lon="144.23621818997555"><ele>659.6</ele><time>2026-03-21T23:39:19Z</time></trkpt><trkpt lat="-37.5216661463078" lon="144.2362245622824"><ele>662.2</ele><time>2026-03-21T23:39:20Z</time></trkpt><trkpt lat="-37.521561149544304" lon="144.23621295577053"><ele>664.8</ele><time>2026-03-21T23:39:21Z</time></trkpt><trkpt lat="-37.52142752622361" lon="144.23618756286243"><ele>667.4</ele><time>2026-03-21T23:39:22Z</time></trkpt><trkpt lat="-37.5213348002473" lon="144.2361806416814"><ele>670.0</ele><time>2026-03-21T23:39:23Z</time></trkpt><trkpt lat="-37.52125825285987" lon="144.23620772562026"><ele>671.6</ele><time>2026-03-21T23:39:24Z</time></trkpt><trkpt lat="-37.52114525607945" lon="144.2362769533794"><ele>673.2</ele><time>2026-03-21T23:39:25Z</time></trkpt><trkpt lat="-37.52104751694103" lon="144.2363693250609"><ele>674.8</ele><time>2026-03-21T23:39:26Z</time></trkpt><trkpt lat="-37.52093888712719" lon="144.23638874218395"><ele>676.4</ele><time>2026-03-21T23:39:28Z</time></trkpt><trkpt lat="-37.5208709538425" lon="144.23635617307437"><ele>678.0</ele><time>2026-03-21T23:39:29Z</time></trkpt><trkpt lat="-37.520793213439646" lon="144.23629051150058"><ele>678.0</ele><time>2026-03-21T23:39:30Z</time></trkpt><trkpt lat="-37.520663453140806" lon="144.23620236430367"><ele>678.0</ele><time>2026-03-21T23:39:31Z</time></trkpt><trkpt lat="-37.520551182248894" lon="144.2361473233706"><ele>678.0</ele><time>2026-03-21T23:39:32Z</time></trkpt><trkpt lat="-37.52042222020274" lon="144.23616838553824"><ele>678.0</ele><time>2026-03-21T23:39:33Z</time></trkpt><trkpt lat="-37.520307390593885" lon="144.23616408929212"><ele>678.4</ele><time>2026-03-21T23:39:34Z</time></trkpt><trkpt lat="-37.520223249227264" lon="144.23613821199618"><ele>678.8</ele><time>2026-03-21T23:39:35Z</time></trkpt><trkpt lat="-37.520151341130905" lon="144.23612009526911"><ele>679.2</ele><time>2026-03-21T23:39:36Z</time></trkpt><trkpt lat="-37.52007606715292" lon="144.23612903334626"><ele>679.6</ele><time>2026-03-21T23:39:37Z</time></trkpt><trkpt lat="-37.51996883749976" lon="144.23613508917154"><ele>680.0</ele><time>2026-03-21T23:39:38Z</time></trkpt><trkpt lat="-37.51983600041617" lon="144.23613029288072"><ele>680.0</ele><time>2026-03-21T23:39:39Z</time></trkpt><trkpt lat="-37.51972963346448" lon="144.236115637773"><ele>680.0</ele><time>2026-03-21T23:39:40Z</time></trkpt><trkpt lat="-37.51965611765369" lon="144.2361329341556"><ele>680.0</ele><time>2026-03-21T23:39:41Z</time></trkpt><trkpt lat="-37.51959126835797" lon="144.23615328473727"><ele>680.0</ele><time>2026-03-21T23:39:42Z</time></trkpt><trkpt lat="-37.519523335806355" lon="144.23613545987422"><ele>680.0</ele><time>2026-03-21T23:39:43Z</time></trkpt><trkpt lat="-37.519410572147365" lon="144.23604969198257"><ele>680.2</ele><time>2026-03-21T23:39:45Z</time></trkpt><trkpt lat="-37.519356659774594" lon="144.23596969705005"><ele>680.4</ele><time>2026-03-21T23:39:46Z</time></trkpt><trkpt lat="-37.51926249397978" lon="144.23590161098102"><ele>680.5999999999999</ele><time>2026-03-21T23:39:47Z</time></trkpt><trkpt lat="-37.519143780605354" lon="144.23584883730513"><ele>680.8</ele><time>2026-03-21T23:39:48Z</time></trkpt><trkpt lat="-37.51904026947078" lon="144.2358330215191"><ele>681.0</ele><time>2026-03-21T23:39:49Z</time></trkpt><trkpt lat="-37.51890586463921" lon="144.2358020022204"><ele>681.0</ele><time>2026-03-21T23:39:50Z</time></trkpt><trkpt lat="-37.5187550079565" lon="144.23577218187629"><ele>681.0</ele><time>2026-03-21T23:39:51Z</time></trkpt><trkpt lat="-37.51868563719427" lon="144.23576005793146"><ele>681.0</ele><time>2026-03-21T23:39:52Z</time></trkpt><trkpt lat="-37.51860331435453" lon="144.23577642109112"><ele>681.0</ele><time>2026-03-21T23:39:53Z</time></trkpt><trkpt lat="-37.5185160635993" lon="144.23582627503293"><ele>681.0</ele><time>2026-03-21T23:39:54Z</time></trkpt><trkpt lat="-37.51845811119528" lon="144.23588804481415"><ele>681.5999999999999</ele><time>2026-03-21T23:39:55Z</time></trkpt><trkpt lat="-37.51839969198491" lon="144.23593735374178"><ele>682.2</ele><time>2026-03-21T23:39:56Z</time></trkpt><trkpt lat="-37.51833934276219" lon="144.23601699249062"><ele>682.8</ele><time>2026-03-21T23:39:57Z</time></trkpt><trkpt lat="-37.5182792377824" lon="144.23610072389718"><ele>683.4000000000001</ele><time>2026-03-21T23:39:58Z</time></trkpt><trkpt lat="-37.51821735935953" lon="144.23616753540935"><ele>684.0</ele><time>2026-03-21T23:39:59Z</time></trkpt><trkpt lat="-37.518074006748506" lon="144.2361920673002"><ele>684.0</ele><time>2026-03-21T23:40:01Z</time></trkpt><trkpt lat="-37.51799534536756" lon="144.23620523574255"><ele>684.0</ele><time>2026-03-21T23:40:02Z</time></trkpt><trkpt lat="-37.517912259972455" lon="144.2362365738076"><ele>684.0</ele><time>2026-03-21T23:40:03Z</time></trkpt><trkpt lat="-37.51784425554796" lon="144.2362638052176"><ele>684.0</ele><time>2026-03-21T23:40:04Z</time></trkpt><trkpt lat="-37.51777238617376" lon="144.2362898316996"><ele>684.0</ele><time>2026-03-21T23:40:05Z</time></trkpt><trkpt lat="-37.51769763366798" lon="144.2363083998623"><ele>684.0</ele><time>2026-03-21T23:40:06Z</time></trkpt><trkpt lat="-37.5176188424706" lon="144.23631850940185"><ele>684.0</ele><time>2026-03-21T23:40:07Z</time></trkpt><trkpt lat="-37.5175437271077" lon="144.23631749046132"><ele>684.0</ele><time>2026-03-21T23:40:08Z</time></trkpt><trkpt lat="-37.51744089828504" lon="144.23629371725042"><ele>684.0</ele><time>2026-03-21T23:40:10Z</time></trkpt><trkpt lat="-37.51738012037698" lon="144.23619826264107"><ele>684.0</ele><time>2026-03-21T23:40:12Z</time></trkpt><trkpt lat="-37.51732547507379" lon="144.23612521918002"><ele>684.0</ele><time>2026-03-21T23:40:13Z</time></trkpt><trkpt lat="-37.517259245373275" lon="144.2360477173368"><ele>684.0</ele><time>2026-03-21T23:40:14Z</time></trkpt><trkpt lat="-37.51720677958436" lon="144.23599616001343"><ele>684.0</ele><time>2026-03-21T23:40:15Z</time></trkpt><trkpt lat="-37.517114191511816" lon="144.23604721704857"><ele>684.0</ele><time>2026-03-21T23:40:18Z</time></trkpt><trkpt lat="-37.51705878498124" lon="144.236128850306"><ele>684.0</ele><time>2026-03-21T23:40:20Z</time></trkpt><trkpt lat="-37.51698733307354" lon="144.23615311230918"><ele>684.0</ele><time>2026-03-21T23:40:22Z</time></trkpt><trkpt lat="-37.516899531592394" lon="144.23614590276523"><ele>684.0</ele><time>2026-03-21T23:40:24Z</time></trkpt><trkpt lat="-37.516834532539264" lon="144.23616202625834"><ele>684.0</ele><time>2026-03-21T23:40:26Z</time></trkpt><trkpt lat="-37.51675325623096" lon="144.23620084225837"><ele>684.1666666666666</ele><time>2026-03-21T23:40:28Z</time></trkpt><trkpt lat="-37.51667448623254" lon="144.2362533403536"><ele>684.3333333333334</ele><time>2026-03-21T23:40:30Z</time></trkpt><trkpt lat="-37.516614915278794" lon="144.2362973040098"><ele>684.5</ele><time>2026-03-21T23:40:31Z</time></trkpt><trkpt lat="-37.51652752470531" lon="144.23635410950976"><ele>684.6666666666667</ele><time>2026-03-21T23:40:32Z</time></trkpt><trkpt lat="-37.51642856937567" lon="144.23639130496923"><ele>684.8333333333334</ele><time>2026-03-21T23:40:33Z</time></trkpt><trkpt lat="-37.5163616754144" lon="144.23642115633336"><ele>685.0</ele><time>2026-03-21T23:40:34Z</time></trkpt><trkpt lat="-37.516261581035316" lon="144.23641440721264"><ele>686.6</ele><time>2026-03-21T23:40:35Z</time></trkpt><trkpt lat="-37.51614877349569" lon="144.23637777131384"><ele>688.2</ele><time>2026-03-21T23:40:36Z</time></trkpt><trkpt lat="-37.5160481275185" lon="144.23634123463833"><ele>689.8</ele><time>2026-03-21T23:40:37Z</time></trkpt><trkpt lat="-37.51595952944485" lon="144.23629934251693"><ele>691.4</ele><time>2026-03-21T23:40:38Z</time></trkpt><trkpt lat="-37.51587650198436" lon="144.2363485706981"><ele>693.0</ele><time>2026-03-21T23:40:39Z</time></trkpt><trkpt lat="-37.51577631273961" lon="144.23638530536752"><ele>693.0</ele><time>2026-03-21T23:40:40Z</time></trkpt><trkpt lat="-37.51565333019911" lon="144.2364156771511"><ele>693.0</ele><time>2026-03-21T23:40:41Z</time></trkpt><trkpt lat="-37.515535337014036" lon="144.23644002553488"><ele>693.0</ele><time>2026-03-21T23:40:42Z</time></trkpt><trkpt lat="-37.51543051232038" lon="144.23650644515578"><ele>693.0</ele><time>2026-03-21T23:40:43Z</time></trkpt><trkpt lat="-37.51534314279457" lon="144.23655592472943"><ele>693.8</ele><time>2026-03-21T23:40:44Z</time></trkpt><trkpt lat="-37.51524960092647" lon="144.23658518612496"><ele>694.5999999999999</ele><time>2026-03-21T23:40:45Z</time></trkpt><trkpt lat="-37.5151555220062" lon="144.2366045917502"><ele>695.4000000000001</ele><time>2026-03-21T23:40:46Z</time></trkpt><trkpt lat="-37.51507758675443" lon="144.23663145809985"><ele>696.2</ele><time>2026-03-21T23:40:47Z</time></trkpt><trkpt lat="-37.51497217016845" lon="144.23661799385422"><ele>697.0</ele><time>2026-03-21T23:40:48Z</time></trkpt><trkpt lat="-37.51487008052696" lon="144.23663874391093"><ele>697.0</ele><time>2026-03-21T23:40:49Z</time></trkpt><trkpt lat="-37.51478351710533" lon="144.23668643944268"><ele>697.0</ele><time>2026-03-21T23:40:50Z</time></trkpt><trkpt lat="-37.51470034835164" lon="144.23672526631333"><ele>697.0</ele><time>2026-03-21T23:40:51Z</time></trkpt><trkpt lat="-37.51461627627224" lon="144.2367675516548"><ele>697.0</ele><time>2026-03-21T23:40:52Z</time></trkpt><trkpt lat="-37.51451567204938" lon="144.23679853895771"><ele>697.0</ele><time>2026-03-21T23:40:53Z</time></trkpt><trkpt lat="-37.51443529540749" lon="144.236825079801"><ele>697.0</ele><time>2026-03-21T23:40:54Z</time></trkpt><trkpt lat="-37.51431297459529" lon="144.23695014279195"><ele>697.0</ele><time>2026-03-21T23:40:56Z</time></trkpt><trkpt lat="-37.51420596475487" lon="144.23702947888916"><ele>697.0</ele><time>2026-03-21T23:40:57Z</time></trkpt><trkpt lat="-37.51408115204744" lon="144.23706679024292"><ele>697.0</ele><time>2026-03-21T23:40:58Z</time></trkpt><trkpt lat="-37.51396275250452" lon="144.23709675499111"><ele>697.0</ele><time>2026-03-21T23:40:59Z</time></trkpt><trkpt lat="-37.51385213637905" lon="144.23712774930178"><ele>697.0</ele><time>2026-03-21T23:41:00Z</time></trkpt><trkpt lat="-37.51378466423329" lon="144.23714434464603"><ele>697.0</ele><time>2026-03-21T23:41:01Z</time></trkpt><trkpt lat="-37.51371963022556" lon="144.23713258321973"><ele>697.0</ele><time>2026-03-21T23:41:02Z</time></trkpt><trkpt lat="-37.513655454689314" lon="144.2371306197051"><ele>697.0</ele><time>2026-03-21T23:41:03Z</time></trkpt><trkpt lat="-37.51356919999591" lon="144.23714840511508"><ele>697.0</ele><time>2026-03-21T23:41:04Z</time></trkpt><trkpt lat="-37.513478990980374" lon="144.23715787875028"><ele>697.2</ele><time>2026-03-21T23:41:05Z</time></trkpt><trkpt lat="-37.513387096414114" lon="144.23717888756494"><ele>697.4000000000001</ele><time>2026-03-21T23:41:06Z</time></trkpt><trkpt lat="-37.513303812420425" lon="144.2372484302826"><ele>697.5999999999999</ele><time>2026-03-21T23:41:07Z</time></trkpt><trkpt lat="-37.51323965020304" lon="144.23732041904069"><ele>697.8</ele><time>2026-03-21T23:41:08Z</time></trkpt><trkpt lat="-37.513161440854375" lon="144.2373885398143"><ele>698.0</ele><time>2026-03-21T23:41:09Z</time></trkpt><trkpt lat="-37.51307987296908" lon="144.2374889074107"><ele>698.1666666666666</ele><time>2026-03-21T23:41:10Z</time></trkpt><trkpt lat="-37.51300499723981" lon="144.23760315168005"><ele>698.3333333333333</ele><time>2026-03-21T23:41:11Z</time></trkpt><trkpt lat="-37.51294195562261" lon="144.23770631936506"><ele>698.5</ele><time>2026-03-21T23:41:12Z</time></trkpt><trkpt lat="-37.51289477400123" lon="144.2377785594263"><ele>698.6666666666666</ele><time>2026-03-21T23:41:13Z</time></trkpt><trkpt lat="-37.51284803620946" lon="144.23785262394804"><ele>698.8333333333334</ele><time>2026-03-21T23:41:14Z</time></trkpt><trkpt lat="-37.512819916888425" lon="144.2379452145359"><ele>699.0</ele><time>2026-03-21T23:41:15Z</time></trkpt><trkpt lat="-37.51278778070211" lon="144.23803622447036"><ele>700.8000000000001</ele><time>2026-03-21T23:41:16Z</time></trkpt><trkpt lat="-37.51274542902596" lon="144.23814368333475"><ele>702.6</ele><time>2026-03-21T23:41:17Z</time></trkpt><trkpt lat="-37.51268858942452" lon="144.23826321652058"><ele>704.4</ele><time>2026-03-21T23:41:18Z</time></trkpt><trkpt lat="-37.512643918933826" lon="144.2383586644587"><ele>706.2</ele><time>2026-03-21T23:41:19Z</time></trkpt><trkpt lat="-37.5125814118544" lon="144.23842673414057"><ele>708.0</ele><time>2026-03-21T23:41:20Z</time></trkpt><trkpt lat="-37.5125026581252" lon="144.23847998798266"><ele>708.0</ele><time>2026-03-21T23:41:21Z</time></trkpt><trkpt lat="-37.512428508940175" lon="144.23850204899034"><ele>708.0</ele><time>2026-03-21T23:41:22Z</time></trkpt><trkpt lat="-37.51233483636071" lon="144.23850317643178"><ele>708.0</ele><time>2026-03-21T23:41:23Z</time></trkpt><trkpt lat="-37.51222820826605" lon="144.2384743610908"><ele>708.0</ele><time>2026-03-21T23:41:24Z</time></trkpt><trkpt lat="-37.51215208835469" lon="144.23844782817156"><ele>708.0</ele><time>2026-03-21T23:41:25Z</time></trkpt><trkpt lat="-37.512081201506035" lon="144.2384131854736"><ele>708.0</ele><time>2026-03-21T23:41:26Z</time></trkpt><trkpt lat="-37.51202564207272" lon="144.23836173949138"><ele>707.8571428571429</ele><time>2026-03-21T23:41:27Z</time></trkpt><trkpt lat="-37.51197011768211" lon="144.23831146988138"><ele>707.7142857142857</ele><time>2026-03-21T23:41:28Z</time></trkpt><trkpt lat="-37.51190274617296" lon="144.23827585760753"><ele>707.5714285714286</ele><time>2026-03-21T23:41:29Z</time></trkpt><trkpt lat="-37.51183167133224" lon="144.23827150446004"><ele>707.4285714285714</ele><time>2026-03-21T23:41:30Z</time></trkpt><trkpt lat="-37.51175984241235" lon="144.23827748439237"><ele>707.2857142857142</ele><time>2026-03-21T23:41:31Z</time></trkpt><trkpt lat="-37.511693125813395" lon="144.2382929021728"><ele>707.1428571428571</ele><time>2026-03-21T23:41:32Z</time></trkpt><trkpt lat="-37.511624562358286" lon="144.23831525253266"><ele>707.0</ele><time>2026-03-21T23:41:33Z</time></trkpt><trkpt lat="-37.511560665968005" lon="144.2383438037517"><ele>707.0</ele><time>2026-03-21T23:41:34Z</time></trkpt><trkpt lat="-37.511450832704305" lon="144.23841305343225"><ele>707.0</ele><time>2026-03-21T23:41:36Z</time></trkpt><trkpt lat="-37.51136860258493" lon="144.2384894569847"><ele>707.0</ele><time>2026-03-21T23:41:37Z</time></trkpt><trkpt lat="-37.511284803688795" lon="144.23854473518816"><ele>707.0</ele><time>2026-03-21T23:41:38Z</time></trkpt><trkpt lat="-37.51121876578566" lon="144.23854296030802"><ele>707.0</ele><time>2026-03-21T23:41:39Z</time></trkpt><trkpt lat="-37.5111034652736" lon="144.2385041703119"><ele>706.4000000000001</ele><time>2026-03-21T23:41:41Z</time></trkpt><trkpt lat="-37.51102522851247" lon="144.23847846019854"><ele>705.8000000000001</ele><time>2026-03-21T23:41:43Z</time></trkpt><trkpt lat="-37.51094671241178" lon="144.23839090333462"><ele>705.2</ele><time>2026-03-21T23:41:45Z</time></trkpt><trkpt lat="-37.51083446749135" lon="144.2384019673822"><ele>704.6</ele><time>2026-03-21T23:41:47Z</time></trkpt><trkpt lat="-37.51075041105168" lon="144.23842467810445"><ele>704.0</ele><time>2026-03-21T23:41:48Z</time></trkpt><trkpt lat="-37.51065127880365" lon="144.23843899654364"><ele>704.0</ele><time>2026-03-21T23:41:49Z</time></trkpt><trkpt lat="-37.510534060784565" lon="144.23847280193868"><ele>704.0</ele><time>2026-03-21T23:41:50Z</time></trkpt><trkpt lat="-37.51042403930917" lon="144.2385102150811"><ele>704.0</ele><time>2026-03-21T23:41:51Z</time></trkpt><trkpt lat="-37.51034171840538" lon="144.23856319800782"><ele>704.0</ele><time>2026-03-21T23:41:52Z</time></trkpt><trkpt lat="-37.510281315488335" lon="144.23862185243132"><ele>704.0</ele><time>2026-03-21T23:41:53Z</time></trkpt><trkpt lat="-37.51019431460644" lon="144.23870596298335"><ele>704.6</ele><time>2026-03-21T23:41:54Z</time></trkpt><trkpt lat="-37.510134184818156" lon="144.2387419684141"><ele>705.2</ele><time>2026-03-21T23:41:55Z</time></trkpt><trkpt lat="-37.510049750862876" lon="144.23878260582757"><ele>705.8000000000001</ele><time>2026-03-21T23:41:56Z</time></trkpt><trkpt lat="-37.509971569861094" lon="144.2388010942478"><ele>706.4000000000001</ele><time>2026-03-21T23:41:57Z</time></trkpt><trkpt lat="-37.50983075742558" lon="144.2388615860751"><ele>707.0</ele><time>2026-03-21T23:41:59Z</time></trkpt><trkpt lat="-37.509761136211196" lon="144.23895226945433"><ele>707.6</ele><time>2026-03-21T23:42:00Z</time></trkpt><trkpt lat="-37.50968408539533" lon="144.2390420176171"><ele>708.2</ele><time>2026-03-21T23:42:01Z</time></trkpt><trkpt lat="-37.50961498595321" lon="144.23913235372473"><ele>708.8</ele><time>2026-03-21T23:42:02Z</time></trkpt><trkpt lat="-37.50951144475789" lon="144.23921428093882"><ele>709.4</ele><time>2026-03-21T23:42:04Z</time></trkpt><trkpt lat="-37.509441302504435" lon="144.23927450758197"><ele>710.0</ele><time>2026-03-21T23:42:06Z</time></trkpt><trkpt lat="-37.50946374060838" lon="144.23918190546829"><ele>710.0</ele><time>2026-03-21T23:42:10Z</time></trkpt><trkpt lat="-37.50952199753295" lon="144.23911339074252"><ele>710.0</ele><time>2026-03-21T23:42:12Z</time></trkpt><trkpt lat="-37.50953948066659" lon="144.2390110028156"><ele>710.0</ele><time>2026-03-21T23:42:13Z</time></trkpt><trkpt lat="-37.509500746223814" lon="144.23886868896173"><ele>710.0</ele><time>2026-03-21T23:42:15Z</time></trkpt><trkpt lat="-37.50944665166671" lon="144.23879951039757"><ele>710.0</ele><time>2026-03-21T23:42:16Z</time></trkpt><trkpt lat="-37.50938806603278" lon="144.23872091592838"><ele>710.0</ele><time>2026-03-21T23:42:17Z</time></trkpt><trkpt lat="-37.50935073895034" lon="144.23864825355196"><ele>710.0</ele><time>2026-03-21T23:42:18Z</time></trkpt><trkpt lat="-37.50930896593003" lon="144.2385076034017"><ele>710.0</ele><time>2026-03-21T23:42:20Z</time></trkpt><trkpt lat="-37.50927097145502" lon="144.23843294721436"><ele>710.0</ele><time>2026-03-21T23:42:21Z</time></trkpt><trkpt lat="-37.50923029231221" lon="144.23834428123604"><ele>710.0</ele><time>2026-03-21T23:42:22Z</time></trkpt><trkpt lat="-37.50917800118038" lon="144.23824878470867"><ele>710.0</ele><time>2026-03-21T23:42:23Z</time></trkpt><trkpt lat="-37.50909526339278" lon="144.23813118468124"><ele>709.2</ele><time>2026-03-21T23:42:24Z</time></trkpt><trkpt lat="-37.509031037416506" lon="144.2380401135353"><ele>708.4</ele><time>2026-03-21T23:42:25Z</time></trkpt><trkpt lat="-37.50899718506981" lon="144.2379235373608"><ele>707.5999999999999</ele><time>2026-03-21T23:42:26Z</time></trkpt><trkpt lat="-37.508961815589394" lon="144.23779865332762"><ele>706.8</ele><time>2026-03-21T23:42:27Z</time></trkpt><trkpt lat="-37.50890316672878" lon="144.2377085822494"><ele>706.0</ele><time>2026-03-21T23:42:28Z</time></trkpt><trkpt lat="-37.508872589597324" lon="144.23758659090984"><ele>706.0</ele><time>2026-03-21T23:42:30Z</time></trkpt><trkpt lat="-37.50888253198827" lon="144.23744486093116"><ele>706.0</ele><time>2026-03-21T23:42:31Z</time></trkpt><trkpt lat="-37.50890874032294" lon="144.2372710087298"><ele>706.0</ele><time>2026-03-21T23:42:32Z</time></trkpt><trkpt lat="-37.50892048314088" lon="144.23710018582474"><ele>706.0</ele><time>2026-03-21T23:42:33Z</time></trkpt><trkpt lat="-37.5089385545571" lon="144.23696673433486"><ele>706.0</ele><time>2026-03-21T23:42:34Z</time></trkpt><trkpt lat="-37.50893461139184" lon="144.2368456603111"><ele>706.0</ele><time>2026-03-21T23:42:35Z</time></trkpt><trkpt lat="-37.508921616116844" lon="144.2367286710519"><ele>706.0</ele><time>2026-03-21T23:42:36Z</time></trkpt><trkpt lat="-37.50891633427864" lon="144.23661320331163"><ele>706.0</ele><time>2026-03-21T23:42:37Z</time></trkpt><trkpt lat="-37.50890685652236" lon="144.23651463377155"><ele>706.0</ele><time>2026-03-21T23:42:38Z</time></trkpt><trkpt lat="-37.50887220760508" lon="144.23637117397317"><ele>705.0</ele><time>2026-03-21T23:42:40Z</time></trkpt><trkpt lat="-37.50887345052916" lon="144.23627940277584"><ele>704.0</ele><time>2026-03-21T23:42:41Z</time></trkpt><trkpt lat="-37.508859170046904" lon="144.23617506427016"><ele>703.0</ele><time>2026-03-21T23:42:42Z</time></trkpt><trkpt lat="-37.50882991415544" lon="144.2360616683454"><ele>702.0</ele><time>2026-03-21T23:42:43Z</time></trkpt><trkpt lat="-37.50880010350424" lon="144.23595765110983"><ele>701.0</ele><time>2026-03-21T23:42:44Z</time></trkpt><trkpt lat="-37.508768617739335" lon="144.23582678553132"><ele>700.0</ele><time>2026-03-21T23:42:45Z</time></trkpt><trkpt lat="-37.508730252505345" lon="144.23571702676097"><ele>698.4</ele><time>2026-03-21T23:42:46Z</time></trkpt><trkpt lat="-37.50868575821146" lon="144.23560792619332"><ele>696.8</ele><time>2026-03-21T23:42:47Z</time></trkpt><trkpt lat="-37.50863335843997" lon="144.23549347512966"><ele>695.2</ele><time>2026-03-21T23:42:48Z</time></trkpt><trkpt lat="-37.50855422578358" lon="144.23535974010008"><ele>693.6</ele><time>2026-03-21T23:42:49Z</time></trkpt><trkpt lat="-37.50849145451945" lon="144.2352485847073"><ele>692.0</ele><time>2026-03-21T23:42:50Z</time></trkpt><trkpt lat="-37.508453858777536" lon="144.23517716369815"><ele>692.0</ele><time>2026-03-21T23:42:51Z</time></trkpt><trkpt lat="-37.50853646552494" lon="144.2350970467402"><ele>692.0</ele><time>2026-03-21T23:42:55Z</time></trkpt><trkpt lat="-37.50860027315033" lon="144.2350680067897"><ele>692.0</ele><time>2026-03-21T23:42:56Z</time></trkpt><trkpt lat="-37.50866837034471" lon="144.23500075441973"><ele>692.0</ele><time>2026-03-21T23:42:58Z</time></trkpt><trkpt lat="-37.50876540274929" lon="144.23497578445637"><ele>692.0</ele><time>2026-03-21T23:43:00Z</time></trkpt><trkpt lat="-37.50884718537535" lon="144.2349942996486"><ele>692.0</ele><time>2026-03-21T23:43:02Z</time></trkpt><trkpt lat="-37.508938114759935" lon="144.2349226550624"><ele>691.2</ele><time>2026-03-21T23:43:04Z</time></trkpt><trkpt lat="-37.50902526929075" lon="144.23481694472815"><ele>690.4000000000001</ele><time>2026-03-21T23:43:06Z</time></trkpt><trkpt lat="-37.509105140979365" lon="144.23475860479465"><ele>689.5999999999999</ele><time>2026-03-21T23:43:08Z</time></trkpt><trkpt lat="-37.50919280396825" lon="144.23477519421118"><ele>688.8</ele><time>2026-03-21T23:43:10Z</time></trkpt><trkpt lat="-37.50926538132106" lon="144.234868341975"><ele>688.0</ele><time>2026-03-21T23:43:12Z</time></trkpt><trkpt lat="-37.50926877906981" lon="144.2349834328798"><ele>688.0</ele><time>2026-03-21T23:43:14Z</time></trkpt><trkpt lat="-37.509288892797755" lon="144.2350965489587"><ele>688.0</ele><time>2026-03-21T23:43:17Z</time></trkpt><trkpt lat="-37.509365361835805" lon="144.23510845247876"><ele>688.0</ele><time>2026-03-21T23:43:19Z</time></trkpt><trkpt lat="-37.50941006869579" lon="144.23516907669773"><ele>688.0</ele><time>2026-03-21T23:43:21Z</time></trkpt><trkpt lat="-37.509464803883866" lon="144.23525393157635"><ele>688.0</ele><time>2026-03-21T23:43:23Z</time></trkpt><trkpt lat="-37.50951629047199" lon="144.2353493354263"><ele>688.0</ele><time>2026-03-21T23:43:25Z</time></trkpt><trkpt lat="-37.509589951885125" lon="144.23544212830603"><ele>687.25</ele><time>2026-03-21T23:43:28Z</time></trkpt><trkpt lat="-37.509689585772925" lon="144.23547527468898"><ele>686.5</ele><time>2026-03-21T23:43:30Z</time></trkpt><trkpt lat="-37.50979572819189" lon="144.2354971544921"><ele>685.75</ele><time>2026-03-21T23:43:32Z</time></trkpt><trkpt lat="-37.50992065616024" lon="144.23559480939124"><ele>685.0</ele><time>2026-03-21T23:43:34Z</time></trkpt><trkpt lat="-37.51005515421338" lon="144.23567036739308"><ele>685.0</ele><time>2026-03-21T23:43:36Z</time></trkpt><trkpt lat="-37.51012517834195" lon="144.23563813094069"><ele>685.0</ele><time>2026-03-21T23:43:37Z</time></trkpt><trkpt lat="-37.51020638099406" lon="144.23558774310933"><ele>685.0</ele><time>2026-03-21T23:43:39Z</time></trkpt><trkpt lat="-37.5103169905152" lon="144.23564682725842"><ele>685.0</ele><time>2026-03-21T23:43:41Z</time></trkpt><trkpt lat="-37.51040249206546" lon="144.23568929924167"><ele>685.0</ele><time>2026-03-21T23:43:42Z</time></trkpt><trkpt lat="-37.51046805745016" lon="144.23568520211103"><ele>685.0</ele><time>2026-03-21T23:43:43Z</time></trkpt><trkpt lat="-37.51052626252315" lon="144.23564709939623"><ele>683.0</ele><time>2026-03-21T23:43:44Z</time></trkpt><trkpt lat="-37.51057369691347" lon="144.2355793273482"><ele>681.0</ele><time>2026-03-21T23:43:45Z</time></trkpt><trkpt lat="-37.51063330171611" lon="144.23549050999435"><ele>679.0</ele><time>2026-03-21T23:43:46Z</time></trkpt><trkpt lat="-37.510690715196816" lon="144.23540968193254"><ele>677.0</ele><time>2026-03-21T23:43:47Z</time></trkpt><trkpt lat="-37.510751017245234" lon="144.23535713914964"><ele>675.0</ele><time>2026-03-21T23:43:48Z</time></trkpt><trkpt lat="-37.510814424872805" lon="144.235304289949"><ele>673.0</ele><time>2026-03-21T23:43:49Z</time></trkpt><trkpt lat="-37.51087908275034" lon="144.23522819074418"><ele>673.0</ele><time>2026-03-21T23:43:50Z</time></trkpt><trkpt lat="-37.51094880080157" lon="144.23516515478153"><ele>673.0</ele><time>2026-03-21T23:43:52Z</time></trkpt><trkpt lat="-37.511012463919585" lon="144.2351774624475"><ele>673.0</ele><time>2026-03-21T23:43:53Z</time></trkpt><trkpt lat="-37.51110040176806" lon="144.23520298349123"><ele>673.0</ele><time>2026-03-21T23:43:54Z</time></trkpt><trkpt lat="-37.51117591095764" lon="144.23520115050408"><ele>673.0</ele><time>2026-03-21T23:43:55Z</time></trkpt><trkpt lat="-37.51129643454128" lon="144.23515915647386"><ele>673.0</ele><time>2026-03-21T23:43:56Z</time></trkpt><trkpt lat="-37.511383198446936" lon="144.23515512457428"><ele>673.0</ele><time>2026-03-21T23:43:57Z</time></trkpt><trkpt lat="-37.51144891338635" lon="144.23513803660575"><ele>673.0</ele><time>2026-03-21T23:43:58Z</time></trkpt><trkpt lat="-37.511535433176654" lon="144.23512979528041"><ele>673.0</ele><time>2026-03-21T23:43:59Z</time></trkpt><trkpt lat="-37.51160934271925" lon="144.23511398340185"><ele>673.0</ele><time>2026-03-21T23:44:00Z</time></trkpt><trkpt lat="-37.51171450945588" lon="144.2350798567891"><ele>673.0</ele><time>2026-03-21T23:44:02Z</time></trkpt><trkpt lat="-37.511739675726986" lon="144.2349449056568"><ele>673.0</ele><time>2026-03-21T23:44:08Z</time></trkpt><trkpt lat="-37.51173111924234" lon="144.234798292481"><ele>673.0</ele><time>2026-03-21T23:44:10Z</time></trkpt><trkpt lat="-37.51168832518161" lon="144.2347126514273"><ele>673.0</ele><time>2026-03-21T23:44:11Z</time></trkpt><trkpt lat="-37.5116287448205" lon="144.23462595412715"><ele>673.0</ele><time>2026-03-21T23:44:12Z</time></trkpt><trkpt lat="-37.51157221384074" lon="144.23451885477363"><ele>673.0</ele><time>2026-03-21T23:44:13Z</time></trkpt><trkpt lat="-37.511537359091164" lon="144.23440324048744"><ele>673.0</ele><time>2026-03-21T23:44:14.001Z</time></trkpt><trkpt lat="-37.511490013811496" lon="144.2342801974067"><ele>673.0</ele><time>2026-03-21T23:44:15.001Z</time></trkpt><trkpt lat="-37.51142186893219" lon="144.2341788235583"><ele>673.0</ele><time>2026-03-21T23:44:16.001Z</time></trkpt><trkpt lat="-37.51135314278019" lon="144.23410529272917"><ele>673.0</ele><time>2026-03-21T23:44:17.001Z</time></trkpt><trkpt lat="-37.51129106863781" lon="144.23399365353444"><ele>673.0</ele><time>2026-03-21T23:44:18.001Z</time></trkpt><trkpt lat="-37.51123612640392" lon="144.23386369393165"><ele>673.0</ele><time>2026-03-21T23:44:19.001Z</time></trkpt><trkpt lat="-37.51119403704685" lon="144.2337570326799"><ele>673.4</ele><time>2026-03-21T23:44:20.001Z</time></trkpt><trkpt lat="-37.51117610396276" lon="144.2336436214133"><ele>673.8</ele><time>2026-03-21T23:44:21.001Z</time></trkpt><trkpt lat="-37.51117584725191" lon="144.23353434525677"><ele>674.2</ele><time>2026-03-21T23:44:22.001Z</time></trkpt><trkpt lat="-37.511165275207375" lon="144.23341132649682"><ele>674.6</ele><time>2026-03-21T23:44:23.001Z</time></trkpt><trkpt lat="-37.511146604241254" lon="144.2332810630434"><ele>675.0</ele><time>2026-03-21T23:44:24.001Z</time></trkpt><trkpt lat="-37.511134500489874" lon="144.23314607934006"><ele>675.75</ele><time>2026-03-21T23:44:25.001Z</time></trkpt><trkpt lat="-37.511121092027345" lon="144.23301423588435"><ele>676.5</ele><time>2026-03-21T23:44:26.001Z</time></trkpt><trkpt lat="-37.51111236191535" lon="144.23287167680812"><ele>677.25</ele><time>2026-03-21T23:44:27.001Z</time></trkpt><trkpt lat="-37.511109549874774" lon="144.2327147775305"><ele>678.0</ele><time>2026-03-21T23:44:28.001Z</time></trkpt><trkpt lat="-37.51112158549771" lon="144.23256765393774"><ele>678.0</ele><time>2026-03-21T23:44:29.001Z</time></trkpt><trkpt lat="-37.5111434858288" lon="144.23242650197068"><ele>678.0</ele><time>2026-03-21T23:44:30.001Z</time></trkpt><trkpt lat="-37.51116288339214" lon="144.23230069990922"><ele>678.0</ele><time>2026-03-21T23:44:31.001Z</time></trkpt><trkpt lat="-37.511178449008874" lon="144.2321781793829"><ele>678.0</ele><time>2026-03-21T23:44:32.001Z</time></trkpt><trkpt lat="-37.5111757148257" lon="144.23185370729263"><ele>678.75</ele><time>2026-03-21T23:44:33.001Z</time></trkpt><trkpt lat="-37.511192271776274" lon="144.23168601181987"><ele>679.5</ele><time>2026-03-21T23:44:34.001Z</time></trkpt><trkpt lat="-37.5112197707072" lon="144.23154983087716"><ele>680.25</ele><time>2026-03-21T23:44:35.001Z</time></trkpt><trkpt lat="-37.51124747973126" lon="144.23140590190798"><ele>681.0</ele><time>2026-03-21T23:44:36.001Z</time></trkpt><trkpt lat="-37.5112516682695" lon="144.23126774489623"><ele>681.1999999999999</ele><time>2026-03-21T23:44:37.001Z</time></trkpt><trkpt lat="-37.51125276577612" lon="144.23114279927034"><ele>681.4</ele><time>2026-03-21T23:44:38.001Z</time></trkpt><trkpt lat="-37.51129134224765" lon="144.2310288549899"><ele>681.6</ele><time>2026-03-21T23:44:39.001Z</time></trkpt><trkpt lat="-37.51133727322301" lon="144.23089475472085"><ele>681.8</ele><time>2026-03-21T23:44:40.001Z</time></trkpt><trkpt lat="-37.51138303826255" lon="144.23075253051772"><ele>682.0</ele><time>2026-03-21T23:44:41.001Z</time></trkpt><trkpt lat="-37.51142275347064" lon="144.23063245681064"><ele>680.8333333333334</ele><time>2026-03-21T23:44:42.001Z</time></trkpt><trkpt lat="-37.51145774602439" lon="144.23051987229223"><ele>679.6666666666667</ele><time>2026-03-21T23:44:43.001Z</time></trkpt><trkpt lat="-37.51148529491317" lon="144.23041918032132"><ele>678.5</ele><time>2026-03-21T23:44:44.001Z</time></trkpt><trkpt lat="-37.51153393142509" lon="144.23033606888066"><ele>677.3333333333334</ele><time>2026-03-21T23:44:46.001Z</time></trkpt><trkpt lat="-37.51150281622552" lon="144.23024159667438"><ele>676.1666666666666</ele><time>2026-03-21T23:44:48.001Z</time></trkpt><trkpt lat="-37.51146672738991" lon="144.23016135777354"><ele>675.0</ele><time>2026-03-21T23:44:49.001Z</time></trkpt><trkpt lat="-37.51144189910266" lon="144.23003672212923"><ele>675.0</ele><time>2026-03-21T23:44:50.001Z</time></trkpt><trkpt lat="-37.51144466661742" lon="144.22990788226366"><ele>675.0</ele><time>2026-03-21T23:44:51.001Z</time></trkpt><trkpt lat="-37.51145961893217" lon="144.229804480845"><ele>675.0</ele><time>2026-03-21T23:44:52.001Z</time></trkpt><trkpt lat="-37.511490717943786" lon="144.22969324841534"><ele>675.0</ele><time>2026-03-21T23:44:54.001Z</time></trkpt><trkpt lat="-37.51149407718424" lon="144.2295694001824"><ele>675.0</ele><time>2026-03-21T23:44:56.001Z</time></trkpt><trkpt lat="-37.51152109974371" lon="144.22948509280292"><ele>675.0</ele><time>2026-03-21T23:44:57.001Z</time></trkpt><trkpt lat="-37.511540172322654" lon="144.22938128776806"><ele>675.0</ele><time>2026-03-21T23:44:58.001Z</time></trkpt><trkpt lat="-37.511555672308205" lon="144.22927752731297"><ele>675.0</ele><time>2026-03-21T23:44:59.001Z</time></trkpt><trkpt lat="-37.511554026732284" lon="144.22917310345534"><ele>675.0</ele><time>2026-03-21T23:45:00.001Z</time></trkpt><trkpt lat="-37.51155569162408" lon="144.229073314636"><ele>675.0</ele><time>2026-03-21T23:45:01.001Z</time></trkpt><trkpt lat="-37.51157676274697" lon="144.2289894652016"><ele>675.0</ele><time>2026-03-21T23:45:02.001Z</time></trkpt><trkpt lat="-37.51166694186589" lon="144.22888262724302"><ele>675.2</ele><time>2026-03-21T23:45:04.001Z</time></trkpt><trkpt lat="-37.511714575390904" lon="144.22882851948285"><ele>675.4</ele><time>2026-03-21T23:45:06.001Z</time></trkpt><trkpt lat="-37.51171167120598" lon="144.22874103240315"><ele>675.5999999999999</ele><time>2026-03-21T23:45:10.001Z</time></trkpt><trkpt lat="-37.51171716642355" lon="144.22860530044278"><ele>675.8</ele><time>2026-03-21T23:45:48.001Z</time></trkpt><trkpt lat="-37.511738083691405" lon="144.22846794727897"><ele>676.0</ele><time>2026-03-21T23:45:49.001Z</time></trkpt><trkpt lat="-37.51176446580477" lon="144.22833404551014"><ele>676.0</ele><time>2026-03-21T23:45:50.001Z</time></trkpt><trkpt lat="-37.5117907376068" lon="144.22822913220094"><ele>676.0</ele><time>2026-03-21T23:45:51.001Z</time></trkpt><trkpt lat="-37.51181875102655" lon="144.22812422738085"><ele>676.0</ele><time>2026-03-21T23:45:52.001Z</time></trkpt><trkpt lat="-37.5118571979041" lon="144.22800185171403"><ele>676.0</ele><time>2026-03-21T23:45:53.001Z</time></trkpt><trkpt lat="-37.511896651400306" lon="144.2278918270147"><ele>676.0</ele><time>2026-03-21T23:45:54.001Z</time></trkpt><trkpt lat="-37.51190231008783" lon="144.22777199293432"><ele>675.4</ele><time>2026-03-21T23:45:56.001Z</time></trkpt><trkpt lat="-37.51187759108485" lon="144.2276622712323"><ele>674.8</ele><time>2026-03-21T23:45:58.001Z</time></trkpt><trkpt lat="-37.511897529652586" lon="144.22758510086766"><ele>674.1999999999999</ele><time>2026-03-21T23:45:59.001Z</time></trkpt><trkpt lat="-37.51194533006237" lon="144.2274459416773"><ele>673.5999999999999</ele><time>2026-03-21T23:46:01.001Z</time></trkpt><trkpt lat="-37.511972640208214" lon="144.22731295308904"><ele>673.0</ele><time>2026-03-21T23:46:03.001Z</time></trkpt><trkpt lat="-37.51203277576712" lon="144.2272775367534"><ele>669.8</ele><time>2026-03-21T23:46:05.001Z</time></trkpt><trkpt lat="-37.51207454767335" lon="144.22721348416738"><ele>666.5999999999999</ele><time>2026-03-21T23:46:06.001Z</time></trkpt><trkpt lat="-37.51212955077904" lon="144.22713351413321"><ele>663.4000000000001</ele><time>2026-03-21T23:46:08Z</time></trkpt><trkpt lat="-37.5121631715691" lon="144.22699297411307"><ele>660.2</ele><time>2026-03-21T23:46:10Z</time></trkpt><trkpt lat="-37.51223107853566" lon="144.2268682043298"><ele>657.0</ele><time>2026-03-21T23:46:12Z</time></trkpt><trkpt lat="-37.512302991874236" lon="144.2268188411168"><ele>657.0</ele><time>2026-03-21T23:46:13Z</time></trkpt><trkpt lat="-37.512371681310746" lon="144.22677941103808"><ele>657.0</ele><time>2026-03-21T23:46:14Z</time></trkpt><trkpt lat="-37.51241005322121" lon="144.22668447061298"><ele>657.0</ele><time>2026-03-21T23:46:16Z</time></trkpt><trkpt lat="-37.51247261918179" lon="144.22660591067216"><ele>657.0</ele><time>2026-03-21T23:46:18Z</time></trkpt><trkpt lat="-37.51247804586054" lon="144.2265187284694"><ele>657.0</ele><time>2026-03-21T23:46:19Z</time></trkpt><trkpt lat="-37.5124896166176" lon="144.22643579230976"><ele>657.0</ele><time>2026-03-21T23:46:20Z</time></trkpt><trkpt lat="-37.51247540163584" lon="144.22628059543803"><ele>655.6</ele><time>2026-03-21T23:46:22Z</time></trkpt><trkpt lat="-37.512524321751684" lon="144.22614911610353"><ele>654.2</ele><time>2026-03-21T23:46:24Z</time></trkpt><trkpt lat="-37.51258644536887" lon="144.22602289829743"><ele>652.8</ele><time>2026-03-21T23:46:26Z</time></trkpt><trkpt lat="-37.512625128060094" lon="144.22593555205293"><ele>651.4</ele><time>2026-03-21T23:46:28Z</time></trkpt><trkpt lat="-37.51271417063414" lon="144.22597635638712"><ele>650.0</ele><time>2026-03-21T23:46:31Z</time></trkpt><trkpt lat="-37.512769413597844" lon="144.2260189340557"><ele>650.0</ele><time>2026-03-21T23:46:32Z</time></trkpt><trkpt lat="-37.51286280519525" lon="144.2260194422663"><ele>650.0</ele><time>2026-03-21T23:46:34Z</time></trkpt><trkpt lat="-37.51294083068247" lon="144.22592714040672"><ele>650.0</ele><time>2026-03-21T23:46:36Z</time></trkpt><trkpt lat="-37.512999529729" lon="144.2257949361377"><ele>650.0</ele><time>2026-03-21T23:46:38Z</time></trkpt><trkpt lat="-37.513048794595605" lon="144.22574129691233"><ele>650.0</ele><time>2026-03-21T23:46:39Z</time></trkpt><trkpt lat="-37.51312402363024" lon="144.2256851460483"><ele>647.5</ele><time>2026-03-21T23:46:41Z</time></trkpt><trkpt lat="-37.513158930123296" lon="144.22559063014515"><ele>645.0</ele><time>2026-03-21T23:46:43Z</time></trkpt><trkpt lat="-37.51322395515244" lon="144.2255268240913"><ele>642.5</ele><time>2026-03-21T23:46:46Z</time></trkpt><trkpt lat="-37.51328964562135" lon="144.22551952529093"><ele>640.0</ele><time>2026-03-21T23:46:48Z</time></trkpt><trkpt lat="-37.51335337062705" lon="144.22547776604674"><ele>637.5</ele><time>2026-03-21T23:46:50Z</time></trkpt><trkpt lat="-37.51343184658799" lon="144.22547787986537"><ele>635.0</ele><time>2026-03-21T23:46:53Z</time></trkpt><trkpt lat="-37.51350186533087" lon="144.22553688988395"><ele>635.0</ele><time>2026-03-21T23:46:55Z</time></trkpt><trkpt lat="-37.51358111139288" lon="144.22557072973478"><ele>635.0</ele><time>2026-03-21T23:46:57Z</time></trkpt><trkpt lat="-37.51363235278687" lon="144.22563601741675"><ele>635.0</ele><time>2026-03-21T23:47:09Z</time></trkpt><trkpt lat="-37.513672676157256" lon="144.2257863742643"><ele>635.0</ele><time>2026-03-21T23:47:11Z</time></trkpt><trkpt lat="-37.51372496171408" lon="144.2258893716301"><ele>635.0</ele><time>2026-03-21T23:47:13Z</time></trkpt><trkpt lat="-37.51381561378641" lon="144.22588812358242"><ele>636.6666666666666</ele><time>2026-03-21T23:47:16Z</time></trkpt><trkpt lat="-37.51389517209615" lon="144.22587359162355"><ele>638.3333333333333</ele><time>2026-03-21T23:47:18Z</time></trkpt><trkpt lat="-37.513981186028694" lon="144.2258712226674"><ele>640.0</ele><time>2026-03-21T23:47:20Z</time></trkpt><trkpt lat="-37.514068508885295" lon="144.22589365571656"><ele>641.6666666666666</ele><time>2026-03-21T23:47:22Z</time></trkpt><trkpt lat="-37.51415309899506" lon="144.22591798233958"><ele>643.3333333333334</ele><time>2026-03-21T23:47:24Z</time></trkpt><trkpt lat="-37.5142199761104" lon="144.22592394061533"><ele>645.0</ele><time>2026-03-21T23:47:25Z</time></trkpt><trkpt lat="-37.514300650233025" lon="144.22593390055303"><ele>645.0</ele><time>2026-03-21T23:47:26Z</time></trkpt><trkpt lat="-37.51438073039544" lon="144.22598117131284"><ele>645.0</ele><time>2026-03-21T23:47:27Z</time></trkpt><trkpt lat="-37.51447339214491" lon="144.22603082999436"><ele>645.0</ele><time>2026-03-21T23:47:28Z</time></trkpt><trkpt lat="-37.51454358688216" lon="144.22608275708646"><ele>645.0</ele><time>2026-03-21T23:47:29Z</time></trkpt><trkpt lat="-37.51460901068856" lon="144.22613936711977"><ele>645.0</ele><time>2026-03-21T23:47:30Z</time></trkpt><trkpt lat="-37.51465811096254" lon="144.22619685621072"><ele>645.0</ele><time>2026-03-21T23:47:31Z</time></trkpt><trkpt lat="-37.51474605343759" lon="144.22626632120367"><ele>647.4</ele><time>2026-03-21T23:47:32Z</time></trkpt><trkpt lat="-37.51480980971839" lon="144.22629323351188"><ele>649.8</ele><time>2026-03-21T23:47:33Z</time></trkpt><trkpt lat="-37.51481436862205" lon="144.22645155260926"><ele>652.2</ele><time>2026-03-21T23:47:36Z</time></trkpt><trkpt lat="-37.51474923776817" lon="144.226538603167"><ele>654.6</ele><time>2026-03-21T23:47:37Z</time></trkpt><trkpt lat="-37.51468770686809" lon="144.22663362222022"><ele>657.0</ele><time>2026-03-21T23:47:38Z</time></trkpt><trkpt lat="-37.51462897534285" lon="144.22671378614078"><ele>655.1666666666666</ele><time>2026-03-21T23:47:39Z</time></trkpt><trkpt lat="-37.51456937289618" lon="144.22677023581525"><ele>653.3333333333334</ele><time>2026-03-21T23:47:40Z</time></trkpt><trkpt lat="-37.514495593037765" lon="144.22680701261055"><ele>651.5</ele><time>2026-03-21T23:47:42Z</time></trkpt><trkpt lat="-37.514488912646" lon="144.22691993694346"><ele>649.6666666666667</ele><time>2026-03-21T23:47:45Z</time></trkpt><trkpt lat="-37.51449132740834" lon="144.22700768796565"><ele>647.8333333333334</ele><time>2026-03-21T23:47:47Z</time></trkpt><trkpt lat="-37.51441714112119" lon="144.22704738494778"><ele>646.0</ele><time>2026-03-21T23:47:49Z</time></trkpt><trkpt lat="-37.51434692746037" lon="144.2270773335442"><ele>646.0</ele><time>2026-03-21T23:47:50Z</time></trkpt><trkpt lat="-37.51428392908024" lon="144.22712040946632"><ele>646.0</ele><time>2026-03-21T23:47:51Z</time></trkpt><trkpt lat="-37.51421539996197" lon="144.22715930051473"><ele>646.0</ele><time>2026-03-21T23:47:52Z</time></trkpt><trkpt lat="-37.51415126820402" lon="144.22722172077192"><ele>646.0</ele><time>2026-03-21T23:47:54Z</time></trkpt><trkpt lat="-37.51415830698855" lon="144.2273014176496"><ele>646.0</ele><time>2026-03-21T23:47:57Z</time></trkpt><trkpt lat="-37.51415833049929" lon="144.22740183193292"><ele>646.0</ele><time>2026-03-21T23:48:01Z</time></trkpt><trkpt lat="-37.51419864171804" lon="144.22752757400139"><ele>646.3333333333334</ele><time>2026-03-21T23:48:02Z</time></trkpt><trkpt lat="-37.51424263854001" lon="144.22761240327196"><ele>646.6666666666667</ele><time>2026-03-21T23:48:03Z</time></trkpt><trkpt lat="-37.514286977964126" lon="144.2276967837113"><ele>647.0</ele><time>2026-03-21T23:48:04Z</time></trkpt><trkpt lat="-37.51432750250699" lon="144.22780363939725"><ele>647.3333333333334</ele><time>2026-03-21T23:48:05Z</time></trkpt><trkpt lat="-37.5143381922358" lon="144.22790942165335"><ele>647.6666666666666</ele><time>2026-03-21T23:48:06Z</time></trkpt><trkpt lat="-37.514329268371256" lon="144.22803535105092"><ele>648.0</ele><time>2026-03-21T23:48:07Z</time></trkpt><trkpt lat="-37.514327554945204" lon="144.22816188107802"><ele>648.5</ele><time>2026-03-21T23:48:08Z</time></trkpt><trkpt lat="-37.514343033865686" lon="144.2282677138899"><ele>649.0</ele><time>2026-03-21T23:48:09Z</time></trkpt><trkpt lat="-37.51435462783454" lon="144.22835123466575"><ele>649.5</ele><time>2026-03-21T23:48:10Z</time></trkpt><trkpt lat="-37.51437461674966" lon="144.2284527930942"><ele>650.0</ele><time>2026-03-21T23:48:11Z</time></trkpt><trkpt lat="-37.51441992320908" lon="144.22855583442953"><ele>650.5</ele><time>2026-03-21T23:48:12Z</time></trkpt><trkpt lat="-37.514465367363144" lon="144.22864514638073"><ele>651.0</ele><time>2026-03-21T23:48:13Z</time></trkpt><trkpt lat="-37.514534437601384" lon="144.22872110494635"><ele>653.3333333333334</ele><time>2026-03-21T23:48:14Z</time></trkpt><trkpt lat="-37.514614009626605" lon="144.2287789602839"><ele>655.6666666666666</ele><time>2026-03-21T23:48:15Z</time></trkpt><trkpt lat="-37.51468555092278" lon="144.2288049497829"><ele>658.0</ele><time>2026-03-21T23:48:16Z</time></trkpt><trkpt lat="-37.51473068562074" lon="144.22887149084772"><ele>660.3333333333333</ele><time>2026-03-21T23:48:17Z</time></trkpt><trkpt lat="-37.514760631102256" lon="144.22896722824126"><ele>662.6666666666666</ele><time>2026-03-21T23:48:18Z</time></trkpt><trkpt lat="-37.514793598554036" lon="144.22907280380667"><ele>665.0</ele><time>2026-03-21T23:48:19Z</time></trkpt><trkpt lat="-37.514811124607455" lon="144.22923613389267"><ele>665.6</ele><time>2026-03-21T23:48:20Z</time></trkpt><trkpt lat="-37.514836113506654" lon="144.22938695510905"><ele>666.2</ele><time>2026-03-21T23:48:21Z</time></trkpt><trkpt lat="-37.51482801005702" lon="144.22952893130162"><ele>666.8</ele><time>2026-03-21T23:48:22Z</time></trkpt><trkpt lat="-37.51483767972624" lon="144.2296529290652"><ele>667.4</ele><time>2026-03-21T23:48:23Z</time></trkpt><trkpt lat="-37.51485832344487" lon="144.22979454289205"><ele>668.0</ele><time>2026-03-21T23:48:24Z</time></trkpt><trkpt lat="-37.51487730058143" lon="144.22991999599734"><ele>668.2</ele><time>2026-03-21T23:48:25Z</time></trkpt><trkpt lat="-37.514910945606886" lon="144.23003911734796"><ele>668.4</ele><time>2026-03-21T23:48:27Z</time></trkpt><trkpt lat="-37.51496263078169" lon="144.23013864568847"><ele>668.6</ele><time>2026-03-21T23:48:28Z</time></trkpt><trkpt lat="-37.51500474944328" lon="144.23024685935746"><ele>668.8000000000001</ele><time>2026-03-21T23:48:29Z</time></trkpt><trkpt lat="-37.515022763876225" lon="144.2303265326544"><ele>669.0</ele><time>2026-03-21T23:48:30Z</time></trkpt><trkpt lat="-37.515030180293614" lon="144.23045992441868"><ele>669.0</ele><time>2026-03-21T23:48:39Z</time></trkpt><trkpt lat="-37.51504499904462" lon="144.23056698277756"><ele>669.0</ele><time>2026-03-21T23:48:41Z</time></trkpt><trkpt lat="-37.515071535585456" lon="144.23075474982377"><ele>669.0</ele><time>2026-03-21T23:48:43Z</time></trkpt><trkpt lat="-37.51506826255259" lon="144.23085582255172"><ele>669.0</ele><time>2026-03-21T23:48:44Z</time></trkpt><trkpt lat="-37.51504869707379" lon="144.23095635169702"><ele>669.0</ele><time>2026-03-21T23:48:45Z</time></trkpt><trkpt lat="-37.51504258134813" lon="144.2310371389327"><ele>669.8000000000001</ele><time>2026-03-21T23:48:46Z</time></trkpt><trkpt lat="-37.51505039230141" lon="144.23113713176943"><ele>670.6</ele><time>2026-03-21T23:48:47Z</time></trkpt><trkpt lat="-37.51507747149759" lon="144.2312686233487"><ele>671.4</ele><time>2026-03-21T23:48:48Z</time></trkpt><trkpt lat="-37.51510398972962" lon="144.23143271392138"><ele>672.2</ele><time>2026-03-21T23:48:49Z</time></trkpt><trkpt lat="-37.51512664305136" lon="144.23156621241878"><ele>673.0</ele><time>2026-03-21T23:48:50Z</time></trkpt><trkpt lat="-37.51513680313747" lon="144.2316447597392"><ele>673.5999999999999</ele><time>2026-03-21T23:48:51Z</time></trkpt><trkpt lat="-37.51512790973961" lon="144.23173626202524"><ele>674.1999999999999</ele><time>2026-03-21T23:48:52Z</time></trkpt><trkpt lat="-37.51513169742362" lon="144.23182649074138"><ele>674.8</ele><time>2026-03-21T23:48:53Z</time></trkpt><trkpt lat="-37.51510790269041" lon="144.23196473396783"><ele>675.4</ele><time>2026-03-21T23:48:55Z</time></trkpt><trkpt lat="-37.51507881613424" lon="144.23208752784797"><ele>676.0</ele><time>2026-03-21T23:48:56Z</time></trkpt><trkpt lat="-37.515055988756956" lon="144.23225008889005"><ele>676.0</ele><time>2026-03-21T23:48:57Z</time></trkpt><trkpt lat="-37.51505956143148" lon="144.23243463865245"><ele>676.0</ele><time>2026-03-21T23:48:58Z</time></trkpt><trkpt lat="-37.51506858643783" lon="144.23255568539705"><ele>676.0</ele><time>2026-03-21T23:48:59Z</time></trkpt><trkpt lat="-37.51505189272429" lon="144.23265313510674"><ele>676.0</ele><time>2026-03-21T23:49:02Z</time></trkpt><trkpt lat="-37.51509214119057" lon="144.23275365770084"><ele>676.0</ele><time>2026-03-21T23:49:05Z</time></trkpt><trkpt lat="-37.51513255524569" lon="144.2328209615512"><ele>676.0</ele><time>2026-03-21T23:49:06Z</time></trkpt><trkpt lat="-37.515182743558405" lon="144.232953860611"><ele>676.0</ele><time>2026-03-21T23:49:08Z</time></trkpt><trkpt lat="-37.5152246105066" lon="144.23303599775835"><ele>676.0</ele><time>2026-03-21T23:49:09Z</time></trkpt><trkpt lat="-37.51527034220937" lon="144.23314814329746"><ele>676.0</ele><time>2026-03-21T23:49:10Z</time></trkpt><trkpt lat="-37.515343709037026" lon="144.23327475251557"><ele>676.0</ele><time>2026-03-21T23:49:11Z</time></trkpt><trkpt lat="-37.515395026126406" lon="144.233361901051"><ele>677.5</ele><time>2026-03-21T23:49:12Z</time></trkpt><trkpt lat="-37.515429401031874" lon="144.23343829048437"><ele>679.0</ele><time>2026-03-21T23:49:13Z</time></trkpt><trkpt lat="-37.51547385442379" lon="144.2335103309269"><ele>680.5</ele><time>2026-03-21T23:49:14Z</time></trkpt><trkpt lat="-37.515522414224336" lon="144.23359229549885"><ele>682.0</ele><time>2026-03-21T23:49:15Z</time></trkpt><trkpt lat="-37.51556359386324" lon="144.23366522424146"><ele>683.5</ele><time>2026-03-21T23:49:16Z</time></trkpt><trkpt lat="-37.515595188390996" lon="144.2337696986169"><ele>685.0</ele><time>2026-03-21T23:49:18Z</time></trkpt><trkpt lat="-37.51558617611437" lon="144.2339284429545"><ele>684.2</ele><time>2026-03-21T23:49:20Z</time></trkpt><trkpt lat="-37.515568831382225" lon="144.2340388896794"><ele>683.4</ele><time>2026-03-21T23:49:22Z</time></trkpt><trkpt lat="-37.51546769756112" lon="144.2340041295103"><ele>682.5999999999999</ele><time>2026-03-21T23:51:14Z</time></trkpt><trkpt lat="-37.51534360777376" lon="144.23396611094302"><ele>681.8</ele><time>2026-03-21T23:51:16Z</time></trkpt><trkpt lat="-37.51524663508133" lon="144.233904560551"><ele>681.0</ele><time>2026-03-21T23:51:17Z</time></trkpt><trkpt lat="-37.51512442564999" lon="144.2338207689228"><ele>680.5</ele><time>2026-03-21T23:51:18Z</time></trkpt><trkpt lat="-37.51500104272266" lon="144.23373270102994"><ele>680.0</ele><time>2026-03-21T23:51:19Z</time></trkpt><trkpt lat="-37.51487184546158" lon="144.23364730665617"><ele>679.5</ele><time>2026-03-21T23:51:20Z</time></trkpt><trkpt lat="-37.514761754926184" lon="144.23353373914878"><ele>679.0</ele><time>2026-03-21T23:51:21Z</time></trkpt><trkpt lat="-37.51466634509644" lon="144.2333988266592"><ele>679.0</ele><time>2026-03-21T23:51:22Z</time></trkpt><trkpt lat="-37.51458829042632" lon="144.2332576551143"><ele>679.0</ele><time>2026-03-21T23:51:23Z</time></trkpt><trkpt lat="-37.514521558962244" lon="144.23310379819978"><ele>679.0</ele><time>2026-03-21T23:51:24Z</time></trkpt><trkpt lat="-37.51448418153479" lon="144.23295357778957"><ele>679.0</ele><time>2026-03-21T23:51:25Z</time></trkpt><trkpt lat="-37.51446567631643" lon="144.23279258846586"><ele>675.5</ele><time>2026-03-21T23:51:26Z</time></trkpt><trkpt lat="-37.51446353434844" lon="144.23263174558525"><ele>672.0</ele><time>2026-03-21T23:51:27Z</time></trkpt><trkpt lat="-37.51448375035837" lon="144.23247427225803"><ele>668.5</ele><time>2026-03-21T23:51:28Z</time></trkpt><trkpt lat="-37.51452247492665" lon="144.23231607582522"><ele>665.0</ele><time>2026-03-21T23:51:29Z</time></trkpt><trkpt lat="-37.51456154434208" lon="144.23215273766007"><ele>667.2</ele><time>2026-03-21T23:51:30Z</time></trkpt><trkpt lat="-37.51459511879873" lon="144.232009847243"><ele>669.4</ele><time>2026-03-21T23:51:31Z</time></trkpt><trkpt lat="-37.514622429022424" lon="144.2318822327"><ele>671.5999999999999</ele><time>2026-03-21T23:51:32Z</time></trkpt><trkpt lat="-37.51463502241165" lon="144.2317467090678"><ele>673.8</ele><time>2026-03-21T23:51:33Z</time></trkpt><trkpt lat="-37.51463789293642" lon="144.2316103709977"><ele>676.0</ele><time>2026-03-21T23:51:34Z</time></trkpt><trkpt lat="-37.51464113744476" lon="144.23147700601626"><ele>675.25</ele><time>2026-03-21T23:51:35Z</time></trkpt><trkpt lat="-37.514642159308636" lon="144.2313365961753"><ele>674.5</ele><time>2026-03-21T23:51:36Z</time></trkpt><trkpt lat="-37.51464430652717" lon="144.23119256024304"><ele>673.75</ele><time>2026-03-21T23:51:37Z</time></trkpt><trkpt lat="-37.514634834183745" lon="144.2310421207124"><ele>673.0</ele><time>2026-03-21T23:51:38Z</time></trkpt><trkpt lat="-37.51461022203634" lon="144.23089795894074"><ele>673.0</ele><time>2026-03-21T23:51:39Z</time></trkpt><trkpt lat="-37.51457690058016" lon="144.23075325322287"><ele>673.0</ele><time>2026-03-21T23:51:40Z</time></trkpt><trkpt lat="-37.51453731176459" lon="144.23060385661358"><ele>673.0</ele><time>2026-03-21T23:51:41Z</time></trkpt><trkpt lat="-37.51450560841293" lon="144.23047545423321"><ele>673.0</ele><time>2026-03-21T23:51:42Z</time></trkpt><trkpt lat="-37.514473964723216" lon="144.23035507331898"><ele>670.4285714285714</ele><time>2026-03-21T23:51:43Z</time></trkpt><trkpt lat="-37.51445266709612" lon="144.23025081993475"><ele>667.8571428571428</ele><time>2026-03-21T23:51:44Z</time></trkpt><trkpt lat="-37.51443355546496" lon="144.23017049437405"><ele>665.2857142857142</ele><time>2026-03-21T23:51:45Z</time></trkpt><trkpt lat="-37.51442114502871" lon="144.23009022345167"><ele>662.7142857142858</ele><time>2026-03-21T23:51:47Z</time></trkpt><trkpt lat="-37.514355846043856" lon="144.2300636000792"><ele>660.1428571428571</ele><time>2026-03-21T23:51:50Z</time></trkpt><trkpt lat="-37.5142961883451" lon="144.23010958724726"><ele>657.5714285714286</ele><time>2026-03-21T23:51:52Z</time></trkpt><trkpt lat="-37.51422776164846" lon="144.230152761415"><ele>655.0</ele><time>2026-03-21T23:51:53Z</time></trkpt><trkpt lat="-37.5141752213257" lon="144.23019754326523"><ele>655.0</ele><time>2026-03-21T23:51:54Z</time></trkpt><trkpt lat="-37.51414922626565" lon="144.2303375046456"><ele>655.0</ele><time>2026-03-21T23:51:56Z</time></trkpt><trkpt lat="-37.51417404072035" lon="144.23043031749043"><ele>655.0</ele><time>2026-03-21T23:51:57Z</time></trkpt><trkpt lat="-37.514217261128636" lon="144.23053865066558"><ele>655.0</ele><time>2026-03-21T23:51:58Z</time></trkpt><trkpt lat="-37.51422829875284" lon="144.23062839912674"><ele>655.0</ele><time>2026-03-21T23:51:59Z</time></trkpt><trkpt lat="-37.514192079149616" lon="144.23072125552343"><ele>655.0</ele><time>2026-03-21T23:52:01Z</time></trkpt><trkpt lat="-37.514067780533296" lon="144.23080897853595"><ele>655.1666666666667</ele><time>2026-03-21T23:52:03Z</time></trkpt><trkpt lat="-37.51401448555877" lon="144.23087080956282"><ele>655.3333333333334</ele><time>2026-03-21T23:52:04Z</time></trkpt><trkpt lat="-37.51400590929104" lon="144.23096552896916"><ele>655.5</ele><time>2026-03-21T23:52:06Z</time></trkpt><trkpt lat="-37.51406731174434" lon="144.23114308181914"><ele>655.6666666666666</ele><time>2026-03-21T23:52:08Z</time></trkpt><trkpt lat="-37.514105304957845" lon="144.23122509183705"><ele>655.8333333333333</ele><time>2026-03-21T23:52:09Z</time></trkpt><trkpt lat="-37.514121287403555" lon="144.2313024461504"><ele>656.0</ele><time>2026-03-21T23:52:10Z</time></trkpt><trkpt lat="-37.51411766185317" lon="144.2313925312191"><ele>656.6666666666666</ele><time>2026-03-21T23:52:11Z</time></trkpt><trkpt lat="-37.51414887895497" lon="144.23151584560978"><ele>657.3333333333333</ele><time>2026-03-21T23:52:13Z</time></trkpt><trkpt lat="-37.51412727722296" lon="144.2316032258477"><ele>658.0</ele><time>2026-03-21T23:52:14Z</time></trkpt><trkpt lat="-37.51402750432881" lon="144.231650910783"><ele>658.6666666666666</ele><time>2026-03-21T23:52:16Z</time></trkpt><trkpt lat="-37.51398332983093" lon="144.2317309794724"><ele>659.3333333333334</ele><time>2026-03-21T23:52:17Z</time></trkpt><trkpt lat="-37.513929409616345" lon="144.23177320529095"><ele>660.0</ele><time>2026-03-21T23:52:18Z</time></trkpt><trkpt lat="-37.51386791911982" lon="144.23174518847236"><ele>660.0</ele><time>2026-03-21T23:52:19Z</time></trkpt><trkpt lat="-37.513774656910584" lon="144.23172191425147"><ele>660.0</ele><time>2026-03-21T23:52:20Z</time></trkpt><trkpt lat="-37.51370207092493" lon="144.23172367962528"><ele>660.0</ele><time>2026-03-21T23:52:21Z</time></trkpt><trkpt lat="-37.51361741935422" lon="144.2317589988844"><ele>660.0</ele><time>2026-03-21T23:52:22Z</time></trkpt><trkpt lat="-37.51353961012511" lon="144.23182110088104"><ele>660.0</ele><time>2026-03-21T23:52:23Z</time></trkpt><trkpt lat="-37.51345914033799" lon="144.23186955845964"><ele>660.0</ele><time>2026-03-21T23:52:24Z</time></trkpt><trkpt lat="-37.513388969227556" lon="144.23189556522252"><ele>660.1666666666666</ele><time>2026-03-21T23:52:25Z</time></trkpt><trkpt lat="-37.513327351262085" lon="144.23192189939155"><ele>660.3333333333334</ele><time>2026-03-21T23:52:26Z</time></trkpt><trkpt lat="-37.51328995798169" lon="144.2320250870441"><ele>660.5</ele><time>2026-03-21T23:52:28Z</time></trkpt><trkpt lat="-37.51329052250064" lon="144.2321291560657"><ele>660.6666666666667</ele><time>2026-03-21T23:52:29Z</time></trkpt><trkpt lat="-37.51337153944099" lon="144.2322115771687"><ele>660.8333333333334</ele><time>2026-03-21T23:52:32Z</time></trkpt><trkpt lat="-37.5134147047858" lon="144.23232434401174"><ele>661.0</ele><time>2026-03-21T23:52:36Z</time></trkpt><trkpt lat="-37.51342255023506" lon="144.2324873190573"><ele>661.0</ele><time>2026-03-21T23:52:38Z</time></trkpt><trkpt lat="-37.51343489968168" lon="144.23262769360215"><ele>661.0</ele><time>2026-03-21T23:52:40Z</time></trkpt><trkpt lat="-37.5134602108817" lon="144.2327261921586"><ele>661.0</ele><time>2026-03-21T23:52:41Z</time></trkpt><trkpt lat="-37.51339788633266" lon="144.23281794798888"><ele>661.0</ele><time>2026-03-21T23:52:43Z</time></trkpt><trkpt lat="-37.513322141012296" lon="144.2328415182867"><ele>661.0</ele><time>2026-03-21T23:52:44Z</time></trkpt><trkpt lat="-37.51322069993564" lon="144.23288705980156"><ele>661.0</ele><time>2026-03-21T23:52:45Z</time></trkpt><trkpt lat="-37.51311770065529" lon="144.23295235950445"><ele>661.0</ele><time>2026-03-21T23:52:46Z</time></trkpt><trkpt lat="-37.51305048992264" lon="144.23299030766512"><ele>661.0</ele><time>2026-03-21T23:52:47Z</time></trkpt><trkpt lat="-37.51298118043557" lon="144.23300190772355"><ele>661.0</ele><time>2026-03-21T23:52:48Z</time></trkpt><trkpt lat="-37.512866317510216" lon="144.23307141830136"><ele>661.0</ele><time>2026-03-21T23:52:50Z</time></trkpt><trkpt lat="-37.51280564065981" lon="144.23314722234016"><ele>662.1999999999999</ele><time>2026-03-21T23:52:52Z</time></trkpt><trkpt lat="-37.512734407292484" lon="144.23309356550791"><ele>663.4</ele><time>2026-03-21T23:52:54Z</time></trkpt><trkpt lat="-37.51259791893794" lon="144.2330911980416"><ele>664.6</ele><time>2026-03-21T23:52:56Z</time></trkpt><trkpt lat="-37.512542665550924" lon="144.23297891715526"><ele>665.8</ele><time>2026-03-21T23:52:58Z</time></trkpt><trkpt lat="-37.51249459384231" lon="144.23292406139146"><ele>667.0</ele><time>2026-03-21T23:52:59Z</time></trkpt><trkpt lat="-37.51237708418268" lon="144.23295593318218"><ele>667.0</ele><time>2026-03-21T23:53:01Z</time></trkpt><trkpt lat="-37.512313484362636" lon="144.23303937486648"><ele>667.0</ele><time>2026-03-21T23:53:03Z</time></trkpt><trkpt lat="-37.51226883462269" lon="144.23312401174388"><ele>667.0</ele><time>2026-03-21T23:53:05Z</time></trkpt><trkpt lat="-37.51230141325335" lon="144.23319493215547"><ele>667.0</ele><time>2026-03-21T23:53:07Z</time></trkpt><trkpt lat="-37.512391790278215" lon="144.2331959887062"><ele>667.0</ele><time>2026-03-21T23:53:09Z</time></trkpt><trkpt lat="-37.5124075959347" lon="144.2333143766541"><ele>667.0</ele><time>2026-03-21T23:53:11Z</time></trkpt><trkpt lat="-37.51239088561101" lon="144.2334147291634"><ele>667.2</ele><time>2026-03-21T23:53:14Z</time></trkpt><trkpt lat="-37.51233950750522" lon="144.23357267300744"><ele>667.4000000000001</ele><time>2026-03-21T23:53:16Z</time></trkpt><trkpt lat="-37.51232388593669" lon="144.2336650320408"><ele>667.5999999999999</ele><time>2026-03-21T23:53:17Z</time></trkpt><trkpt lat="-37.512320700211795" lon="144.23378446584243"><ele>667.8</ele><time>2026-03-21T23:53:19Z</time></trkpt><trkpt lat="-37.51225451328863" lon="144.23383915403852"><ele>668.0</ele><time>2026-03-21T23:53:22Z</time></trkpt><trkpt lat="-37.51219686855568" lon="144.23397960427835"><ele>668.0</ele><time>2026-03-21T23:53:24Z</time></trkpt><trkpt lat="-37.51215600784915" lon="144.23408757656003"><ele>668.0</ele><time>2026-03-21T23:53:25Z</time></trkpt><trkpt lat="-37.51214557421983" lon="144.2341769803665"><ele>668.0</ele><time>2026-03-21T23:53:26Z</time></trkpt><trkpt lat="-37.51207146651957" lon="144.2342997839879"><ele>668.0</ele><time>2026-03-21T23:53:28Z</time></trkpt><trkpt lat="-37.512053870047424" lon="144.23437980447116"><ele>668.0</ele><time>2026-03-21T23:53:29Z</time></trkpt><trkpt lat="-37.51206224792518" lon="144.23448635751672"><ele>668.0</ele><time>2026-03-21T23:53:31Z</time></trkpt><trkpt lat="-37.51214983422124" lon="144.2345721153765"><ele>668.0</ele><time>2026-03-21T23:53:33Z</time></trkpt><trkpt lat="-37.512180938102034" lon="144.2346554084892"><ele>668.0</ele><time>2026-03-21T23:53:34Z</time></trkpt><trkpt lat="-37.512250853337534" lon="144.2347380507846"><ele>668.0</ele><time>2026-03-21T23:53:36.001Z</time></trkpt><trkpt lat="-37.51233515400715" lon="144.23485754107153"><ele>668.0</ele><time>2026-03-21T23:53:38.001Z</time></trkpt><trkpt lat="-37.512334954063675" lon="144.23494504230672"><ele>668.0</ele><time>2026-03-21T23:53:39.001Z</time></trkpt><trkpt lat="-37.5123445061502" lon="144.23504521231254"><ele>668.0</ele><time>2026-03-21T23:53:40.001Z</time></trkpt><trkpt lat="-37.512401749921885" lon="144.23520884062265"><ele>668.8333333333333</ele><time>2026-03-21T23:53:42.001Z</time></trkpt><trkpt lat="-37.5124518274295" lon="144.23528329349668"><ele>669.6666666666666</ele><time>2026-03-21T23:53:43.001Z</time></trkpt><trkpt lat="-37.512489548005746" lon="144.23536562659444"><ele>670.5</ele><time>2026-03-21T23:53:44.001Z</time></trkpt><trkpt lat="-37.51249390489315" lon="144.23547654296806"><ele>671.3333333333334</ele><time>2026-03-21T23:53:59Z</time></trkpt><trkpt lat="-37.51253596133471" lon="144.23554091437583"><ele>672.1666666666667</ele><time>2026-03-21T23:54:01Z</time></trkpt><trkpt lat="-37.51261047453737" lon="144.23555443821238"><ele>673.0</ele><time>2026-03-21T23:54:04Z</time></trkpt><trkpt lat="-37.51267051091756" lon="144.23546295532745"><ele>673.0</ele><time>2026-03-21T23:54:07Z</time></trkpt><trkpt lat="-37.51272881612414" lon="144.23540366437445"><ele>673.0</ele><time>2026-03-21T23:54:08Z</time></trkpt><trkpt lat="-37.51277363162305" lon="144.23534545105613"><ele>673.0</ele><time>2026-03-21T23:54:09Z</time></trkpt><trkpt lat="-37.51284769722547" lon="144.23526666388878"><ele>673.0</ele><time>2026-03-21T23:54:11Z</time></trkpt><trkpt lat="-37.51301384036045" lon="144.235206493449"><ele>673.0</ele><time>2026-03-21T23:54:13Z</time></trkpt><trkpt lat="-37.513094526398184" lon="144.23517958744355"><ele>674.2</ele><time>2026-03-21T23:54:14Z</time></trkpt><trkpt lat="-37.513169605049065" lon="144.2350899553416"><ele>675.4</ele><time>2026-03-21T23:54:16Z</time></trkpt><trkpt lat="-37.51326107416581" lon="144.23505657304528"><ele>676.6</ele><time>2026-03-21T23:54:19Z</time></trkpt><trkpt lat="-37.51334995774432" lon="144.2349699912642"><ele>677.8000000000001</ele><time>2026-03-21T23:54:36.001Z</time></trkpt><trkpt lat="-37.513416937446756" lon="144.2348643832258"><ele>679.0</ele><time>2026-03-21T23:54:38.001Z</time></trkpt><trkpt lat="-37.51347037422364" lon="144.23482037824843"><ele>677.25</ele><time>2026-03-21T23:54:39.001Z</time></trkpt><trkpt lat="-37.51353442087386" lon="144.23474806791685"><ele>675.5</ele><time>2026-03-21T23:54:40.001Z</time></trkpt><trkpt lat="-37.51368941308296" lon="144.234689178234"><ele>673.75</ele><time>2026-03-21T23:54:42.001Z</time></trkpt><trkpt lat="-37.51379571074427" lon="144.23467638222283"><ele>672.0</ele><time>2026-03-21T23:54:43.001Z</time></trkpt><trkpt lat="-37.51392267866616" lon="144.23470383934068"><ele>672.0</ele><time>2026-03-21T23:54:45.001Z</time></trkpt><trkpt lat="-37.513999618218264" lon="144.23474238221058"><ele>672.0</ele><time>2026-03-21T23:54:46.001Z</time></trkpt><trkpt lat="-37.514081037061445" lon="144.23474279304546"><ele>672.0</ele><time>2026-03-21T23:54:47.001Z</time></trkpt><trkpt lat="-37.514153696658425" lon="144.23475868002956"><ele>672.0</ele><time>2026-03-21T23:54:48.001Z</time></trkpt><trkpt lat="-37.51426746580167" lon="144.23479107664895"><ele>672.0</ele><time>2026-03-21T23:54:49.001Z</time></trkpt><trkpt lat="-37.51438592818945" lon="144.2347890234672"><ele>672.0</ele><time>2026-03-21T23:54:50.001Z</time></trkpt><trkpt lat="-37.51447911508235" lon="144.2347538726405"><ele>672.0</ele><time>2026-03-21T23:54:51.001Z</time></trkpt><trkpt lat="-37.514568502555264" lon="144.2347590862691"><ele>672.0</ele><time>2026-03-21T23:54:52.001Z</time></trkpt><trkpt lat="-37.51466509942786" lon="144.23477012836756"><ele>672.0</ele><time>2026-03-21T23:54:53.001Z</time></trkpt><trkpt lat="-37.514739898888294" lon="144.23473331770379"><ele>672.0</ele><time>2026-03-21T23:54:54.001Z</time></trkpt><trkpt lat="-37.514824394898035" lon="144.2347288710256"><ele>672.0</ele><time>2026-03-21T23:54:55.001Z</time></trkpt><trkpt lat="-37.5149240695508" lon="144.23474943522012"><ele>673.4000000000001</ele><time>2026-03-21T23:54:56.001Z</time></trkpt><trkpt lat="-37.51500115474236" lon="144.2347838347099"><ele>674.8000000000001</ele><time>2026-03-21T23:54:57.001Z</time></trkpt><trkpt lat="-37.515162569508675" lon="144.234698207641"><ele>676.2</ele><time>2026-03-21T23:54:59.001Z</time></trkpt><trkpt lat="-37.515242473733906" lon="144.23467012217222"><ele>677.6</ele><time>2026-03-21T23:55:00.001Z</time></trkpt><trkpt lat="-37.5153065537204" lon="144.234661267194"><ele>679.0</ele><time>2026-03-21T23:55:01.001Z</time></trkpt><trkpt lat="-37.515398552077656" lon="144.23468409047652"><ele>679.4000000000001</ele><time>2026-03-21T23:55:02.001Z</time></trkpt><trkpt lat="-37.51550754457043" lon="144.234707898714"><ele>679.8</ele><time>2026-03-21T23:55:03.001Z</time></trkpt><trkpt lat="-37.51558593837135" lon="144.23470183305636"><ele>680.2</ele><time>2026-03-21T23:55:04.001Z</time></trkpt><trkpt lat="-37.51564913952703" lon="144.23471913127412"><ele>680.5999999999999</ele><time>2026-03-21T23:55:05.001Z</time></trkpt><trkpt lat="-37.51572401254284" lon="144.2348483611147"><ele>681.0</ele><time>2026-03-21T23:55:07.001Z</time></trkpt><trkpt lat="-37.51576291588565" lon="144.23496556659217"><ele>682.0</ele><time>2026-03-21T23:55:08Z</time></trkpt><trkpt lat="-37.51584210298447" lon="144.23503948692846"><ele>683.0</ele><time>2026-03-21T23:55:09Z</time></trkpt><trkpt lat="-37.51596101213103" lon="144.23513569585847"><ele>684.0</ele><time>2026-03-21T23:55:10Z</time></trkpt><trkpt lat="-37.51607423299711" lon="144.2352739988182"><ele>685.0</ele><time>2026-03-21T23:55:11Z</time></trkpt><trkpt lat="-37.51613115909394" lon="144.23533789942786"><ele>685.0</ele><time>2026-03-21T23:55:12Z</time></trkpt><trkpt lat="-37.51618098948512" lon="144.2353929423816"><ele>685.0</ele><time>2026-03-21T23:55:13Z</time></trkpt><trkpt lat="-37.516252671877936" lon="144.23545259060938"><ele>685.0</ele><time>2026-03-21T23:55:14Z</time></trkpt><trkpt lat="-37.51634726839462" lon="144.23549772985942"><ele>685.0</ele><time>2026-03-21T23:55:15Z</time></trkpt><trkpt lat="-37.516412032723245" lon="144.23557750797661"><ele>685.0</ele><time>2026-03-21T23:55:16Z</time></trkpt><trkpt lat="-37.516487491021124" lon="144.23566479494693"><ele>685.0</ele><time>2026-03-21T23:55:17Z</time></trkpt><trkpt lat="-37.51654512645223" lon="144.23574231253653"><ele>685.0</ele><time>2026-03-21T23:55:18Z</time></trkpt><trkpt lat="-37.51663465375687" lon="144.23581877962502"><ele>685.0</ele><time>2026-03-21T23:55:19Z</time></trkpt><trkpt lat="-37.51668772193489" lon="144.23591608630448"><ele>685.0</ele><time>2026-03-21T23:55:20Z</time></trkpt><trkpt lat="-37.51675238836433" lon="144.2360064525358"><ele>685.0</ele><time>2026-03-21T23:55:21Z</time></trkpt><trkpt lat="-37.516819166461374" lon="144.23606825723326"><ele>685.0</ele><time>2026-03-21T23:55:22Z</time></trkpt><trkpt lat="-37.516884439294714" lon="144.236125733939"><ele>685.0</ele><time>2026-03-21T23:55:23Z</time></trkpt><trkpt lat="-37.516968580914735" lon="144.23615822123668"><ele>685.0</ele><time>2026-03-21T23:55:25Z</time></trkpt><trkpt lat="-37.516887094674026" lon="144.23616603554214"><ele>685.0</ele><time>2026-03-21T23:55:46Z</time></trkpt><trkpt lat="-37.51681502162486" lon="144.2361607056821"><ele>685.0</ele><time>2026-03-21T23:55:47Z</time></trkpt><trkpt lat="-37.516746774635415" lon="144.2361776968697"><ele>685.0</ele><time>2026-03-21T23:55:48Z</time></trkpt><trkpt lat="-37.516683593979295" lon="144.23621180406587"><ele>685.0</ele><time>2026-03-21T23:55:49Z</time></trkpt><trkpt lat="-37.51659278708102" lon="144.23630677539927"><ele>685.0</ele><time>2026-03-21T23:55:51Z</time></trkpt><trkpt lat="-37.51653827913197" lon="144.23635295117396"><ele>685.0</ele><time>2026-03-21T23:55:52Z</time></trkpt><trkpt lat="-37.51647228667108" lon="144.2363867019586"><ele>685.0</ele><time>2026-03-21T23:55:53Z</time></trkpt><trkpt lat="-37.51638088773881" lon="144.23642318880135"><ele>685.0</ele><time>2026-03-21T23:55:54Z</time></trkpt><trkpt lat="-37.516280154208005" lon="144.2364372484187"><ele>685.0</ele><time>2026-03-21T23:55:55Z</time></trkpt><trkpt lat="-37.516155642472945" lon="144.23640218322834"><ele>686.6</ele><time>2026-03-21T23:55:56Z</time></trkpt><trkpt lat="-37.51603679603406" lon="144.236366618524"><ele>688.2</ele><time>2026-03-21T23:55:57Z</time></trkpt><trkpt lat="-37.515944196685545" lon="144.23633103646284"><ele>689.8</ele><time>2026-03-21T23:55:58Z</time></trkpt><trkpt lat="-37.51585817270006" lon="144.2363522823762"><ele>691.4</ele><time>2026-03-21T23:55:59Z</time></trkpt><trkpt lat="-37.51575367946492" lon="144.23638483530462"><ele>693.0</ele><time>2026-03-21T23:56:00Z</time></trkpt><trkpt lat="-37.51560068068061" lon="144.23643029565704"><ele>693.0</ele><time>2026-03-21T23:56:01Z</time></trkpt><trkpt lat="-37.51547788478601" lon="144.2364835834593"><ele>693.0</ele><time>2026-03-21T23:56:02Z</time></trkpt><trkpt lat="-37.515380088074664" lon="144.23653116605547"><ele>693.0</ele><time>2026-03-21T23:56:03Z</time></trkpt><trkpt lat="-37.515268439889105" lon="144.23657716377824"><ele>693.0</ele><time>2026-03-21T23:56:04Z</time></trkpt><trkpt lat="-37.51515252774029" lon="144.23660995476374"><ele>694.0</ele><time>2026-03-21T23:56:05Z</time></trkpt><trkpt lat="-37.515029558190726" lon="144.2366157399685"><ele>695.0</ele><time>2026-03-21T23:56:06Z</time></trkpt><trkpt lat="-37.51489091257198" lon="144.2366223497251"><ele>696.0</ele><time>2026-03-21T23:56:07Z</time></trkpt><trkpt lat="-37.51481167467488" lon="144.23666394123046"><ele>697.0</ele><time>2026-03-21T23:56:08Z</time></trkpt><trkpt lat="-37.51471357092547" lon="144.23670642530104"><ele>697.0</ele><time>2026-03-21T23:56:09Z</time></trkpt><trkpt lat="-37.51462562265098" lon="144.236760690845"><ele>697.0</ele><time>2026-03-21T23:56:10Z</time></trkpt><trkpt lat="-37.514543708008105" lon="144.23680278566002"><ele>697.0</ele><time>2026-03-21T23:56:11Z</time></trkpt><trkpt lat="-37.51446954494916" lon="144.23682230089204"><ele>697.0</ele><time>2026-03-21T23:56:12Z</time></trkpt><trkpt lat="-37.51439979272313" lon="144.23684114934125"><ele>697.0</ele><time>2026-03-21T23:56:13Z</time></trkpt><trkpt lat="-37.51432968335398" lon="144.23692408576287"><ele>697.0</ele><time>2026-03-21T23:56:14Z</time></trkpt><trkpt lat="-37.51423824582038" lon="144.23700105535397"><ele>697.0</ele><time>2026-03-21T23:56:15Z</time></trkpt><trkpt lat="-37.514133240545895" lon="144.23704811568982"><ele>697.0</ele><time>2026-03-21T23:56:16Z</time></trkpt><trkpt lat="-37.51400085529273" lon="144.2370999647364"><ele>697.0</ele><time>2026-03-21T23:56:17Z</time></trkpt><trkpt lat="-37.51386568283984" lon="144.23714319175497"><ele>697.0</ele><time>2026-03-21T23:56:18Z</time></trkpt><trkpt lat="-37.513767875934064" lon="144.2371506868077"><ele>697.1666666666667</ele><time>2026-03-21T23:56:19Z</time></trkpt><trkpt lat="-37.51369144343291" lon="144.23713149062087"><ele>697.3333333333334</ele><time>2026-03-21T23:56:20Z</time></trkpt><trkpt lat="-37.51362660480111" lon="144.23713989835764"><ele>697.5</ele><time>2026-03-21T23:56:21Z</time></trkpt><trkpt lat="-37.51354679796927" lon="144.23715813279279"><ele>697.6666666666666</ele><time>2026-03-21T23:56:22Z</time></trkpt><trkpt lat="-37.51345147752047" lon="144.23716769206004"><ele>697.8333333333333</ele><time>2026-03-21T23:56:23Z</time></trkpt><trkpt lat="-37.51334528456321" lon="144.23721278175645"><ele>698.0</ele><time>2026-03-21T23:56:24Z</time></trkpt><trkpt lat="-37.51327001640543" lon="144.2372824944677"><ele>698.1666666666666</ele><time>2026-03-21T23:56:25Z</time></trkpt><trkpt lat="-37.513212237961845" lon="144.23736533676444"><ele>698.3333333333333</ele><time>2026-03-21T23:56:26Z</time></trkpt><trkpt lat="-37.513149884503704" lon="144.2374278029153"><ele>698.5</ele><time>2026-03-21T23:56:27Z</time></trkpt><trkpt lat="-37.51308080764134" lon="144.23750190293984"><ele>698.6666666666666</ele><time>2026-03-21T23:56:28Z</time></trkpt><trkpt lat="-37.51303004831953" lon="144.2375768973879"><ele>698.8333333333334</ele><time>2026-03-21T23:56:29Z</time></trkpt><trkpt lat="-37.51298092477535" lon="144.2376552119453"><ele>699.0</ele><time>2026-03-21T23:56:30Z</time></trkpt><trkpt lat="-37.51292936404776" lon="144.2377450746272"><ele>699.0</ele><time>2026-03-21T23:56:32Z</time></trkpt><trkpt lat="-37.51287116580423" lon="144.23782570146952"><ele>699.0</ele><time>2026-03-21T23:56:36Z</time></trkpt><trkpt lat="-37.5128925088592" lon="144.23792831370733"><ele>699.0</ele><time>2026-03-21T23:56:40Z</time></trkpt><trkpt lat="-37.512951764525745" lon="144.2379582449455"><ele>699.0</ele><time>2026-03-21T23:56:42Z</time></trkpt><trkpt lat="-37.51304658940022" lon="144.2379505201034"><ele>699.0</ele><time>2026-03-21T23:56:46Z</time></trkpt><trkpt lat="-37.513137623809705" lon="144.23798933009758"><ele>699.0</ele><time>2026-03-21T23:56:48Z</time></trkpt><trkpt lat="-37.51320198089593" lon="144.23802261319278"><ele>699.0</ele><time>2026-03-21T23:56:50Z</time></trkpt><trkpt lat="-37.513258438368204" lon="144.23807238786682"><ele>699.0</ele><time>2026-03-21T23:56:53Z</time></trkpt><trkpt lat="-37.513353216048266" lon="144.23814797137766"><ele>699.0</ele><time>2026-03-21T23:56:55Z</time></trkpt><trkpt lat="-37.513434012534994" lon="144.23821571082178"><ele>699.0</ele><time>2026-03-21T23:56:57Z</time></trkpt><trkpt lat="-37.513494294087025" lon="144.238272063177"><ele>699.0</ele><time>2026-03-21T23:56:59Z</time></trkpt><trkpt lat="-37.51356045060223" lon="144.238355693148"><ele>699.0</ele><time>2026-03-21T23:57:01Z</time></trkpt><trkpt lat="-37.513571780808405" lon="144.238460100709"><ele>698.6</ele><time>2026-03-21T23:57:03Z</time></trkpt><trkpt lat="-37.51358632301941" lon="144.23856565656973"><ele>698.2</ele><time>2026-03-21T23:57:06Z</time></trkpt><trkpt lat="-37.513634452726436" lon="144.2386946225349"><ele>697.8000000000001</ele><time>2026-03-21T23:57:08Z</time></trkpt><trkpt lat="-37.51363956251513" lon="144.23880762785723"><ele>697.4000000000001</ele><time>2026-03-21T23:57:10Z</time></trkpt><trkpt lat="-37.51366229622478" lon="144.23889761938344"><ele>697.0</ele><time>2026-03-21T23:57:12Z</time></trkpt><trkpt lat="-37.5136596821618" lon="144.23901223100998"><ele>693.5</ele><time>2026-03-21T23:57:14Z</time></trkpt><trkpt lat="-37.513749298696574" lon="144.23905724943413"><ele>690.0</ele><time>2026-03-21T23:57:16Z</time></trkpt><trkpt lat="-37.513838201694085" lon="144.239090279419"><ele>686.5</ele><time>2026-03-21T23:57:19Z</time></trkpt><trkpt lat="-37.51386408487213" lon="144.23917925127952"><ele>683.0</ele><time>2026-03-21T23:57:21Z</time></trkpt><trkpt lat="-37.51387923012862" lon="144.23930157416353"><ele>679.5</ele><time>2026-03-21T23:57:23Z</time></trkpt><trkpt lat="-37.51382907024347" lon="144.23936431576146"><ele>676.0</ele><time>2026-03-21T23:57:25Z</time></trkpt><trkpt lat="-37.51379456780083" lon="144.23945265888545"><ele>676.0</ele><time>2026-03-21T23:57:27Z</time></trkpt><trkpt lat="-37.5138104082576" lon="144.23955375096176"><ele>676.0</ele><time>2026-03-21T23:57:29Z</time></trkpt><trkpt lat="-37.51385633723409" lon="144.2396093939353"><ele>676.0</ele><time>2026-03-21T23:57:30Z</time></trkpt><trkpt lat="-37.513871875303195" lon="144.23973977809842"><ele>676.0</ele><time>2026-03-21T23:57:32Z</time></trkpt><trkpt lat="-37.51383708095149" lon="144.23987509725467"><ele>676.0</ele><time>2026-03-21T23:57:34Z</time></trkpt><trkpt lat="-37.51386992035135" lon="144.2399868589556"><ele>673.1999999999999</ele><time>2026-03-21T23:57:36Z</time></trkpt><trkpt lat="-37.51392012066469" lon="144.24013229526207"><ele>670.4</ele><time>2026-03-21T23:57:38Z</time></trkpt><trkpt lat="-37.51391539205453" lon="144.24025527757024"><ele>667.6</ele><time>2026-03-21T23:57:40Z</time></trkpt><trkpt lat="-37.51394984290441" lon="144.2403761175432"><ele>664.8</ele><time>2026-03-21T23:57:42Z</time></trkpt><trkpt lat="-37.514012560523994" lon="144.24047387621027"><ele>662.0</ele><time>2026-03-21T23:57:44Z</time></trkpt><trkpt lat="-37.514060658454305" lon="144.24055808746297"><ele>660.0</ele><time>2026-03-21T23:57:46Z</time></trkpt><trkpt lat="-37.514109732405956" lon="144.24063512017815"><ele>658.0</ele><time>2026-03-21T23:57:48Z</time></trkpt><trkpt lat="-37.51419788053502" lon="144.24066357173686"><ele>656.0</ele><time>2026-03-21T23:57:50Z</time></trkpt><trkpt lat="-37.514336070805655" lon="144.24073879118063"><ele>654.0</ele><time>2026-03-21T23:57:54Z</time></trkpt><trkpt lat="-37.5144036486996" lon="144.2407794483322"><ele>652.0</ele><time>2026-03-21T23:57:56Z</time></trkpt><trkpt lat="-37.5144130780076" lon="144.2408895005228"><ele>652.0</ele><time>2026-03-21T23:58:00Z</time></trkpt><trkpt lat="-37.514303131104555" lon="144.24098962985448"><ele>652.0</ele><time>2026-03-21T23:58:03Z</time></trkpt><trkpt lat="-37.514225135695604" lon="144.2410344263722"><ele>652.0</ele><time>2026-03-21T23:58:04Z</time></trkpt><trkpt lat="-37.51410063168729" lon="144.2411169610195"><ele>652.0</ele><time>2026-03-21T23:58:06Z</time></trkpt><trkpt lat="-37.51404764855016" lon="144.24119038164696"><ele>652.0</ele><time>2026-03-21T23:58:07Z</time></trkpt><trkpt lat="-37.51398955996031" lon="144.24127483838254"><ele>652.0</ele><time>2026-03-21T23:58:08Z</time></trkpt><trkpt lat="-37.5139429261746" lon="144.24133815893396"><ele>652.0</ele><time>2026-03-21T23:58:09Z</time></trkpt><trkpt lat="-37.51388169084637" lon="144.24142143809496"><ele>652.0</ele><time>2026-03-21T23:58:11Z</time></trkpt><trkpt lat="-37.51390300333352" lon="144.24149736534534"><ele>652.0</ele><time>2026-03-21T23:58:17Z</time></trkpt><trkpt lat="-37.513854874095834" lon="144.24160651696133"><ele>652.0</ele><time>2026-03-21T23:58:22Z</time></trkpt><trkpt lat="-37.513825151713085" lon="144.24176466772767"><ele>651.5714285714286</ele><time>2026-03-21T23:58:24Z</time></trkpt><trkpt lat="-37.51380610750244" lon="144.2418794349288"><ele>651.1428571428571</ele><time>2026-03-21T23:58:25Z</time></trkpt><trkpt lat="-37.51379878432723" lon="144.241991694054"><ele>650.7142857142857</ele><time>2026-03-21T23:58:26Z</time></trkpt><trkpt lat="-37.51383233849125" lon="144.24206091233228"><ele>650.2857142857142</ele><time>2026-03-21T23:58:28Z</time></trkpt><trkpt lat="-37.51380041408622" lon="144.2421421299703"><ele>649.8571428571429</ele><time>2026-03-21T23:58:47Z</time></trkpt><trkpt lat="-37.51384168143764" lon="144.2422063724509"><ele>649.4285714285713</ele><time>2026-03-21T23:58:49Z</time></trkpt><trkpt lat="-37.51389885301679" lon="144.24224489484706"><ele>649.0</ele><time>2026-03-21T23:58:52Z</time></trkpt><trkpt lat="-37.51397033556668" lon="144.2423135042895"><ele>648.9999999999999</ele><time>2026-03-21T23:58:54Z</time></trkpt><trkpt lat="-37.51400974916314" lon="144.24237625560065"><ele>649.0</ele><time>2026-03-21T23:58:55Z</time></trkpt><trkpt lat="-37.51403881424051" lon="144.2424681967082"><ele>649.0</ele><time>2026-03-21T23:58:57Z</time></trkpt><trkpt lat="-37.51409581541438" lon="144.24251329751894"><ele>649.0</ele><time>2026-03-21T23:59:25Z</time></trkpt><trkpt lat="-37.514191129707" lon="144.24254838870334"><ele>649.0</ele><time>2026-03-21T23:59:28Z</time></trkpt><trkpt lat="-37.514250519682896" lon="144.24257539200877"><ele>648.9999999999999</ele><time>2026-03-21T23:59:30Z</time></trkpt><trkpt lat="-37.51429285031551" lon="144.2426415593212"><ele>649.0</ele><time>2026-03-21T23:59:33Z</time></trkpt><trkpt lat="-37.51435756741021" lon="144.24256953775452"><ele>649.0</ele><time>2026-03-21T23:59:36Z</time></trkpt><trkpt lat="-37.514380404095434" lon="144.2424757457392"><ele>649.0</ele><time>2026-03-21T23:59:38Z</time></trkpt><trkpt lat="-37.51444453461374" lon="144.2425086415308"><ele>649.0</ele><time>2026-03-21T23:59:40Z</time></trkpt><trkpt lat="-37.51453229213421" lon="144.24255425600913"><ele>649.0</ele><time>2026-03-21T23:59:42Z</time></trkpt><trkpt lat="-37.51459861408026" lon="144.24266271922696"><ele>649.0</ele><time>2026-03-21T23:59:44Z</time></trkpt><trkpt lat="-37.514644367696135" lon="144.24274020337285"><ele>649.0</ele><time>2026-03-21T23:59:45Z</time></trkpt><trkpt lat="-37.51472690129135" lon="144.24269955704787"><ele>647.3333333333334</ele><time>2026-03-21T23:59:47Z</time></trkpt><trkpt lat="-37.5148111847799" lon="144.24274265829706"><ele>645.6666666666667</ele><time>2026-03-21T23:59:49Z</time></trkpt><trkpt lat="-37.51489767742982" lon="144.24275861940328"><ele>644.0</ele><time>2026-03-21T23:59:53Z</time></trkpt><trkpt lat="-37.514991535885265" lon="144.24277104455948"><ele>642.3333333333334</ele><time>2026-03-21T23:59:56Z</time></trkpt><trkpt lat="-37.514969632969404" lon="144.24285600849623"><ele>640.6666666666666</ele><time>2026-03-22T00:00:00Z</time></trkpt><trkpt lat="-37.514957233689934" lon="144.24293408228473"><ele>639.0</ele><time>2026-03-22T00:00:03Z</time></trkpt><trkpt lat="-37.51495668127795" lon="144.24304485226304"><ele>640.4</ele><time>2026-03-22T00:00:05Z</time></trkpt><trkpt lat="-37.51497092576664" lon="144.24316539534237"><ele>641.8</ele><time>2026-03-22T00:00:07Z</time></trkpt><trkpt lat="-37.51493882049344" lon="144.24325298195038"><ele>643.1999999999999</ele><time>2026-03-22T00:00:09Z</time></trkpt><trkpt lat="-37.51491332526201" lon="144.2434207914734"><ele>644.5999999999999</ele><time>2026-03-22T00:00:11Z</time></trkpt><trkpt lat="-37.514917890568206" lon="144.24351401209458"><ele>646.0</ele><time>2026-03-22T00:00:12Z</time></trkpt><trkpt lat="-37.51489150422579" lon="144.24365816106044"><ele>646.0</ele><time>2026-03-22T00:00:14Z</time></trkpt><trkpt lat="-37.51491397433259" lon="144.24373956113075"><ele>646.0</ele><time>2026-03-22T00:00:15Z</time></trkpt><trkpt lat="-37.5150102567936" lon="144.24380007379975"><ele>646.0</ele><time>2026-03-22T00:00:17Z</time></trkpt><trkpt lat="-37.515096300693344" lon="144.24388973776345"><ele>646.0</ele><time>2026-03-22T00:00:19Z</time></trkpt><trkpt lat="-37.51517405040345" lon="144.2439714801931"><ele>646.0</ele><time>2026-03-22T00:00:21Z</time></trkpt><trkpt lat="-37.51524080392015" lon="144.24400116334573"><ele>646.0</ele><time>2026-03-22T00:00:23Z</time></trkpt><trkpt lat="-37.51529183672972" lon="144.2439312107325"><ele>646.0</ele><time>2026-03-22T00:00:27Z</time></trkpt><trkpt lat="-37.515383795071784" lon="144.24395237364504"><ele>646.0</ele><time>2026-03-22T00:00:31Z</time></trkpt><trkpt lat="-37.51539869288337" lon="144.2438510134966"><ele>646.0</ele><time>2026-03-22T00:00:39Z</time></trkpt><trkpt lat="-37.515411136020994" lon="144.24375374305907"><ele>646.0</ele><time>2026-03-22T00:00:41Z</time></trkpt><trkpt lat="-37.51547772260259" lon="144.24367255432145"><ele>646.0</ele><time>2026-03-22T00:00:43Z</time></trkpt><trkpt lat="-37.515545640334125" lon="144.2435851324384"><ele>644.5</ele><time>2026-03-22T00:00:45Z</time></trkpt><trkpt lat="-37.51557417970005" lon="144.24348218733172"><ele>643.0</ele><time>2026-03-22T00:00:47Z</time></trkpt><trkpt lat="-37.515635865836146" lon="144.24341101212167"><ele>641.5</ele><time>2026-03-22T00:00:49Z</time></trkpt><trkpt lat="-37.515703739394915" lon="144.2433773392738"><ele>640.0</ele><time>2026-03-22T00:00:51Z</time></trkpt><trkpt lat="-37.51576756188286" lon="144.24329737731367"><ele>638.5</ele><time>2026-03-22T00:00:53Z</time></trkpt><trkpt lat="-37.515807405555464" lon="144.24319197689044"><ele>637.0</ele><time>2026-03-22T00:00:56Z</time></trkpt><trkpt lat="-37.5158202158947" lon="144.2430962239954"><ele>636.0</ele><time>2026-03-22T00:00:58Z</time></trkpt><trkpt lat="-37.51578767264868" lon="144.24301696214758"><ele>635.0</ele><time>2026-03-22T00:01:01Z</time></trkpt><trkpt lat="-37.51578898826699" lon="144.24291766756528"><ele>634.0</ele><time>2026-03-22T00:01:06Z</time></trkpt><trkpt lat="-37.51585488762283" lon="144.24284199025908"><ele>633.0</ele><time>2026-03-22T00:01:10Z</time></trkpt><trkpt lat="-37.51593400338972" lon="144.24284069683333"><ele>632.0</ele><time>2026-03-22T00:01:13Z</time></trkpt><trkpt lat="-37.515997494291376" lon="144.24277714324106"><ele>631.0</ele><time>2026-03-22T00:01:15Z</time></trkpt><trkpt lat="-37.51606497958745" lon="144.24271337745364"><ele>631.0</ele><time>2026-03-22T00:01:18Z</time></trkpt><trkpt lat="-37.51615213934561" lon="144.24265257416394"><ele>631.0</ele><time>2026-03-22T00:01:21Z</time></trkpt><trkpt lat="-37.516207914346005" lon="144.24260357349397"><ele>631.0</ele><time>2026-03-22T00:01:25Z</time></trkpt><trkpt lat="-37.5162632881186" lon="144.24255314798148"><ele>631.0</ele><time>2026-03-22T00:01:31Z</time></trkpt><trkpt lat="-37.516326817988904" lon="144.2424965822924"><ele>631.0</ele><time>2026-03-22T00:01:33Z</time></trkpt><trkpt lat="-37.51639991810846" lon="144.24248187612034"><ele>631.0</ele><time>2026-03-22T00:01:37Z</time></trkpt><trkpt lat="-37.51648556877676" lon="144.2425085256222"><ele>631.5</ele><time>2026-03-22T00:01:40Z</time></trkpt><trkpt lat="-37.51653274425082" lon="144.242440075841"><ele>632.0</ele><time>2026-03-22T00:01:43Z</time></trkpt><trkpt lat="-37.51659031708877" lon="144.24239365143674"><ele>632.5</ele><time>2026-03-22T00:01:46Z</time></trkpt><trkpt lat="-37.51666257697209" lon="144.24244942275237"><ele>633.0</ele><time>2026-03-22T00:01:49Z</time></trkpt><trkpt lat="-37.51673118030896" lon="144.2425150540968"><ele>633.5</ele><time>2026-03-22T00:01:52Z</time></trkpt><trkpt lat="-37.51679230593537" lon="144.2425826598763"><ele>634.0</ele><time>2026-03-22T00:01:54Z</time></trkpt><trkpt lat="-37.51684904739335" lon="144.24262400186774"><ele>634.0</ele><time>2026-03-22T00:01:56Z</time></trkpt><trkpt lat="-37.5168718590661" lon="144.24271944493796"><ele>634.0</ele><time>2026-03-22T00:01:58Z</time></trkpt><trkpt lat="-37.51693379525769" lon="144.2427769161952"><ele>634.0</ele><time>2026-03-22T00:02:01Z</time></trkpt><trkpt lat="-37.51702496236138" lon="144.24277708918714"><ele>634.0</ele><time>2026-03-22T00:02:04Z</time></trkpt><trkpt lat="-37.517083461343155" lon="144.2428106594136"><ele>634.0</ele><time>2026-03-22T00:02:06Z</time></trkpt><trkpt lat="-37.51715265128892" lon="144.24280313247417"><ele>634.0</ele><time>2026-03-22T00:02:08Z</time></trkpt><trkpt lat="-37.51722093667636" lon="144.24277608334654"><ele>633.2857142857143</ele><time>2026-03-22T00:02:10Z</time></trkpt><trkpt lat="-37.51728578370001" lon="144.2428193285271"><ele>632.5714285714286</ele><time>2026-03-22T00:02:12Z</time></trkpt><trkpt lat="-37.51735702195361" lon="144.24283934315355"><ele>631.8571428571429</ele><time>2026-03-22T00:02:15Z</time></trkpt><trkpt lat="-37.51742144767248" lon="144.2428327640547"><ele>631.1428571428571</ele><time>2026-03-22T00:02:19Z</time></trkpt><trkpt lat="-37.51749482706086" lon="144.242861437695"><ele>630.4285714285714</ele><time>2026-03-22T00:02:21Z</time></trkpt><trkpt lat="-37.51756757733897" lon="144.24287950414742"><ele>629.7142857142857</ele><time>2026-03-22T00:02:23Z</time></trkpt><trkpt lat="-37.51763154027835" lon="144.24284385241998"><ele>629.0</ele><time>2026-03-22T00:02:26Z</time></trkpt><trkpt lat="-37.51758984340546" lon="144.24276663885828"><ele>629.0</ele><time>2026-03-22T00:02:30Z</time></trkpt><trkpt lat="-37.51755699091609" lon="144.24269226140956"><ele>629.0</ele><time>2026-03-22T00:02:34Z</time></trkpt><trkpt lat="-37.51753356421312" lon="144.24258797471413"><ele>629.0</ele><time>2026-03-22T00:02:37Z</time></trkpt><trkpt lat="-37.517564302198465" lon="144.24249880533276"><ele>629.0</ele><time>2026-03-22T00:02:40Z</time></trkpt><trkpt lat="-37.51761104711424" lon="144.24243856181687"><ele>629.0</ele><time>2026-03-22T00:02:47Z</time></trkpt><trkpt lat="-37.51753841644877" lon="144.24242961495102"><ele>629.0</ele><time>2026-03-22T00:02:51Z</time></trkpt><trkpt lat="-37.51755395623221" lon="144.24250883800522"><ele>629.0</ele><time>2026-03-22T00:06:02Z</time></trkpt><trkpt lat="-37.517544529559785" lon="144.24260763739602"><ele>629.0</ele><time>2026-03-22T00:06:06Z</time></trkpt><trkpt lat="-37.51757173703756" lon="144.24268377762263"><ele>629.0</ele><time>2026-03-22T00:12:42.001Z</time></trkpt><trkpt lat="-37.517608101488136" lon="144.24276462679663"><ele>629.0</ele><time>2026-03-22T00:12:45.001Z</time></trkpt><trkpt lat="-37.517623072985" lon="144.24285540116068"><ele>629.0</ele><time>2026-03-22T00:12:50.001Z</time></trkpt><trkpt lat="-37.51756132266338" lon="144.2428764244305"><ele>629.0</ele><time>2026-03-22T00:12:56.001Z</time></trkpt><trkpt lat="-37.517485131167746" lon="144.2428401811072"><ele>629.0</ele><time>2026-03-22T00:13:00.001Z</time></trkpt><trkpt lat="-37.51740374119385" lon="144.24284217864204"><ele>629.0</ele><time>2026-03-22T00:13:03.001Z</time></trkpt><trkpt lat="-37.517498920365966" lon="144.24286885963932"><ele>629.0</ele><time>2026-03-22T00:13:36Z</time></trkpt><trkpt lat="-37.517567464027714" lon="144.2428790604319"><ele>629.0</ele><time>2026-03-22T00:13:39Z</time></trkpt><trkpt lat="-37.517635031373665" lon="144.24286936018123"><ele>629.0</ele><time>2026-03-22T00:13:44Z</time></trkpt><trkpt lat="-37.51767701357375" lon="144.24279005821967"><ele>629.0</ele><time>2026-03-22T00:13:48Z</time></trkpt><trkpt lat="-37.51776797462215" lon="144.2427966197855"><ele>629.0</ele><time>2026-03-22T00:13:52Z</time></trkpt><trkpt lat="-37.517824298847636" lon="144.24283765351365"><ele>629.0</ele><time>2026-03-22T00:13:55Z</time></trkpt><trkpt lat="-37.51788723933965" lon="144.2428317893787"><ele>629.0</ele><time>2026-03-22T00:13:57Z</time></trkpt><trkpt lat="-37.51795554864787" lon="144.24287311471147"><ele>628.0</ele><time>2026-03-22T00:14:00Z</time></trkpt><trkpt lat="-37.51802650754674" lon="144.24289880824114"><ele>627.0</ele><time>2026-03-22T00:14:02Z</time></trkpt><trkpt lat="-37.51809589324927" lon="144.24289644202102"><ele>626.0</ele><time>2026-03-22T00:14:05Z</time></trkpt><trkpt lat="-37.51815697442674" lon="144.24287025528"><ele>625.0</ele><time>2026-03-22T00:14:07Z</time></trkpt><trkpt lat="-37.51824329012857" lon="144.24290021648397"><ele>624.0</ele><time>2026-03-22T00:14:09Z</time></trkpt><trkpt lat="-37.51833752190148" lon="144.24291223960225"><ele>623.0</ele><time>2026-03-22T00:14:11Z</time></trkpt><trkpt lat="-37.51841479021426" lon="144.2429432074437"><ele>623.0</ele><time>2026-03-22T00:14:13Z</time></trkpt><trkpt lat="-37.518482984048376" lon="144.24297961064207"><ele>623.0</ele><time>2026-03-22T00:14:15Z</time></trkpt><trkpt lat="-37.51855683120293" lon="144.2429760501861"><ele>623.0</ele><time>2026-03-22T00:14:18Z</time></trkpt><trkpt lat="-37.51859375802829" lon="144.24288215525488"><ele>623.0</ele><time>2026-03-22T00:14:21Z</time></trkpt><trkpt lat="-37.51865831553461" lon="144.2428301912439"><ele>623.0</ele><time>2026-03-22T00:14:24Z</time></trkpt><trkpt lat="-37.51875156818958" lon="144.24282970635312"><ele>623.0</ele><time>2026-03-22T00:14:28Z</time></trkpt><trkpt lat="-37.51884543414797" lon="144.24283710634472"><ele>621.5</ele><time>2026-03-22T00:14:31Z</time></trkpt><trkpt lat="-37.518889441259915" lon="144.24274493794323"><ele>620.0</ele><time>2026-03-22T00:14:33Z</time></trkpt><trkpt lat="-37.51894640264539" lon="144.24265961741733"><ele>618.5</ele><time>2026-03-22T00:14:37Z</time></trkpt><trkpt lat="-37.51900650928701" lon="144.2425890703934"><ele>617.0</ele><time>2026-03-22T00:14:39Z</time></trkpt><trkpt lat="-37.519084709187815" lon="144.24257044412047"><ele>615.5</ele><time>2026-03-22T00:14:42Z</time></trkpt><trkpt lat="-37.51915948567718" lon="144.24262789365144"><ele>614.0</ele><time>2026-03-22T00:14:45Z</time></trkpt><trkpt lat="-37.51922859473467" lon="144.242599335832"><ele>614.0</ele><time>2026-03-22T00:14:51Z</time></trkpt><trkpt lat="-37.519314130836044" lon="144.24261538152084"><ele>614.0</ele><time>2026-03-22T00:14:54Z</time></trkpt><trkpt lat="-37.51940208368326" lon="144.2425977787804"><ele>614.0</ele><time>2026-03-22T00:14:57Z</time></trkpt><trkpt lat="-37.51947932047297" lon="144.24256438601543"><ele>614.0</ele><time>2026-03-22T00:15:00Z</time></trkpt><trkpt lat="-37.51953396595846" lon="144.24260638939776"><ele>614.0</ele><time>2026-03-22T00:15:02Z</time></trkpt><trkpt lat="-37.519619657246594" lon="144.2426219803156"><ele>614.0</ele><time>2026-03-22T00:15:04Z</time></trkpt><trkpt lat="-37.51968007229927" lon="144.2425897978015"><ele>613.8571428571428</ele><time>2026-03-22T00:15:07Z</time></trkpt><trkpt lat="-37.51974909350301" lon="144.2426061865022"><ele>613.7142857142857</ele><time>2026-03-22T00:15:11Z</time></trkpt><trkpt lat="-37.5197951068539" lon="144.24267131508776"><ele>613.5714285714286</ele><time>2026-03-22T00:15:16Z</time></trkpt><trkpt lat="-37.519819247706465" lon="144.24276797216416"><ele>613.4285714285713</ele><time>2026-03-22T00:15:19Z</time></trkpt><trkpt lat="-37.519876898657145" lon="144.2428228720192"><ele>613.2857142857142</ele><time>2026-03-22T00:15:23Z</time></trkpt><trkpt lat="-37.5199307240914" lon="144.24277963720877"><ele>613.1428571428571</ele><time>2026-03-22T00:15:32Z</time></trkpt><trkpt lat="-37.52000856642495" lon="144.24273997769512"><ele>613.0</ele><time>2026-03-22T00:15:35Z</time></trkpt><trkpt lat="-37.520022383092275" lon="144.24263667290955"><ele>613.0</ele><time>2026-03-22T00:15:40Z</time></trkpt><trkpt lat="-37.520091698183265" lon="144.2426438108788"><ele>613.0</ele><time>2026-03-22T00:15:44Z</time></trkpt><trkpt lat="-37.52017405074129" lon="144.24266442179263"><ele>613.0</ele><time>2026-03-22T00:15:46Z</time></trkpt><trkpt lat="-37.52024192620597" lon="144.24270734696287"><ele>613.0</ele><time>2026-03-22T00:15:49Z</time></trkpt><trkpt lat="-37.52030167869422" lon="144.24266708212824"><ele>613.0</ele><time>2026-03-22T00:15:51Z</time></trkpt><trkpt lat="-37.52036076214442" lon="144.24261914501508"><ele>613.0</ele><time>2026-03-22T00:15:54Z</time></trkpt><trkpt lat="-37.520426257400764" lon="144.24263491146743"><ele>613.0</ele><time>2026-03-22T00:15:58Z</time></trkpt><trkpt lat="-37.5205064441765" lon="144.24263188335618"><ele>612.4285714285714</ele><time>2026-03-22T00:16:45Z</time></trkpt><trkpt lat="-37.52058358647348" lon="144.24264541490422"><ele>611.8571428571429</ele><time>2026-03-22T00:16:51Z</time></trkpt><trkpt lat="-37.52066116504447" lon="144.24265803003834"><ele>611.2857142857142</ele><time>2026-03-22T00:16:54Z</time></trkpt><trkpt lat="-37.52073070543382" lon="144.24263741187283"><ele>610.7142857142858</ele><time>2026-03-22T00:16:56Z</time></trkpt><trkpt lat="-37.520752287465" lon="144.2425446204229"><ele>610.1428571428571</ele><time>2026-03-22T00:17:01Z</time></trkpt><trkpt lat="-37.5207662229368" lon="144.24246285473836"><ele>609.5714285714286</ele><time>2026-03-22T00:17:04Z</time></trkpt><trkpt lat="-37.52080554594931" lon="144.24237656194222"><ele>609.0</ele><time>2026-03-22T00:17:07Z</time></trkpt><trkpt lat="-37.52087143423696" lon="144.24234212558537"><ele>609.0</ele><time>2026-03-22T00:17:10Z</time></trkpt><trkpt lat="-37.520948261907456" lon="144.24235594850424"><ele>609.0</ele><time>2026-03-22T00:17:13Z</time></trkpt><trkpt lat="-37.521024346952274" lon="144.24233609737038"><ele>609.0</ele><time>2026-03-22T00:17:15Z</time></trkpt><trkpt lat="-37.521108843843436" lon="144.2423261621828"><ele>609.0</ele><time>2026-03-22T00:17:18Z</time></trkpt><trkpt lat="-37.52118282271633" lon="144.24233572337096"><ele>609.0</ele><time>2026-03-22T00:17:20Z</time></trkpt><trkpt lat="-37.52124778700797" lon="144.24234495509515"><ele>609.0</ele><time>2026-03-22T00:17:22Z</time></trkpt><trkpt lat="-37.52132172415114" lon="144.24232462501365"><ele>608.7142857142857</ele><time>2026-03-22T00:17:25Z</time></trkpt><trkpt lat="-37.52139987654737" lon="144.24230914077657"><ele>608.4285714285714</ele><time>2026-03-22T00:17:27Z</time></trkpt><trkpt lat="-37.52146821048689" lon="144.2422675596892"><ele>608.1428571428571</ele><time>2026-03-22T00:17:29Z</time></trkpt><trkpt lat="-37.521539523707176" lon="144.24225523746225"><ele>607.8571428571429</ele><time>2026-03-22T00:17:31Z</time></trkpt><trkpt lat="-37.521604659181534" lon="144.24223348208832"><ele>607.5714285714286</ele><time>2026-03-22T00:17:33Z</time></trkpt><trkpt lat="-37.521674596619214" lon="144.24224023619172"><ele>607.2857142857142</ele><time>2026-03-22T00:17:37Z</time></trkpt><trkpt lat="-37.5217307497026" lon="144.24231458340785"><ele>607.0</ele><time>2026-03-22T00:17:40Z</time></trkpt><trkpt lat="-37.52171005521043" lon="144.24239549061835"><ele>607.0</ele><time>2026-03-22T00:17:42Z</time></trkpt><trkpt lat="-37.521772869927375" lon="144.2424368542777"><ele>607.0</ele><time>2026-03-22T00:17:45Z</time></trkpt><trkpt lat="-37.52183850151793" lon="144.24241752347677"><ele>607.0</ele><time>2026-03-22T00:17:47Z</time></trkpt><trkpt lat="-37.521933484934124" lon="144.24243049702247"><ele>607.0</ele><time>2026-03-22T00:17:49Z</time></trkpt><trkpt lat="-37.52199629750118" lon="144.24246438174882"><ele>607.0</ele><time>2026-03-22T00:17:51Z</time></trkpt><trkpt lat="-37.52208580671695" lon="144.24246970739068"><ele>607.0</ele><time>2026-03-22T00:17:56Z</time></trkpt><trkpt lat="-37.522188257188965" lon="144.24248403609738"><ele>606.5</ele><time>2026-03-22T00:17:58Z</time></trkpt><trkpt lat="-37.522273883756775" lon="144.24249303947863"><ele>606.0</ele><time>2026-03-22T00:18:01Z</time></trkpt><trkpt lat="-37.52234868635797" lon="144.24248808934217"><ele>605.5</ele><time>2026-03-22T00:18:03Z</time></trkpt><trkpt lat="-37.52244258791949" lon="144.2424578301964"><ele>605.0</ele><time>2026-03-22T00:18:06Z</time></trkpt><trkpt lat="-37.522518583602" lon="144.24239391677744"><ele>604.5</ele><time>2026-03-22T00:18:09Z</time></trkpt><trkpt lat="-37.522596062893896" lon="144.24237167559636"><ele>604.0</ele><time>2026-03-22T00:18:13Z</time></trkpt><trkpt lat="-37.5226631707258" lon="144.24239708307454"><ele>604.0</ele><time>2026-03-22T00:18:21Z</time></trkpt><trkpt lat="-37.52272578259947" lon="144.24235211143213"><ele>604.0</ele><time>2026-03-22T00:18:43Z</time></trkpt><trkpt lat="-37.522808237933006" lon="144.24235236892048"><ele>604.0</ele><time>2026-03-22T00:18:48Z</time></trkpt><trkpt lat="-37.52287224042569" lon="144.24238087931644"><ele>604.0</ele><time>2026-03-22T00:18:51Z</time></trkpt><trkpt lat="-37.522946695121675" lon="144.24240255190293"><ele>604.0</ele><time>2026-03-22T00:18:54Z</time></trkpt><trkpt lat="-37.52295303531104" lon="144.2424884408253"><ele>604.0</ele><time>2026-03-22T00:19:00Z</time></trkpt><trkpt lat="-37.522979100898475" lon="144.24261235533083"><ele>603.6666666666667</ele><time>2026-03-22T00:19:03Z</time></trkpt><trkpt lat="-37.52296970106227" lon="144.24271858445363"><ele>603.3333333333334</ele><time>2026-03-22T00:19:06Z</time></trkpt><trkpt lat="-37.52293164381366" lon="144.24285089906732"><ele>603.0</ele><time>2026-03-22T00:19:09Z</time></trkpt><trkpt lat="-37.52292469795664" lon="144.24293783771577"><ele>602.6666666666666</ele><time>2026-03-22T00:19:11Z</time></trkpt><trkpt lat="-37.52291536100066" lon="144.2430231062758"><ele>602.3333333333333</ele><time>2026-03-22T00:19:14Z</time></trkpt><trkpt lat="-37.5229425732384" lon="144.243115088201"><ele>602.0</ele><time>2026-03-22T00:19:18Z</time></trkpt><trkpt lat="-37.52297291556066" lon="144.24321401317482"><ele>604.1666666666666</ele><time>2026-03-22T00:19:21Z</time></trkpt><trkpt lat="-37.5230289788079" lon="144.24327370457817"><ele>606.3333333333333</ele><time>2026-03-22T00:19:29Z</time></trkpt><trkpt lat="-37.52308293080893" lon="144.24335697892792"><ele>608.5</ele><time>2026-03-22T00:19:30Z</time></trkpt><trkpt lat="-37.52315045850996" lon="144.24340249079444"><ele>610.6666666666666</ele><time>2026-03-22T00:19:32Z</time></trkpt><trkpt lat="-37.52319846306024" lon="144.24346128886623"><ele>612.8333333333334</ele><time>2026-03-22T00:19:36Z</time></trkpt><trkpt lat="-37.523152145942504" lon="144.24355557256348"><ele>615.0</ele><time>2026-03-22T00:19:39Z</time></trkpt><trkpt lat="-37.52312865180181" lon="144.24364632236467"><ele>615.0</ele><time>2026-03-22T00:19:41Z</time></trkpt><trkpt lat="-37.523130953036286" lon="144.2437932864704"><ele>615.0</ele><time>2026-03-22T00:19:43Z</time></trkpt><trkpt lat="-37.52310008769715" lon="144.24389507189497"><ele>615.0</ele><time>2026-03-22T00:19:44Z</time></trkpt><trkpt lat="-37.52312307704278" lon="144.2440230149513"><ele>615.0</ele><time>2026-03-22T00:19:46Z</time></trkpt><trkpt lat="-37.52307118631034" lon="144.24410499621584"><ele>615.0</ele><time>2026-03-22T00:19:50Z</time></trkpt><trkpt lat="-37.52300458609745" lon="144.24418181097502"><ele>616.1666666666666</ele><time>2026-03-22T00:19:52Z</time></trkpt><trkpt lat="-37.52300365679787" lon="144.24426735183278"><ele>617.3333333333334</ele><time>2026-03-22T00:20:08Z</time></trkpt><trkpt lat="-37.522917710430356" lon="144.2443315323664"><ele>618.5</ele><time>2026-03-22T00:20:11Z</time></trkpt><trkpt lat="-37.52292209890889" lon="144.24442271092022"><ele>619.6666666666667</ele><time>2026-03-22T00:20:13Z</time></trkpt><trkpt lat="-37.52287699853731" lon="144.24453469644382"><ele>620.8333333333334</ele><time>2026-03-22T00:20:15Z</time></trkpt><trkpt lat="-37.52281677030228" lon="144.2445637800968"><ele>622.0</ele><time>2026-03-22T00:20:19Z</time></trkpt><trkpt lat="-37.52278666760394" lon="144.2446740218194"><ele>623.5</ele><time>2026-03-22T00:20:27Z</time></trkpt><trkpt lat="-37.522726885238534" lon="144.24472148843049"><ele>625.0</ele><time>2026-03-22T00:20:31Z</time></trkpt><trkpt lat="-37.52267761928586" lon="144.2447958434829"><ele>626.5</ele><time>2026-03-22T00:20:34Z</time></trkpt><trkpt lat="-37.52271488492985" lon="144.2448606279526"><ele>628.0</ele><time>2026-03-22T00:20:37Z</time></trkpt><trkpt lat="-37.522790638283624" lon="144.24493017574963"><ele>629.5</ele><time>2026-03-22T00:20:40Z</time></trkpt><trkpt lat="-37.52279231604617" lon="144.2450329336822"><ele>631.0</ele><time>2026-03-22T00:20:43.001Z</time></trkpt><trkpt lat="-37.52274625254383" lon="144.2451032615109"><ele>631.0</ele><time>2026-03-22T00:20:45.001Z</time></trkpt><trkpt lat="-37.52268339272866" lon="144.24508933866554"><ele>631.0</ele><time>2026-03-22T00:20:47.001Z</time></trkpt><trkpt lat="-37.5226162204142" lon="144.2451205114154"><ele>631.0</ele><time>2026-03-22T00:20:49.001Z</time></trkpt><trkpt lat="-37.52256025712421" lon="144.2452434561653"><ele>631.0</ele><time>2026-03-22T00:20:51.001Z</time></trkpt><trkpt lat="-37.52247747423505" lon="144.24527407494188"><ele>631.0</ele><time>2026-03-22T00:20:53.001Z</time></trkpt><trkpt lat="-37.52240622508085" lon="144.24517656353805"><ele>631.0</ele><time>2026-03-22T00:20:55.001Z</time></trkpt><trkpt lat="-37.5223096978765" lon="144.24510572921577"><ele>631.0</ele><time>2026-03-22T00:20:57.001Z</time></trkpt><trkpt lat="-37.522221523781205" lon="144.24516818027672"><ele>631.0</ele><time>2026-03-22T00:20:59.001Z</time></trkpt><trkpt lat="-37.522173208862505" lon="144.24522978308886"><ele>631.0</ele><time>2026-03-22T00:21:01.001Z</time></trkpt><trkpt lat="-37.52211382149194" lon="144.24519503292584"><ele>631.0</ele><time>2026-03-22T00:21:06.001Z</time></trkpt><trkpt lat="-37.52205570712957" lon="144.24509798096906"><ele>631.0</ele><time>2026-03-22T00:22:23Z</time></trkpt><trkpt lat="-37.52200400234698" lon="144.24502674320104"><ele>631.0</ele><time>2026-03-22T00:22:24Z</time></trkpt><trkpt lat="-37.521938537632956" lon="144.24495064861503"><ele>631.5</ele><time>2026-03-22T00:22:25Z</time></trkpt><trkpt lat="-37.52186420153745" lon="144.24487076537167"><ele>632.0</ele><time>2026-03-22T00:22:26Z</time></trkpt><trkpt lat="-37.52176144535434" lon="144.24477736038742"><ele>632.5</ele><time>2026-03-22T00:22:27Z</time></trkpt><trkpt lat="-37.5216467561669" lon="144.2447101927464"><ele>633.0</ele><time>2026-03-22T00:22:28Z</time></trkpt><trkpt lat="-37.521529993462906" lon="144.24466131389346"><ele>632.0</ele><time>2026-03-22T00:22:29Z</time></trkpt><trkpt lat="-37.521417074265884" lon="144.24464344350343"><ele>631.0</ele><time>2026-03-22T00:22:30Z</time></trkpt><trkpt lat="-37.521300076894676" lon="144.24463757796437"><ele>630.0</ele><time>2026-03-22T00:22:31Z</time></trkpt><trkpt lat="-37.521165708386924" lon="144.24462509354203"><ele>629.0</ele><time>2026-03-22T00:22:32Z</time></trkpt><trkpt lat="-37.52103360672463" lon="144.24461246946774"><ele>627.75</ele><time>2026-03-22T00:22:33Z</time></trkpt><trkpt lat="-37.52090527756677" lon="144.24461175235268"><ele>626.5</ele><time>2026-03-22T00:22:34Z</time></trkpt><trkpt lat="-37.52078018221181" lon="144.24460148580954"><ele>625.25</ele><time>2026-03-22T00:22:35Z</time></trkpt><trkpt lat="-37.52064121816143" lon="144.24459305539563"><ele>624.0</ele><time>2026-03-22T00:22:36Z</time></trkpt><trkpt lat="-37.52050182745627" lon="144.24459798266972"><ele>624.0</ele><time>2026-03-22T00:22:37Z</time></trkpt><trkpt lat="-37.520351347334774" lon="144.24459661302217"><ele>624.0</ele><time>2026-03-22T00:22:38Z</time></trkpt><trkpt lat="-37.52020211211386" lon="144.24459751367056"><ele>624.0</ele><time>2026-03-22T00:22:39Z</time></trkpt><trkpt lat="-37.520047805219235" lon="144.2445882450471"><ele>624.0</ele><time>2026-03-22T00:22:40Z</time></trkpt><trkpt lat="-37.519881692612586" lon="144.24458798164613"><ele>624.0</ele><time>2026-03-22T00:22:41Z</time></trkpt><trkpt lat="-37.5197287579614" lon="144.24457397334996"><ele>624.0</ele><time>2026-03-22T00:22:42Z</time></trkpt><trkpt lat="-37.519580185013474" lon="144.24455798771854"><ele>625.0</ele><time>2026-03-22T00:22:43Z</time></trkpt><trkpt lat="-37.51944704581734" lon="144.24453898334542"><ele>626.0</ele><time>2026-03-22T00:22:44Z</time></trkpt><trkpt lat="-37.51929375251756" lon="144.2445317423225"><ele>627.0</ele><time>2026-03-22T00:22:45Z</time></trkpt><trkpt lat="-37.51914433550651" lon="144.24452320415577"><ele>628.0</ele><time>2026-03-22T00:22:46Z</time></trkpt><trkpt lat="-37.51899807317792" lon="144.24451593566963"><ele>628.0</ele><time>2026-03-22T00:22:47Z</time></trkpt><trkpt lat="-37.51886251289767" lon="144.24451478697094"><ele>628.0</ele><time>2026-03-22T00:22:48Z</time></trkpt><trkpt lat="-37.51872990295032" lon="144.24452803787082"><ele>628.0</ele><time>2026-03-22T00:22:49Z</time></trkpt><trkpt lat="-37.518577720339124" lon="144.2445477334886"><ele>628.0</ele><time>2026-03-22T00:22:50Z</time></trkpt><trkpt lat="-37.518419091865205" lon="144.24457273426452"><ele>628.6666666666667</ele><time>2026-03-22T00:22:51Z</time></trkpt><trkpt lat="-37.51824652015789" lon="144.24461489844438"><ele>629.3333333333334</ele><time>2026-03-22T00:22:52Z</time></trkpt><trkpt lat="-37.51810694082927" lon="144.24466044135988"><ele>630.0</ele><time>2026-03-22T00:22:53Z</time></trkpt><trkpt lat="-37.51796792783491" lon="144.24468986486468"><ele>632.0</ele><time>2026-03-22T00:22:54Z</time></trkpt><trkpt lat="-37.517828807388746" lon="144.24471458613525"><ele>634.0</ele><time>2026-03-22T00:22:55Z</time></trkpt><trkpt lat="-37.51766419875863" lon="144.24472031196848"><ele>636.0</ele><time>2026-03-22T00:22:56Z</time></trkpt><trkpt lat="-37.517505545796666" lon="144.24470813758143"><ele>636.0</ele><time>2026-03-22T00:22:57Z</time></trkpt><trkpt lat="-37.517364640325994" lon="144.24469759254137"><ele>636.0</ele><time>2026-03-22T00:22:58Z</time></trkpt><trkpt lat="-37.517218363679696" lon="144.2446712089888"><ele>636.0</ele><time>2026-03-22T00:22:59Z</time></trkpt><trkpt lat="-37.51706638199429" lon="144.2446440723665"><ele>636.0</ele><time>2026-03-22T00:23:00Z</time></trkpt><trkpt lat="-37.51693114881846" lon="144.24463212824057"><ele>637.75</ele><time>2026-03-22T00:23:01Z</time></trkpt><trkpt lat="-37.51680259762243" lon="144.24460864245265"><ele>639.5</ele><time>2026-03-22T00:23:02Z</time></trkpt><trkpt lat="-37.51666132088079" lon="144.24459373512923"><ele>641.25</ele><time>2026-03-22T00:23:03Z</time></trkpt><trkpt lat="-37.51651932080757" lon="144.244596058987"><ele>643.0</ele><time>2026-03-22T00:23:04Z</time></trkpt><trkpt lat="-37.51636962662272" lon="144.24462155213175"><ele>644.25</ele><time>2026-03-22T00:23:05Z</time></trkpt><trkpt lat="-37.51621055805178" lon="144.24465037077078"><ele>645.5</ele><time>2026-03-22T00:23:06Z</time></trkpt><trkpt lat="-37.5160754784177" lon="144.24467275804815"><ele>646.75</ele><time>2026-03-22T00:23:07Z</time></trkpt><trkpt lat="-37.51596100627085" lon="144.2447020802677"><ele>648.0</ele><time>2026-03-22T00:23:08Z</time></trkpt><trkpt lat="-37.51585179436584" lon="144.24472632492973"><ele>648.0</ele><time>2026-03-22T00:23:09Z</time></trkpt><trkpt lat="-37.51573699574467" lon="144.24475132573232"><ele>648.0</ele><time>2026-03-22T00:23:10Z</time></trkpt><trkpt lat="-37.51561815905021" lon="144.24478849772822"><ele>648.0</ele><time>2026-03-22T00:23:11Z</time></trkpt><trkpt lat="-37.51549773927293" lon="144.24481888255426"><ele>648.0</ele><time>2026-03-22T00:23:12Z</time></trkpt><trkpt lat="-37.51537758672677" lon="144.2448446597483"><ele>650.2</ele><time>2026-03-22T00:23:13Z</time></trkpt><trkpt lat="-37.51527400677949" lon="144.24487214839078"><ele>652.4</ele><time>2026-03-22T00:23:14Z</time></trkpt><trkpt lat="-37.5151736250113" lon="144.2448951570784"><ele>654.6</ele><time>2026-03-22T00:23:15Z</time></trkpt><trkpt lat="-37.51507440951801" lon="144.24492265117894"><ele>656.8000000000001</ele><time>2026-03-22T00:23:16Z</time></trkpt><trkpt lat="-37.514978930908505" lon="144.24494921377342"><ele>659.0</ele><time>2026-03-22T00:23:17Z</time></trkpt><trkpt lat="-37.514885667735925" lon="144.2449608456806"><ele>659.0</ele><time>2026-03-22T00:23:18Z</time></trkpt><trkpt lat="-37.51480835599075" lon="144.24497768097942"><ele>659.0</ele><time>2026-03-22T00:23:19Z</time></trkpt><trkpt lat="-37.51470976901478" lon="144.24499782108086"><ele>659.0</ele><time>2026-03-22T00:23:21Z</time></trkpt><trkpt lat="-37.51467819929515" lon="144.24506678289526"><ele>659.0</ele><time>2026-03-22T00:23:25Z</time></trkpt><trkpt lat="-37.514693329647464" lon="144.24516604875416"><ele>659.0</ele><time>2026-03-22T00:23:28Z</time></trkpt><trkpt lat="-37.51466687893022" lon="144.2452597318287"><ele>659.0</ele><time>2026-03-22T00:23:31Z</time></trkpt><trkpt lat="-37.51466239026976" lon="144.24535898382393"><ele>659.0</ele><time>2026-03-22T00:23:34Z</time></trkpt><trkpt lat="-37.51468687711461" lon="144.2454990586717"><ele>659.0</ele><time>2026-03-22T00:23:36Z</time></trkpt><trkpt lat="-37.51471670296439" lon="144.24558595253026"><ele>659.0</ele><time>2026-03-22T00:23:38Z</time></trkpt><trkpt lat="-37.51474757115781" lon="144.24566647982613"><ele>659.0</ele><time>2026-03-22T00:23:40Z</time></trkpt><trkpt lat="-37.51470976866572" lon="144.24573814488616"><ele>659.0</ele><time>2026-03-22T00:23:42Z</time></trkpt><trkpt lat="-37.51469434654526" lon="144.24585573595505"><ele>659.0</ele><time>2026-03-22T00:23:44Z</time></trkpt><trkpt lat="-37.51470688728956" lon="144.24596660395966"><ele>658.6666666666666</ele><time>2026-03-22T00:23:45Z</time></trkpt><trkpt lat="-37.51470776210703" lon="144.24608350034856"><ele>658.3333333333333</ele><time>2026-03-22T00:23:46Z</time></trkpt><trkpt lat="-37.51470429678571" lon="144.24619218230737"><ele>658.0</ele><time>2026-03-22T00:23:47Z</time></trkpt><trkpt lat="-37.514691774301575" lon="144.24629913883666"><ele>657.6666666666666</ele><time>2026-03-22T00:23:48Z</time></trkpt><trkpt lat="-37.514692744253274" lon="144.24642116313353"><ele>657.3333333333334</ele><time>2026-03-22T00:23:49Z</time></trkpt><trkpt lat="-37.514695998580066" lon="144.24652352836938"><ele>657.0</ele><time>2026-03-22T00:23:50Z</time></trkpt><trkpt lat="-37.51469112014406" lon="144.24661870730142"><ele>655.75</ele><time>2026-03-22T00:23:51Z</time></trkpt><trkpt lat="-37.51468298569164" lon="144.24672823858597"><ele>654.5</ele><time>2026-03-22T00:23:52Z</time></trkpt><trkpt lat="-37.514681469965375" lon="144.24683336916732"><ele>653.25</ele><time>2026-03-22T00:23:53Z</time></trkpt><trkpt lat="-37.51468567818453" lon="144.24693016653094"><ele>652.0</ele><time>2026-03-22T00:23:54Z</time></trkpt><trkpt lat="-37.514707866821915" lon="144.2471865643465"><ele>650.4000000000001</ele><time>2026-03-22T00:23:56Z</time></trkpt><trkpt lat="-37.51471051420601" lon="144.24729872174478"><ele>648.8000000000001</ele><time>2026-03-22T00:23:57Z</time></trkpt><trkpt lat="-37.51474038337934" lon="144.2473806610972"><ele>647.2</ele><time>2026-03-22T00:23:58Z</time></trkpt><trkpt lat="-37.514767418127214" lon="144.24749433737315"><ele>645.6</ele><time>2026-03-22T00:23:59Z</time></trkpt><trkpt lat="-37.51480427964739" lon="144.24762068026206"><ele>644.0</ele><time>2026-03-22T00:24:00Z</time></trkpt><trkpt lat="-37.51481738084259" lon="144.24773238624576"><ele>644.0</ele><time>2026-03-22T00:24:01Z</time></trkpt><trkpt lat="-37.5148287197975" lon="144.24785249625558"><ele>644.0</ele><time>2026-03-22T00:24:02Z</time></trkpt><trkpt lat="-37.51483677458603" lon="144.2479517533365"><ele>644.0</ele><time>2026-03-22T00:24:03Z</time></trkpt><trkpt lat="-37.51485477947981" lon="144.2481051479864"><ele>644.0</ele><time>2026-03-22T00:24:05Z</time></trkpt><trkpt lat="-37.51484764490672" lon="144.24823104205367"><ele>644.0</ele><time>2026-03-22T00:24:07Z</time></trkpt><trkpt lat="-37.5148499961262" lon="144.24833206906462"><ele>642.6</ele><time>2026-03-22T00:24:08Z</time></trkpt><trkpt lat="-37.51486212248815" lon="144.2484137503531"><ele>641.2</ele><time>2026-03-22T00:24:09Z</time></trkpt><trkpt lat="-37.51486467959072" lon="144.24853484377385"><ele>639.8000000000001</ele><time>2026-03-22T00:24:11Z</time></trkpt><trkpt lat="-37.51487738055942" lon="144.24862792087217"><ele>638.4000000000001</ele><time>2026-03-22T00:24:13Z</time></trkpt><trkpt lat="-37.51486674263661" lon="144.248764526208"><ele>637.0</ele><time>2026-03-22T00:24:15Z</time></trkpt><trkpt lat="-37.51484391902615" lon="144.24889453127818"><ele>636.3333333333334</ele><time>2026-03-22T00:24:17Z</time></trkpt><trkpt lat="-37.514824645581555" lon="144.24902592016974"><ele>635.6666666666667</ele><time>2026-03-22T00:24:19Z</time></trkpt><trkpt lat="-37.514802929502075" lon="144.2491262875323"><ele>635.0</ele><time>2026-03-22T00:24:22Z</time></trkpt><trkpt lat="-37.51475133128128" lon="144.24918779435095"><ele>634.3333333333334</ele><time>2026-03-22T00:24:24Z</time></trkpt><trkpt lat="-37.51470478268988" lon="144.24928406862801"><ele>633.6666666666666</ele><time>2026-03-22T00:24:26Z</time></trkpt><trkpt lat="-37.51477916395542" lon="144.24935766611324"><ele>633.0</ele><time>2026-03-22T00:24:28Z</time></trkpt><trkpt lat="-37.51482592956553" lon="144.24941393864648"><ele>633.0</ele><time>2026-03-22T00:24:30Z</time></trkpt><trkpt lat="-37.51483278042638" lon="144.24959090357032"><ele>633.0</ele><time>2026-03-22T00:24:32Z</time></trkpt><trkpt lat="-37.514839167493356" lon="144.2497166316298"><ele>633.0</ele><time>2026-03-22T00:24:33Z</time></trkpt><trkpt lat="-37.514838813573" lon="144.24980855712533"><ele>633.0</ele><time>2026-03-22T00:24:34Z</time></trkpt><trkpt lat="-37.51484541337465" lon="144.24991069408838"><ele>633.0</ele><time>2026-03-22T00:24:38Z</time></trkpt><trkpt lat="-37.51482592736102" lon="144.24999590867438"><ele>633.5</ele><time>2026-03-22T00:24:44Z</time></trkpt><trkpt lat="-37.51476340128336" lon="144.25005138860777"><ele>634.0</ele><time>2026-03-22T00:24:50Z</time></trkpt><trkpt lat="-37.51470393104981" lon="144.2501246998286"><ele>634.5</ele><time>2026-03-22T00:24:53Z</time></trkpt><trkpt lat="-37.51463010396208" lon="144.25018942688465"><ele>635.0</ele><time>2026-03-22T00:24:55Z</time></trkpt><trkpt lat="-37.514577911023466" lon="144.25023922273394"><ele>635.5</ele><time>2026-03-22T00:24:56Z</time></trkpt><trkpt lat="-37.5144799900252" lon="144.25032222556038"><ele>636.0</ele><time>2026-03-22T00:24:58Z</time></trkpt><trkpt lat="-37.51437213184802" lon="144.2503401985854"><ele>636.0</ele><time>2026-03-22T00:25:01Z</time></trkpt><trkpt lat="-37.51434437766803" lon="144.25041899835185"><ele>636.0</ele><time>2026-03-22T00:25:03Z</time></trkpt><trkpt lat="-37.51427786369342" lon="144.2505734739419"><ele>636.0</ele><time>2026-03-22T00:25:05Z</time></trkpt><trkpt lat="-37.51418574276268" lon="144.25065538934984"><ele>636.0</ele><time>2026-03-22T00:25:06Z</time></trkpt><trkpt lat="-37.51408402948863" lon="144.25074246153721"><ele>636.0</ele><time>2026-03-22T00:25:07Z</time></trkpt><trkpt lat="-37.51403375614967" lon="144.25082579675447"><ele>634.1666666666666</ele><time>2026-03-22T00:25:08Z</time></trkpt><trkpt lat="-37.51401145031778" lon="144.25091857585224"><ele>632.3333333333334</ele><time>2026-03-22T00:25:09Z</time></trkpt><trkpt lat="-37.51396200933638" lon="144.25101130412804"><ele>630.5</ele><time>2026-03-22T00:25:11Z</time></trkpt><trkpt lat="-37.51387620856416" lon="144.25109548622183"><ele>628.6666666666667</ele><time>2026-03-22T00:25:13Z</time></trkpt><trkpt lat="-37.513861564174334" lon="144.25120882068637"><ele>626.8333333333334</ele><time>2026-03-22T00:25:15Z</time></trkpt><trkpt lat="-37.51392214994653" lon="144.25117319048542"><ele>625.0</ele><time>2026-03-22T00:25:24Z</time></trkpt><trkpt lat="-37.51398089038577" lon="144.25123799619237"><ele>625.0</ele><time>2026-03-22T00:25:26Z</time></trkpt><trkpt lat="-37.51401977449295" lon="144.2513005698342"><ele>625.0</ele><time>2026-03-22T00:25:28Z</time></trkpt><trkpt lat="-37.51408527693415" lon="144.25133882181186"><ele>625.0</ele><time>2026-03-22T00:25:30Z</time></trkpt><trkpt lat="-37.514186470385745" lon="144.2513565650234"><ele>625.0</ele><time>2026-03-22T00:25:32Z</time></trkpt><trkpt lat="-37.514288430804065" lon="144.25141029694433"><ele>625.0</ele><time>2026-03-22T00:25:34Z</time></trkpt><trkpt lat="-37.514372056067074" lon="144.2513876341575"><ele>625.0</ele><time>2026-03-22T00:25:36Z</time></trkpt><trkpt lat="-37.51442499138442" lon="144.2513244605631"><ele>625.0</ele><time>2026-03-22T00:25:37Z</time></trkpt><trkpt lat="-37.51446616251915" lon="144.25125705153164"><ele>625.0</ele><time>2026-03-22T00:25:38Z</time></trkpt><trkpt lat="-37.51453494965085" lon="144.25128642765137"><ele>625.0</ele><time>2026-03-22T00:25:40Z</time></trkpt><trkpt lat="-37.514577307466695" lon="144.25136022361238"><ele>625.0</ele><time>2026-03-22T00:25:41Z</time></trkpt><trkpt lat="-37.514673964303604" lon="144.2514114080715"><ele>625.0</ele><time>2026-03-22T00:25:43Z</time></trkpt><trkpt lat="-37.514742798475034" lon="144.25151484015376"><ele>625.0</ele><time>2026-03-22T00:25:45Z</time></trkpt><trkpt lat="-37.51485245956298" lon="144.25157477460886"><ele>624.2</ele><time>2026-03-22T00:25:47Z</time></trkpt><trkpt lat="-37.514940594319555" lon="144.2515841057105"><ele>623.4</ele><time>2026-03-22T00:25:49Z</time></trkpt><trkpt lat="-37.51500062713559" lon="144.25153737383607"><ele>622.6</ele><time>2026-03-22T00:25:51Z</time></trkpt><trkpt lat="-37.515036456505456" lon="144.25143149378349"><ele>621.8</ele><time>2026-03-22T00:25:53Z</time></trkpt><trkpt lat="-37.5151271764865" lon="144.25139059129518"><ele>621.0</ele><time>2026-03-22T00:25:55Z</time></trkpt><trkpt lat="-37.515243346117195" lon="144.2513680407304"><ele>621.0</ele><time>2026-03-22T00:25:57Z</time></trkpt><trkpt lat="-37.51531519139516" lon="144.25139542429488"><ele>621.0</ele><time>2026-03-22T00:25:59Z</time></trkpt><trkpt lat="-37.51527601924033" lon="144.2514903874038"><ele>621.0</ele><time>2026-03-22T00:26:01Z</time></trkpt><trkpt lat="-37.51522975002751" lon="144.25163423956172"><ele>621.0</ele><time>2026-03-22T00:26:03Z</time></trkpt><trkpt lat="-37.51521049490403" lon="144.25174292690716"><ele>621.0</ele><time>2026-03-22T00:26:05Z</time></trkpt><trkpt lat="-37.51522975253971" lon="144.25182295609912"><ele>621.0</ele><time>2026-03-22T00:26:07Z</time></trkpt><trkpt lat="-37.51531256669251" lon="144.25181746938972"><ele>620.6666666666666</ele><time>2026-03-22T00:26:09Z</time></trkpt><trkpt lat="-37.515374337220905" lon="144.25178429756136"><ele>620.3333333333334</ele><time>2026-03-22T00:26:12Z</time></trkpt><trkpt lat="-37.515458196060145" lon="144.25177022081579"><ele>620.0</ele><time>2026-03-22T00:26:15Z</time></trkpt><trkpt lat="-37.51552864511545" lon="144.25177310054227"><ele>619.6666666666667</ele><time>2026-03-22T00:26:17Z</time></trkpt><trkpt lat="-37.515619865852976" lon="144.25185140123054"><ele>619.3333333333334</ele><time>2026-03-22T00:26:20Z</time></trkpt><trkpt lat="-37.515681812353364" lon="144.25194851626273"><ele>619.0</ele><time>2026-03-22T00:26:22Z</time></trkpt><trkpt lat="-37.5157407537373" lon="144.25202248911648"><ele>619.0</ele><time>2026-03-22T00:26:24Z</time></trkpt><trkpt lat="-37.51568147929922" lon="144.2521705355216"><ele>619.0</ele><time>2026-03-22T00:26:26Z</time></trkpt><trkpt lat="-37.51564972474424" lon="144.25225449583692"><ele>619.0</ele><time>2026-03-22T00:26:27Z</time></trkpt><trkpt lat="-37.51568162822906" lon="144.2523611032744"><ele>619.0</ele><time>2026-03-22T00:26:29Z</time></trkpt><trkpt lat="-37.51569930704512" lon="144.25244611232918"><ele>619.0</ele><time>2026-03-22T00:26:30Z</time></trkpt><trkpt lat="-37.51568340305847" lon="144.25252310386674"><ele>619.0</ele><time>2026-03-22T00:26:31Z</time></trkpt><trkpt lat="-37.51562161245833" lon="144.25256641838567"><ele>618.8333333333334</ele><time>2026-03-22T00:26:32Z</time></trkpt><trkpt lat="-37.51557211233392" lon="144.25261646794593"><ele>618.6666666666667</ele><time>2026-03-22T00:26:33Z</time></trkpt><trkpt lat="-37.515556794060494" lon="144.2527102804535"><ele>618.5</ele><time>2026-03-22T00:26:35Z</time></trkpt><trkpt lat="-37.51559145665021" lon="144.2528167220148"><ele>618.3333333333334</ele><time>2026-03-22T00:26:37Z</time></trkpt><trkpt lat="-37.5156182860977" lon="144.25290246866322"><ele>618.1666666666666</ele><time>2026-03-22T00:26:38Z</time></trkpt><trkpt lat="-37.51565706504655" lon="144.25298730926997"><ele>618.0</ele><time>2026-03-22T00:26:39Z</time></trkpt><trkpt lat="-37.51570958505156" lon="144.25307032030938"><ele>617.6666666666666</ele><time>2026-03-22T00:26:40Z</time></trkpt><trkpt lat="-37.51575727075266" lon="144.25317818167113"><ele>617.3333333333334</ele><time>2026-03-22T00:26:42Z</time></trkpt><trkpt lat="-37.515794530832935" lon="144.2532582279178"><ele>617.0</ele><time>2026-03-22T00:26:44Z</time></trkpt><trkpt lat="-37.51585829614881" lon="144.25330031552483"><ele>616.6666666666667</ele><time>2026-03-22T00:26:45Z</time></trkpt><trkpt lat="-37.51593946350646" lon="144.2533795749835"><ele>616.3333333333334</ele><time>2026-03-22T00:26:47Z</time></trkpt><trkpt lat="-37.51597632359256" lon="144.25347130650093"><ele>616.0</ele><time>2026-03-22T00:26:50Z</time></trkpt><trkpt lat="-37.515984335149575" lon="144.2535576651191"><ele>616.0</ele><time>2026-03-22T00:27:01Z</time></trkpt><trkpt lat="-37.51592272169027" lon="144.25363644217694"><ele>616.0</ele><time>2026-03-22T00:27:04Z</time></trkpt><trkpt lat="-37.51587028794084" lon="144.2537353645144"><ele>616.0</ele><time>2026-03-22T00:27:06Z</time></trkpt><trkpt lat="-37.515850362928795" lon="144.2538126050426"><ele>616.0</ele><time>2026-03-22T00:27:07Z</time></trkpt><trkpt lat="-37.51583430820661" lon="144.25389472201246"><ele>616.0</ele><time>2026-03-22T00:27:08Z</time></trkpt><trkpt lat="-37.51577251220058" lon="144.25402400335582"><ele>616.0</ele><time>2026-03-22T00:27:10Z</time></trkpt><trkpt lat="-37.515733396149756" lon="144.25409284465596"><ele>615.8</ele><time>2026-03-22T00:27:11Z</time></trkpt><trkpt lat="-37.51571547274116" lon="144.25422783326025"><ele>615.6</ele><time>2026-03-22T00:27:12Z</time></trkpt><trkpt lat="-37.51570022047387" lon="144.2543616444492"><ele>615.4</ele><time>2026-03-22T00:27:13Z</time></trkpt><trkpt lat="-37.51570673548677" lon="144.25449871163175"><ele>615.2</ele><time>2026-03-22T00:27:14Z</time></trkpt><trkpt lat="-37.51572508609675" lon="144.25461052108508"><ele>615.0</ele><time>2026-03-22T00:27:15Z</time></trkpt><trkpt lat="-37.515763083733695" lon="144.25472450884115"><ele>613.4</ele><time>2026-03-22T00:27:16Z</time></trkpt><trkpt lat="-37.51581188641039" lon="144.25484511255183"><ele>611.8</ele><time>2026-03-22T00:27:17Z</time></trkpt><trkpt lat="-37.51587305095072" lon="144.25494564145967"><ele>610.2</ele><time>2026-03-22T00:27:18Z</time></trkpt><trkpt lat="-37.51594451030816" lon="144.25505343298855"><ele>608.6</ele><time>2026-03-22T00:27:19Z</time></trkpt><trkpt lat="-37.51600651676772" lon="144.2551746701797"><ele>607.0</ele><time>2026-03-22T00:27:20Z</time></trkpt><trkpt lat="-37.516047163489134" lon="144.25528696330977"><ele>607.0</ele><time>2026-03-22T00:27:21Z</time></trkpt><trkpt lat="-37.516095885900995" lon="144.25539348035676"><ele>607.0</ele><time>2026-03-22T00:27:22Z</time></trkpt><trkpt lat="-37.51615289427184" lon="144.25548109377172"><ele>607.0</ele><time>2026-03-22T00:27:23Z</time></trkpt><trkpt lat="-37.51624654767433" lon="144.2555615298662"><ele>607.0</ele><time>2026-03-22T00:27:25Z</time></trkpt><trkpt lat="-37.51629812861106" lon="144.2556113378341"><ele>607.0</ele><time>2026-03-22T00:27:26Z</time></trkpt><trkpt lat="-37.516430753267635" lon="144.25570782608887"><ele>607.6</ele><time>2026-03-22T00:27:28Z</time></trkpt><trkpt lat="-37.51653411701736" lon="144.25578327582252"><ele>608.2</ele><time>2026-03-22T00:27:29Z</time></trkpt><trkpt lat="-37.516605634549656" lon="144.2558586193957"><ele>608.8</ele><time>2026-03-22T00:27:30Z</time></trkpt><trkpt lat="-37.51667460386088" lon="144.2559374962323"><ele>609.4</ele><time>2026-03-22T00:27:31Z</time></trkpt><trkpt lat="-37.51672431677263" lon="144.25608788492667"><ele>610.0</ele><time>2026-03-22T00:27:33Z</time></trkpt><trkpt lat="-37.51677952125371" lon="144.2561367530676"><ele>610.0</ele><time>2026-03-22T00:27:35Z</time></trkpt><trkpt lat="-37.516849798486454" lon="144.25618729849182"><ele>610.0</ele><time>2026-03-22T00:27:51Z</time></trkpt><trkpt lat="-37.51691701481696" lon="144.2562125903648"><ele>610.0</ele><time>2026-03-22T00:27:52Z</time></trkpt><trkpt lat="-37.51701645840891" lon="144.2562381029418"><ele>610.0</ele><time>2026-03-22T00:27:53Z</time></trkpt><trkpt lat="-37.51713961105869" lon="144.25628884121977"><ele>610.0</ele><time>2026-03-22T00:27:54Z</time></trkpt><trkpt lat="-37.517254708564664" lon="144.25635464911136"><ele>610.6</ele><time>2026-03-22T00:27:55Z</time></trkpt><trkpt lat="-37.51733876267809" lon="144.25639467426336"><ele>611.2</ele><time>2026-03-22T00:27:56Z</time></trkpt><trkpt lat="-37.51747453284782" lon="144.25635339711212"><ele>611.8</ele><time>2026-03-22T00:27:58Z</time></trkpt><trkpt lat="-37.517585077660975" lon="144.25628647530004"><ele>612.4</ele><time>2026-03-22T00:27:59Z</time></trkpt><trkpt lat="-37.51764925859216" lon="144.2562135112395"><ele>613.0</ele><time>2026-03-22T00:28:00Z</time></trkpt><trkpt lat="-37.51771769161233" lon="144.25607658879727"><ele>613.0</ele><time>2026-03-22T00:28:01Z</time></trkpt><trkpt lat="-37.517785403261655" lon="144.25593997649247"><ele>613.0</ele><time>2026-03-22T00:28:02Z</time></trkpt><trkpt lat="-37.51786744706485" lon="144.2558082994151"><ele>613.0</ele><time>2026-03-22T00:28:03Z</time></trkpt><trkpt lat="-37.517978556168536" lon="144.2556860857882"><ele>613.0</ele><time>2026-03-22T00:28:04Z</time></trkpt><trkpt lat="-37.51805828272735" lon="144.25558817440415"><ele>615.25</ele><time>2026-03-22T00:28:05Z</time></trkpt><trkpt lat="-37.51811795615117" lon="144.2554915392458"><ele>617.5</ele><time>2026-03-22T00:28:09Z</time></trkpt><trkpt lat="-37.518172592723005" lon="144.25543602214563"><ele>619.75</ele><time>2026-03-22T00:28:10Z</time></trkpt><trkpt lat="-37.51836477440159" lon="144.25526984331077"><ele>622.0</ele><time>2026-03-22T00:28:12Z</time></trkpt><trkpt lat="-37.51848998302578" lon="144.25514929099927"><ele>622.0</ele><time>2026-03-22T00:28:13Z</time></trkpt><trkpt lat="-37.518550288495106" lon="144.25506240368182"><ele>622.0</ele><time>2026-03-22T00:28:14Z</time></trkpt><trkpt lat="-37.51860387231272" lon="144.25494836342963"><ele>622.0</ele><time>2026-03-22T00:28:16Z</time></trkpt><trkpt lat="-37.5186109295401" lon="144.25483747918233"><ele>622.0</ele><time>2026-03-22T00:28:17Z</time></trkpt><trkpt lat="-37.5186252239244" lon="144.25471944717282"><ele>622.0</ele><time>2026-03-22T00:28:18Z</time></trkpt><trkpt lat="-37.51862913868567" lon="144.2546236590212"><ele>624.1666666666667</ele><time>2026-03-22T00:28:19Z</time></trkpt><trkpt lat="-37.518600514790904" lon="144.25455128573552"><ele>626.3333333333334</ele><time>2026-03-22T00:28:21Z</time></trkpt><trkpt lat="-37.518586767344615" lon="144.25446653264763"><ele>628.5</ele><time>2026-03-22T00:28:23Z</time></trkpt><trkpt lat="-37.5185784277889" lon="144.25426956870007"><ele>630.6666666666666</ele><time>2026-03-22T00:28:25Z</time></trkpt><trkpt lat="-37.518590276665364" lon="144.25416646322867"><ele>632.8333333333333</ele><time>2026-03-22T00:28:26Z</time></trkpt><trkpt lat="-37.518597010590746" lon="144.25408342206453"><ele>635.0</ele><time>2026-03-22T00:28:27Z</time></trkpt><trkpt lat="-37.51861814372708" lon="144.25395424068859"><ele>636.3333333333333</ele><time>2026-03-22T00:28:31Z</time></trkpt><trkpt lat="-37.51861994819674" lon="144.25386913619607"><ele>637.6666666666666</ele><time>2026-03-22T00:28:32Z</time></trkpt><trkpt lat="-37.51865620560171" lon="144.2537652148445"><ele>639.0</ele><time>2026-03-22T00:28:34Z</time></trkpt><trkpt lat="-37.518723913576004" lon="144.25375541304834"><ele>640.3333333333334</ele><time>2026-03-22T00:28:35Z</time></trkpt><trkpt lat="-37.51880739535643" lon="144.25372285689653"><ele>641.6666666666667</ele><time>2026-03-22T00:28:37Z</time></trkpt><trkpt lat="-37.51886522287536" lon="144.25368226719303"><ele>643.0</ele><time>2026-03-22T00:28:38Z</time></trkpt><trkpt lat="-37.51894294078833" lon="144.25366550967098"><ele>643.6666666666667</ele><time>2026-03-22T00:28:39Z</time></trkpt><trkpt lat="-37.51902819556696" lon="144.25364378668354"><ele>644.3333333333334</ele><time>2026-03-22T00:28:40Z</time></trkpt><trkpt lat="-37.51910188836082" lon="144.25364726749473"><ele>645.0</ele><time>2026-03-22T00:28:41Z</time></trkpt><trkpt lat="-37.519197719037955" lon="144.25360875816972"><ele>645.6666666666666</ele><time>2026-03-22T00:28:43Z</time></trkpt><trkpt lat="-37.519263495723784" lon="144.25355322115448"><ele>646.3333333333333</ele><time>2026-03-22T00:28:45Z</time></trkpt><trkpt lat="-37.519336402482296" lon="144.25359455835795"><ele>647.0</ele><time>2026-03-22T00:28:50Z</time></trkpt><trkpt lat="-37.51940819394126" lon="144.25361457271106"><ele>647.0</ele><time>2026-03-22T00:28:52Z</time></trkpt><trkpt lat="-37.51949921244821" lon="144.25351991584412"><ele>647.0</ele><time>2026-03-22T00:28:54Z</time></trkpt><trkpt lat="-37.51957392945474" lon="144.25351331158365"><ele>647.0</ele><time>2026-03-22T00:28:56Z</time></trkpt><trkpt lat="-37.51964599136536" lon="144.25354033818178"><ele>647.0</ele><time>2026-03-22T00:28:57Z</time></trkpt><trkpt lat="-37.5196995895161" lon="144.2535859939415"><ele>647.0</ele><time>2026-03-22T00:28:58Z</time></trkpt><trkpt lat="-37.51976117348027" lon="144.25367140734318"><ele>647.0</ele><time>2026-03-22T00:29:00Z</time></trkpt><trkpt lat="-37.51989762221984" lon="144.25366977141252"><ele>649.6666666666666</ele><time>2026-03-22T00:29:02Z</time></trkpt><trkpt lat="-37.51995020372802" lon="144.2537458372633"><ele>652.3333333333333</ele><time>2026-03-22T00:29:04Z</time></trkpt><trkpt lat="-37.520045630316396" lon="144.2537195804159"><ele>655.0</ele><time>2026-03-22T00:29:07Z</time></trkpt><trkpt lat="-37.52012287686433" lon="144.2536484554998"><ele>657.6666666666666</ele><time>2026-03-22T00:29:09Z</time></trkpt><trkpt lat="-37.520173425945366" lon="144.25358089810155"><ele>660.3333333333334</ele><time>2026-03-22T00:29:11Z</time></trkpt><trkpt lat="-37.52020178934594" lon="144.25348971727394"><ele>663.0</ele><time>2026-03-22T00:29:13Z</time></trkpt><trkpt lat="-37.52025486350164" lon="144.25344124086234"><ele>663.0</ele><time>2026-03-22T00:29:15Z</time></trkpt><trkpt lat="-37.52033376141345" lon="144.2533319682702"><ele>663.0</ele><time>2026-03-22T00:29:17Z</time></trkpt><trkpt lat="-37.52038718927612" lon="144.25323749979825"><ele>663.0</ele><time>2026-03-22T00:29:19Z</time></trkpt><trkpt lat="-37.5204606354664" lon="144.25320888528788"><ele>663.0</ele><time>2026-03-22T00:29:21Z</time></trkpt><trkpt lat="-37.52052827947723" lon="144.25323480318684"><ele>663.0</ele><time>2026-03-22T00:29:24.001Z</time></trkpt><trkpt lat="-37.52057039075426" lon="144.25339906789915"><ele>666.1666666666666</ele><time>2026-03-22T00:29:26.001Z</time></trkpt><trkpt lat="-37.520597873284416" lon="144.2534914084276"><ele>669.3333333333334</ele><time>2026-03-22T00:29:27.001Z</time></trkpt><trkpt lat="-37.520621271480685" lon="144.2535851567101"><ele>672.5</ele><time>2026-03-22T00:29:28.001Z</time></trkpt><trkpt lat="-37.52066725126219" lon="144.25366947596578"><ele>675.6666666666667</ele><time>2026-03-22T00:29:29.001Z</time></trkpt><trkpt lat="-37.52071272561579" lon="144.25377039639054"><ele>678.8333333333334</ele><time>2026-03-22T00:29:30.001Z</time></trkpt><trkpt lat="-37.52074878810003" lon="144.25383894296422"><ele>682.0</ele><time>2026-03-22T00:29:31.001Z</time></trkpt><trkpt lat="-37.520784743729834" lon="144.25390455053423"><ele>678.0</ele><time>2026-03-22T00:29:32.001Z</time></trkpt><trkpt lat="-37.520847406245174" lon="144.25400071640405"><ele>674.0</ele><time>2026-03-22T00:29:33.001Z</time></trkpt><trkpt lat="-37.52091077745628" lon="144.25405884002808"><ele>670.0</ele><time>2026-03-22T00:29:35Z</time></trkpt><trkpt lat="-37.52098666102854" lon="144.25420249274066"><ele>666.0</ele><time>2026-03-22T00:29:36Z</time></trkpt><trkpt lat="-37.521060298252976" lon="144.25425799764795"><ele>662.0</ele><time>2026-03-22T00:29:37Z</time></trkpt><trkpt lat="-37.52113996253005" lon="144.25430850731232"><ele>662.0</ele><time>2026-03-22T00:29:38Z</time></trkpt><trkpt lat="-37.521206068951365" lon="144.25435419775306"><ele>662.0</ele><time>2026-03-22T00:29:39Z</time></trkpt><trkpt lat="-37.52127468137147" lon="144.25442087169753"><ele>662.0</ele><time>2026-03-22T00:29:40Z</time></trkpt><trkpt lat="-37.52134795416552" lon="144.2544654744092"><ele>662.0</ele><time>2026-03-22T00:29:41Z</time></trkpt><trkpt lat="-37.521431873296535" lon="144.2544998264958"><ele>662.0</ele><time>2026-03-22T00:29:42Z</time></trkpt><trkpt lat="-37.52149412295287" lon="144.254520289962"><ele>662.0</ele><time>2026-03-22T00:29:43Z</time></trkpt><trkpt lat="-37.52157765880663" lon="144.2544957437036"><ele>662.0</ele><time>2026-03-22T00:29:44Z</time></trkpt><trkpt lat="-37.521677763900996" lon="144.25443787842835"><ele>662.0</ele><time>2026-03-22T00:29:45Z</time></trkpt><trkpt lat="-37.52175379095898" lon="144.25438448062036"><ele>662.0</ele><time>2026-03-22T00:29:46Z</time></trkpt><trkpt lat="-37.52185206683168" lon="144.25442384221378"><ele>662.0</ele><time>2026-03-22T00:29:48Z</time></trkpt><trkpt lat="-37.521878831430314" lon="144.25451002329223"><ele>662.0</ele><time>2026-03-22T00:29:49Z</time></trkpt><trkpt lat="-37.52190072858937" lon="144.25458566141663"><ele>662.0</ele><time>2026-03-22T00:29:50Z</time></trkpt><trkpt lat="-37.521942665905534" lon="144.25471247783554"><ele>659.5</ele><time>2026-03-22T00:29:51Z</time></trkpt><trkpt lat="-37.52200099064318" lon="144.25480515477003"><ele>657.0</ele><time>2026-03-22T00:29:52Z</time></trkpt><trkpt lat="-37.52202904246241" lon="144.25487692922994"><ele>654.5</ele><time>2026-03-22T00:29:53Z</time></trkpt><trkpt lat="-37.52208141992356" lon="144.25497738743607"><ele>652.0</ele><time>2026-03-22T00:29:54Z</time></trkpt><trkpt lat="-37.522120865598595" lon="144.2550610276407"><ele>649.5</ele><time>2026-03-22T00:29:55Z</time></trkpt><trkpt lat="-37.522149251799505" lon="144.25513664615212"><ele>647.0</ele><time>2026-03-22T00:29:56Z</time></trkpt><trkpt lat="-37.5221255578333" lon="144.25521868893796"><ele>647.0</ele><time>2026-03-22T00:29:57Z</time></trkpt><trkpt lat="-37.52208343483564" lon="144.25529632323781"><ele>647.0</ele><time>2026-03-22T00:29:58Z</time></trkpt><trkpt lat="-37.52204046807467" lon="144.2553959164459"><ele>647.0</ele><time>2026-03-22T00:29:59Z</time></trkpt><trkpt lat="-37.521991083686395" lon="144.25548470482664"><ele>647.0</ele><time>2026-03-22T00:30:00Z</time></trkpt><trkpt lat="-37.521928026592676" lon="144.25557080879491"><ele>647.0</ele><time>2026-03-22T00:30:01Z</time></trkpt><trkpt lat="-37.52188058485095" lon="144.25565156152604"><ele>647.0</ele><time>2026-03-22T00:30:02Z</time></trkpt><trkpt lat="-37.521806681305755" lon="144.25573729910553"><ele>645.0</ele><time>2026-03-22T00:30:03Z</time></trkpt><trkpt lat="-37.521738490459235" lon="144.25580340348202"><ele>643.0</ele><time>2026-03-22T00:30:04Z</time></trkpt><trkpt lat="-37.521676556946254" lon="144.25587216621574"><ele>641.0</ele><time>2026-03-22T00:30:05Z</time></trkpt><trkpt lat="-37.52161734899225" lon="144.25594116273746"><ele>639.0</ele><time>2026-03-22T00:30:06Z</time></trkpt><trkpt lat="-37.52155933273945" lon="144.25601750999684"><ele>637.0</ele><time>2026-03-22T00:30:07Z</time></trkpt><trkpt lat="-37.521511277693605" lon="144.25609482188034"><ele>635.0</ele><time>2026-03-22T00:30:08Z</time></trkpt><trkpt lat="-37.52148420786504" lon="144.25621503555845"><ele>635.0</ele><time>2026-03-22T00:30:10Z</time></trkpt><trkpt lat="-37.52152741489622" lon="144.25630509334752"><ele>635.0</ele><time>2026-03-22T00:30:12Z</time></trkpt><trkpt lat="-37.52161078087195" lon="144.25630163476202"><ele>635.0</ele><time>2026-03-22T00:30:39.001Z</time></trkpt><trkpt lat="-37.521672339749344" lon="144.25632811285635"><ele>635.0</ele><time>2026-03-22T00:30:42.001Z</time></trkpt><trkpt lat="-37.52170377238091" lon="144.2564114974272"><ele>635.0</ele><time>2026-03-22T00:30:46.001Z</time></trkpt><trkpt lat="-37.52163506923677" lon="144.256430414837"><ele>635.0</ele><time>2026-03-22T00:30:50.001Z</time></trkpt><trkpt lat="-37.521536464275236" lon="144.25647220394885"><ele>632.6666666666666</ele><time>2026-03-22T00:30:52.001Z</time></trkpt><trkpt lat="-37.52146050463776" lon="144.25655946036576"><ele>630.3333333333333</ele><time>2026-03-22T00:30:54.001Z</time></trkpt><trkpt lat="-37.52144017673766" lon="144.25666263586376"><ele>628.0</ele><time>2026-03-22T00:30:55.001Z</time></trkpt><trkpt lat="-37.52142560741885" lon="144.2567414878941"><ele>625.6666666666666</ele><time>2026-03-22T00:30:56.001Z</time></trkpt><trkpt lat="-37.52139834427512" lon="144.2568204128456"><ele>623.3333333333334</ele><time>2026-03-22T00:30:57.001Z</time></trkpt><trkpt lat="-37.52136692505195" lon="144.2568969124803"><ele>621.0</ele><time>2026-03-22T00:30:58.001Z</time></trkpt><trkpt lat="-37.52134276539924" lon="144.2569708039056"><ele>621.0</ele><time>2026-03-22T00:30:59.001Z</time></trkpt><trkpt lat="-37.52132145324398" lon="144.2570764092194"><ele>621.0</ele><time>2026-03-22T00:31:00.001Z</time></trkpt><trkpt lat="-37.52130993075427" lon="144.25716380120943"><ele>621.0</ele><time>2026-03-22T00:31:01.001Z</time></trkpt><trkpt lat="-37.521294144244926" lon="144.25724862960877"><ele>621.0</ele><time>2026-03-22T00:31:02.001Z</time></trkpt><trkpt lat="-37.52128924195187" lon="144.25735798174284"><ele>621.0</ele><time>2026-03-22T00:31:03.001Z</time></trkpt><trkpt lat="-37.52128844915807" lon="144.25745111751905"><ele>621.0</ele><time>2026-03-22T00:31:04.001Z</time></trkpt><trkpt lat="-37.521317027104885" lon="144.25754893164319"><ele>619.2</ele><time>2026-03-22T00:31:05.001Z</time></trkpt><trkpt lat="-37.52136866396452" lon="144.25766240113694"><ele>617.4000000000001</ele><time>2026-03-22T00:31:06.001Z</time></trkpt><trkpt lat="-37.52143237084356" lon="144.25775446351653"><ele>615.6</ele><time>2026-03-22T00:31:07.001Z</time></trkpt><trkpt lat="-37.52147596430864" lon="144.25784075253867"><ele>613.8000000000001</ele><time>2026-03-22T00:31:08.001Z</time></trkpt><trkpt lat="-37.52150560300456" lon="144.25791815178727"><ele>612.0</ele><time>2026-03-22T00:31:09.001Z</time></trkpt><trkpt lat="-37.521458195468966" lon="144.2580872242882"><ele>611.8000000000001</ele><time>2026-03-22T00:31:11.001Z</time></trkpt><trkpt lat="-37.52141741989657" lon="144.2581923647121"><ele>611.6</ele><time>2026-03-22T00:31:12Z</time></trkpt><trkpt lat="-37.521366075050445" lon="144.2583072601351"><ele>611.4000000000001</ele><time>2026-03-22T00:31:13Z</time></trkpt><trkpt lat="-37.5213275350528" lon="144.25839992195833"><ele>611.2</ele><time>2026-03-22T00:31:14Z</time></trkpt><trkpt lat="-37.52127328286797" lon="144.25849443083152"><ele>611.0</ele><time>2026-03-22T00:31:15Z</time></trkpt><trkpt lat="-37.521204204106525" lon="144.25855415587864"><ele>611.0</ele><time>2026-03-22T00:31:16Z</time></trkpt><trkpt lat="-37.52112868554302" lon="144.25859452483792"><ele>611.0</ele><time>2026-03-22T00:31:17Z</time></trkpt><trkpt lat="-37.52106457707633" lon="144.25863942644136"><ele>611.0</ele><time>2026-03-22T00:31:18Z</time></trkpt><trkpt lat="-37.52099743684644" lon="144.2586698642434"><ele>611.0</ele><time>2026-03-22T00:31:19Z</time></trkpt><trkpt lat="-37.52092843047645" lon="144.25866733552198"><ele>611.0</ele><time>2026-03-22T00:31:20Z</time></trkpt><trkpt lat="-37.5208548937958" lon="144.25868105013447"><ele>611.0</ele><time>2026-03-22T00:31:21Z</time></trkpt><trkpt lat="-37.52076445641796" lon="144.25873900158675"><ele>611.0</ele><time>2026-03-22T00:31:22Z</time></trkpt><trkpt lat="-37.520658851074465" lon="144.25875157497143"><ele>611.0</ele><time>2026-03-22T00:31:23Z</time></trkpt><trkpt lat="-37.52058429225435" lon="144.25878716894766"><ele>611.0</ele><time>2026-03-22T00:31:24Z</time></trkpt><trkpt lat="-37.52050793351722" lon="144.2588285025136"><ele>611.0</ele><time>2026-03-22T00:31:25Z</time></trkpt><trkpt lat="-37.52040371125168" lon="144.2588687255081"><ele>611.0</ele><time>2026-03-22T00:31:26Z</time></trkpt><trkpt lat="-37.52031086691303" lon="144.25887434770678"><ele>610.0</ele><time>2026-03-22T00:31:27Z</time></trkpt><trkpt lat="-37.52022664871396" lon="144.25885671569853"><ele>609.0</ele><time>2026-03-22T00:31:28Z</time></trkpt><trkpt lat="-37.520151938356086" lon="144.25880326753384"><ele>608.0</ele><time>2026-03-22T00:31:29Z</time></trkpt><trkpt lat="-37.52007937370787" lon="144.25877084231786"><ele>607.0</ele><time>2026-03-22T00:31:30Z</time></trkpt><trkpt lat="-37.5199899652676" lon="144.2587623384149"><ele>606.0</ele><time>2026-03-22T00:31:31Z</time></trkpt><trkpt lat="-37.51989997734709" lon="144.25874554155206"><ele>605.0</ele><time>2026-03-22T00:31:32Z</time></trkpt><trkpt lat="-37.51981484090397" lon="144.2587380069062"><ele>605.0</ele><time>2026-03-22T00:31:33Z</time></trkpt><trkpt lat="-37.51971548713945" lon="144.25873715588412"><ele>605.0</ele><time>2026-03-22T00:31:34Z</time></trkpt><trkpt lat="-37.519648476901665" lon="144.2587486945507"><ele>605.0</ele><time>2026-03-22T00:31:35Z</time></trkpt><trkpt lat="-37.519571843602634" lon="144.25879943061437"><ele>605.0</ele><time>2026-03-22T00:31:36Z</time></trkpt><trkpt lat="-37.51951085090464" lon="144.25889088055428"><ele>605.0</ele><time>2026-03-22T00:31:37Z</time></trkpt><trkpt lat="-37.51944999410484" lon="144.25895091084092"><ele>605.0</ele><time>2026-03-22T00:31:38Z</time></trkpt><trkpt lat="-37.51935415798478" lon="144.25902042071425"><ele>602.6</ele><time>2026-03-22T00:31:39Z</time></trkpt><trkpt lat="-37.519276160928854" lon="144.2590872402907"><ele>600.2</ele><time>2026-03-22T00:31:40Z</time></trkpt><trkpt lat="-37.519172104353544" lon="144.25918150744724"><ele>597.8</ele><time>2026-03-22T00:31:41Z</time></trkpt><trkpt lat="-37.51909870067621" lon="144.25928780637878"><ele>595.4</ele><time>2026-03-22T00:31:42Z</time></trkpt><trkpt lat="-37.51903180345818" lon="144.2593872480638"><ele>593.0</ele><time>2026-03-22T00:31:43Z</time></trkpt><trkpt lat="-37.5189556024058" lon="144.25946416770543"><ele>593.0</ele><time>2026-03-22T00:31:44Z</time></trkpt><trkpt lat="-37.51888556080119" lon="144.25950904906367"><ele>593.0</ele><time>2026-03-22T00:31:45Z</time></trkpt><trkpt lat="-37.518773899707476" lon="144.25952341414177"><ele>593.0</ele><time>2026-03-22T00:31:47Z</time></trkpt><trkpt lat="-37.51873431161319" lon="144.25944509362083"><ele>593.0</ele><time>2026-03-22T00:31:49Z</time></trkpt><trkpt lat="-37.51880180300169" lon="144.25950852061868"><ele>593.0</ele><time>2026-03-22T00:32:06Z</time></trkpt><trkpt lat="-37.518866173416164" lon="144.25953175725294"><ele>593.0</ele><time>2026-03-22T00:32:08Z</time></trkpt><trkpt lat="-37.51892981242991" lon="144.25947255209906"><ele>593.0</ele><time>2026-03-22T00:32:10Z</time></trkpt><trkpt lat="-37.51902354566893" lon="144.25955276813897"><ele>593.0</ele><time>2026-03-22T00:32:13Z</time></trkpt><trkpt lat="-37.519076476936014" lon="144.25963871591873"><ele>593.0</ele><time>2026-03-22T00:32:14Z</time></trkpt><trkpt lat="-37.51912787201597" lon="144.25969922517913"><ele>593.0</ele><time>2026-03-22T00:32:15Z</time></trkpt><trkpt lat="-37.51918917437077" lon="144.25975847394344"><ele>593.0</ele><time>2026-03-22T00:32:17Z</time></trkpt><trkpt lat="-37.51925063129958" lon="144.25988352524686"><ele>591.4</ele><time>2026-03-22T00:32:18Z</time></trkpt><trkpt lat="-37.51928904458666" lon="144.2599653087388"><ele>589.8</ele><time>2026-03-22T00:32:20Z</time></trkpt><trkpt lat="-37.5193871746969" lon="144.26003664508985"><ele>588.2</ele><time>2026-03-22T00:32:22Z</time></trkpt><trkpt lat="-37.519422940638805" lon="144.26014429392924"><ele>586.6</ele><time>2026-03-22T00:32:24Z</time></trkpt><trkpt lat="-37.519456969638625" lon="144.2602642778393"><ele>585.0</ele><time>2026-03-22T00:32:27Z</time></trkpt><trkpt lat="-37.51949054425391" lon="144.26038743331924"><ele>585.0</ele><time>2026-03-22T00:32:29Z</time></trkpt><trkpt lat="-37.51948240213055" lon="144.2605246122127"><ele>585.0</ele><time>2026-03-22T00:32:31Z</time></trkpt><trkpt lat="-37.519530879458394" lon="144.26065240471192"><ele>585.0</ele><time>2026-03-22T00:32:33Z</time></trkpt><trkpt lat="-37.51958735138618" lon="144.260726201499"><ele>585.0</ele><time>2026-03-22T00:32:34Z</time></trkpt><trkpt lat="-37.51965678192481" lon="144.26075903951994"><ele>585.0</ele><time>2026-03-22T00:32:35Z</time></trkpt><trkpt lat="-37.51974056661119" lon="144.26078734909774"><ele>584.1666666666666</ele><time>2026-03-22T00:32:36Z</time></trkpt><trkpt lat="-37.51984682280775" lon="144.26077270632953"><ele>583.3333333333334</ele><time>2026-03-22T00:32:37Z</time></trkpt><trkpt lat="-37.51993194543547" lon="144.26076950321087"><ele>582.5</ele><time>2026-03-22T00:32:38Z</time></trkpt><trkpt lat="-37.51998884556751" lon="144.26081548011678"><ele>581.6666666666667</ele><time>2026-03-22T00:32:39Z</time></trkpt><trkpt lat="-37.52006435277115" lon="144.26086326349997"><ele>580.8333333333334</ele><time>2026-03-22T00:32:40Z</time></trkpt><trkpt lat="-37.520155341742516" lon="144.2608968266952"><ele>580.0</ele><time>2026-03-22T00:32:41Z</time></trkpt><trkpt lat="-37.52022729948374" lon="144.26090882199006"><ele>580.0</ele><time>2026-03-22T00:32:42Z</time></trkpt><trkpt lat="-37.52030278674155" lon="144.26092911175067"><ele>580.0</ele><time>2026-03-22T00:32:43Z</time></trkpt><trkpt lat="-37.52037513713729" lon="144.2609715511127"><ele>580.0</ele><time>2026-03-22T00:32:44Z</time></trkpt><trkpt lat="-37.520453397669556" lon="144.261010633491"><ele>580.0</ele><time>2026-03-22T00:32:45Z</time></trkpt><trkpt lat="-37.520534373944116" lon="144.2610278269887"><ele>580.0</ele><time>2026-03-22T00:32:47Z</time></trkpt><trkpt lat="-37.52060012739703" lon="144.2609689275846"><ele>580.0</ele><time>2026-03-22T00:32:49Z</time></trkpt><trkpt lat="-37.52065417017606" lon="144.2609115989341"><ele>580.2</ele><time>2026-03-22T00:32:50Z</time></trkpt><trkpt lat="-37.52072788314804" lon="144.26087654537685"><ele>580.4</ele><time>2026-03-22T00:32:51Z</time></trkpt><trkpt lat="-37.52074188073229" lon="144.26077198254785"><ele>580.6</ele><time>2026-03-22T00:32:53Z</time></trkpt><trkpt lat="-37.52069568410623" lon="144.26063299483545"><ele>580.8</ele><time>2026-03-22T00:32:55Z</time></trkpt><trkpt lat="-37.52059894773671" lon="144.26054103243803"><ele>581.0</ele><time>2026-03-22T00:32:57Z</time></trkpt><trkpt lat="-37.52053957414199" lon="144.2604298206668"><ele>582.8333333333333</ele><time>2026-03-22T00:32:59Z</time></trkpt><trkpt lat="-37.52053627665204" lon="144.2603397797742"><ele>584.6666666666666</ele><time>2026-03-22T00:33:00Z</time></trkpt><trkpt lat="-37.520528795171444" lon="144.26020898208338"><ele>586.5</ele><time>2026-03-22T00:33:02Z</time></trkpt><trkpt lat="-37.52058791661235" lon="144.26013407578463"><ele>588.3333333333334</ele><time>2026-03-22T00:33:04Z</time></trkpt><trkpt lat="-37.52061936619281" lon="144.26004714355867"><ele>590.1666666666667</ele><time>2026-03-22T00:33:05Z</time></trkpt><trkpt lat="-37.52065785623879" lon="144.2599628378724"><ele>592.0</ele><time>2026-03-22T00:33:06Z</time></trkpt><trkpt lat="-37.520708020920644" lon="144.25990759413355"><ele>592.0</ele><time>2026-03-22T00:33:07Z</time></trkpt><trkpt lat="-37.52075292521639" lon="144.2598148687647"><ele>592.0</ele><time>2026-03-22T00:33:09Z</time></trkpt><trkpt lat="-37.52080818332519" lon="144.2597763844421"><ele>592.0</ele><time>2026-03-22T00:33:25Z</time></trkpt><trkpt lat="-37.52092459153503" lon="144.25975860168447"><ele>592.0</ele><time>2026-03-22T00:33:27Z</time></trkpt><trkpt lat="-37.521041468806715" lon="144.25971524502188"><ele>592.0</ele><time>2026-03-22T00:33:29Z</time></trkpt><trkpt lat="-37.521111592965646" lon="144.25971989064143"><ele>592.8000000000001</ele><time>2026-03-22T00:33:30Z</time></trkpt><trkpt lat="-37.52118744732649" lon="144.2597227541929"><ele>593.6</ele><time>2026-03-22T00:33:31Z</time></trkpt><trkpt lat="-37.5212592698153" lon="144.25971269242592"><ele>594.4000000000001</ele><time>2026-03-22T00:33:32Z</time></trkpt><trkpt lat="-37.52137644582595" lon="144.2596929268625"><ele>595.2</ele><time>2026-03-22T00:33:34Z</time></trkpt><trkpt lat="-37.5214915495313" lon="144.25967064014338"><ele>596.0</ele><time>2026-03-22T00:33:36Z</time></trkpt><trkpt lat="-37.52157073190241" lon="144.2596613703914"><ele>596.0</ele><time>2026-03-22T00:33:37Z</time></trkpt><trkpt lat="-37.52163849527574" lon="144.25968882525862"><ele>596.0</ele><time>2026-03-22T00:33:38Z</time></trkpt><trkpt lat="-37.52174827619834" lon="144.25971985729686"><ele>596.0</ele><time>2026-03-22T00:33:39Z</time></trkpt><trkpt lat="-37.52185887914464" lon="144.25974508100427"><ele>596.0</ele><time>2026-03-22T00:33:40Z</time></trkpt><trkpt lat="-37.521936491939556" lon="144.2597611227911"><ele>596.0</ele><time>2026-03-22T00:33:41Z</time></trkpt><trkpt lat="-37.5220004448634" lon="144.25974376136008"><ele>596.0</ele><time>2026-03-22T00:33:42Z</time></trkpt><trkpt lat="-37.52205991278317" lon="144.25970852829775"><ele>595.1666666666666</ele><time>2026-03-22T00:33:43Z</time></trkpt><trkpt lat="-37.52212313042686" lon="144.25967835962595"><ele>594.3333333333333</ele><time>2026-03-22T00:33:44Z</time></trkpt><trkpt lat="-37.522185162652484" lon="144.25970527581276"><ele>593.5</ele><time>2026-03-22T00:33:45Z</time></trkpt><trkpt lat="-37.522250380072514" lon="144.25974250291372"><ele>592.6666666666666</ele><time>2026-03-22T00:33:46Z</time></trkpt><trkpt lat="-37.522347209593825" lon="144.25980559681813"><ele>591.8333333333334</ele><time>2026-03-22T00:33:47Z</time></trkpt><trkpt lat="-37.522393394984256" lon="144.2598670594783"><ele>591.0</ele><time>2026-03-22T00:33:48Z</time></trkpt><trkpt lat="-37.5224662116901" lon="144.25996248429325"><ele>589.2</ele><time>2026-03-22T00:33:50Z</time></trkpt><trkpt lat="-37.5225340853765" lon="144.2600008090446"><ele>587.4000000000001</ele><time>2026-03-22T00:33:52Z</time></trkpt><trkpt lat="-37.522610489220064" lon="144.26001974784845"><ele>585.6</ele><time>2026-03-22T00:33:54Z</time></trkpt><trkpt lat="-37.52269180323586" lon="144.26007853621533"><ele>583.8000000000001</ele><time>2026-03-22T00:33:56Z</time></trkpt><trkpt lat="-37.522766689537484" lon="144.260165160091"><ele>582.0</ele><time>2026-03-22T00:33:58Z</time></trkpt><trkpt lat="-37.522822681427954" lon="144.26029448074664"><ele>582.0</ele><time>2026-03-22T00:34:00Z</time></trkpt><trkpt lat="-37.522886281078584" lon="144.26035833736285"><ele>582.0</ele><time>2026-03-22T00:34:02Z</time></trkpt><trkpt lat="-37.5229543110581" lon="144.2604413362987"><ele>582.0</ele><time>2026-03-22T00:34:04Z</time></trkpt><trkpt lat="-37.52298754344142" lon="144.26059394066317"><ele>582.0</ele><time>2026-03-22T00:34:06Z</time></trkpt><trkpt lat="-37.52300418584883" lon="144.26068374827508"><ele>582.0</ele><time>2026-03-22T00:34:07Z</time></trkpt><trkpt lat="-37.52302736386331" lon="144.26080794187354"><ele>580.5</ele><time>2026-03-22T00:34:09Z</time></trkpt><trkpt lat="-37.52306991040013" lon="144.26087846932728"><ele>579.0</ele><time>2026-03-22T00:34:11Z</time></trkpt><trkpt lat="-37.52308056178782" lon="144.26100447963648"><ele>577.5</ele><time>2026-03-22T00:34:13Z</time></trkpt><trkpt lat="-37.5231348969565" lon="144.26111128410517"><ele>576.0</ele><time>2026-03-22T00:34:15Z</time></trkpt><trkpt lat="-37.52314572168579" lon="144.26125360165256"><ele>574.5</ele><time>2026-03-22T00:34:17Z</time></trkpt><trkpt lat="-37.52318909373342" lon="144.2613140909329"><ele>573.0</ele><time>2026-03-22T00:34:18Z</time></trkpt><trkpt lat="-37.52329007113104" lon="144.26149175503278"><ele>571.3333333333334</ele><time>2026-03-22T00:34:20Z</time></trkpt><trkpt lat="-37.52334085224856" lon="144.26156672955932"><ele>569.6666666666666</ele><time>2026-03-22T00:34:21Z</time></trkpt><trkpt lat="-37.52340156343416" lon="144.26162435531026"><ele>568.0</ele><time>2026-03-22T00:34:22Z</time></trkpt><trkpt lat="-37.5234687263456" lon="144.2616548027337"><ele>566.3333333333333</ele><time>2026-03-22T00:34:23Z</time></trkpt><trkpt lat="-37.52355282593827" lon="144.26168718444222"><ele>564.6666666666666</ele><time>2026-03-22T00:34:24Z</time></trkpt><trkpt lat="-37.523634348768056" lon="144.2617110276139"><ele>563.0</ele><time>2026-03-22T00:34:25Z</time></trkpt><trkpt lat="-37.52370770754477" lon="144.26173846474362"><ele>563.3333333333333</ele><time>2026-03-22T00:34:26Z</time></trkpt><trkpt lat="-37.5237786215056" lon="144.26177809942016"><ele>563.6666666666666</ele><time>2026-03-22T00:34:27Z</time></trkpt><trkpt lat="-37.52383651821304" lon="144.2618299852683"><ele>564.0</ele><time>2026-03-22T00:34:28Z</time></trkpt><trkpt lat="-37.52388757218829" lon="144.26190621922692"><ele>564.3333333333334</ele><time>2026-03-22T00:34:29Z</time></trkpt><trkpt lat="-37.52393127156768" lon="144.26197138725118"><ele>564.6666666666667</ele><time>2026-03-22T00:34:30Z</time></trkpt><trkpt lat="-37.523856656191725" lon="144.26201918457676"><ele>565.0</ele><time>2026-03-22T00:34:33Z</time></trkpt><trkpt lat="-37.52378253103417" lon="144.2620550451213"><ele>564.7142857142857</ele><time>2026-03-22T00:34:35Z</time></trkpt><trkpt lat="-37.52371424664577" lon="144.26210542589675"><ele>564.4285714285714</ele><time>2026-03-22T00:34:37Z</time></trkpt><trkpt lat="-37.52369135245039" lon="144.26218818874167"><ele>564.1428571428571</ele><time>2026-03-22T00:34:41Z</time></trkpt><trkpt lat="-37.523624125969306" lon="144.2622368363133"><ele>563.8571428571429</ele><time>2026-03-22T00:34:45Z</time></trkpt><trkpt lat="-37.523565289832106" lon="144.26226720530343"><ele>563.5714285714286</ele><time>2026-03-22T00:34:50Z</time></trkpt><trkpt lat="-37.52349846927539" lon="144.26229701707572"><ele>563.2857142857142</ele><time>2026-03-22T00:34:54Z</time></trkpt><trkpt lat="-37.52341229219956" lon="144.26230002222414"><ele>563.0</ele><time>2026-03-22T00:35:05Z</time></trkpt><trkpt lat="-37.52335530059168" lon="144.26226040641197"><ele>563.0</ele><time>2026-03-22T00:35:11Z</time></trkpt><trkpt lat="-37.5233042652733" lon="144.2622135944844"><ele>563.0</ele><time>2026-03-22T00:35:16Z</time></trkpt><trkpt lat="-37.52328303557021" lon="144.26213844793511"><ele>563.0</ele><time>2026-03-22T00:35:22Z</time></trkpt><trkpt lat="-37.52333858302743" lon="144.2621759685418"><ele>563.0</ele><time>2026-03-22T00:35:32Z</time></trkpt><trkpt lat="-37.523390910159875" lon="144.2621073412781"><ele>563.0</ele><time>2026-03-22T00:35:45Z</time></trkpt><trkpt lat="-37.52342791540786" lon="144.262001548528"><ele>563.0</ele><time>2026-03-22T00:38:14Z</time></trkpt><trkpt lat="-37.52348611322778" lon="144.2619549023921"><ele>563.0</ele><time>2026-03-22T00:38:18Z</time></trkpt><trkpt lat="-37.52358330185616" lon="144.26191835567712"><ele>563.0</ele><time>2026-03-22T00:38:22Z</time></trkpt><trkpt lat="-37.52363668229205" lon="144.26182663892064"><ele>563.0</ele><time>2026-03-22T00:38:26Z</time></trkpt><trkpt lat="-37.52368582262016" lon="144.26176250235892"><ele>563.0</ele><time>2026-03-22T00:38:29Z</time></trkpt><trkpt lat="-37.523764899095006" lon="144.26179344946323"><ele>563.0</ele><time>2026-03-22T00:38:45Z</time></trkpt><trkpt lat="-37.52382269067328" lon="144.26189311011427"><ele>563.0</ele><time>2026-03-22T00:38:47Z</time></trkpt><trkpt lat="-37.5239218743511" lon="144.26198464561708"><ele>562.75</ele><time>2026-03-22T00:38:49Z</time></trkpt><trkpt lat="-37.52400721637315" lon="144.26207650327288"><ele>562.5</ele><time>2026-03-22T00:38:51Z</time></trkpt><trkpt lat="-37.524070323721105" lon="144.2621892792888"><ele>562.25</ele><time>2026-03-22T00:38:53Z</time></trkpt><trkpt lat="-37.52415152703787" lon="144.2622697043766"><ele>562.0</ele><time>2026-03-22T00:38:55Z</time></trkpt><trkpt lat="-37.52424773133093" lon="144.26239447169522"><ele>562.0</ele><time>2026-03-22T00:38:57Z</time></trkpt><trkpt lat="-37.524265364365675" lon="144.2624955681476"><ele>562.0</ele><time>2026-03-22T00:39:10Z</time></trkpt><trkpt lat="-37.52420985094003" lon="144.2625472251285"><ele>562.0</ele><time>2026-03-22T00:39:12Z</time></trkpt><trkpt lat="-37.52417574094778" lon="144.26271733607496"><ele>562.0</ele><time>2026-03-22T00:39:14Z</time></trkpt><trkpt lat="-37.524175924803046" lon="144.2628490806717"><ele>562.0</ele><time>2026-03-22T00:39:15.001Z</time></trkpt><trkpt lat="-37.52415418893156" lon="144.2629390641862"><ele>562.0</ele><time>2026-03-22T00:39:16.001Z</time></trkpt><trkpt lat="-37.52413654315284" lon="144.2630304269873"><ele>562.0</ele><time>2026-03-22T00:39:17.001Z</time></trkpt><trkpt lat="-37.52409495339597" lon="144.2631258014332"><ele>562.0</ele><time>2026-03-22T00:39:18.001Z</time></trkpt><trkpt lat="-37.52405195465163" lon="144.26320667845258"><ele>562.0</ele><time>2026-03-22T00:39:19.001Z</time></trkpt><trkpt lat="-37.524023923936426" lon="144.2633457793367"><ele>562.0</ele><time>2026-03-22T00:39:21.001Z</time></trkpt><trkpt lat="-37.5239825437814" lon="144.26354950439642"><ele>562.0</ele><time>2026-03-22T00:39:23.001Z</time></trkpt><trkpt lat="-37.5240264972303" lon="144.26363461207055"><ele>562.0</ele><time>2026-03-22T00:39:24.001Z</time></trkpt><trkpt lat="-37.52408061210346" lon="144.26374428160818"><ele>562.0</ele><time>2026-03-22T00:39:26.001Z</time></trkpt><trkpt lat="-37.524136335347606" lon="144.26386549039816"><ele>562.0</ele><time>2026-03-22T00:39:28.001Z</time></trkpt><trkpt lat="-37.52413450761181" lon="144.2640024044284"><ele>562.0</ele><time>2026-03-22T00:41:06Z</time></trkpt><trkpt lat="-37.524079820724005" lon="144.2640850690971"><ele>562.0</ele><time>2026-03-22T00:41:07Z</time></trkpt><trkpt lat="-37.52400460743366" lon="144.2641819520728"><ele>562.0</ele><time>2026-03-22T00:41:08Z</time></trkpt><trkpt lat="-37.523944525940756" lon="144.2642768114554"><ele>562.0</ele><time>2026-03-22T00:41:09Z</time></trkpt><trkpt lat="-37.52389509340072" lon="144.26437977828985"><ele>562.0</ele><time>2026-03-22T00:41:10Z</time></trkpt><trkpt lat="-37.52386992127821" lon="144.26448310698456"><ele>562.0</ele><time>2026-03-22T00:41:11Z</time></trkpt><trkpt lat="-37.523856052158756" lon="144.2645868217316"><ele>562.0</ele><time>2026-03-22T00:41:12Z</time></trkpt><trkpt lat="-37.523861149660426" lon="144.26470118169928"><ele>562.0</ele><time>2026-03-22T00:41:13Z</time></trkpt><trkpt lat="-37.52388431863981" lon="144.26481669534965"><ele>562.0</ele><time>2026-03-22T00:41:14Z</time></trkpt><trkpt lat="-37.523928658116915" lon="144.26491116146292"><ele>562.0</ele><time>2026-03-22T00:41:15Z</time></trkpt><trkpt lat="-37.52397942806758" lon="144.26497886516947"><ele>562.0</ele><time>2026-03-22T00:41:16Z</time></trkpt><trkpt lat="-37.52402614726384" lon="144.2650409573291"><ele>562.0</ele><time>2026-03-22T00:41:17Z</time></trkpt><trkpt lat="-37.52408911310116" lon="144.26509556809128"><ele>562.6</ele><time>2026-03-22T00:41:19Z</time></trkpt><trkpt lat="-37.52410432263181" lon="144.26524931266917"><ele>563.2</ele><time>2026-03-22T00:41:29Z</time></trkpt><trkpt lat="-37.52412813335844" lon="144.2653596318269"><ele>563.8</ele><time>2026-03-22T00:41:30Z</time></trkpt><trkpt lat="-37.524191624253696" lon="144.26544103834715"><ele>564.4</ele><time>2026-03-22T00:41:31Z</time></trkpt><trkpt lat="-37.52425731826797" lon="144.26552775573097"><ele>565.0</ele><time>2026-03-22T00:41:32Z</time></trkpt><trkpt lat="-37.52428906766007" lon="144.26560022887344"><ele>565.6</ele><time>2026-03-22T00:41:33Z</time></trkpt><trkpt lat="-37.52433944978937" lon="144.265648926035"><ele>566.2</ele><time>2026-03-22T00:41:34Z</time></trkpt><trkpt lat="-37.524452695880804" lon="144.26571993854725"><ele>566.8</ele><time>2026-03-22T00:41:36Z</time></trkpt><trkpt lat="-37.52447881753181" lon="144.26582788288758"><ele>567.4</ele><time>2026-03-22T00:41:37Z</time></trkpt><trkpt lat="-37.524553250059256" lon="144.26587598117786"><ele>568.0</ele><time>2026-03-22T00:41:38Z</time></trkpt><trkpt lat="-37.524633361372985" lon="144.26598601756191"><ele>568.0</ele><time>2026-03-22T00:41:40Z</time></trkpt><trkpt lat="-37.524634248166" lon="144.26608005861246"><ele>568.0</ele><time>2026-03-22T00:41:41Z</time></trkpt><trkpt lat="-37.52460745580301" lon="144.26617283868507"><ele>568.0</ele><time>2026-03-22T00:41:42Z</time></trkpt><trkpt lat="-37.524556861027406" lon="144.2662322037891"><ele>568.0</ele><time>2026-03-22T00:41:43Z</time></trkpt><trkpt lat="-37.524505955485914" lon="144.26630269288046"><ele>568.0</ele><time>2026-03-22T00:41:44Z</time></trkpt><trkpt lat="-37.524455271756636" lon="144.26636464128217"><ele>568.0</ele><time>2026-03-22T00:41:45Z</time></trkpt><trkpt lat="-37.52441254479305" lon="144.2664243372474"><ele>568.0</ele><time>2026-03-22T00:41:46Z</time></trkpt><trkpt lat="-37.52431748176192" lon="144.26648939420124"><ele>569.4</ele><time>2026-03-22T00:41:48Z</time></trkpt><trkpt lat="-37.524246979089455" lon="144.2665409081603"><ele>570.8</ele><time>2026-03-22T00:41:49Z</time></trkpt><trkpt lat="-37.52418822835911" lon="144.26662163190815"><ele>572.2</ele><time>2026-03-22T00:41:50Z</time></trkpt><trkpt lat="-37.524121715416605" lon="144.26671428695474"><ele>573.6</ele><time>2026-03-22T00:41:51Z</time></trkpt><trkpt lat="-37.52405875803021" lon="144.2667751613361"><ele>575.0</ele><time>2026-03-22T00:41:52Z</time></trkpt><trkpt lat="-37.52397361136415" lon="144.26685573677736"><ele>575.0</ele><time>2026-03-22T00:41:54Z</time></trkpt><trkpt lat="-37.52395192967641" lon="144.26700846090753"><ele>575.0</ele><time>2026-03-22T00:41:56Z</time></trkpt><trkpt lat="-37.52391471456759" lon="144.26718542220345"><ele>575.0</ele><time>2026-03-22T00:41:58Z</time></trkpt><trkpt lat="-37.52386119711115" lon="144.26729130745483"><ele>575.0</ele><time>2026-03-22T00:41:59Z</time></trkpt><trkpt lat="-37.52381662008262" lon="144.2674097392637"><ele>575.8</ele><time>2026-03-22T00:42:00Z</time></trkpt><trkpt lat="-37.52380525703323" lon="144.26752080507143"><ele>576.6</ele><time>2026-03-22T00:42:01Z</time></trkpt><trkpt lat="-37.52378297828576" lon="144.2676250657487"><ele>577.4</ele><time>2026-03-22T00:42:02Z</time></trkpt><trkpt lat="-37.523744633908706" lon="144.26770123183624"><ele>578.2</ele><time>2026-03-22T00:42:03Z</time></trkpt><trkpt lat="-37.52367223813895" lon="144.26784018068957"><ele>579.0</ele><time>2026-03-22T00:42:05Z</time></trkpt><trkpt lat="-37.52363382602575" lon="144.26791886855997"><ele>579.0</ele><time>2026-03-22T00:42:06Z</time></trkpt><trkpt lat="-37.523585767060325" lon="144.26799296733338"><ele>579.0</ele><time>2026-03-22T00:42:07Z</time></trkpt><trkpt lat="-37.52355601576406" lon="144.26807232324998"><ele>579.0</ele><time>2026-03-22T00:42:08Z</time></trkpt><trkpt lat="-37.52352108455233" lon="144.26815802414163"><ele>579.0</ele><time>2026-03-22T00:42:09Z</time></trkpt><trkpt lat="-37.52348384264087" lon="144.26826115764118"><ele>579.0</ele><time>2026-03-22T00:42:09.999Z</time></trkpt><trkpt lat="-37.523452656517996" lon="144.26838739674966"><ele>579.0</ele><time>2026-03-22T00:42:10.999Z</time></trkpt><trkpt lat="-37.52344045917479" lon="144.26850585754912"><ele>580.8333333333334</ele><time>2026-03-22T00:42:11.999Z</time></trkpt><trkpt lat="-37.52340194977482" lon="144.2686105687944"><ele>582.6666666666666</ele><time>2026-03-22T00:42:12.999Z</time></trkpt><trkpt lat="-37.52334293892015" lon="144.26869478416512"><ele>584.5</ele><time>2026-03-22T00:42:14Z</time></trkpt><trkpt lat="-37.52328236070408" lon="144.26874657385963"><ele>586.3333333333333</ele><time>2026-03-22T00:42:15Z</time></trkpt><trkpt lat="-37.5232373132995" lon="144.2688849725702"><ele>588.1666666666666</ele><time>2026-03-22T00:42:16.999Z</time></trkpt><trkpt lat="-37.52323490216047" lon="144.2689714417264"><ele>590.0</ele><time>2026-03-22T00:42:17.999Z</time></trkpt><trkpt lat="-37.52323059619985" lon="144.26908934830195"><ele>591.8</ele><time>2026-03-22T00:42:18.999Z</time></trkpt><trkpt lat="-37.52322962897857" lon="144.26922202292906"><ele>593.6</ele><time>2026-03-22T00:42:19.999Z</time></trkpt><trkpt lat="-37.52321706816986" lon="144.2693098990556"><ele>595.4</ele><time>2026-03-22T00:42:20.999Z</time></trkpt><trkpt lat="-37.523267586176225" lon="144.2694578339396"><ele>597.2</ele><time>2026-03-22T00:42:23Z</time></trkpt><trkpt lat="-37.523359272893906" lon="144.2695613449934"><ele>599.0</ele><time>2026-03-22T00:42:25Z</time></trkpt><trkpt lat="-37.52337554187811" lon="144.26968521992436"><ele>600.8</ele><time>2026-03-22T00:42:26Z</time></trkpt><trkpt lat="-37.52342057932516" lon="144.26984202409778"><ele>602.5999999999999</ele><time>2026-03-22T00:42:27Z</time></trkpt><trkpt lat="-37.52345931171978" lon="144.2699899738434"><ele>604.4</ele><time>2026-03-22T00:42:28Z</time></trkpt><trkpt lat="-37.52346220500645" lon="144.27010102060086"><ele>606.1999999999999</ele><time>2026-03-22T00:42:29Z</time></trkpt><trkpt lat="-37.523435330906366" lon="144.2702108979239"><ele>608.0</ele><time>2026-03-22T00:42:30Z</time></trkpt><trkpt lat="-37.52340228874361" lon="144.27033117993963"><ele>608.0</ele><time>2026-03-22T00:42:31Z</time></trkpt><trkpt lat="-37.52339908872074" lon="144.2704561189361"><ele>608.0</ele><time>2026-03-22T00:42:32Z</time></trkpt><trkpt lat="-37.52343283644516" lon="144.27053803282112"><ele>608.0</ele><time>2026-03-22T00:42:33Z</time></trkpt><trkpt lat="-37.52349743575609" lon="144.27059032289546"><ele>608.0</ele><time>2026-03-22T00:42:34Z</time></trkpt><trkpt lat="-37.52359220136865" lon="144.27068087062193"><ele>608.0</ele><time>2026-03-22T00:42:36Z</time></trkpt><trkpt lat="-37.52362240183762" lon="144.27075901306674"><ele>608.0</ele><time>2026-03-22T00:42:37Z</time></trkpt><trkpt lat="-37.52361290371585" lon="144.27084152819663"><ele>609.0</ele><time>2026-03-22T00:42:38Z</time></trkpt><trkpt lat="-37.52357718682073" lon="144.27096763325275"><ele>610.0</ele><time>2026-03-22T00:42:39Z</time></trkpt><trkpt lat="-37.52356125104915" lon="144.27109379169283"><ele>611.0</ele><time>2026-03-22T00:42:40Z</time></trkpt><trkpt lat="-37.52356274696143" lon="144.27122081161937"><ele>612.0</ele><time>2026-03-22T00:42:41Z</time></trkpt><trkpt lat="-37.523625713166254" lon="144.27141213069243"><ele>613.0</ele><time>2026-03-22T00:42:42Z</time></trkpt><trkpt lat="-37.52363656525712" lon="144.2715057852946"><ele>614.0</ele><time>2026-03-22T00:42:43Z</time></trkpt><trkpt lat="-37.52365699048053" lon="144.27161012672534"><ele>615.0</ele><time>2026-03-22T00:42:44Z</time></trkpt><trkpt lat="-37.52364165571515" lon="144.27172408586952"><ele>616.0</ele><time>2026-03-22T00:42:45Z</time></trkpt><trkpt lat="-37.523637496846185" lon="144.27183120816332"><ele>617.0</ele><time>2026-03-22T00:42:46Z</time></trkpt><trkpt lat="-37.52360068808189" lon="144.27201206264832"><ele>617.0</ele><time>2026-03-22T00:42:47Z</time></trkpt><trkpt lat="-37.523596303466356" lon="144.27216270391642"><ele>617.0</ele><time>2026-03-22T00:42:48Z</time></trkpt><trkpt lat="-37.523598173869324" lon="144.2722819342316"><ele>617.0</ele><time>2026-03-22T00:42:49Z</time></trkpt><trkpt lat="-37.52362947255637" lon="144.27238663877003"><ele>617.0</ele><time>2026-03-22T00:42:50Z</time></trkpt><trkpt lat="-37.5236806976075" lon="144.27246461826735"><ele>617.0</ele><time>2026-03-22T00:42:51Z</time></trkpt><trkpt lat="-37.52374006287806" lon="144.27254848882293"><ele>619.0</ele><time>2026-03-22T00:42:52Z</time></trkpt><trkpt lat="-37.52380110221525" lon="144.27265785769563"><ele>621.0</ele><time>2026-03-22T00:42:53Z</time></trkpt><trkpt lat="-37.52384342785135" lon="144.27278102738336"><ele>623.0</ele><time>2026-03-22T00:42:54Z</time></trkpt><trkpt lat="-37.52385384586827" lon="144.2728995562683"><ele>625.0</ele><time>2026-03-22T00:42:55Z</time></trkpt><trkpt lat="-37.52384830354382" lon="144.27299729279687"><ele>627.0</ele><time>2026-03-22T00:42:56Z</time></trkpt><trkpt lat="-37.52384972783113" lon="144.27310400350962"><ele>629.5</ele><time>2026-03-22T00:42:57Z</time></trkpt><trkpt lat="-37.5238535144036" lon="144.27323001285765"><ele>632.0</ele><time>2026-03-22T00:42:58Z</time></trkpt><trkpt lat="-37.52385146984385" lon="144.27336444367685"><ele>634.5</ele><time>2026-03-22T00:42:59Z</time></trkpt><trkpt lat="-37.52384806983863" lon="144.27350714206537"><ele>637.0</ele><time>2026-03-22T00:43:00Z</time></trkpt><trkpt lat="-37.523861855763855" lon="144.27368007857618"><ele>637.0</ele><time>2026-03-22T00:43:01Z</time></trkpt><trkpt lat="-37.523883384478715" lon="144.27383048285603"><ele>637.0</ele><time>2026-03-22T00:43:02Z</time></trkpt><trkpt lat="-37.52391942074515" lon="144.27397880743874"><ele>637.0</ele><time>2026-03-22T00:43:03Z</time></trkpt><trkpt lat="-37.523960267481016" lon="144.27412521641307"><ele>637.0</ele><time>2026-03-22T00:43:04Z</time></trkpt><trkpt lat="-37.524000839179166" lon="144.27425437531136"><ele>637.75</ele><time>2026-03-22T00:43:05Z</time></trkpt><trkpt lat="-37.524065924444756" lon="144.27438885120802"><ele>638.5</ele><time>2026-03-22T00:43:06Z</time></trkpt><trkpt lat="-37.52412686125935" lon="144.27452687932592"><ele>639.25</ele><time>2026-03-22T00:43:07Z</time></trkpt><trkpt lat="-37.52418714396081" lon="144.27464913398245"><ele>640.0</ele><time>2026-03-22T00:43:08Z</time></trkpt><trkpt lat="-37.52426108275497" lon="144.27476277015523"><ele>640.75</ele><time>2026-03-22T00:43:09Z</time></trkpt><trkpt lat="-37.52433897959654" lon="144.2748776020707"><ele>641.5</ele><time>2026-03-22T00:43:10Z</time></trkpt><trkpt lat="-37.52441712371236" lon="144.27501342518693"><ele>642.25</ele><time>2026-03-22T00:43:11Z</time></trkpt><trkpt lat="-37.52449437322787" lon="144.2751517783319"><ele>643.0</ele><time>2026-03-22T00:43:12Z</time></trkpt><trkpt lat="-37.52457724639039" lon="144.27526250921042"><ele>644.0</ele><time>2026-03-22T00:43:13Z</time></trkpt><trkpt lat="-37.52465631564836" lon="144.2753783612498"><ele>645.0</ele><time>2026-03-22T00:43:14Z</time></trkpt><trkpt lat="-37.52469335455699" lon="144.27548950520304"><ele>646.0</ele><time>2026-03-22T00:43:15Z</time></trkpt><trkpt lat="-37.524700405620635" lon="144.27562326774301"><ele>647.0</ele><time>2026-03-22T00:43:16Z</time></trkpt><trkpt lat="-37.524720181526554" lon="144.27577504814033"><ele>648.0</ele><time>2026-03-22T00:43:17Z</time></trkpt><trkpt lat="-37.52474952136368" lon="144.27591897984414"><ele>648.0</ele><time>2026-03-22T00:43:18Z</time></trkpt><trkpt lat="-37.524791415951725" lon="144.2760295197863"><ele>648.0</ele><time>2026-03-22T00:43:19Z</time></trkpt><trkpt lat="-37.524828596438795" lon="144.2761251784809"><ele>648.0</ele><time>2026-03-22T00:43:20Z</time></trkpt><trkpt lat="-37.52484527627084" lon="144.2762125729877"><ele>648.0</ele><time>2026-03-22T00:43:21Z</time></trkpt><trkpt lat="-37.524812805700016" lon="144.27629331841484"><ele>648.0</ele><time>2026-03-22T00:43:23Z</time></trkpt><trkpt lat="-37.524747407726174" lon="144.27633754349426"><ele>648.0</ele><time>2026-03-22T00:43:24Z</time></trkpt><trkpt lat="-37.52464827486369" lon="144.2763782333093"><ele>647.0</ele><time>2026-03-22T00:43:25Z</time></trkpt><trkpt lat="-37.524516165969324" lon="144.27640404651672"><ele>646.0</ele><time>2026-03-22T00:43:26Z</time></trkpt><trkpt lat="-37.524346854377036" lon="144.2765041623403"><ele>645.0</ele><time>2026-03-22T00:43:27Z</time></trkpt><trkpt lat="-37.524173726881095" lon="144.27666618005276"><ele>645.0</ele><time>2026-03-22T00:43:28Z</time></trkpt><trkpt lat="-37.523975249236265" lon="144.2768181004826"><ele>645.0</ele><time>2026-03-22T00:43:29Z</time></trkpt><trkpt lat="-37.52379619230828" lon="144.2769716083976"><ele>645.0</ele><time>2026-03-22T00:43:30Z</time></trkpt><trkpt lat="-37.52369794433748" lon="144.27709903329486"><ele>644.6</ele><time>2026-03-22T00:43:31Z</time></trkpt><trkpt lat="-37.52364469036266" lon="144.27722968371282"><ele>644.2</ele><time>2026-03-22T00:43:32Z</time></trkpt><trkpt lat="-37.523625215211126" lon="144.27732106557266"><ele>643.8</ele><time>2026-03-22T00:43:33Z</time></trkpt><trkpt lat="-37.52363822041112" lon="144.2774203923498"><ele>643.4</ele><time>2026-03-22T00:43:34Z</time></trkpt><trkpt lat="-37.52366729830308" lon="144.27749865209438"><ele>643.0</ele><time>2026-03-22T00:43:35Z</time></trkpt><trkpt lat="-37.52376380645867" lon="144.2775708078492"><ele>641.6</ele><time>2026-03-22T00:43:37Z</time></trkpt><trkpt lat="-37.523806823004804" lon="144.27766234806975"><ele>640.1999999999999</ele><time>2026-03-22T00:43:39Z</time></trkpt><trkpt lat="-37.52385270128573" lon="144.2777649516247"><ele>638.8</ele><time>2026-03-22T00:43:41Z</time></trkpt><trkpt lat="-37.52390892218908" lon="144.27789641398374"><ele>637.4</ele><time>2026-03-22T00:43:43Z</time></trkpt><trkpt lat="-37.5239578908899" lon="144.27802277248483"><ele>636.0</ele><time>2026-03-22T00:43:45Z</time></trkpt><trkpt lat="-37.523979479493725" lon="144.27815153006588"><ele>635.0</ele><time>2026-03-22T00:43:47Z</time></trkpt><trkpt lat="-37.523976188503504" lon="144.27827745530521"><ele>634.0</ele><time>2026-03-22T00:43:49Z</time></trkpt><trkpt lat="-37.52397681875597" lon="144.27839231909772"><ele>633.0</ele><time>2026-03-22T00:43:51Z</time></trkpt><trkpt lat="-37.52397056184946" lon="144.2785195430028"><ele>632.0</ele><time>2026-03-22T00:43:53Z</time></trkpt><trkpt lat="-37.52395360083722" lon="144.27862664394283"><ele>631.0</ele><time>2026-03-22T00:43:54Z</time></trkpt><trkpt lat="-37.52393596636667" lon="144.2787367142943"><ele>631.0</ele><time>2026-03-22T00:43:55Z</time></trkpt><trkpt lat="-37.52389980447321" lon="144.27886160635998"><ele>631.0</ele><time>2026-03-22T00:43:56Z</time></trkpt><trkpt lat="-37.52384424371115" lon="144.2789999931587"><ele>631.0</ele><time>2026-03-22T00:43:57Z</time></trkpt><trkpt lat="-37.523767271020134" lon="144.27914514023928"><ele>631.0</ele><time>2026-03-22T00:43:58Z</time></trkpt><trkpt lat="-37.52367458024293" lon="144.27925786420357"><ele>631.25</ele><time>2026-03-22T00:43:59Z</time></trkpt><trkpt lat="-37.52357362572164" lon="144.2793241009031"><ele>631.5</ele><time>2026-03-22T00:44:00Z</time></trkpt><trkpt lat="-37.523456861000966" lon="144.27938142743898"><ele>631.75</ele><time>2026-03-22T00:44:01Z</time></trkpt><trkpt lat="-37.52333018032323" lon="144.27942155258904"><ele>632.0</ele><time>2026-03-22T00:44:02Z</time></trkpt><trkpt lat="-37.52320100462846" lon="144.27947291392374"><ele>632.0</ele><time>2026-03-22T00:44:03Z</time></trkpt><trkpt lat="-37.52306919047463" lon="144.27953632759346"><ele>632.0</ele><time>2026-03-22T00:44:04Z</time></trkpt><trkpt lat="-37.522939982341775" lon="144.2796019832535"><ele>632.0</ele><time>2026-03-22T00:44:05Z</time></trkpt><trkpt lat="-37.52280553486275" lon="144.27968063311647"><ele>632.0</ele><time>2026-03-22T00:44:06Z</time></trkpt><trkpt lat="-37.522676923717306" lon="144.2797617009926"><ele>631.5</ele><time>2026-03-22T00:44:07Z</time></trkpt><trkpt lat="-37.52255790359896" lon="144.27983360569655"><ele>631.0</ele><time>2026-03-22T00:44:08Z</time></trkpt><trkpt lat="-37.522442720305534" lon="144.27990952395612"><ele>630.5</ele><time>2026-03-22T00:44:09Z</time></trkpt><trkpt lat="-37.5223337790832" lon="144.27999030824188"><ele>630.0</ele><time>2026-03-22T00:44:10Z</time></trkpt><trkpt lat="-37.5222236506392" lon="144.28006907146622"><ele>630.0</ele><time>2026-03-22T00:44:11Z</time></trkpt><trkpt lat="-37.522108012013604" lon="144.28014696130674"><ele>630.0</ele><time>2026-03-22T00:44:12Z</time></trkpt><trkpt lat="-37.5219931052861" lon="144.2802239737837"><ele>630.0</ele><time>2026-03-22T00:44:13Z</time></trkpt><trkpt lat="-37.52187693300084" lon="144.28030070044983"><ele>630.0</ele><time>2026-03-22T00:44:14Z</time></trkpt><trkpt lat="-37.521766752128656" lon="144.2803734002765"><ele>630.0</ele><time>2026-03-22T00:44:15Z</time></trkpt><trkpt lat="-37.521662792791375" lon="144.28044277556242"><ele>630.0</ele><time>2026-03-22T00:44:16Z</time></trkpt><trkpt lat="-37.52156382700941" lon="144.28049815558398"><ele>630.0</ele><time>2026-03-22T00:44:17Z</time></trkpt><trkpt lat="-37.52145227879187" lon="144.28056530981914"><ele>630.0</ele><time>2026-03-22T00:44:18Z</time></trkpt><trkpt lat="-37.52134557719979" lon="144.28062379015023"><ele>630.0</ele><time>2026-03-22T00:44:19Z</time></trkpt><trkpt lat="-37.52124625762085" lon="144.28067896991274"><ele>630.0</ele><time>2026-03-22T00:44:20Z</time></trkpt><trkpt lat="-37.521180028927084" lon="144.28071821047138"><ele>630.0</ele><time>2026-03-22T00:44:21Z</time></trkpt><trkpt lat="-37.52113414185041" lon="144.28077960915553"><ele>630.0</ele><time>2026-03-22T00:44:22Z</time></trkpt><trkpt lat="-37.52110173299533" lon="144.28086038892593"><ele>630.0</ele><time>2026-03-22T00:44:23Z</time></trkpt><trkpt lat="-37.521061782378595" lon="144.2809300142493"><ele>630.0</ele><time>2026-03-22T00:44:24Z</time></trkpt><trkpt lat="-37.52096704599369" lon="144.28099094966757"><ele>629.8</ele><time>2026-03-22T00:44:25Z</time></trkpt><trkpt lat="-37.52085264506732" lon="144.28104873667925"><ele>629.6</ele><time>2026-03-22T00:44:26Z</time></trkpt><trkpt lat="-37.52075250996018" lon="144.28109959441963"><ele>629.4</ele><time>2026-03-22T00:44:27Z</time></trkpt><trkpt lat="-37.520674687510216" lon="144.28114335824293"><ele>629.2</ele><time>2026-03-22T00:44:28Z</time></trkpt><trkpt lat="-37.52057610714585" lon="144.28119119960184"><ele>629.0</ele><time>2026-03-22T00:44:29Z</time></trkpt><trkpt lat="-37.520473913626184" lon="144.28125127123494"><ele>628.6</ele><time>2026-03-22T00:44:30Z</time></trkpt><trkpt lat="-37.52037413481189" lon="144.28129598078576"><ele>628.2</ele><time>2026-03-22T00:44:31Z</time></trkpt><trkpt lat="-37.52027622707093" lon="144.2813275574489"><ele>627.8000000000001</ele><time>2026-03-22T00:44:32Z</time></trkpt><trkpt lat="-37.52021493996861" lon="144.28135360024314"><ele>627.4</ele><time>2026-03-22T00:44:33Z</time></trkpt><trkpt lat="-37.52013363835536" lon="144.28141693670207"><ele>627.0</ele><time>2026-03-22T00:44:35Z</time></trkpt><trkpt lat="-37.520039797362074" lon="144.28145400616958"><ele>627.0</ele><time>2026-03-22T00:44:37Z</time></trkpt><trkpt lat="-37.51992353650413" lon="144.2815532228785"><ele>627.0</ele><time>2026-03-22T00:44:38Z</time></trkpt><trkpt lat="-37.51981905371598" lon="144.28164399968574"><ele>627.0</ele><time>2026-03-22T00:44:39Z</time></trkpt><trkpt lat="-37.519728270142465" lon="144.2817001811985"><ele>627.0</ele><time>2026-03-22T00:44:40Z</time></trkpt><trkpt lat="-37.519654212555366" lon="144.281736573635"><ele>627.0</ele><time>2026-03-22T00:44:41Z</time></trkpt><trkpt lat="-37.51959321164421" lon="144.2817690229933"><ele>625.8333333333334</ele><time>2026-03-22T00:44:42Z</time></trkpt><trkpt lat="-37.519489077392016" lon="144.28187550591346"><ele>624.6666666666666</ele><time>2026-03-22T00:44:44Z</time></trkpt><trkpt lat="-37.51942278359659" lon="144.28191580147583"><ele>623.5</ele><time>2026-03-22T00:44:45Z</time></trkpt><trkpt lat="-37.51935314004478" lon="144.28193852660158"><ele>622.3333333333333</ele><time>2026-03-22T00:44:47Z</time></trkpt><trkpt lat="-37.51930315783912" lon="144.28198862462932"><ele>621.1666666666666</ele><time>2026-03-22T00:44:49Z</time></trkpt><trkpt lat="-37.51922295839819" lon="144.28205446138693"><ele>620.0</ele><time>2026-03-22T00:44:50Z</time></trkpt><trkpt lat="-37.51915270802634" lon="144.28213390316003"><ele>620.0</ele><time>2026-03-22T00:44:51Z</time></trkpt><trkpt lat="-37.51908696247203" lon="144.28220413131515"><ele>620.0</ele><time>2026-03-22T00:44:52Z</time></trkpt><trkpt lat="-37.51900815922597" lon="144.28226974725214"><ele>620.0</ele><time>2026-03-22T00:44:53Z</time></trkpt><trkpt lat="-37.518943335834706" lon="144.28232028687222"><ele>620.0</ele><time>2026-03-22T00:44:54Z</time></trkpt><trkpt lat="-37.51886148675804" lon="144.28234745198665"><ele>620.0</ele><time>2026-03-22T00:44:56Z</time></trkpt><trkpt lat="-37.51885567972227" lon="144.28226584717376"><ele>620.0</ele><time>2026-03-22T00:44:59Z</time></trkpt><trkpt lat="-37.518794489556086" lon="144.2822231115384"><ele>619.5</ele><time>2026-03-22T00:45:01Z</time></trkpt><trkpt lat="-37.51867196355223" lon="144.28223648785672"><ele>619.0</ele><time>2026-03-22T00:45:03Z</time></trkpt><trkpt lat="-37.518600803073966" lon="144.28229701809306"><ele>618.5</ele><time>2026-03-22T00:45:04Z</time></trkpt><trkpt lat="-37.51850831171815" lon="144.28238906897388"><ele>618.0</ele><time>2026-03-22T00:45:05Z</time></trkpt><trkpt lat="-37.51835173333587" lon="144.2825010220363"><ele>621.3333333333334</ele><time>2026-03-22T00:45:06Z</time></trkpt><trkpt lat="-37.51817321952176" lon="144.28258197640588"><ele>624.6666666666667</ele><time>2026-03-22T00:45:07Z</time></trkpt><trkpt lat="-37.518028444131374" lon="144.28262215173487"><ele>628.0</ele><time>2026-03-22T00:45:08Z</time></trkpt><trkpt lat="-37.51787706640701" lon="144.28265093895698"><ele>628.0</ele><time>2026-03-22T00:45:09Z</time></trkpt><trkpt lat="-37.51771767872444" lon="144.28268312808402"><ele>628.0</ele><time>2026-03-22T00:45:10Z</time></trkpt><trkpt lat="-37.51757601411058" lon="144.2827054142779"><ele>628.0</ele><time>2026-03-22T00:45:11Z</time></trkpt><trkpt lat="-37.517417536594664" lon="144.28271152953545"><ele>628.0</ele><time>2026-03-22T00:45:12Z</time></trkpt><trkpt lat="-37.51725812758866" lon="144.28271286296732"><ele>628.0</ele><time>2026-03-22T00:45:13Z</time></trkpt><trkpt lat="-37.517076690565446" lon="144.28270755496303"><ele>628.0</ele><time>2026-03-22T00:45:14Z</time></trkpt><trkpt lat="-37.51692300260662" lon="144.28271186292207"><ele>627.75</ele><time>2026-03-22T00:45:15Z</time></trkpt><trkpt lat="-37.51677079399658" lon="144.28273737288757"><ele>627.5</ele><time>2026-03-22T00:45:16Z</time></trkpt><trkpt lat="-37.51661742791468" lon="144.28276792694265"><ele>627.25</ele><time>2026-03-22T00:45:17Z</time></trkpt><trkpt lat="-37.51648490152472" lon="144.2828013898816"><ele>627.0</ele><time>2026-03-22T00:45:18Z</time></trkpt><trkpt lat="-37.516357591272026" lon="144.2828388506539"><ele>627.0</ele><time>2026-03-22T00:45:19Z</time></trkpt><trkpt lat="-37.516239129559615" lon="144.28289295173488"><ele>627.0</ele><time>2026-03-22T00:45:20Z</time></trkpt><trkpt lat="-37.51613142948166" lon="144.2829536775081"><ele>627.0</ele><time>2026-03-22T00:45:21Z</time></trkpt><trkpt lat="-37.51602352031868" lon="144.28301589149885"><ele>627.0</ele><time>2026-03-22T00:45:22Z</time></trkpt><trkpt lat="-37.51593363496487" lon="144.28307572021015"><ele>629.2</ele><time>2026-03-22T00:45:23Z</time></trkpt><trkpt lat="-37.5158295891998" lon="144.28313301054507"><ele>631.4000000000001</ele><time>2026-03-22T00:45:24Z</time></trkpt><trkpt lat="-37.515741560652856" lon="144.28317959811451"><ele>633.5999999999999</ele><time>2026-03-22T00:45:25Z</time></trkpt><trkpt lat="-37.5156463199832" lon="144.2832309728738"><ele>635.8</ele><time>2026-03-22T00:45:26Z</time></trkpt><trkpt lat="-37.51554013824559" lon="144.28327992483918"><ele>638.0</ele><time>2026-03-22T00:45:27Z</time></trkpt><trkpt lat="-37.515439575152215" lon="144.28333385991937"><ele>638.5999999999999</ele><time>2026-03-22T00:45:28Z</time></trkpt><trkpt lat="-37.515337070685284" lon="144.28338320449458"><ele>639.1999999999999</ele><time>2026-03-22T00:45:29Z</time></trkpt><trkpt lat="-37.51525321582562" lon="144.2834178638585"><ele>639.8</ele><time>2026-03-22T00:45:30Z</time></trkpt><trkpt lat="-37.515159864196896" lon="144.28347799267829"><ele>640.4</ele><time>2026-03-22T00:45:31Z</time></trkpt><trkpt lat="-37.515054309536524" lon="144.28353606200923"><ele>641.0</ele><time>2026-03-22T00:45:32Z</time></trkpt><trkpt lat="-37.51495102867844" lon="144.2835922249552"><ele>641.0</ele><time>2026-03-22T00:45:33Z</time></trkpt><trkpt lat="-37.514840639431576" lon="144.28365684720356"><ele>641.0</ele><time>2026-03-22T00:45:34Z</time></trkpt><trkpt lat="-37.51473755427472" lon="144.28371986190143"><ele>641.0</ele><time>2026-03-22T00:45:35Z</time></trkpt><trkpt lat="-37.51461210876345" lon="144.28379323709697"><ele>641.0</ele><time>2026-03-22T00:45:36Z</time></trkpt><trkpt lat="-37.514479101010245" lon="144.28386946358452"><ele>641.6666666666666</ele><time>2026-03-22T00:45:37Z</time></trkpt><trkpt lat="-37.51433487324782" lon="144.28392796705344"><ele>642.3333333333334</ele><time>2026-03-22T00:45:38Z</time></trkpt><trkpt lat="-37.5141891729814" lon="144.2840029771532"><ele>643.0</ele><time>2026-03-22T00:45:39Z</time></trkpt><trkpt lat="-37.51404499476397" lon="144.28406930469677"><ele>643.0</ele><time>2026-03-22T00:45:40Z</time></trkpt><trkpt lat="-37.51391075751155" lon="144.28413693931867"><ele>643.0</ele><time>2026-03-22T00:45:41Z</time></trkpt><trkpt lat="-37.51377715196997" lon="144.28420263936252"><ele>643.0</ele><time>2026-03-22T00:45:42Z</time></trkpt><trkpt lat="-37.51365091007596" lon="144.2842716031314"><ele>643.0</ele><time>2026-03-22T00:45:43Z</time></trkpt><trkpt lat="-37.51353420603266" lon="144.2843260266284"><ele>642.0</ele><time>2026-03-22T00:45:44Z</time></trkpt><trkpt lat="-37.51341223086333" lon="144.28439284917798"><ele>641.0</ele><time>2026-03-22T00:45:45Z</time></trkpt><trkpt lat="-37.51329029103062" lon="144.28447289273845"><ele>640.0</ele><time>2026-03-22T00:45:46Z</time></trkpt><trkpt lat="-37.51316531233003" lon="144.28454310727977"><ele>639.0</ele><time>2026-03-22T00:45:47Z</time></trkpt><trkpt lat="-37.5130421713003" lon="144.2846206585759"><ele>639.0</ele><time>2026-03-22T00:45:48Z</time></trkpt><trkpt lat="-37.51291369042223" lon="144.2847124547069"><ele>639.0</ele><time>2026-03-22T00:45:49Z</time></trkpt><trkpt lat="-37.512777861723606" lon="144.2848053401281"><ele>639.0</ele><time>2026-03-22T00:45:50Z</time></trkpt><trkpt lat="-37.51262490194395" lon="144.2849065583865"><ele>640.6666666666666</ele><time>2026-03-22T00:45:51Z</time></trkpt><trkpt lat="-37.51248124102135" lon="144.285006438052"><ele>642.3333333333333</ele><time>2026-03-22T00:45:52Z</time></trkpt><trkpt lat="-37.51232161852211" lon="144.28511246148415"><ele>644.0</ele><time>2026-03-22T00:45:53Z</time></trkpt><trkpt lat="-37.512180441673976" lon="144.28520286663783"><ele>644.5</ele><time>2026-03-22T00:45:54Z</time></trkpt><trkpt lat="-37.51204107009993" lon="144.28528730172545"><ele>645.0</ele><time>2026-03-22T00:45:55Z</time></trkpt><trkpt lat="-37.511913430019824" lon="144.28536300009662"><ele>645.5</ele><time>2026-03-22T00:45:56Z</time></trkpt><trkpt lat="-37.5117866665404" lon="144.28538716256313"><ele>646.0</ele><time>2026-03-22T00:45:57Z</time></trkpt><trkpt lat="-37.51164555918956" lon="144.28537025074718"><ele>646.0</ele><time>2026-03-22T00:45:58Z</time></trkpt><trkpt lat="-37.51149588429669" lon="144.2853420064439"><ele>646.0</ele><time>2026-03-22T00:45:59Z</time></trkpt><trkpt lat="-37.5113381151008" lon="144.28530459343878"><ele>646.0</ele><time>2026-03-22T00:46:00Z</time></trkpt><trkpt lat="-37.51119290300708" lon="144.28529451885126"><ele>646.3333333333334</ele><time>2026-03-22T00:46:01Z</time></trkpt><trkpt lat="-37.511039188044286" lon="144.28531403816382"><ele>646.6666666666666</ele><time>2026-03-22T00:46:02Z</time></trkpt><trkpt lat="-37.51088031738435" lon="144.28537802881698"><ele>647.0</ele><time>2026-03-22T00:46:03Z</time></trkpt><trkpt lat="-37.510710449195706" lon="144.28546842290072"><ele>647.0</ele><time>2026-03-22T00:46:04Z</time></trkpt><trkpt lat="-37.5105364771349" lon="144.2855687088661"><ele>647.0</ele><time>2026-03-22T00:46:05Z</time></trkpt><trkpt lat="-37.510379860008676" lon="144.2856612597982"><ele>647.0</ele><time>2026-03-22T00:46:06Z</time></trkpt><trkpt lat="-37.51023127297145" lon="144.2857487136017"><ele>648.6666666666666</ele><time>2026-03-22T00:46:07Z</time></trkpt><trkpt lat="-37.51007437728913" lon="144.28584618868848"><ele>650.3333333333334</ele><time>2026-03-22T00:46:08Z</time></trkpt><trkpt lat="-37.50993277704513" lon="144.28594688613524"><ele>652.0</ele><time>2026-03-22T00:46:09Z</time></trkpt><trkpt lat="-37.509771412859166" lon="144.28605975063124"><ele>652.0</ele><time>2026-03-22T00:46:10Z</time></trkpt><trkpt lat="-37.50961932925291" lon="144.2861562649588"><ele>652.0</ele><time>2026-03-22T00:46:11Z</time></trkpt><trkpt lat="-37.50946206810247" lon="144.28625754589316"><ele>652.0</ele><time>2026-03-22T00:46:12Z</time></trkpt><trkpt lat="-37.509320711875844" lon="144.28635442605912"><ele>654.3333333333334</ele><time>2026-03-22T00:46:13Z</time></trkpt><trkpt lat="-37.509183961409754" lon="144.28647528989754"><ele>656.6666666666666</ele><time>2026-03-22T00:46:14Z</time></trkpt><trkpt lat="-37.50904778466148" lon="144.2866033053504"><ele>659.0</ele><time>2026-03-22T00:46:15Z</time></trkpt><trkpt lat="-37.50892501113774" lon="144.28674352142696"><ele>659.0</ele><time>2026-03-22T00:46:16Z</time></trkpt><trkpt lat="-37.508790305064935" lon="144.28688791552335"><ele>659.0</ele><time>2026-03-22T00:46:17Z</time></trkpt><trkpt lat="-37.50865360356469" lon="144.2870119052485"><ele>659.0</ele><time>2026-03-22T00:46:18Z</time></trkpt><trkpt lat="-37.50851128910391" lon="144.2871529130805"><ele>661.0</ele><time>2026-03-22T00:46:19Z</time></trkpt><trkpt lat="-37.50835350970861" lon="144.28728595937466"><ele>663.0</ele><time>2026-03-22T00:46:20Z</time></trkpt><trkpt lat="-37.50821156450383" lon="144.2874163982025"><ele>665.0</ele><time>2026-03-22T00:46:21Z</time></trkpt><trkpt lat="-37.508075268382115" lon="144.28754965921334"><ele>665.0</ele><time>2026-03-22T00:46:22Z</time></trkpt><trkpt lat="-37.50793937987835" lon="144.28768221274697"><ele>665.0</ele><time>2026-03-22T00:46:23Z</time></trkpt><trkpt lat="-37.50779574319032" lon="144.28781373403885"><ele>665.0</ele><time>2026-03-22T00:46:24Z</time></trkpt><trkpt lat="-37.50765469739962" lon="144.28794553961254"><ele>664.0</ele><time>2026-03-22T00:46:25Z</time></trkpt><trkpt lat="-37.507487476818454" lon="144.28806490275423"><ele>663.0</ele><time>2026-03-22T00:46:26Z</time></trkpt><trkpt lat="-37.507321525295524" lon="144.28816018565928"><ele>662.0</ele><time>2026-03-22T00:46:27Z</time></trkpt><trkpt lat="-37.50713499563358" lon="144.28823977177692"><ele>665.6666666666666</ele><time>2026-03-22T00:46:28Z</time></trkpt><trkpt lat="-37.506968367597736" lon="144.28830486834144"><ele>669.3333333333334</ele><time>2026-03-22T00:46:29Z</time></trkpt><trkpt lat="-37.506818277925014" lon="144.28835574206042"><ele>673.0</ele><time>2026-03-22T00:46:30Z</time></trkpt><trkpt lat="-37.5066798438541" lon="144.28841783208568"><ele>673.0</ele><time>2026-03-22T00:46:31Z</time></trkpt><trkpt lat="-37.50655066248472" lon="144.28848938881757"><ele>673.0</ele><time>2026-03-22T00:46:32Z</time></trkpt><trkpt lat="-37.5064053108227" lon="144.2885845581205"><ele>673.0</ele><time>2026-03-22T00:46:33Z</time></trkpt><trkpt lat="-37.50627701201632" lon="144.28868352492015"><ele>674.0</ele><time>2026-03-22T00:46:34Z</time></trkpt><trkpt lat="-37.50615551936882" lon="144.28879863064475"><ele>675.0</ele><time>2026-03-22T00:46:35Z</time></trkpt><trkpt lat="-37.5060569829984" lon="144.28893555952783"><ele>676.0</ele><time>2026-03-22T00:46:36Z</time></trkpt><trkpt lat="-37.50594263283373" lon="144.2890958706518"><ele>676.6666666666667</ele><time>2026-03-22T00:46:37Z</time></trkpt><trkpt lat="-37.50583757749624" lon="144.289243866216"><ele>677.3333333333334</ele><time>2026-03-22T00:46:38Z</time></trkpt><trkpt lat="-37.50571434289959" lon="144.28939357920027"><ele>678.0</ele><time>2026-03-22T00:46:39Z</time></trkpt><trkpt lat="-37.505592451427404" lon="144.2895418123623"><ele>678.0</ele><time>2026-03-22T00:46:40Z</time></trkpt><trkpt lat="-37.50547219751695" lon="144.28969997223342"><ele>678.0</ele><time>2026-03-22T00:46:41Z</time></trkpt><trkpt lat="-37.5053432598804" lon="144.28985805555678"><ele>678.0</ele><time>2026-03-22T00:46:42Z</time></trkpt><trkpt lat="-37.50522562244005" lon="144.29000319072517"><ele>678.75</ele><time>2026-03-22T00:46:43Z</time></trkpt><trkpt lat="-37.50513224334079" lon="144.2901377047363"><ele>679.5</ele><time>2026-03-22T00:46:44Z</time></trkpt><trkpt lat="-37.50505598081212" lon="144.2902795335558"><ele>680.25</ele><time>2026-03-22T00:46:45Z</time></trkpt><trkpt lat="-37.504987823914604" lon="144.2904144909249"><ele>681.0</ele><time>2026-03-22T00:46:46Z</time></trkpt><trkpt lat="-37.50490167392347" lon="144.29054968962643"><ele>680.8</ele><time>2026-03-22T00:46:47Z</time></trkpt><trkpt lat="-37.50481622412658" lon="144.29067196697537"><ele>680.5999999999999</ele><time>2026-03-22T00:46:48Z</time></trkpt><trkpt lat="-37.50474218908762" lon="144.2907589558087"><ele>680.4</ele><time>2026-03-22T00:46:49Z</time></trkpt><trkpt lat="-37.50468271364733" lon="144.29082004400937"><ele>680.2</ele><time>2026-03-22T00:46:50Z</time></trkpt><trkpt lat="-37.50462743297803" lon="144.29090746347953"><ele>680.0</ele><time>2026-03-22T00:46:52Z</time></trkpt><trkpt lat="-37.50456245136789" lon="144.29097200668247"><ele>680.2</ele><time>2026-03-22T00:46:54Z</time></trkpt><trkpt lat="-37.50463709048187" lon="144.2909690443847"><ele>680.4</ele><time>2026-03-22T00:46:59Z</time></trkpt><trkpt lat="-37.50471311373396" lon="144.2908332727445"><ele>680.5999999999999</ele><time>2026-03-22T00:47:01Z</time></trkpt><trkpt lat="-37.504779543494294" lon="144.29074718522574"><ele>680.8</ele><time>2026-03-22T00:47:03Z</time></trkpt><trkpt lat="-37.50488240548307" lon="144.290627132401"><ele>681.0</ele><time>2026-03-22T00:47:04Z</time></trkpt><trkpt lat="-37.50496052494641" lon="144.29052964497782"><ele>681.0</ele><time>2026-03-22T00:47:05Z</time></trkpt><trkpt lat="-37.50505441755822" lon="144.29052996767803"><ele>681.0</ele><time>2026-03-22T00:47:07Z</time></trkpt><trkpt lat="-37.50511877349077" lon="144.29059199216704"><ele>681.0</ele><time>2026-03-22T00:47:08Z</time></trkpt><trkpt lat="-37.50519063154597" lon="144.29068690270364"><ele>681.0</ele><time>2026-03-22T00:47:09Z</time></trkpt><trkpt lat="-37.50525498965812" lon="144.290776681479"><ele>681.0</ele><time>2026-03-22T00:47:10Z</time></trkpt><trkpt lat="-37.50538594699191" lon="144.29091143798883"><ele>682.5999999999999</ele><time>2026-03-22T00:47:11Z</time></trkpt><trkpt lat="-37.50546125627612" lon="144.2910273185292"><ele>684.2</ele><time>2026-03-22T00:47:12Z</time></trkpt><trkpt lat="-37.50552667161188" lon="144.29116309810175"><ele>685.8</ele><time>2026-03-22T00:47:13Z</time></trkpt><trkpt lat="-37.50556103883441" lon="144.29126240835978"><ele>687.4000000000001</ele><time>2026-03-22T00:47:14Z</time></trkpt><trkpt lat="-37.50563157579484" lon="144.29138249341736"><ele>689.0</ele><time>2026-03-22T00:47:15Z</time></trkpt><trkpt lat="-37.505715687662935" lon="144.29148745316343"><ele>689.4000000000001</ele><time>2026-03-22T00:47:16Z</time></trkpt><trkpt lat="-37.50579960584777" lon="144.29156868147186"><ele>689.8</ele><time>2026-03-22T00:47:17Z</time></trkpt><trkpt lat="-37.50590910337448" lon="144.29161792793565"><ele>690.2</ele><time>2026-03-22T00:47:18Z</time></trkpt><trkpt lat="-37.50601555526425" lon="144.29164439423351"><ele>690.5999999999999</ele><time>2026-03-22T00:47:19Z</time></trkpt><trkpt lat="-37.50611027097972" lon="144.29168238091597"><ele>691.0</ele><time>2026-03-22T00:47:20Z</time></trkpt><trkpt lat="-37.50626360807765" lon="144.2915755394331"><ele>691.5</ele><time>2026-03-22T00:47:21Z</time></trkpt><trkpt lat="-37.50638829668905" lon="144.29153461703223"><ele>692.0</ele><time>2026-03-22T00:47:22Z</time></trkpt><trkpt lat="-37.506515004653146" lon="144.29152351682538"><ele>692.5</ele><time>2026-03-22T00:47:23Z</time></trkpt><trkpt lat="-37.50664781308149" lon="144.29153733558223"><ele>693.0</ele><time>2026-03-22T00:47:24Z</time></trkpt><trkpt lat="-37.506782568242656" lon="144.29157743374762"><ele>693.0</ele><time>2026-03-22T00:47:25Z</time></trkpt><trkpt lat="-37.50693098164155" lon="144.29163351110202"><ele>693.0</ele><time>2026-03-22T00:47:26Z</time></trkpt><trkpt lat="-37.50707159486374" lon="144.291685062958"><ele>693.0</ele><time>2026-03-22T00:47:27.001Z</time></trkpt><trkpt lat="-37.50719200740327" lon="144.29174531323025"><ele>693.0</ele><time>2026-03-22T00:47:28.001Z</time></trkpt><trkpt lat="-37.50728375721762" lon="144.2918282435372"><ele>692.2</ele><time>2026-03-22T00:47:29.001Z</time></trkpt><trkpt lat="-37.50737502312722" lon="144.29190962648198"><ele>691.4</ele><time>2026-03-22T00:47:30.001Z</time></trkpt><trkpt lat="-37.50746149913582" lon="144.29197099474283"><ele>690.6</ele><time>2026-03-22T00:47:31.001Z</time></trkpt><trkpt lat="-37.5075440360454" lon="144.2920132125176"><ele>689.8000000000001</ele><time>2026-03-22T00:47:32.001Z</time></trkpt><trkpt lat="-37.50762667414369" lon="144.29198715252323"><ele>689.0</ele><time>2026-03-22T00:47:33.001Z</time></trkpt><trkpt lat="-37.50770570889277" lon="144.29192329883935"><ele>689.0</ele><time>2026-03-22T00:47:34.001Z</time></trkpt><trkpt lat="-37.50782413164921" lon="144.29180092510853"><ele>689.0</ele><time>2026-03-22T00:47:35.001Z</time></trkpt><trkpt lat="-37.507932239579866" lon="144.2917328646381"><ele>689.0</ele><time>2026-03-22T00:47:36.001Z</time></trkpt><trkpt lat="-37.50804649964253" lon="144.29167414083042"><ele>689.0</ele><time>2026-03-22T00:47:37.001Z</time></trkpt><trkpt lat="-37.50816975037145" lon="144.2916050624456"><ele>687.75</ele><time>2026-03-22T00:47:38.001Z</time></trkpt><trkpt lat="-37.50830903682586" lon="144.29152956147496"><ele>686.5</ele><time>2026-03-22T00:47:39.001Z</time></trkpt><trkpt lat="-37.50845140524602" lon="144.29146579181017"><ele>685.25</ele><time>2026-03-22T00:47:40.001Z</time></trkpt><trkpt lat="-37.508554827046844" lon="144.29141117400815"><ele>684.0</ele><time>2026-03-22T00:47:41.001Z</time></trkpt><trkpt lat="-37.50864846102913" lon="144.29137839396788"><ele>682.4000000000001</ele><time>2026-03-22T00:47:42.001Z</time></trkpt><trkpt lat="-37.50874784354314" lon="144.29138654149304"><ele>680.8</ele><time>2026-03-22T00:47:43.001Z</time></trkpt><trkpt lat="-37.508809780634216" lon="144.2914374465112"><ele>679.2</ele><time>2026-03-22T00:47:44.001Z</time></trkpt><trkpt lat="-37.50892133015039" lon="144.2915007870955"><ele>677.5999999999999</ele><time>2026-03-22T00:47:45.001Z</time></trkpt><trkpt lat="-37.509050374491764" lon="144.29157841139002"><ele>676.0</ele><time>2026-03-22T00:47:46.001Z</time></trkpt><trkpt lat="-37.50915480647353" lon="144.29164286565094"><ele>676.0</ele><time>2026-03-22T00:47:47.001Z</time></trkpt><trkpt lat="-37.50924917216947" lon="144.2916950238803"><ele>676.0</ele><time>2026-03-22T00:47:48.001Z</time></trkpt><trkpt lat="-37.50935033827303" lon="144.29170354991948"><ele>676.0</ele><time>2026-03-22T00:47:49.001Z</time></trkpt><trkpt lat="-37.50946118492679" lon="144.2916758732354"><ele>676.0</ele><time>2026-03-22T00:47:50.001Z</time></trkpt><trkpt lat="-37.509590145159876" lon="144.2916421480635"><ele>676.0</ele><time>2026-03-22T00:47:51.001Z</time></trkpt><trkpt lat="-37.509736934384115" lon="144.2916095143092"><ele>673.25</ele><time>2026-03-22T00:47:52.001Z</time></trkpt><trkpt lat="-37.509889273758354" lon="144.29158801692168"><ele>670.5</ele><time>2026-03-22T00:47:53.001Z</time></trkpt><trkpt lat="-37.51002085666653" lon="144.29157546190484"><ele>667.75</ele><time>2026-03-22T00:47:54.001Z</time></trkpt><trkpt lat="-37.51012955519685" lon="144.29157173670288"><ele>665.0</ele><time>2026-03-22T00:47:55.001Z</time></trkpt><trkpt lat="-37.51023437595005" lon="144.2915757241428"><ele>665.0</ele><time>2026-03-22T00:47:56.001Z</time></trkpt><trkpt lat="-37.51031224352099" lon="144.29160437026442"><ele>665.0</ele><time>2026-03-22T00:47:57.001Z</time></trkpt><trkpt lat="-37.51037730096244" lon="144.2916145973702"><ele>665.0</ele><time>2026-03-22T00:47:59.001Z</time></trkpt><trkpt lat="-37.51044576207461" lon="144.29158296357198"><ele>665.0</ele><time>2026-03-22T00:48:08.001Z</time></trkpt><trkpt lat="-37.5105413172209" lon="144.29154994231396"><ele>665.0</ele><time>2026-03-22T00:48:09.001Z</time></trkpt><trkpt lat="-37.51063782326531" lon="144.2915016603795"><ele>665.0</ele><time>2026-03-22T00:48:10.001Z</time></trkpt><trkpt lat="-37.510757998132114" lon="144.29142961812556"><ele>662.25</ele><time>2026-03-22T00:48:11.001Z</time></trkpt><trkpt lat="-37.51085491095435" lon="144.29136419405665"><ele>659.5</ele><time>2026-03-22T00:48:12.001Z</time></trkpt><trkpt lat="-37.51095698068115" lon="144.2913063685671"><ele>656.75</ele><time>2026-03-22T00:48:13.001Z</time></trkpt><trkpt lat="-37.51107761479362" lon="144.29125665638404"><ele>654.0</ele><time>2026-03-22T00:48:14.001Z</time></trkpt><trkpt lat="-37.511201371312694" lon="144.29121449219616"><ele>653.25</ele><time>2026-03-22T00:48:15.001Z</time></trkpt><trkpt lat="-37.511313112269065" lon="144.2911683396135"><ele>652.5</ele><time>2026-03-22T00:48:16.001Z</time></trkpt><trkpt lat="-37.51142275132267" lon="144.29110663949874"><ele>651.75</ele><time>2026-03-22T00:48:17.001Z</time></trkpt><trkpt lat="-37.511522843384945" lon="144.29104653821435"><ele>651.0</ele><time>2026-03-22T00:48:18.001Z</time></trkpt><trkpt lat="-37.51163268856616" lon="144.29098030584225"><ele>651.0</ele><time>2026-03-22T00:48:19.001Z</time></trkpt><trkpt lat="-37.51174235282361" lon="144.29093969661727"><ele>651.0</ele><time>2026-03-22T00:48:20.001Z</time></trkpt><trkpt lat="-37.51183912327808" lon="144.29089133745435"><ele>651.0</ele><time>2026-03-22T00:48:21.001Z</time></trkpt><trkpt lat="-37.51192824393452" lon="144.29083759663692"><ele>651.0</ele><time>2026-03-22T00:48:22.001Z</time></trkpt><trkpt lat="-37.51203302242241" lon="144.29079810068842"><ele>651.0</ele><time>2026-03-22T00:48:23.001Z</time></trkpt><trkpt lat="-37.51213921342331" lon="144.29079018339468"><ele>650.5</ele><time>2026-03-22T00:48:24.001Z</time></trkpt><trkpt lat="-37.51225369281821" lon="144.29082973763113"><ele>650.0</ele><time>2026-03-22T00:48:25.001Z</time></trkpt><trkpt lat="-37.512397969761345" lon="144.29086966672463"><ele>649.5</ele><time>2026-03-22T00:48:26.001Z</time></trkpt><trkpt lat="-37.51254466533972" lon="144.2908847613001"><ele>649.0</ele><time>2026-03-22T00:48:27.001Z</time></trkpt><trkpt lat="-37.5127247895843" lon="144.29088902777667"><ele>649.0</ele><time>2026-03-22T00:48:28.001Z</time></trkpt><trkpt lat="-37.51288060129935" lon="144.29090986880266"><ele>649.0</ele><time>2026-03-22T00:48:29.001Z</time></trkpt><trkpt lat="-37.51304673258257" lon="144.29094377220233"><ele>649.0</ele><time>2026-03-22T00:48:30.001Z</time></trkpt><trkpt lat="-37.513208506997444" lon="144.29098872159295"><ele>648.75</ele><time>2026-03-22T00:48:31.001Z</time></trkpt><trkpt lat="-37.513341153081385" lon="144.29102850722143"><ele>648.5</ele><time>2026-03-22T00:48:32.001Z</time></trkpt><trkpt lat="-37.513482034001285" lon="144.2910661633401"><ele>648.25</ele><time>2026-03-22T00:48:33.001Z</time></trkpt><trkpt lat="-37.51362881936611" lon="144.29110662055479"><ele>648.0</ele><time>2026-03-22T00:48:34.001Z</time></trkpt><trkpt lat="-37.51377929993813" lon="144.2911074295365"><ele>648.0</ele><time>2026-03-22T00:48:35.001Z</time></trkpt><trkpt lat="-37.51391766612065" lon="144.29110037214357"><ele>648.0</ele><time>2026-03-22T00:48:36.001Z</time></trkpt><trkpt lat="-37.51406040564427" lon="144.2910999842649"><ele>648.0</ele><time>2026-03-22T00:48:37.001Z</time></trkpt><trkpt lat="-37.51419115207684" lon="144.29111321907044"><ele>648.0</ele><time>2026-03-22T00:48:38.001Z</time></trkpt><trkpt lat="-37.514302136897236" lon="144.29112190138147"><ele>648.0</ele><time>2026-03-22T00:48:39.001Z</time></trkpt><trkpt lat="-37.514420704341624" lon="144.29113763786302"><ele>648.0</ele><time>2026-03-22T00:48:40.001Z</time></trkpt><trkpt lat="-37.51454122979238" lon="144.2911642917003"><ele>648.0</ele><time>2026-03-22T00:48:41.001Z</time></trkpt><trkpt lat="-37.514659595687405" lon="144.29117913428414"><ele>648.0</ele><time>2026-03-22T00:48:42.001Z</time></trkpt><trkpt lat="-37.51479014954674" lon="144.29115426887216"><ele>646.5</ele><time>2026-03-22T00:48:43.001Z</time></trkpt><trkpt lat="-37.514901434465244" lon="144.29113458754045"><ele>645.0</ele><time>2026-03-22T00:48:44.001Z</time></trkpt><trkpt lat="-37.51504502944637" lon="144.29111584369173"><ele>643.5</ele><time>2026-03-22T00:48:45.001Z</time></trkpt><trkpt lat="-37.51516612908585" lon="144.29114512734094"><ele>642.0</ele><time>2026-03-22T00:48:46.001Z</time></trkpt><trkpt lat="-37.51529261521596" lon="144.29120346774056"><ele>641.2</ele><time>2026-03-22T00:48:47.001Z</time></trkpt><trkpt lat="-37.51540877799233" lon="144.29126777400634"><ele>640.4000000000001</ele><time>2026-03-22T00:48:48.001Z</time></trkpt><trkpt lat="-37.51549381448263" lon="144.29131781536918"><ele>639.5999999999999</ele><time>2026-03-22T00:48:49.001Z</time></trkpt><trkpt lat="-37.515558317259966" lon="144.29138443462006"><ele>638.8</ele><time>2026-03-22T00:48:50.001Z</time></trkpt><trkpt lat="-37.515620157131046" lon="144.29150881524643"><ele>638.0</ele><time>2026-03-22T00:48:51.001Z</time></trkpt><trkpt lat="-37.51564801456222" lon="144.29164636472964"><ele>638.0</ele><time>2026-03-22T00:48:52.001Z</time></trkpt><trkpt lat="-37.51568037300972" lon="144.29177268443732"><ele>638.0</ele><time>2026-03-22T00:48:53.001Z</time></trkpt><trkpt lat="-37.51575578123007" lon="144.29188268104127"><ele>638.0</ele><time>2026-03-22T00:48:55.001Z</time></trkpt><trkpt lat="-37.51584995582871" lon="144.29194667994196"><ele>638.0</ele><time>2026-03-22T00:48:56.001Z</time></trkpt><trkpt lat="-37.51593012790438" lon="144.29195417440633"><ele>638.0</ele><time>2026-03-22T00:48:57Z</time></trkpt><trkpt lat="-37.51598994414238" lon="144.29198066295157"><ele>638.0</ele><time>2026-03-22T00:48:59Z</time></trkpt><trkpt lat="-37.516078026945785" lon="144.29196238486006"><ele>638.0</ele><time>2026-03-22T00:50:04Z</time></trkpt><trkpt lat="-37.516163920067" lon="144.29195689888934"><ele>638.0</ele><time>2026-03-22T00:50:06Z</time></trkpt><trkpt lat="-37.5162790327874" lon="144.2919818876863"><ele>638.0</ele><time>2026-03-22T00:50:08Z</time></trkpt><trkpt lat="-37.51639601033744" lon="144.29201638279912"><ele>638.0</ele><time>2026-03-22T00:50:10Z</time></trkpt><trkpt lat="-37.51649903955202" lon="144.2920900288349"><ele>637.1999999999999</ele><time>2026-03-22T00:50:12Z</time></trkpt><trkpt lat="-37.51657370158306" lon="144.29218310142303"><ele>636.4</ele><time>2026-03-22T00:50:14Z</time></trkpt><trkpt lat="-37.51661779459401" lon="144.2922550686011"><ele>635.5999999999999</ele><time>2026-03-22T00:50:15Z</time></trkpt><trkpt lat="-37.516698097199416" lon="144.29235421203035"><ele>634.8</ele><time>2026-03-22T00:50:16Z</time></trkpt><trkpt lat="-37.51680931293601" lon="144.29245537184408"><ele>634.0</ele><time>2026-03-22T00:50:17Z</time></trkpt><trkpt lat="-37.51691300268696" lon="144.2925043065438"><ele>634.0</ele><time>2026-03-22T00:50:18Z</time></trkpt><trkpt lat="-37.51702225744211" lon="144.29253273443973"><ele>634.0</ele><time>2026-03-22T00:50:19Z</time></trkpt><trkpt lat="-37.51715939681267" lon="144.2925634668789"><ele>634.0</ele><time>2026-03-22T00:50:20Z</time></trkpt><trkpt lat="-37.5172790883218" lon="144.29260158560322"><ele>634.0</ele><time>2026-03-22T00:50:21Z</time></trkpt><trkpt lat="-37.51740338046802" lon="144.29268998094912"><ele>633.25</ele><time>2026-03-22T00:50:22Z</time></trkpt><trkpt lat="-37.517502863124555" lon="144.29279147198832"><ele>632.5</ele><time>2026-03-22T00:50:23Z</time></trkpt><trkpt lat="-37.517562915300346" lon="144.29292420979377"><ele>631.75</ele><time>2026-03-22T00:50:24Z</time></trkpt><trkpt lat="-37.51761300793863" lon="144.29307054192887"><ele>631.0</ele><time>2026-03-22T00:50:25Z</time></trkpt><trkpt lat="-37.51763008934795" lon="144.29317023237346"><ele>631.2</ele><time>2026-03-22T00:50:26Z</time></trkpt><trkpt lat="-37.51766660333616" lon="144.29324802167855"><ele>631.4000000000001</ele><time>2026-03-22T00:50:27Z</time></trkpt><trkpt lat="-37.51777664281867" lon="144.29332898829017"><ele>631.6</ele><time>2026-03-22T00:50:29Z</time></trkpt><trkpt lat="-37.51787230615319" lon="144.29333828294637"><ele>631.8000000000001</ele><time>2026-03-22T00:50:30Z</time></trkpt><trkpt lat="-37.51799398251445" lon="144.2933440901155"><ele>632.0</ele><time>2026-03-22T00:50:31Z</time></trkpt><trkpt lat="-37.518110142456706" lon="144.29340014255735"><ele>632.0</ele><time>2026-03-22T00:50:32Z</time></trkpt><trkpt lat="-37.51823283062226" lon="144.29346892203887"><ele>632.0</ele><time>2026-03-22T00:50:33Z</time></trkpt><trkpt lat="-37.51835775137327" lon="144.2934906671951"><ele>632.0</ele><time>2026-03-22T00:50:34Z</time></trkpt><trkpt lat="-37.51849644733116" lon="144.2934763863772"><ele>632.0</ele><time>2026-03-22T00:50:35Z</time></trkpt><trkpt lat="-37.518651825808966" lon="144.29344296424915"><ele>630.0</ele><time>2026-03-22T00:50:36Z</time></trkpt><trkpt lat="-37.51878778353797" lon="144.29339737086502"><ele>628.0</ele><time>2026-03-22T00:50:37Z</time></trkpt><trkpt lat="-37.51889955937019" lon="144.2933904764124"><ele>626.0</ele><time>2026-03-22T00:50:38Z</time></trkpt><trkpt lat="-37.51899311508675" lon="144.29342311150853"><ele>624.0</ele><time>2026-03-22T00:50:39Z</time></trkpt><trkpt lat="-37.5190981440269" lon="144.2934634034104"><ele>624.0</ele><time>2026-03-22T00:50:40Z</time></trkpt><trkpt lat="-37.51921031233407" lon="144.29350524612454"><ele>624.0</ele><time>2026-03-22T00:50:41Z</time></trkpt><trkpt lat="-37.519304328897746" lon="144.29355154956986"><ele>624.0</ele><time>2026-03-22T00:50:42Z</time></trkpt><trkpt lat="-37.5194035887986" lon="144.29359838273754"><ele>624.0</ele><time>2026-03-22T00:50:43Z</time></trkpt><trkpt lat="-37.5194877684529" lon="144.29365236950454"><ele>624.0</ele><time>2026-03-22T00:50:44Z</time></trkpt><trkpt lat="-37.51956958998364" lon="144.29371214432484"><ele>623.0</ele><time>2026-03-22T00:50:45Z</time></trkpt><trkpt lat="-37.51963851246403" lon="144.29374340300726"><ele>622.0</ele><time>2026-03-22T00:50:46Z</time></trkpt><trkpt lat="-37.519723813559395" lon="144.29370998371758"><ele>621.0</ele><time>2026-03-22T00:50:49Z</time></trkpt><trkpt lat="-37.51980544922235" lon="144.29367190461656"><ele>620.0</ele><time>2026-03-22T00:50:50Z</time></trkpt><trkpt lat="-37.51991620953061" lon="144.2936388876371"><ele>619.0</ele><time>2026-03-22T00:50:51Z</time></trkpt><trkpt lat="-37.52001472363927" lon="144.29359758058987"><ele>619.0</ele><time>2026-03-22T00:50:52Z</time></trkpt><trkpt lat="-37.52010742862449" lon="144.29356587387457"><ele>619.0</ele><time>2026-03-22T00:50:53Z</time></trkpt><trkpt lat="-37.520229375891226" lon="144.29354149583244"><ele>619.0</ele><time>2026-03-22T00:50:54Z</time></trkpt><trkpt lat="-37.52033170061138" lon="144.29351824824818"><ele>619.0</ele><time>2026-03-22T00:50:55Z</time></trkpt><trkpt lat="-37.520440358807114" lon="144.29349230507813"><ele>619.0</ele><time>2026-03-22T00:50:56Z</time></trkpt><trkpt lat="-37.520554699111166" lon="144.29348479292156"><ele>618.4</ele><time>2026-03-22T00:50:57Z</time></trkpt><trkpt lat="-37.520662209876654" lon="144.2934755979041"><ele>617.8</ele><time>2026-03-22T00:50:58Z</time></trkpt><trkpt lat="-37.520753867102265" lon="144.29344314575647"><ele>617.2</ele><time>2026-03-22T00:50:59Z</time></trkpt><trkpt lat="-37.52083317306875" lon="144.29338204438912"><ele>616.6</ele><time>2026-03-22T00:51:00Z</time></trkpt><trkpt lat="-37.52090821949168" lon="144.2932787163095"><ele>616.0</ele><time>2026-03-22T00:51:01Z</time></trkpt><trkpt lat="-37.520978739113865" lon="144.29314965384424"><ele>615.0</ele><time>2026-03-22T00:51:02Z</time></trkpt><trkpt lat="-37.52103322232846" lon="144.293006629359"><ele>614.0</ele><time>2026-03-22T00:51:03Z</time></trkpt><trkpt lat="-37.52109614666905" lon="144.29284100259216"><ele>613.0</ele><time>2026-03-22T00:51:04Z</time></trkpt><trkpt lat="-37.52117639107459" lon="144.29267252944055"><ele>612.0</ele><time>2026-03-22T00:51:05Z</time></trkpt><trkpt lat="-37.521244300342005" lon="144.2925298559473"><ele>612.0</ele><time>2026-03-22T00:51:06Z</time></trkpt><trkpt lat="-37.5212900775414" lon="144.29240462314743"><ele>612.0</ele><time>2026-03-22T00:51:07Z</time></trkpt><trkpt lat="-37.521342273108274" lon="144.2922562092421"><ele>612.0</ele><time>2026-03-22T00:51:08Z</time></trkpt><trkpt lat="-37.52140156081472" lon="144.29211853247298"><ele>612.0</ele><time>2026-03-22T00:51:09Z</time></trkpt><trkpt lat="-37.52144919399464" lon="144.29198421421057"><ele>611.0</ele><time>2026-03-22T00:51:10Z</time></trkpt><trkpt lat="-37.521502927121425" lon="144.29183267324024"><ele>610.0</ele><time>2026-03-22T00:51:11Z</time></trkpt><trkpt lat="-37.521553349672466" lon="144.29164904740827"><ele>609.0</ele><time>2026-03-22T00:51:12Z</time></trkpt><trkpt lat="-37.52159619300535" lon="144.29147258024508"><ele>608.0</ele><time>2026-03-22T00:51:13Z</time></trkpt><trkpt lat="-37.521640317114986" lon="144.29132599240077"><ele>607.4</ele><time>2026-03-22T00:51:14Z</time></trkpt><trkpt lat="-37.5217002933032" lon="144.29119375167792"><ele>606.8</ele><time>2026-03-22T00:51:15Z</time></trkpt><trkpt lat="-37.521745405563415" lon="144.29106735455028"><ele>606.2</ele><time>2026-03-22T00:51:16Z</time></trkpt><trkpt lat="-37.52178814301683" lon="144.29094916909025"><ele>605.6</ele><time>2026-03-22T00:51:17Z</time></trkpt><trkpt lat="-37.52186447603947" lon="144.29087490871638"><ele>605.0</ele><time>2026-03-22T00:51:18Z</time></trkpt><trkpt lat="-37.5219578660961" lon="144.29080809939654"><ele>605.0</ele><time>2026-03-22T00:51:19Z</time></trkpt><trkpt lat="-37.52205573369377" lon="144.29074712281184"><ele>605.0</ele><time>2026-03-22T00:51:20Z</time></trkpt><trkpt lat="-37.522149438454946" lon="144.29069790912598"><ele>605.0</ele><time>2026-03-22T00:51:21Z</time></trkpt><trkpt lat="-37.52223502150556" lon="144.29064579087873"><ele>605.0</ele><time>2026-03-22T00:51:22Z</time></trkpt><trkpt lat="-37.522321253669624" lon="144.29056085040577"><ele>605.0</ele><time>2026-03-22T00:51:23Z</time></trkpt><trkpt lat="-37.52238927742794" lon="144.2904559523718"><ele>604.4</ele><time>2026-03-22T00:51:24Z</time></trkpt><trkpt lat="-37.52247424713804" lon="144.2903507992049"><ele>603.8</ele><time>2026-03-22T00:51:25Z</time></trkpt><trkpt lat="-37.52253999148496" lon="144.29025084603384"><ele>603.2</ele><time>2026-03-22T00:51:26Z</time></trkpt><trkpt lat="-37.522617988918114" lon="144.29016109033125"><ele>602.6</ele><time>2026-03-22T00:51:27Z</time></trkpt><trkpt lat="-37.52272148579505" lon="144.2901106205975"><ele>602.0</ele><time>2026-03-22T00:51:28Z</time></trkpt><trkpt lat="-37.52284721805718" lon="144.29005273767902"><ele>602.0</ele><time>2026-03-22T00:51:29Z</time></trkpt><trkpt lat="-37.522993740034025" lon="144.2899877655908"><ele>602.0</ele><time>2026-03-22T00:51:30Z</time></trkpt><trkpt lat="-37.523163938911004" lon="144.2899373819874"><ele>602.0</ele><time>2026-03-22T00:51:31Z</time></trkpt><trkpt lat="-37.523334836030635" lon="144.28989796722647"><ele>602.0</ele><time>2026-03-22T00:51:32Z</time></trkpt><trkpt lat="-37.52346220198265" lon="144.2898666890639"><ele>602.0</ele><time>2026-03-22T00:51:33Z</time></trkpt><trkpt lat="-37.523575255224394" lon="144.28981722896472"><ele>602.0</ele><time>2026-03-22T00:51:34Z</time></trkpt><trkpt lat="-37.52369943904648" lon="144.28974934439046"><ele>602.0</ele><time>2026-03-22T00:51:35Z</time></trkpt><trkpt lat="-37.523829444970865" lon="144.2896778474267"><ele>600.5</ele><time>2026-03-22T00:51:36Z</time></trkpt><trkpt lat="-37.52395131751561" lon="144.28960204331446"><ele>599.0</ele><time>2026-03-22T00:51:37Z</time></trkpt><trkpt lat="-37.52406048546343" lon="144.28953025555177"><ele>597.5</ele><time>2026-03-22T00:51:38Z</time></trkpt><trkpt lat="-37.52417660695858" lon="144.28947398297603"><ele>596.0</ele><time>2026-03-22T00:51:39Z</time></trkpt><trkpt lat="-37.52428332491607" lon="144.2894406881747"><ele>596.0</ele><time>2026-03-22T00:51:40Z</time></trkpt><trkpt lat="-37.524384380559" lon="144.28943595860827"><ele>596.0</ele><time>2026-03-22T00:51:41Z</time></trkpt><trkpt lat="-37.52447712389932" lon="144.28946773449618"><ele>596.0</ele><time>2026-03-22T00:51:42Z</time></trkpt><trkpt lat="-37.52457968652203" lon="144.28953511445408"><ele>596.0</ele><time>2026-03-22T00:51:43Z</time></trkpt><trkpt lat="-37.52469560863823" lon="144.2896096794843"><ele>596.0</ele><time>2026-03-22T00:51:44Z</time></trkpt><trkpt lat="-37.52483983993796" lon="144.28970498294913"><ele>595.5</ele><time>2026-03-22T00:51:45Z</time></trkpt><trkpt lat="-37.52496032774972" lon="144.2897827423032"><ele>595.0</ele><time>2026-03-22T00:51:46Z</time></trkpt><trkpt lat="-37.525066355303764" lon="144.28988931277175"><ele>594.5</ele><time>2026-03-22T00:51:47Z</time></trkpt><trkpt lat="-37.52514616991131" lon="144.2900097713368"><ele>594.0</ele><time>2026-03-22T00:51:48Z</time></trkpt><trkpt lat="-37.52520162285623" lon="144.29013668154553"><ele>594.0</ele><time>2026-03-22T00:51:49Z</time></trkpt><trkpt lat="-37.5252643764339" lon="144.2902519143161"><ele>594.0</ele><time>2026-03-22T00:51:50Z</time></trkpt><trkpt lat="-37.52534709700469" lon="144.2903475244719"><ele>594.0</ele><time>2026-03-22T00:51:51Z</time></trkpt><trkpt lat="-37.52545655592734" lon="144.2904231832149"><ele>594.0</ele><time>2026-03-22T00:51:52Z</time></trkpt><trkpt lat="-37.52556695579224" lon="144.29048215782277"><ele>592.5</ele><time>2026-03-22T00:51:53Z</time></trkpt><trkpt lat="-37.52569721570284" lon="144.29052844978509"><ele>591.0</ele><time>2026-03-22T00:51:54Z</time></trkpt><trkpt lat="-37.5258413279865" lon="144.29056421409115"><ele>589.5</ele><time>2026-03-22T00:51:55Z</time></trkpt><trkpt lat="-37.52599135171166" lon="144.29060104581154"><ele>588.0</ele><time>2026-03-22T00:51:56Z</time></trkpt><trkpt lat="-37.52615273617551" lon="144.29063350730928"><ele>588.25</ele><time>2026-03-22T00:51:57Z</time></trkpt><trkpt lat="-37.526282032061914" lon="144.29067059548112"><ele>588.5</ele><time>2026-03-22T00:51:58Z</time></trkpt><trkpt lat="-37.52640480227194" lon="144.2907156196134"><ele>588.75</ele><time>2026-03-22T00:51:59Z</time></trkpt><trkpt lat="-37.526525433859106" lon="144.29075708925993"><ele>589.0</ele><time>2026-03-22T00:52:00Z</time></trkpt><trkpt lat="-37.526631379823016" lon="144.2907739005381"><ele>589.0</ele><time>2026-03-22T00:52:01Z</time></trkpt><trkpt lat="-37.52675064238257" lon="144.29077582508046"><ele>589.0</ele><time>2026-03-22T00:52:02Z</time></trkpt><trkpt lat="-37.52690391653058" lon="144.29076877843553"><ele>589.0</ele><time>2026-03-22T00:52:03Z</time></trkpt><trkpt lat="-37.52704081924698" lon="144.29076510224988"><ele>589.0</ele><time>2026-03-22T00:52:04Z</time></trkpt><trkpt lat="-37.52717658514147" lon="144.29077415562156"><ele>589.0</ele><time>2026-03-22T00:52:05Z</time></trkpt><trkpt lat="-37.52731658665984" lon="144.29081436737775"><ele>589.0</ele><time>2026-03-22T00:52:06Z</time></trkpt><trkpt lat="-37.52745938485888" lon="144.29086610808716"><ele>589.0</ele><time>2026-03-22T00:52:07Z</time></trkpt><trkpt lat="-37.52757243609627" lon="144.29089712404905"><ele>589.0</ele><time>2026-03-22T00:52:08Z</time></trkpt><trkpt lat="-37.52769010258933" lon="144.29094403595127"><ele>589.0</ele><time>2026-03-22T00:52:09Z</time></trkpt><trkpt lat="-37.5277907494866" lon="144.29096028357282"><ele>589.0</ele><time>2026-03-22T00:52:10Z</time></trkpt><trkpt lat="-37.52791857018823" lon="144.2909218718698"><ele>589.0</ele><time>2026-03-22T00:52:11Z</time></trkpt><trkpt lat="-37.52805869072198" lon="144.2908607306385"><ele>589.0</ele><time>2026-03-22T00:52:12Z</time></trkpt><trkpt lat="-37.528188043725535" lon="144.29079564375309"><ele>588.4</ele><time>2026-03-22T00:52:13Z</time></trkpt><trkpt lat="-37.52830901280067" lon="144.29077775826266"><ele>587.8</ele><time>2026-03-22T00:52:14Z</time></trkpt><trkpt lat="-37.52842542556875" lon="144.2908082114778"><ele>587.2</ele><time>2026-03-22T00:52:15Z</time></trkpt><trkpt lat="-37.528530603150124" lon="144.29083086276378"><ele>586.6</ele><time>2026-03-22T00:52:16Z</time></trkpt><trkpt lat="-37.52860578031496" lon="144.2908382073353"><ele>586.0</ele><time>2026-03-22T00:52:17Z</time></trkpt><trkpt lat="-37.528695140071825" lon="144.2909399479052"><ele>584.2</ele><time>2026-03-22T00:52:19Z</time></trkpt><trkpt lat="-37.52874149929636" lon="144.29105547776376"><ele>582.4000000000001</ele><time>2026-03-22T00:52:37Z</time></trkpt><trkpt lat="-37.52877307224833" lon="144.2911382342618"><ele>580.6</ele><time>2026-03-22T00:52:38Z</time></trkpt><trkpt lat="-37.528800351627225" lon="144.29123843183817"><ele>578.8000000000001</ele><time>2026-03-22T00:52:39Z</time></trkpt><trkpt lat="-37.528818311627575" lon="144.29136447630884"><ele>577.0</ele><time>2026-03-22T00:52:40Z</time></trkpt><trkpt lat="-37.52883076823615" lon="144.29148987705565"><ele>575.1666666666667</ele><time>2026-03-22T00:52:41Z</time></trkpt><trkpt lat="-37.52882871381666" lon="144.29160002727843"><ele>573.3333333333334</ele><time>2026-03-22T00:52:42Z</time></trkpt><trkpt lat="-37.52882755425862" lon="144.29168998812966"><ele>571.5</ele><time>2026-03-22T00:52:43Z</time></trkpt><trkpt lat="-37.52884937042606" lon="144.29177561960788"><ele>569.6666666666666</ele><time>2026-03-22T00:52:44Z</time></trkpt><trkpt lat="-37.52886207472995" lon="144.29186815985526"><ele>567.8333333333333</ele><time>2026-03-22T00:52:45Z</time></trkpt><trkpt lat="-37.52886167856822" lon="144.29195401209319"><ele>566.0</ele><time>2026-03-22T00:52:46Z</time></trkpt><trkpt lat="-37.52884841949106" lon="144.29209583785968"><ele>566.0</ele><time>2026-03-22T00:52:48Z</time></trkpt><trkpt lat="-37.52887301506002" lon="144.29217981166528"><ele>566.0</ele><time>2026-03-22T00:52:49Z</time></trkpt><trkpt lat="-37.5289205014846" lon="144.29228208402267"><ele>566.0</ele><time>2026-03-22T00:52:50Z</time></trkpt><trkpt lat="-37.52894107054072" lon="144.2923791518919"><ele>566.0</ele><time>2026-03-22T00:52:51Z</time></trkpt><trkpt lat="-37.52893455503243" lon="144.29253860923305"><ele>566.0</ele><time>2026-03-22T00:52:53Z</time></trkpt><trkpt lat="-37.52897387419551" lon="144.29265366609255"><ele>563.5</ele><time>2026-03-22T00:52:55Z</time></trkpt><trkpt lat="-37.52898763707924" lon="144.2928108026977"><ele>561.0</ele><time>2026-03-22T00:52:56Z</time></trkpt><trkpt lat="-37.52901694471266" lon="144.29289782053678"><ele>558.5</ele><time>2026-03-22T00:52:57Z</time></trkpt><trkpt lat="-37.52906709143527" lon="144.29296982757506"><ele>556.0</ele><time>2026-03-22T00:52:58Z</time></trkpt><trkpt lat="-37.529128386212776" lon="144.2930337436547"><ele>553.5</ele><time>2026-03-22T00:52:59Z</time></trkpt><trkpt lat="-37.52918059200644" lon="144.29310939944332"><ele>551.0</ele><time>2026-03-22T00:53:00Z</time></trkpt><trkpt lat="-37.52923684356943" lon="144.2931799796433"><ele>549.0</ele><time>2026-03-22T00:53:01Z</time></trkpt><trkpt lat="-37.52929717412219" lon="144.29323715840252"><ele>547.0</ele><time>2026-03-22T00:53:02Z</time></trkpt><trkpt lat="-37.529354398993455" lon="144.2932909615354"><ele>545.0</ele><time>2026-03-22T00:53:03Z</time></trkpt><trkpt lat="-37.52943230343828" lon="144.29332205609398"><ele>543.0</ele><time>2026-03-22T00:53:04Z</time></trkpt><trkpt lat="-37.52951608419333" lon="144.29334303696461"><ele>541.0</ele><time>2026-03-22T00:53:05Z</time></trkpt><trkpt lat="-37.52959884708669" lon="144.29337040837135"><ele>539.0</ele><time>2026-03-22T00:53:06Z</time></trkpt><trkpt lat="-37.52966515892691" lon="144.29342347124415"><ele>538.5</ele><time>2026-03-22T00:53:07Z</time></trkpt><trkpt lat="-37.529731080923874" lon="144.2934545431478"><ele>538.0</ele><time>2026-03-22T00:53:08Z</time></trkpt><trkpt lat="-37.529824516252326" lon="144.29334688797465"><ele>537.5</ele><time>2026-03-22T00:53:10Z</time></trkpt><trkpt lat="-37.529836594687175" lon="144.29325092091256"><ele>537.0</ele><time>2026-03-22T00:53:11Z</time></trkpt><trkpt lat="-37.529819391666486" lon="144.29314669163776"><ele>536.5</ele><time>2026-03-22T00:53:12Z</time></trkpt><trkpt lat="-37.529803417104944" lon="144.29305033401712"><ele>536.0</ele><time>2026-03-22T00:53:13Z</time></trkpt><trkpt lat="-37.52978950219409" lon="144.29295901157008"><ele>536.0</ele><time>2026-03-22T00:53:14Z</time></trkpt><trkpt lat="-37.529773041992286" lon="144.29286988933666"><ele>536.0</ele><time>2026-03-22T00:53:15Z</time></trkpt><trkpt lat="-37.52976277942263" lon="144.2927125195866"><ele>536.0</ele><time>2026-03-22T00:53:17Z</time></trkpt><trkpt lat="-37.5297583996702" lon="144.29262016630994"><ele>536.0</ele><time>2026-03-22T00:53:18Z</time></trkpt><trkpt lat="-37.52977500568053" lon="144.29248398906995"><ele>536.0</ele><time>2026-03-22T00:53:20Z</time></trkpt><trkpt lat="-37.52987102817902" lon="144.2924330019296"><ele>536.0</ele><time>2026-03-22T00:53:22Z</time></trkpt><trkpt lat="-37.529977063562484" lon="144.29247683173134"><ele>536.0</ele><time>2026-03-22T00:53:24Z</time></trkpt><trkpt lat="-37.53004593614241" lon="144.29259929367527"><ele>536.0</ele><time>2026-03-22T00:53:26Z</time></trkpt><trkpt lat="-37.53007816323943" lon="144.29269848787737"><ele>536.0</ele><time>2026-03-22T00:53:28Z</time></trkpt><trkpt lat="-37.53015118448503" lon="144.2927456056911"><ele>536.0</ele><time>2026-03-22T00:53:30Z</time></trkpt><trkpt lat="-37.53023330622015" lon="144.29272929994818"><ele>536.0</ele><time>2026-03-22T00:53:32Z</time></trkpt><trkpt lat="-37.530352378401794" lon="144.292676513007"><ele>536.0</ele><time>2026-03-22T00:53:34Z</time></trkpt><trkpt lat="-37.530429611404756" lon="144.29274769703542"><ele>536.0</ele><time>2026-03-22T00:53:36Z</time></trkpt><trkpt lat="-37.5304758065538" lon="144.29289373276364"><ele>536.0</ele><time>2026-03-22T00:53:38Z</time></trkpt><trkpt lat="-37.530519906923445" lon="144.29300111770485"><ele>536.0</ele><time>2026-03-22T00:53:39Z</time></trkpt><trkpt lat="-37.530537718882954" lon="144.29310929106933"><ele>539.2</ele><time>2026-03-22T00:53:40Z</time></trkpt><trkpt lat="-37.53056059134403" lon="144.2932227733106"><ele>542.4000000000001</ele><time>2026-03-22T00:53:41Z</time></trkpt><trkpt lat="-37.53058221113171" lon="144.29334807796502"><ele>545.6</ele><time>2026-03-22T00:53:42Z</time></trkpt><trkpt lat="-37.53060469351763" lon="144.2934807589688"><ele>548.8000000000001</ele><time>2026-03-22T00:53:43Z</time></trkpt><trkpt lat="-37.530640760666806" lon="144.2936200386147"><ele>552.0</ele><time>2026-03-22T00:53:44Z</time></trkpt><trkpt lat="-37.530701940645855" lon="144.29372002305624"><ele>552.0</ele><time>2026-03-22T00:53:45Z</time></trkpt><trkpt lat="-37.5307812857059" lon="144.29382376353766"><ele>552.0</ele><time>2026-03-22T00:53:46Z</time></trkpt><trkpt lat="-37.530869161984114" lon="144.2939458455935"><ele>552.0</ele><time>2026-03-22T00:53:47Z</time></trkpt><trkpt lat="-37.530952531681585" lon="144.29408330015534"><ele>552.0</ele><time>2026-03-22T00:53:48Z</time></trkpt><trkpt lat="-37.531036416041" lon="144.2942240762877"><ele>553.4</ele><time>2026-03-22T00:53:49Z</time></trkpt><trkpt lat="-37.53109863023377" lon="144.29435259030552"><ele>554.8000000000001</ele><time>2026-03-22T00:53:50Z</time></trkpt><trkpt lat="-37.5311563155679" lon="144.29443532808634"><ele>556.2</ele><time>2026-03-22T00:53:51Z</time></trkpt><trkpt lat="-37.53113536079725" lon="144.2945949799776"><ele>557.6</ele><time>2026-03-22T00:53:53Z</time></trkpt><trkpt lat="-37.5311295699264" lon="144.29470219307348"><ele>559.0</ele><time>2026-03-22T00:53:54Z</time></trkpt><trkpt lat="-37.53114394920758" lon="144.2948353545204"><ele>560.25</ele><time>2026-03-22T00:53:55Z</time></trkpt><trkpt lat="-37.53118315666512" lon="144.29500692659082"><ele>561.5</ele><time>2026-03-22T00:53:56Z</time></trkpt><trkpt lat="-37.53117855558844" lon="144.2951573267455"><ele>562.75</ele><time>2026-03-22T00:53:57Z</time></trkpt><trkpt lat="-37.53114740766719" lon="144.29528697027942"><ele>564.0</ele><time>2026-03-22T00:53:58Z</time></trkpt><trkpt lat="-37.53110226528366" lon="144.29540934269534"><ele>564.0</ele><time>2026-03-22T00:53:59Z</time></trkpt><trkpt lat="-37.53102199270778" lon="144.29552365394824"><ele>564.0</ele><time>2026-03-22T00:54:00Z</time></trkpt><trkpt lat="-37.53097471016787" lon="144.29561984998062"><ele>564.0</ele><time>2026-03-22T00:54:01Z</time></trkpt><trkpt lat="-37.530960143301456" lon="144.29571791708844"><ele>564.0</ele><time>2026-03-22T00:54:02Z</time></trkpt><trkpt lat="-37.53096282251102" lon="144.29584374323392"><ele>564.0</ele><time>2026-03-22T00:54:03Z</time></trkpt><trkpt lat="-37.53097688275818" lon="144.2959793397502"><ele>566.4</ele><time>2026-03-22T00:54:04Z</time></trkpt><trkpt lat="-37.53100977176009" lon="144.29609596482402"><ele>568.8</ele><time>2026-03-22T00:54:05Z</time></trkpt><trkpt lat="-37.53103826870039" lon="144.29625011977734"><ele>571.2</ele><time>2026-03-22T00:54:06Z</time></trkpt><trkpt lat="-37.531064122443325" lon="144.2963888301409"><ele>573.6</ele><time>2026-03-22T00:54:07Z</time></trkpt><trkpt lat="-37.53108287555858" lon="144.2965138323159"><ele>576.0</ele><time>2026-03-22T00:54:08Z</time></trkpt><trkpt lat="-37.531121689818185" lon="144.2966453911888"><ele>578.5</ele><time>2026-03-22T00:54:09Z</time></trkpt><trkpt lat="-37.53117241105189" lon="144.29678069406557"><ele>581.0</ele><time>2026-03-22T00:54:10Z</time></trkpt><trkpt lat="-37.53123673836997" lon="144.29689899084127"><ele>583.5</ele><time>2026-03-22T00:54:11Z</time></trkpt><trkpt lat="-37.53128837713755" lon="144.29702154170624"><ele>586.0</ele><time>2026-03-22T00:54:12Z</time></trkpt><trkpt lat="-37.531326979071224" lon="144.29716448019536"><ele>589.0</ele><time>2026-03-22T00:54:13Z</time></trkpt><trkpt lat="-37.531341985361905" lon="144.2973256743952"><ele>592.0</ele><time>2026-03-22T00:54:14Z</time></trkpt><trkpt lat="-37.531362039173366" lon="144.29746056540222"><ele>595.0</ele><time>2026-03-22T00:54:15Z</time></trkpt><trkpt lat="-37.53137259980474" lon="144.29761912757536"><ele>598.0</ele><time>2026-03-22T00:54:16Z</time></trkpt><trkpt lat="-37.53139460699444" lon="144.29775640578902"><ele>598.0</ele><time>2026-03-22T00:54:17Z</time></trkpt><trkpt lat="-37.53142794531732" lon="144.29792482621295"><ele>598.0</ele><time>2026-03-22T00:54:18Z</time></trkpt><trkpt lat="-37.53144764549754" lon="144.29802524852414"><ele>598.0</ele><time>2026-03-22T00:54:19Z</time></trkpt><trkpt lat="-37.53145793456305" lon="144.29815637997623"><ele>598.0</ele><time>2026-03-22T00:54:20Z</time></trkpt><trkpt lat="-37.53145247242556" lon="144.29831197628909"><ele>598.0</ele><time>2026-03-22T00:54:21Z</time></trkpt><trkpt lat="-37.531464790709464" lon="144.29849380854102"><ele>601.0</ele><time>2026-03-22T00:54:22Z</time></trkpt><trkpt lat="-37.531490773368304" lon="144.2986832438984"><ele>604.0</ele><time>2026-03-22T00:54:23Z</time></trkpt><trkpt lat="-37.53152628024325" lon="144.29888157730227"><ele>607.0</ele><time>2026-03-22T00:54:24Z</time></trkpt><trkpt lat="-37.53156481282766" lon="144.29904596146974"><ele>607.75</ele><time>2026-03-22T00:54:25Z</time></trkpt><trkpt lat="-37.53160398242962" lon="144.29919579052347"><ele>608.5</ele><time>2026-03-22T00:54:26Z</time></trkpt><trkpt lat="-37.53165050686873" lon="144.29936082474566"><ele>609.25</ele><time>2026-03-22T00:54:27Z</time></trkpt><trkpt lat="-37.53170085509869" lon="144.29950739924402"><ele>610.0</ele><time>2026-03-22T00:54:28Z</time></trkpt><trkpt lat="-37.53175028527497" lon="144.29961849809067"><ele>610.0</ele><time>2026-03-22T00:54:29Z</time></trkpt><trkpt lat="-37.531786085624844" lon="144.29972294379297"><ele>610.0</ele><time>2026-03-22T00:54:30Z</time></trkpt><trkpt lat="-37.53179425009322" lon="144.29983996426856"><ele>610.0</ele><time>2026-03-22T00:54:32Z</time></trkpt><trkpt lat="-37.53177121916189" lon="144.29997440672818"><ele>610.0</ele><time>2026-03-22T00:54:34Z</time></trkpt><trkpt lat="-37.53177664624665" lon="144.30007208634837"><ele>610.0</ele><time>2026-03-22T00:54:35Z</time></trkpt><trkpt lat="-37.53178585267913" lon="144.30017685806467"><ele>610.8333333333334</ele><time>2026-03-22T00:54:36Z</time></trkpt><trkpt lat="-37.53178936790502" lon="144.30028712729825"><ele>611.6666666666667</ele><time>2026-03-22T00:54:37Z</time></trkpt><trkpt lat="-37.53179311420657" lon="144.3003751555167"><ele>612.5</ele><time>2026-03-22T00:54:38Z</time></trkpt><trkpt lat="-37.531803329987" lon="144.3004794014025"><ele>613.3333333333334</ele><time>2026-03-22T00:54:39Z</time></trkpt><trkpt lat="-37.531803883699645" lon="144.30057744880568"><ele>614.1666666666666</ele><time>2026-03-22T00:54:40Z</time></trkpt><trkpt lat="-37.531807489091996" lon="144.30067008157644"><ele>615.0</ele><time>2026-03-22T00:54:41Z</time></trkpt><trkpt lat="-37.53185390918615" lon="144.30080657037496"><ele>616.8333333333334</ele><time>2026-03-22T00:54:42Z</time></trkpt><trkpt lat="-37.53188146398519" lon="144.30088712339528"><ele>618.6666666666666</ele><time>2026-03-22T00:54:43Z</time></trkpt><trkpt lat="-37.531932503869676" lon="144.30095658420336"><ele>620.5</ele><time>2026-03-22T00:54:44Z</time></trkpt><trkpt lat="-37.53201783722942" lon="144.30098883755963"><ele>622.3333333333333</ele><time>2026-03-22T00:54:45Z</time></trkpt><trkpt lat="-37.532062283216156" lon="144.30105600703104"><ele>624.1666666666666</ele><time>2026-03-22T00:54:46Z</time></trkpt><trkpt lat="-37.532082051501284" lon="144.3011522237547"><ele>626.0</ele><time>2026-03-22T00:54:47Z</time></trkpt><trkpt lat="-37.53208809988471" lon="144.301240874007"><ele>626.1666666666666</ele><time>2026-03-22T00:54:48Z</time></trkpt><trkpt lat="-37.53208565006068" lon="144.30135146163053"><ele>626.3333333333333</ele><time>2026-03-22T00:54:49Z</time></trkpt><trkpt lat="-37.53208371222729" lon="144.30144889513969"><ele>626.5</ele><time>2026-03-22T00:54:50Z</time></trkpt><trkpt lat="-37.5321463700015" lon="144.30152190890507"><ele>626.6666666666666</ele><time>2026-03-22T00:54:52Z</time></trkpt><trkpt lat="-37.53221524175472" lon="144.30150757298338"><ele>626.8333333333334</ele><time>2026-03-22T00:54:54Z</time></trkpt><trkpt lat="-37.532340598109904" lon="144.30150233533794"><ele>627.0</ele><time>2026-03-22T00:54:56Z</time></trkpt><trkpt lat="-37.532417191920494" lon="144.3015192968867"><ele>627.6666666666666</ele><time>2026-03-22T00:54:57Z</time></trkpt><trkpt lat="-37.53249595628806" lon="144.30159628126407"><ele>628.3333333333334</ele><time>2026-03-22T00:54:59Z</time></trkpt><trkpt lat="-37.532557090009" lon="144.30167212191012"><ele>629.0</ele><time>2026-03-22T00:55:01Z</time></trkpt><trkpt lat="-37.53263150302702" lon="144.30164160057151"><ele>629.6666666666667</ele><time>2026-03-22T00:55:03Z</time></trkpt><trkpt lat="-37.532694507095044" lon="144.3016106503857"><ele>630.3333333333334</ele><time>2026-03-22T00:55:04Z</time></trkpt><trkpt lat="-37.53276753819579" lon="144.30157063158987"><ele>631.0</ele><time>2026-03-22T00:55:05Z</time></trkpt><trkpt lat="-37.53284596712599" lon="144.30154805009715"><ele>630.6666666666667</ele><time>2026-03-22T00:55:06Z</time></trkpt><trkpt lat="-37.532925199334755" lon="144.3015599388531"><ele>630.3333333333334</ele><time>2026-03-22T00:55:07Z</time></trkpt><trkpt lat="-37.53303082162746" lon="144.30156568650995"><ele>630.0</ele><time>2026-03-22T00:55:08Z</time></trkpt><trkpt lat="-37.53313355844735" lon="144.30154916959484"><ele>629.6666666666666</ele><time>2026-03-22T00:55:09Z</time></trkpt><trkpt lat="-37.53322101799014" lon="144.30152854174779"><ele>629.3333333333333</ele><time>2026-03-22T00:55:10Z</time></trkpt><trkpt lat="-37.53328198364753" lon="144.30150200177636"><ele>629.0</ele><time>2026-03-22T00:55:11Z</time></trkpt><trkpt lat="-37.53339111986355" lon="144.3014807239277"><ele>627.6</ele><time>2026-03-22T00:55:13Z</time></trkpt><trkpt lat="-37.533487020349014" lon="144.30140517019572"><ele>626.2</ele><time>2026-03-22T00:55:14Z</time></trkpt><trkpt lat="-37.53359613567341" lon="144.30134743635628"><ele>624.8000000000001</ele><time>2026-03-22T00:55:15Z</time></trkpt><trkpt lat="-37.533690976923765" lon="144.30129299900608"><ele>623.4</ele><time>2026-03-22T00:55:16Z</time></trkpt><trkpt lat="-37.53377016808413" lon="144.3012493123964"><ele>622.0</ele><time>2026-03-22T00:55:17Z</time></trkpt><trkpt lat="-37.533862942001434" lon="144.30119010453296"><ele>621.8333333333334</ele><time>2026-03-22T00:55:18Z</time></trkpt><trkpt lat="-37.53394728407399" lon="144.3011194952364"><ele>621.6666666666667</ele><time>2026-03-22T00:55:19Z</time></trkpt><trkpt lat="-37.534022436868" lon="144.301056392727"><ele>621.5</ele><time>2026-03-22T00:55:20Z</time></trkpt><trkpt lat="-37.53410706675457" lon="144.30101672109552"><ele>621.3333333333334</ele><time>2026-03-22T00:55:21Z</time></trkpt><trkpt lat="-37.53418514444554" lon="144.30100032759344"><ele>621.1666666666666</ele><time>2026-03-22T00:55:22Z</time></trkpt><trkpt lat="-37.534242252082095" lon="144.30095073449206"><ele>621.0</ele><time>2026-03-22T00:55:23Z</time></trkpt><trkpt lat="-37.53431052263979" lon="144.30086939704347"><ele>621.0</ele><time>2026-03-22T00:55:24Z</time></trkpt><trkpt lat="-37.53438374137595" lon="144.3007976529585"><ele>621.0</ele><time>2026-03-22T00:55:25Z</time></trkpt><trkpt lat="-37.5344724277152" lon="144.30074641703922"><ele>621.0</ele><time>2026-03-22T00:55:26Z</time></trkpt><trkpt lat="-37.5345549845208" lon="144.3006862062124"><ele>621.0</ele><time>2026-03-22T00:55:27Z</time></trkpt><trkpt lat="-37.53463619107236" lon="144.30062576436754"><ele>621.0</ele><time>2026-03-22T00:55:28Z</time></trkpt><trkpt lat="-37.53468779793122" lon="144.30055232949135"><ele>620.2</ele><time>2026-03-22T00:55:29Z</time></trkpt><trkpt lat="-37.53475793697195" lon="144.30046304049753"><ele>619.4000000000001</ele><time>2026-03-22T00:55:30Z</time></trkpt><trkpt lat="-37.53483895482604" lon="144.3003827300418"><ele>618.6</ele><time>2026-03-22T00:55:31Z</time></trkpt><trkpt lat="-37.534943319189495" lon="144.30032384873687"><ele>617.8000000000001</ele><time>2026-03-22T00:55:32Z</time></trkpt><trkpt lat="-37.535039381882456" lon="144.30025124960696"><ele>617.0</ele><time>2026-03-22T00:55:33Z</time></trkpt><trkpt lat="-37.535119142111306" lon="144.30020314686325"><ele>617.0</ele><time>2026-03-22T00:55:34Z</time></trkpt><trkpt lat="-37.535199122518286" lon="144.3001732471902"><ele>617.0</ele><time>2026-03-22T00:55:35Z</time></trkpt><trkpt lat="-37.535279949597715" lon="144.30015125261048"><ele>617.0</ele><time>2026-03-22T00:55:36Z</time></trkpt><trkpt lat="-37.53538052493082" lon="144.3001442030466"><ele>617.0</ele><time>2026-03-22T00:55:37Z</time></trkpt><trkpt lat="-37.53546874809723" lon="144.30009448718653"><ele>617.0</ele><time>2026-03-22T00:55:38Z</time></trkpt><trkpt lat="-37.5355655880614" lon="144.30002254584406"><ele>616.4</ele><time>2026-03-22T00:55:39Z</time></trkpt><trkpt lat="-37.53569215810083" lon="144.2999601332283"><ele>615.8000000000001</ele><time>2026-03-22T00:55:40Z</time></trkpt><trkpt lat="-37.535788996108224" lon="144.29991981780972"><ele>615.2</ele><time>2026-03-22T00:55:41Z</time></trkpt><trkpt lat="-37.53584875658787" lon="144.2998865852292"><ele>614.6</ele><time>2026-03-22T00:55:42Z</time></trkpt><trkpt lat="-37.53591865294849" lon="144.29977547413117"><ele>614.0</ele><time>2026-03-22T00:55:44Z</time></trkpt><trkpt lat="-37.53595936548253" lon="144.2996771028168"><ele>614.0</ele><time>2026-03-22T00:55:46Z</time></trkpt><trkpt lat="-37.53602229408632" lon="144.2996495946101"><ele>614.0</ele><time>2026-03-22T00:55:47Z</time></trkpt><trkpt lat="-37.53611404611706" lon="144.29963150794543"><ele>614.0</ele><time>2026-03-22T00:55:48Z</time></trkpt><trkpt lat="-37.53620652641511" lon="144.29964863919042"><ele>614.0</ele><time>2026-03-22T00:55:49Z</time></trkpt><trkpt lat="-37.53629190553751" lon="144.29968506112795"><ele>614.0</ele><time>2026-03-22T00:55:50Z</time></trkpt><trkpt lat="-37.53638922511177" lon="144.29971138188213"><ele>614.0</ele><time>2026-03-22T00:55:51Z</time></trkpt><trkpt lat="-37.53646547599813" lon="144.29975063699888"><ele>614.3333333333333</ele><time>2026-03-22T00:55:52Z</time></trkpt><trkpt lat="-37.53655537827792" lon="144.29978073164182"><ele>614.6666666666666</ele><time>2026-03-22T00:55:53Z</time></trkpt><trkpt lat="-37.53663581500551" lon="144.29980858184186"><ele>615.0</ele><time>2026-03-22T00:55:54Z</time></trkpt><trkpt lat="-37.53671441366976" lon="144.2998231787857"><ele>615.3333333333334</ele><time>2026-03-22T00:55:55Z</time></trkpt><trkpt lat="-37.53681246064303" lon="144.2998407895702"><ele>615.6666666666667</ele><time>2026-03-22T00:55:56Z</time></trkpt><trkpt lat="-37.536902978408406" lon="144.299858135539"><ele>616.0</ele><time>2026-03-22T00:55:57Z</time></trkpt><trkpt lat="-37.53698423247942" lon="144.29987110355552"><ele>616.8</ele><time>2026-03-22T00:55:58Z</time></trkpt><trkpt lat="-37.53707847197187" lon="144.29987002828688"><ele>617.6</ele><time>2026-03-22T00:55:59Z</time></trkpt><trkpt lat="-37.53719048088966" lon="144.29988419108605"><ele>618.4</ele><time>2026-03-22T00:56:00Z</time></trkpt><trkpt lat="-37.53729037654271" lon="144.29991752610957"><ele>619.2</ele><time>2026-03-22T00:56:01Z</time></trkpt><trkpt lat="-37.5374013456998" lon="144.2999549640132"><ele>620.0</ele><time>2026-03-22T00:56:02Z</time></trkpt><trkpt lat="-37.537503137103634" lon="144.29997043818275"><ele>620.0</ele><time>2026-03-22T00:56:03Z</time></trkpt><trkpt lat="-37.53760862350095" lon="144.29997913088044"><ele>620.0</ele><time>2026-03-22T00:56:04Z</time></trkpt><trkpt lat="-37.537697284566086" lon="144.2999859471132"><ele>620.0</ele><time>2026-03-22T00:56:05Z</time></trkpt><trkpt lat="-37.537792042633185" lon="144.30000919139556"><ele>620.0</ele><time>2026-03-22T00:56:06Z</time></trkpt><trkpt lat="-37.537893439413786" lon="144.30006601503575"><ele>620.0</ele><time>2026-03-22T00:56:07Z</time></trkpt><trkpt lat="-37.53798789957124" lon="144.3001121259029"><ele>620.25</ele><time>2026-03-22T00:56:08Z</time></trkpt><trkpt lat="-37.538111390951514" lon="144.3001272882919"><ele>620.5</ele><time>2026-03-22T00:56:09Z</time></trkpt><trkpt lat="-37.5382375052121" lon="144.30014355178923"><ele>620.75</ele><time>2026-03-22T00:56:10Z</time></trkpt><trkpt lat="-37.53835433682416" lon="144.30015256160098"><ele>621.0</ele><time>2026-03-22T00:56:11Z</time></trkpt><trkpt lat="-37.53845381768465" lon="144.30017454257714"><ele>621.0</ele><time>2026-03-22T00:56:12Z</time></trkpt><trkpt lat="-37.53854043494548" lon="144.3001932230349"><ele>621.0</ele><time>2026-03-22T00:56:13Z</time></trkpt><trkpt lat="-37.53861716474072" lon="144.3002061486645"><ele>621.0</ele><time>2026-03-22T00:56:14Z</time></trkpt><trkpt lat="-37.53875132202481" lon="144.30014102293927"><ele>621.0</ele><time>2026-03-22T00:56:16.001Z</time></trkpt><trkpt lat="-37.53886033222971" lon="144.30012403868184"><ele>621.0</ele><time>2026-03-22T00:56:18.001Z</time></trkpt><trkpt lat="-37.53896341113615" lon="144.30013109176497"><ele>621.5</ele><time>2026-03-22T00:56:19.001Z</time></trkpt><trkpt lat="-37.539094892003874" lon="144.3001281242714"><ele>622.0</ele><time>2026-03-22T00:56:20.001Z</time></trkpt><trkpt lat="-37.53922153106465" lon="144.30012608337046"><ele>622.5</ele><time>2026-03-22T00:56:21.001Z</time></trkpt><trkpt lat="-37.53933036049253" lon="144.3001161985664"><ele>623.0</ele><time>2026-03-22T00:56:22.001Z</time></trkpt><trkpt lat="-37.53942498399238" lon="144.30010004739836"><ele>623.0</ele><time>2026-03-22T00:56:23.001Z</time></trkpt><trkpt lat="-37.53952825531859" lon="144.3000888198506"><ele>623.0</ele><time>2026-03-22T00:56:24.001Z</time></trkpt><trkpt lat="-37.53960553815878" lon="144.30006760212865"><ele>623.0</ele><time>2026-03-22T00:56:25.001Z</time></trkpt><trkpt lat="-37.5397282229996" lon="144.30003453351839"><ele>623.0</ele><time>2026-03-22T00:56:27.001Z</time></trkpt><trkpt lat="-37.53983978376444" lon="144.30002163506313"><ele>623.0</ele><time>2026-03-22T00:56:29.001Z</time></trkpt><trkpt lat="-37.53992719831363" lon="144.30000610448826"><ele>625.0</ele><time>2026-03-22T00:56:31.001Z</time></trkpt><trkpt lat="-37.53999771406792" lon="144.299998648721"><ele>625.0</ele><time>2026-03-22T00:56:33.001Z</time></trkpt><trkpt lat="-37.54005924802969" lon="144.30006575689174"><ele>625.0</ele><time>2026-03-22T00:56:35.001Z</time></trkpt><trkpt lat="-37.53999694759466" lon="144.30009378956254"><ele>625.0</ele><time>2026-03-22T00:56:39.001Z</time></trkpt></trkseg></trk></gpx>